<?xml version='1.0' encoding='UTF-8'?><gpx version="1.1" creator="JPX - https://github.com/jenetics/jpx" xmlns="http://www.topografix.com/GPX/1/1"><trk><trkseg><trkpt lat="38.8386395" lon="16.2624766"><ele>35.0</ele><time>2026-04-19T07:23:29.937Z</time></trkpt><trkpt lat="38.8387161" lon="16.2625132"><ele>35.0</ele><time>2026-04-19T07:23:32.943Z</time></trkpt><trkpt lat="38.8387966" lon="16.2625632"><ele>35.0</ele><time>2026-04-19T07:23:35.968Z</time></trkpt><trkpt lat="38.8388563" lon="16.2626065"><ele>35.0</ele><time>2026-04-19T07:23:38.947Z</time></trkpt><trkpt lat="38.8388573" lon="16.2626924"><ele>35.0</ele><time>2026-04-19T07:23:41.988Z</time></trkpt><trkpt lat="38.8388049" lon="16.2627694"><ele>35.0</ele><time>2026-04-19T07:23:44.948Z</time></trkpt><trkpt lat="38.8387527" lon="16.2628532"><ele>35.0</ele><time>2026-04-19T07:23:49.946Z</time></trkpt><trkpt lat="38.8387016" lon="16.2629195"><ele>35.0</ele><time>2026-04-19T07:23:52.95Z</time></trkpt><trkpt lat="38.838649" lon="16.2629843"><ele>35.0</ele><time>2026-04-19T07:24:01.948Z</time></trkpt><trkpt lat="38.838567" lon="16.2630917"><ele>35.0</ele><time>2026-04-19T07:24:08.94Z</time></trkpt><trkpt lat="38.83851" lon="16.2631668"><ele>35.0</ele><time>2026-04-19T07:24:09.957Z</time></trkpt><trkpt lat="38.8384563" lon="16.263241"><ele>35.0</ele><time>2026-04-19T07:24:10.956Z</time></trkpt><trkpt lat="38.8384146" lon="16.2633157"><ele>35.4</ele><time>2026-04-19T07:24:11.955Z</time></trkpt><trkpt lat="38.8383836" lon="16.2633908"><ele>35.8</ele><time>2026-04-19T07:24:12.949Z</time></trkpt><trkpt lat="38.8383438" lon="16.2635342"><ele>36.2</ele><time>2026-04-19T07:24:14.947Z</time></trkpt><trkpt lat="38.8383024" lon="16.2636889"><ele>36.6</ele><time>2026-04-19T07:24:16.953Z</time></trkpt><trkpt lat="38.8382805" lon="16.2637766"><ele>37.0</ele><time>2026-04-19T07:24:17.951Z</time></trkpt><trkpt lat="38.8382531" lon="16.2638877"><ele>37.4</ele><time>2026-04-19T07:24:18.948Z</time></trkpt><trkpt lat="38.8382231" lon="16.2640067"><ele>37.800000000000004</ele><time>2026-04-19T07:24:19.949Z</time></trkpt><trkpt lat="38.8381924" lon="16.2641299"><ele>38.2</ele><time>2026-04-19T07:24:20.951Z</time></trkpt><trkpt lat="38.8381629" lon="16.2642574"><ele>38.6</ele><time>2026-04-19T07:24:21.944Z</time></trkpt><trkpt lat="38.8381325" lon="16.264387"><ele>39.0</ele><time>2026-04-19T07:24:22.955Z</time></trkpt><trkpt lat="38.8381007" lon="16.264521"><ele>39.0</ele><time>2026-04-19T07:24:23.953Z</time></trkpt><trkpt lat="38.8380648" lon="16.2646703"><ele>39.0</ele><time>2026-04-19T07:24:24.959Z</time></trkpt><trkpt lat="38.8380211" lon="16.2648484"><ele>39.0</ele><time>2026-04-19T07:24:25.952Z</time></trkpt><trkpt lat="38.8379782" lon="16.2650256"><ele>39.0</ele><time>2026-04-19T07:24:26.953Z</time></trkpt><trkpt lat="38.8379383" lon="16.2651908"><ele>39.25</ele><time>2026-04-19T07:24:27.949Z</time></trkpt><trkpt lat="38.8379021" lon="16.2653494"><ele>39.5</ele><time>2026-04-19T07:24:28.955Z</time></trkpt><trkpt lat="38.8378681" lon="16.2654995"><ele>39.75</ele><time>2026-04-19T07:24:29.947Z</time></trkpt><trkpt lat="38.8378337" lon="16.2656468"><ele>40.0</ele><time>2026-04-19T07:24:30.964Z</time></trkpt><trkpt lat="38.8377946" lon="16.2657978"><ele>40.75</ele><time>2026-04-19T07:24:31.949Z</time></trkpt><trkpt lat="38.8377551" lon="16.265947"><ele>41.5</ele><time>2026-04-19T07:24:32.957Z</time></trkpt><trkpt lat="38.8377149" lon="16.2660957"><ele>42.25</ele><time>2026-04-19T07:24:33.949Z</time></trkpt><trkpt lat="38.8376734" lon="16.2662377"><ele>43.0</ele><time>2026-04-19T07:24:34.947Z</time></trkpt><trkpt lat="38.8376289" lon="16.2663778"><ele>43.5</ele><time>2026-04-19T07:24:35.953Z</time></trkpt><trkpt lat="38.8375791" lon="16.2665158"><ele>44.0</ele><time>2026-04-19T07:24:36.951Z</time></trkpt><trkpt lat="38.8375243" lon="16.266653"><ele>44.5</ele><time>2026-04-19T07:24:37.944Z</time></trkpt><trkpt lat="38.8374668" lon="16.2667947"><ele>45.0</ele><time>2026-04-19T07:24:38.949Z</time></trkpt><trkpt lat="38.8374066" lon="16.2669427"><ele>45.0</ele><time>2026-04-19T07:24:39.945Z</time></trkpt><trkpt lat="38.8373454" lon="16.2670907"><ele>45.0</ele><time>2026-04-19T07:24:40.948Z</time></trkpt><trkpt lat="38.8372821" lon="16.26724"><ele>45.0</ele><time>2026-04-19T07:24:41.941Z</time></trkpt><trkpt lat="38.8372186" lon="16.2673907"><ele>45.0</ele><time>2026-04-19T07:24:42.944Z</time></trkpt><trkpt lat="38.8371574" lon="16.2675423"><ele>45.75</ele><time>2026-04-19T07:24:43.953Z</time></trkpt><trkpt lat="38.8370982" lon="16.2676972"><ele>46.5</ele><time>2026-04-19T07:24:44.946Z</time></trkpt><trkpt lat="38.8370403" lon="16.2678527"><ele>47.25</ele><time>2026-04-19T07:24:45.947Z</time></trkpt><trkpt lat="38.8369869" lon="16.2680053"><ele>48.0</ele><time>2026-04-19T07:24:46.941Z</time></trkpt><trkpt lat="38.8369393" lon="16.2681529"><ele>48.0</ele><time>2026-04-19T07:24:47.962Z</time></trkpt><trkpt lat="38.8368959" lon="16.2682955"><ele>48.0</ele><time>2026-04-19T07:24:48.945Z</time></trkpt><trkpt lat="38.8368554" lon="16.2684337"><ele>48.0</ele><time>2026-04-19T07:24:49.96Z</time></trkpt><trkpt lat="38.8368175" lon="16.268569"><ele>48.0</ele><time>2026-04-19T07:24:50.951Z</time></trkpt><trkpt lat="38.8367821" lon="16.2687024"><ele>48.0</ele><time>2026-04-19T07:24:51.952Z</time></trkpt><trkpt lat="38.8367469" lon="16.2688336"><ele>48.0</ele><time>2026-04-19T07:24:52.946Z</time></trkpt><trkpt lat="38.8367052" lon="16.2689621"><ele>48.0</ele><time>2026-04-19T07:24:53.955Z</time></trkpt><trkpt lat="38.8366584" lon="16.2690895"><ele>48.0</ele><time>2026-04-19T07:24:54.953Z</time></trkpt><trkpt lat="38.83661" lon="16.2692185"><ele>48.0</ele><time>2026-04-19T07:24:55.951Z</time></trkpt><trkpt lat="38.8365586" lon="16.2693514"><ele>48.0</ele><time>2026-04-19T07:24:56.942Z</time></trkpt><trkpt lat="38.8365023" lon="16.2694938"><ele>48.0</ele><time>2026-04-19T07:24:57.954Z</time></trkpt><trkpt lat="38.8364423" lon="16.2696454"><ele>48.0</ele><time>2026-04-19T07:24:58.951Z</time></trkpt><trkpt lat="38.8363788" lon="16.2698022"><ele>48.0</ele><time>2026-04-19T07:24:59.957Z</time></trkpt><trkpt lat="38.8363139" lon="16.2699657"><ele>48.25</ele><time>2026-04-19T07:25:00.941Z</time></trkpt><trkpt lat="38.8362454" lon="16.2701325"><ele>48.5</ele><time>2026-04-19T07:25:01.962Z</time></trkpt><trkpt lat="38.8361717" lon="16.2702966"><ele>48.75</ele><time>2026-04-19T07:25:02.942Z</time></trkpt><trkpt lat="38.8360883" lon="16.2704577"><ele>49.0</ele><time>2026-04-19T07:25:03.975Z</time></trkpt><trkpt lat="38.8359855" lon="16.2706195"><ele>50.5</ele><time>2026-04-19T07:25:04.949Z</time></trkpt><trkpt lat="38.8358809" lon="16.270769"><ele>52.0</ele><time>2026-04-19T07:25:05.955Z</time></trkpt><trkpt lat="38.8357814" lon="16.2708977"><ele>53.5</ele><time>2026-04-19T07:25:06.948Z</time></trkpt><trkpt lat="38.8356878" lon="16.2710064"><ele>55.0</ele><time>2026-04-19T07:25:07.958Z</time></trkpt><trkpt lat="38.8356047" lon="16.2711004"><ele>55.0</ele><time>2026-04-19T07:25:08.945Z</time></trkpt><trkpt lat="38.8355309" lon="16.2711797"><ele>55.0</ele><time>2026-04-19T07:25:09.949Z</time></trkpt><trkpt lat="38.8354647" lon="16.271253"><ele>55.0</ele><time>2026-04-19T07:25:10.951Z</time></trkpt><trkpt lat="38.8354086" lon="16.2713179"><ele>55.0</ele><time>2026-04-19T07:25:11.952Z</time></trkpt><trkpt lat="38.8353692" lon="16.271451"><ele>55.0</ele><time>2026-04-19T07:25:13.949Z</time></trkpt><trkpt lat="38.8354403" lon="16.2715684"><ele>54.99999999999999</ele><time>2026-04-19T07:25:15.955Z</time></trkpt><trkpt lat="38.8355015" lon="16.271615"><ele>55.0</ele><time>2026-04-19T07:25:16.952Z</time></trkpt><trkpt lat="38.8355727" lon="16.2716518"><ele>55.0</ele><time>2026-04-19T07:25:17.956Z</time></trkpt><trkpt lat="38.8356413" lon="16.271688"><ele>55.0</ele><time>2026-04-19T07:25:18.954Z</time></trkpt><trkpt lat="38.8357235" lon="16.271691"><ele>54.99999999999999</ele><time>2026-04-19T07:25:19.948Z</time></trkpt><trkpt lat="38.8358047" lon="16.2716807"><ele>55.0</ele><time>2026-04-19T07:25:20.962Z</time></trkpt><trkpt lat="38.8358801" lon="16.2716766"><ele>54.99999999999999</ele><time>2026-04-19T07:25:21.952Z</time></trkpt><trkpt lat="38.8359521" lon="16.2716767"><ele>55.0</ele><time>2026-04-19T07:25:22.957Z</time></trkpt><trkpt lat="38.8360197" lon="16.2716853"><ele>55.0</ele><time>2026-04-19T07:25:23.945Z</time></trkpt><trkpt lat="38.8360851" lon="16.2717057"><ele>55.0</ele><time>2026-04-19T07:25:24.955Z</time></trkpt><trkpt lat="38.8361509" lon="16.2717504"><ele>55.0</ele><time>2026-04-19T07:25:25.949Z</time></trkpt><trkpt lat="38.8362117" lon="16.2717873"><ele>54.99999999999999</ele><time>2026-04-19T07:25:26.954Z</time></trkpt><trkpt lat="38.8362778" lon="16.2718756"><ele>55.0</ele><time>2026-04-19T07:25:28.96Z</time></trkpt><trkpt lat="38.8363335" lon="16.2719235"><ele>54.8</ele><time>2026-04-19T07:25:30.959Z</time></trkpt><trkpt lat="38.8363812" lon="16.2719786"><ele>54.6</ele><time>2026-04-19T07:25:31.958Z</time></trkpt><trkpt lat="38.8364421" lon="16.2720703"><ele>54.400000000000006</ele><time>2026-04-19T07:25:32.943Z</time></trkpt><trkpt lat="38.8365103" lon="16.2722021"><ele>54.2</ele><time>2026-04-19T07:25:33.945Z</time></trkpt><trkpt lat="38.8365826" lon="16.2723753"><ele>54.0</ele><time>2026-04-19T07:25:34.947Z</time></trkpt><trkpt lat="38.8366492" lon="16.2725571"><ele>54.0</ele><time>2026-04-19T07:25:35.947Z</time></trkpt><trkpt lat="38.8367128" lon="16.2727387"><ele>54.0</ele><time>2026-04-19T07:25:36.962Z</time></trkpt><trkpt lat="38.8367502" lon="16.2729629"><ele>54.0</ele><time>2026-04-19T07:25:37.948Z</time></trkpt><trkpt lat="38.8367965" lon="16.2732062"><ele>52.66666666666667</ele><time>2026-04-19T07:25:38.955Z</time></trkpt><trkpt lat="38.836847" lon="16.2734578"><ele>51.333333333333336</ele><time>2026-04-19T07:25:39.954Z</time></trkpt><trkpt lat="38.8369142" lon="16.2736977"><ele>50.0</ele><time>2026-04-19T07:25:40.953Z</time></trkpt><trkpt lat="38.8369697" lon="16.2739326"><ele>50.333333333333336</ele><time>2026-04-19T07:25:41.946Z</time></trkpt><trkpt lat="38.837042" lon="16.2741494"><ele>50.66666666666667</ele><time>2026-04-19T07:25:42.948Z</time></trkpt><trkpt lat="38.8371434" lon="16.274366"><ele>51.0</ele><time>2026-04-19T07:25:43.954Z</time></trkpt><trkpt lat="38.83724" lon="16.2745538"><ele>51.0</ele><time>2026-04-19T07:25:44.957Z</time></trkpt><trkpt lat="38.8373178" lon="16.2747"><ele>51.0</ele><time>2026-04-19T07:25:45.949Z</time></trkpt><trkpt lat="38.8373812" lon="16.2748233"><ele>51.0</ele><time>2026-04-19T07:25:46.956Z</time></trkpt><trkpt lat="38.8374334" lon="16.2749275"><ele>51.0</ele><time>2026-04-19T07:25:47.946Z</time></trkpt><trkpt lat="38.8374837" lon="16.2750187"><ele>51.0</ele><time>2026-04-19T07:25:48.947Z</time></trkpt><trkpt lat="38.837527" lon="16.275102"><ele>51.0</ele><time>2026-04-19T07:25:49.951Z</time></trkpt><trkpt lat="38.8375674" lon="16.275177"><ele>51.0</ele><time>2026-04-19T07:25:50.948Z</time></trkpt><trkpt lat="38.8376183" lon="16.2752707"><ele>51.0</ele><time>2026-04-19T07:25:52.954Z</time></trkpt><trkpt lat="38.8376632" lon="16.2753522"><ele>51.0</ele><time>2026-04-19T07:25:54.954Z</time></trkpt><trkpt lat="38.8377089" lon="16.2754393"><ele>51.0</ele><time>2026-04-19T07:25:56.956Z</time></trkpt><trkpt lat="38.8377661" lon="16.2755404"><ele>51.0</ele><time>2026-04-19T07:25:58.958Z</time></trkpt><trkpt lat="38.8378367" lon="16.2756649"><ele>51.42857142857143</ele><time>2026-04-19T07:26:00.953Z</time></trkpt><trkpt lat="38.8378732" lon="16.2757345"><ele>51.85714285714286</ele><time>2026-04-19T07:26:01.95Z</time></trkpt><trkpt lat="38.8379077" lon="16.275806"><ele>52.285714285714285</ele><time>2026-04-19T07:26:02.945Z</time></trkpt><trkpt lat="38.8379414" lon="16.2758791"><ele>52.714285714285715</ele><time>2026-04-19T07:26:03.944Z</time></trkpt><trkpt lat="38.837979" lon="16.2759571"><ele>53.14285714285714</ele><time>2026-04-19T07:26:04.949Z</time></trkpt><trkpt lat="38.8380207" lon="16.2760415"><ele>53.57142857142857</ele><time>2026-04-19T07:26:05.948Z</time></trkpt><trkpt lat="38.8380656" lon="16.2761342"><ele>54.0</ele><time>2026-04-19T07:26:06.951Z</time></trkpt><trkpt lat="38.8381109" lon="16.2762321"><ele>54.0</ele><time>2026-04-19T07:26:07.948Z</time></trkpt><trkpt lat="38.8381555" lon="16.276334"><ele>54.00000000000001</ele><time>2026-04-19T07:26:08.948Z</time></trkpt><trkpt lat="38.8382007" lon="16.2764395"><ele>54.00000000000001</ele><time>2026-04-19T07:26:09.95Z</time></trkpt><trkpt lat="38.8382448" lon="16.2765406"><ele>54.0</ele><time>2026-04-19T07:26:10.949Z</time></trkpt><trkpt lat="38.8382832" lon="16.2766254"><ele>54.0</ele><time>2026-04-19T07:26:11.944Z</time></trkpt><trkpt lat="38.8383468" lon="16.2767557"><ele>54.0</ele><time>2026-04-19T07:26:13.956Z</time></trkpt><trkpt lat="38.8384087" lon="16.2768904"><ele>54.00000000000001</ele><time>2026-04-19T07:26:15.948Z</time></trkpt><trkpt lat="38.8384418" lon="16.2769727"><ele>54.00000000000001</ele><time>2026-04-19T07:26:16.964Z</time></trkpt><trkpt lat="38.8384765" lon="16.2770668"><ele>54.0</ele><time>2026-04-19T07:26:17.95Z</time></trkpt><trkpt lat="38.8385124" lon="16.2771769"><ele>54.0</ele><time>2026-04-19T07:26:18.949Z</time></trkpt><trkpt lat="38.8385471" lon="16.2773015"><ele>54.2</ele><time>2026-04-19T07:26:19.948Z</time></trkpt><trkpt lat="38.8385808" lon="16.2774339"><ele>54.400000000000006</ele><time>2026-04-19T07:26:20.951Z</time></trkpt><trkpt lat="38.8386145" lon="16.2775687"><ele>54.6</ele><time>2026-04-19T07:26:21.964Z</time></trkpt><trkpt lat="38.8386498" lon="16.2777023"><ele>54.8</ele><time>2026-04-19T07:26:22.95Z</time></trkpt><trkpt lat="38.8386867" lon="16.2778264"><ele>55.0</ele><time>2026-04-19T07:26:23.961Z</time></trkpt><trkpt lat="38.8387281" lon="16.2779291"><ele>55.0</ele><time>2026-04-19T07:26:24.946Z</time></trkpt><trkpt lat="38.8387714" lon="16.2780181"><ele>55.0</ele><time>2026-04-19T07:26:25.958Z</time></trkpt><trkpt lat="38.8388155" lon="16.2781051"><ele>55.0</ele><time>2026-04-19T07:26:26.946Z</time></trkpt><trkpt lat="38.8388524" lon="16.2781822"><ele>55.0</ele><time>2026-04-19T07:26:27.954Z</time></trkpt><trkpt lat="38.8389433" lon="16.2783439"><ele>55.0</ele><time>2026-04-19T07:26:36.958Z</time></trkpt><trkpt lat="38.8389494" lon="16.2784349"><ele>54.8</ele><time>2026-04-19T07:26:39.952Z</time></trkpt><trkpt lat="38.8388824" lon="16.2785064"><ele>54.6</ele><time>2026-04-19T07:26:43.952Z</time></trkpt><trkpt lat="38.8388133" lon="16.2785849"><ele>54.400000000000006</ele><time>2026-04-19T07:26:46.946Z</time></trkpt><trkpt lat="38.8387551" lon="16.2786557"><ele>54.2</ele><time>2026-04-19T07:26:48.943Z</time></trkpt><trkpt lat="38.838684" lon="16.2787353"><ele>54.0</ele><time>2026-04-19T07:26:50.963Z</time></trkpt><trkpt lat="38.8386097" lon="16.2788224"><ele>54.0</ele><time>2026-04-19T07:26:52.95Z</time></trkpt><trkpt lat="38.8385321" lon="16.2789094"><ele>54.0</ele><time>2026-04-19T07:26:54.957Z</time></trkpt><trkpt lat="38.8384515" lon="16.2789979"><ele>54.0</ele><time>2026-04-19T07:26:56.957Z</time></trkpt><trkpt lat="38.8383612" lon="16.2790959"><ele>54.0</ele><time>2026-04-19T07:26:58.953Z</time></trkpt><trkpt lat="38.8382709" lon="16.2792078"><ele>54.333333333333336</ele><time>2026-04-19T07:27:00.956Z</time></trkpt><trkpt lat="38.8382306" lon="16.2792709"><ele>54.66666666666667</ele><time>2026-04-19T07:27:01.955Z</time></trkpt><trkpt lat="38.8381946" lon="16.2793376"><ele>55.0</ele><time>2026-04-19T07:27:02.942Z</time></trkpt><trkpt lat="38.8381449" lon="16.2794817"><ele>55.333333333333336</ele><time>2026-04-19T07:27:04.944Z</time></trkpt><trkpt lat="38.8381199" lon="16.2796066"><ele>55.66666666666667</ele><time>2026-04-19T07:27:06.954Z</time></trkpt><trkpt lat="38.838043" lon="16.2796716"><ele>56.0</ele><time>2026-04-19T07:27:09.954Z</time></trkpt><trkpt lat="38.8379384" lon="16.2796536"><ele>56.0</ele><time>2026-04-19T07:27:11.949Z</time></trkpt><trkpt lat="38.8378748" lon="16.2796487"><ele>56.0</ele><time>2026-04-19T07:27:12.952Z</time></trkpt><trkpt lat="38.8378072" lon="16.2796311"><ele>56.0</ele><time>2026-04-19T07:27:13.971Z</time></trkpt><trkpt lat="38.8377405" lon="16.2796086"><ele>56.0</ele><time>2026-04-19T07:27:14.956Z</time></trkpt><trkpt lat="38.8376682" lon="16.2795752"><ele>56.0</ele><time>2026-04-19T07:27:15.955Z</time></trkpt><trkpt lat="38.8375954" lon="16.2795516"><ele>56.0</ele><time>2026-04-19T07:27:16.951Z</time></trkpt><trkpt lat="38.837516" lon="16.2795353"><ele>56.0</ele><time>2026-04-19T07:27:17.949Z</time></trkpt><trkpt lat="38.8374373" lon="16.2795213"><ele>56.00000000000001</ele><time>2026-04-19T07:27:18.959Z</time></trkpt><trkpt lat="38.837357" lon="16.2795041"><ele>56.0</ele><time>2026-04-19T07:27:19.953Z</time></trkpt><trkpt lat="38.8372768" lon="16.279488"><ele>56.0</ele><time>2026-04-19T07:27:20.958Z</time></trkpt><trkpt lat="38.837188" lon="16.2794768"><ele>56.0</ele><time>2026-04-19T07:27:21.952Z</time></trkpt><trkpt lat="38.8371087" lon="16.27946"><ele>56.00000000000001</ele><time>2026-04-19T07:27:22.946Z</time></trkpt><trkpt lat="38.8370262" lon="16.2794492"><ele>56.0</ele><time>2026-04-19T07:27:23.948Z</time></trkpt><trkpt lat="38.8369444" lon="16.2794482"><ele>56.00000000000001</ele><time>2026-04-19T07:27:24.948Z</time></trkpt><trkpt lat="38.8368642" lon="16.2794537"><ele>56.0</ele><time>2026-04-19T07:27:25.95Z</time></trkpt><trkpt lat="38.8367929" lon="16.2794609"><ele>56.0</ele><time>2026-04-19T07:27:26.941Z</time></trkpt><trkpt lat="38.83669" lon="16.2794799"><ele>56.0</ele><time>2026-04-19T07:27:28.954Z</time></trkpt><trkpt lat="38.8366244" lon="16.2794881"><ele>56.00000000000001</ele><time>2026-04-19T07:27:30.95Z</time></trkpt><trkpt lat="38.8365493" lon="16.2794963"><ele>56.0</ele><time>2026-04-19T07:27:32.944Z</time></trkpt><trkpt lat="38.8364663" lon="16.2795069"><ele>56.50000000000001</ele><time>2026-04-19T07:27:34.947Z</time></trkpt><trkpt lat="38.8363829" lon="16.2795145"><ele>57.0</ele><time>2026-04-19T07:27:36.942Z</time></trkpt><trkpt lat="38.8363129" lon="16.2795256"><ele>57.5</ele><time>2026-04-19T07:27:38.948Z</time></trkpt><trkpt lat="38.8362447" lon="16.279529"><ele>58.0</ele><time>2026-04-19T07:27:40.95Z</time></trkpt><trkpt lat="38.8361648" lon="16.279547"><ele>58.50000000000001</ele><time>2026-04-19T07:27:42.945Z</time></trkpt><trkpt lat="38.8360765" lon="16.2795676"><ele>59.0</ele><time>2026-04-19T07:27:44.941Z</time></trkpt><trkpt lat="38.8359936" lon="16.2795941"><ele>59.800000000000004</ele><time>2026-04-19T07:27:46.936Z</time></trkpt><trkpt lat="38.8359125" lon="16.2796379"><ele>60.60000000000001</ele><time>2026-04-19T07:27:48.95Z</time></trkpt><trkpt lat="38.8358165" lon="16.2796717"><ele>61.4</ele><time>2026-04-19T07:27:50.943Z</time></trkpt><trkpt lat="38.835693" lon="16.2796793"><ele>62.2</ele><time>2026-04-19T07:27:52.936Z</time></trkpt><trkpt lat="38.8355785" lon="16.2796693"><ele>63.0</ele><time>2026-04-19T07:27:54.94Z</time></trkpt><trkpt lat="38.8354699" lon="16.2796386"><ele>63.0</ele><time>2026-04-19T07:27:56.938Z</time></trkpt><trkpt lat="38.8353668" lon="16.2796039"><ele>63.0</ele><time>2026-04-19T07:27:58.939Z</time></trkpt><trkpt lat="38.8353034" lon="16.2795817"><ele>63.0</ele><time>2026-04-19T07:28:00.945Z</time></trkpt><trkpt lat="38.8352302" lon="16.2795562"><ele>63.0</ele><time>2026-04-19T07:28:02.947Z</time></trkpt><trkpt lat="38.835147" lon="16.2795344"><ele>63.0</ele><time>2026-04-19T07:28:04.941Z</time></trkpt><trkpt lat="38.8350696" lon="16.2795059"><ele>63.0</ele><time>2026-04-19T07:28:06.942Z</time></trkpt><trkpt lat="38.834993" lon="16.2794701"><ele>63.8</ele><time>2026-04-19T07:28:08.942Z</time></trkpt><trkpt lat="38.8349084" lon="16.2794354"><ele>64.6</ele><time>2026-04-19T07:28:10.944Z</time></trkpt><trkpt lat="38.8348234" lon="16.2794012"><ele>65.4</ele><time>2026-04-19T07:28:12.949Z</time></trkpt><trkpt lat="38.8347381" lon="16.279366"><ele>66.2</ele><time>2026-04-19T07:28:14.941Z</time></trkpt><trkpt lat="38.8346366" lon="16.2793267"><ele>67.0</ele><time>2026-04-19T07:28:16.945Z</time></trkpt><trkpt lat="38.8345188" lon="16.2792833"><ele>67.0</ele><time>2026-04-19T07:28:18.95Z</time></trkpt><trkpt lat="38.8344081" lon="16.2792359"><ele>67.0</ele><time>2026-04-19T07:28:20.941Z</time></trkpt><trkpt lat="38.8343054" lon="16.2792209"><ele>67.0</ele><time>2026-04-19T07:28:22.954Z</time></trkpt><trkpt lat="38.8342484" lon="16.2792721"><ele>67.0</ele><time>2026-04-19T07:28:24.951Z</time></trkpt><trkpt lat="38.8342016" lon="16.2793592"><ele>67.0</ele><time>2026-04-19T07:28:26.945Z</time></trkpt><trkpt lat="38.8341596" lon="16.2794468"><ele>67.0</ele><time>2026-04-19T07:28:28.948Z</time></trkpt><trkpt lat="38.8341127" lon="16.2795636"><ele>67.0</ele><time>2026-04-19T07:28:31.95Z</time></trkpt><trkpt lat="38.8340847" lon="16.2796694"><ele>67.0</ele><time>2026-04-19T07:28:33.94Z</time></trkpt><trkpt lat="38.8340538" lon="16.2797952"><ele>67.0</ele><time>2026-04-19T07:28:35.952Z</time></trkpt><trkpt lat="38.8340206" lon="16.279935"><ele>67.0</ele><time>2026-04-19T07:28:37.966Z</time></trkpt><trkpt lat="38.8339879" lon="16.280076"><ele>67.5</ele><time>2026-04-19T07:28:39.941Z</time></trkpt><trkpt lat="38.8339446" lon="16.28018"><ele>68.0</ele><time>2026-04-19T07:28:41.957Z</time></trkpt><trkpt lat="38.8338808" lon="16.2802015"><ele>68.5</ele><time>2026-04-19T07:28:43.947Z</time></trkpt><trkpt lat="38.8337969" lon="16.2801968"><ele>69.0</ele><time>2026-04-19T07:28:46.946Z</time></trkpt><trkpt lat="38.8337098" lon="16.2801808"><ele>69.5</ele><time>2026-04-19T07:28:49.953Z</time></trkpt><trkpt lat="38.8336324" lon="16.2801687"><ele>70.0</ele><time>2026-04-19T07:28:51.941Z</time></trkpt><trkpt lat="38.8335486" lon="16.280158"><ele>70.5</ele><time>2026-04-19T07:28:53.943Z</time></trkpt><trkpt lat="38.8334621" lon="16.2801497"><ele>71.0</ele><time>2026-04-19T07:28:55.945Z</time></trkpt><trkpt lat="38.8333722" lon="16.2801467"><ele>71.5</ele><time>2026-04-19T07:28:57.943Z</time></trkpt><trkpt lat="38.8332842" lon="16.2801448"><ele>72.0</ele><time>2026-04-19T07:28:59.946Z</time></trkpt><trkpt lat="38.8331958" lon="16.2801444"><ele>72.5</ele><time>2026-04-19T07:29:01.94Z</time></trkpt><trkpt lat="38.8331055" lon="16.2801459"><ele>73.0</ele><time>2026-04-19T07:29:03.94Z</time></trkpt><trkpt lat="38.8330185" lon="16.2801556"><ele>73.0</ele><time>2026-04-19T07:29:05.949Z</time></trkpt><trkpt lat="38.832938" lon="16.2801678"><ele>73.0</ele><time>2026-04-19T07:29:07.947Z</time></trkpt><trkpt lat="38.8328565" lon="16.2801773"><ele>73.0</ele><time>2026-04-19T07:29:09.953Z</time></trkpt><trkpt lat="38.832774" lon="16.2801929"><ele>73.0</ele><time>2026-04-19T07:29:11.962Z</time></trkpt><trkpt lat="38.8326859" lon="16.2802174"><ele>73.0</ele><time>2026-04-19T07:29:13.952Z</time></trkpt><trkpt lat="38.832589" lon="16.2802461"><ele>73.0</ele><time>2026-04-19T07:29:15.941Z</time></trkpt><trkpt lat="38.8324959" lon="16.2802852"><ele>73.6</ele><time>2026-04-19T07:29:17.95Z</time></trkpt><trkpt lat="38.8324013" lon="16.2803201"><ele>74.19999999999999</ele><time>2026-04-19T07:29:19.96Z</time></trkpt><trkpt lat="38.8323016" lon="16.2803786"><ele>74.8</ele><time>2026-04-19T07:29:21.945Z</time></trkpt><trkpt lat="38.8322096" lon="16.2804546"><ele>75.39999999999999</ele><time>2026-04-19T07:29:23.954Z</time></trkpt><trkpt lat="38.8321286" lon="16.2805309"><ele>76.0</ele><time>2026-04-19T07:29:25.953Z</time></trkpt><trkpt lat="38.8320673" lon="16.2805958"><ele>76.33333333333333</ele><time>2026-04-19T07:29:27.947Z</time></trkpt><trkpt lat="38.8320013" lon="16.28067"><ele>76.66666666666666</ele><time>2026-04-19T07:29:29.946Z</time></trkpt><trkpt lat="38.8319224" lon="16.2807581"><ele>77.0</ele><time>2026-04-19T07:29:31.945Z</time></trkpt><trkpt lat="38.8318326" lon="16.2808557"><ele>77.33333333333333</ele><time>2026-04-19T07:29:33.971Z</time></trkpt><trkpt lat="38.8317832" lon="16.2809117"><ele>77.66666666666667</ele><time>2026-04-19T07:29:34.94Z</time></trkpt><trkpt lat="38.8317326" lon="16.2809724"><ele>78.0</ele><time>2026-04-19T07:29:35.94Z</time></trkpt><trkpt lat="38.8316819" lon="16.2810349"><ele>78.5</ele><time>2026-04-19T07:29:36.944Z</time></trkpt><trkpt lat="38.8316282" lon="16.2811093"><ele>79.0</ele><time>2026-04-19T07:29:37.936Z</time></trkpt><trkpt lat="38.8315718" lon="16.2811821"><ele>79.5</ele><time>2026-04-19T07:29:38.948Z</time></trkpt><trkpt lat="38.8315162" lon="16.2812522"><ele>80.0</ele><time>2026-04-19T07:29:39.943Z</time></trkpt><trkpt lat="38.8314593" lon="16.2813233"><ele>80.5</ele><time>2026-04-19T07:29:40.953Z</time></trkpt><trkpt lat="38.8314062" lon="16.2813964"><ele>81.0</ele><time>2026-04-19T07:29:41.936Z</time></trkpt><trkpt lat="38.8313575" lon="16.2814652"><ele>81.0</ele><time>2026-04-19T07:29:42.94Z</time></trkpt><trkpt lat="38.8312924" lon="16.281524"><ele>81.0</ele><time>2026-04-19T07:29:43.938Z</time></trkpt><trkpt lat="38.8312243" lon="16.2815761"><ele>81.0</ele><time>2026-04-19T07:29:44.958Z</time></trkpt><trkpt lat="38.8311549" lon="16.2816263"><ele>81.0</ele><time>2026-04-19T07:29:45.946Z</time></trkpt><trkpt lat="38.831086" lon="16.2816771"><ele>81.0</ele><time>2026-04-19T07:29:46.961Z</time></trkpt><trkpt lat="38.8310168" lon="16.2817263"><ele>81.0</ele><time>2026-04-19T07:29:47.94Z</time></trkpt><trkpt lat="38.8309477" lon="16.2817743"><ele>81.57142857142857</ele><time>2026-04-19T07:29:48.94Z</time></trkpt><trkpt lat="38.8308824" lon="16.2818184"><ele>82.14285714285714</ele><time>2026-04-19T07:29:49.945Z</time></trkpt><trkpt lat="38.8308232" lon="16.2818575"><ele>82.71428571428572</ele><time>2026-04-19T07:29:50.946Z</time></trkpt><trkpt lat="38.8307646" lon="16.2818925"><ele>83.28571428571428</ele><time>2026-04-19T07:29:51.944Z</time></trkpt><trkpt lat="38.8307041" lon="16.2819249"><ele>83.85714285714285</ele><time>2026-04-19T07:29:52.956Z</time></trkpt><trkpt lat="38.8306417" lon="16.2819586"><ele>84.42857142857143</ele><time>2026-04-19T07:29:53.942Z</time></trkpt><trkpt lat="38.8305742" lon="16.2819944"><ele>85.0</ele><time>2026-04-19T07:29:54.942Z</time></trkpt><trkpt lat="38.8305037" lon="16.2820374"><ele>85.0</ele><time>2026-04-19T07:29:55.936Z</time></trkpt><trkpt lat="38.830433" lon="16.2820856"><ele>85.0</ele><time>2026-04-19T07:29:56.938Z</time></trkpt><trkpt lat="38.8303632" lon="16.2821375"><ele>85.0</ele><time>2026-04-19T07:29:57.939Z</time></trkpt><trkpt lat="38.8302977" lon="16.2821969"><ele>85.0</ele><time>2026-04-19T07:29:58.942Z</time></trkpt><trkpt lat="38.8302356" lon="16.2822593"><ele>85.0</ele><time>2026-04-19T07:29:59.944Z</time></trkpt><trkpt lat="38.8301752" lon="16.282325"><ele>85.0</ele><time>2026-04-19T07:30:00.939Z</time></trkpt><trkpt lat="38.8301231" lon="16.2823971"><ele>85.5</ele><time>2026-04-19T07:30:01.944Z</time></trkpt><trkpt lat="38.830081" lon="16.2824718"><ele>86.0</ele><time>2026-04-19T07:30:02.94Z</time></trkpt><trkpt lat="38.8300551" lon="16.282555"><ele>86.5</ele><time>2026-04-19T07:30:03.942Z</time></trkpt><trkpt lat="38.8300431" lon="16.2826372"><ele>87.0</ele><time>2026-04-19T07:30:04.95Z</time></trkpt><trkpt lat="38.8300402" lon="16.2827729"><ele>87.5</ele><time>2026-04-19T07:30:06.973Z</time></trkpt><trkpt lat="38.8300658" lon="16.2828826"><ele>88.0</ele><time>2026-04-19T07:30:08.941Z</time></trkpt><trkpt lat="38.8301087" lon="16.2829837"><ele>87.83333333333333</ele><time>2026-04-19T07:30:11.94Z</time></trkpt><trkpt lat="38.8301577" lon="16.2830792"><ele>87.66666666666666</ele><time>2026-04-19T07:30:14.943Z</time></trkpt><trkpt lat="38.830203" lon="16.2831636"><ele>87.5</ele><time>2026-04-19T07:30:16.943Z</time></trkpt><trkpt lat="38.8302215" lon="16.2832647"><ele>87.33333333333333</ele><time>2026-04-19T07:30:19.942Z</time></trkpt><trkpt lat="38.830264" lon="16.2833462"><ele>87.16666666666667</ele><time>2026-04-19T07:30:22.935Z</time></trkpt><trkpt lat="38.8303404" lon="16.2833932"><ele>87.0</ele><time>2026-04-19T07:30:25.944Z</time></trkpt><trkpt lat="38.8304163" lon="16.2833628"><ele>87.0</ele><time>2026-04-19T07:30:27.957Z</time></trkpt><trkpt lat="38.8305128" lon="16.2833393"><ele>87.0</ele><time>2026-04-19T07:30:29.944Z</time></trkpt><trkpt lat="38.8306" lon="16.2833992"><ele>87.0</ele><time>2026-04-19T07:30:31.936Z</time></trkpt><trkpt lat="38.830651" lon="16.283513"><ele>87.0</ele><time>2026-04-19T07:30:33.945Z</time></trkpt><trkpt lat="38.8306821" lon="16.2835944"><ele>87.0</ele><time>2026-04-19T07:30:35.95Z</time></trkpt><trkpt lat="38.8307035" lon="16.283676"><ele>87.0</ele><time>2026-04-19T07:30:38.941Z</time></trkpt><trkpt lat="38.8307411" lon="16.2837549"><ele>87.0</ele><time>2026-04-19T07:30:46.941Z</time></trkpt><trkpt lat="38.8307739" lon="16.2838272"><ele>87.0</ele><time>2026-04-19T07:30:48.941Z</time></trkpt><trkpt lat="38.8308308" lon="16.2839479"><ele>87.0</ele><time>2026-04-19T07:30:50.946Z</time></trkpt><trkpt lat="38.8308895" lon="16.2840829"><ele>87.0</ele><time>2026-04-19T07:30:52.939Z</time></trkpt><trkpt lat="38.8309536" lon="16.284219"><ele>87.0</ele><time>2026-04-19T07:30:54.941Z</time></trkpt><trkpt lat="38.8309891" lon="16.2842879"><ele>88.5</ele><time>2026-04-19T07:30:55.955Z</time></trkpt><trkpt lat="38.8310429" lon="16.2843643"><ele>90.0</ele><time>2026-04-19T07:30:56.94Z</time></trkpt><trkpt lat="38.8310954" lon="16.2844324"><ele>91.5</ele><time>2026-04-19T07:30:57.937Z</time></trkpt><trkpt lat="38.8311362" lon="16.2845282"><ele>93.0</ele><time>2026-04-19T07:30:58.94Z</time></trkpt><trkpt lat="38.8311775" lon="16.2846205"><ele>94.5</ele><time>2026-04-19T07:30:59.939Z</time></trkpt><trkpt lat="38.8312185" lon="16.2847143"><ele>96.0</ele><time>2026-04-19T07:31:00.941Z</time></trkpt><trkpt lat="38.8312642" lon="16.2848059"><ele>97.5</ele><time>2026-04-19T07:31:01.936Z</time></trkpt><trkpt lat="38.8313059" lon="16.2848935"><ele>99.0</ele><time>2026-04-19T07:31:02.948Z</time></trkpt><trkpt lat="38.8313456" lon="16.2849771"><ele>100.5</ele><time>2026-04-19T07:31:03.938Z</time></trkpt><trkpt lat="38.831381" lon="16.285054"><ele>102.0</ele><time>2026-04-19T07:31:04.941Z</time></trkpt><trkpt lat="38.8314303" lon="16.2851672"><ele>103.5</ele><time>2026-04-19T07:31:06.937Z</time></trkpt><trkpt lat="38.8314798" lon="16.2852491"><ele>105.0</ele><time>2026-04-19T07:31:12.95Z</time></trkpt><trkpt lat="38.8315374" lon="16.285286"><ele>105.0</ele><time>2026-04-19T07:31:14.948Z</time></trkpt><trkpt lat="38.8316566" lon="16.2852908"><ele>105.0</ele><time>2026-04-19T07:31:16.939Z</time></trkpt><trkpt lat="38.8317378" lon="16.285283"><ele>105.0</ele><time>2026-04-19T07:31:17.948Z</time></trkpt><trkpt lat="38.8318324" lon="16.2852782"><ele>105.0</ele><time>2026-04-19T07:31:18.954Z</time></trkpt><trkpt lat="38.831938" lon="16.2852751"><ele>105.0</ele><time>2026-04-19T07:31:19.944Z</time></trkpt><trkpt lat="38.8320516" lon="16.2852754"><ele>104.8</ele><time>2026-04-19T07:31:20.944Z</time></trkpt><trkpt lat="38.8321621" lon="16.2852739"><ele>104.6</ele><time>2026-04-19T07:31:21.936Z</time></trkpt><trkpt lat="38.8322714" lon="16.2852684"><ele>104.4</ele><time>2026-04-19T07:31:22.936Z</time></trkpt><trkpt lat="38.8323799" lon="16.2852619"><ele>104.2</ele><time>2026-04-19T07:31:23.945Z</time></trkpt><trkpt lat="38.8324884" lon="16.2852541"><ele>104.0</ele><time>2026-04-19T07:31:24.939Z</time></trkpt><trkpt lat="38.8325973" lon="16.2852472"><ele>104.0</ele><time>2026-04-19T07:31:25.959Z</time></trkpt><trkpt lat="38.8327034" lon="16.2852408"><ele>104.0</ele><time>2026-04-19T07:31:26.936Z</time></trkpt><trkpt lat="38.8328113" lon="16.2852336"><ele>104.0</ele><time>2026-04-19T07:31:27.939Z</time></trkpt><trkpt lat="38.8329171" lon="16.2852281"><ele>104.0</ele><time>2026-04-19T07:31:28.936Z</time></trkpt><trkpt lat="38.8330329" lon="16.2852223"><ele>104.0</ele><time>2026-04-19T07:31:29.937Z</time></trkpt><trkpt lat="38.83315" lon="16.285214"><ele>103.99999999999999</ele><time>2026-04-19T07:31:30.953Z</time></trkpt><trkpt lat="38.8332597" lon="16.2852063"><ele>104.0</ele><time>2026-04-19T07:31:31.944Z</time></trkpt><trkpt lat="38.8333484" lon="16.2851976"><ele>104.0</ele><time>2026-04-19T07:31:32.936Z</time></trkpt><trkpt lat="38.8334545" lon="16.2851964"><ele>104.0</ele><time>2026-04-19T07:31:34.944Z</time></trkpt><trkpt lat="38.8335171" lon="16.2852495"><ele>103.99999999999999</ele><time>2026-04-19T07:31:38.936Z</time></trkpt><trkpt lat="38.8335397" lon="16.2853282"><ele>104.0</ele><time>2026-04-19T07:31:41.955Z</time></trkpt><trkpt lat="38.833558" lon="16.2854462"><ele>103.66666666666666</ele><time>2026-04-19T07:31:44.935Z</time></trkpt><trkpt lat="38.8335482" lon="16.2855827"><ele>103.33333333333333</ele><time>2026-04-19T07:31:46.932Z</time></trkpt><trkpt lat="38.8335388" lon="16.2856645"><ele>103.0</ele><time>2026-04-19T07:31:47.939Z</time></trkpt><trkpt lat="38.8335391" lon="16.285752"><ele>102.66666666666666</ele><time>2026-04-19T07:31:48.936Z</time></trkpt><trkpt lat="38.8335731" lon="16.2858411"><ele>102.33333333333333</ele><time>2026-04-19T07:31:49.937Z</time></trkpt><trkpt lat="38.8336454" lon="16.2859022"><ele>102.0</ele><time>2026-04-19T07:31:50.943Z</time></trkpt><trkpt lat="38.8337208" lon="16.2859464"><ele>103.6</ele><time>2026-04-19T07:31:51.933Z</time></trkpt><trkpt lat="38.8337995" lon="16.2859822"><ele>105.19999999999999</ele><time>2026-04-19T07:31:52.958Z</time></trkpt><trkpt lat="38.8338843" lon="16.2860121"><ele>106.8</ele><time>2026-04-19T07:31:53.942Z</time></trkpt><trkpt lat="38.8339717" lon="16.2860581"><ele>108.4</ele><time>2026-04-19T07:31:54.936Z</time></trkpt><trkpt lat="38.8340673" lon="16.2861128"><ele>110.0</ele><time>2026-04-19T07:31:55.943Z</time></trkpt><trkpt lat="38.8341608" lon="16.2861604"><ele>110.0</ele><time>2026-04-19T07:31:56.935Z</time></trkpt><trkpt lat="38.8342571" lon="16.2862052"><ele>110.0</ele><time>2026-04-19T07:31:57.933Z</time></trkpt><trkpt lat="38.8343532" lon="16.2862307"><ele>110.0</ele><time>2026-04-19T07:31:58.945Z</time></trkpt><trkpt lat="38.8344475" lon="16.2862342"><ele>110.0</ele><time>2026-04-19T07:31:59.939Z</time></trkpt><trkpt lat="38.8345424" lon="16.2862344"><ele>110.0</ele><time>2026-04-19T07:32:00.942Z</time></trkpt><trkpt lat="38.8346346" lon="16.2862214"><ele>109.83333333333333</ele><time>2026-04-19T07:32:01.942Z</time></trkpt><trkpt lat="38.834723" lon="16.2862296"><ele>109.66666666666666</ele><time>2026-04-19T07:32:02.94Z</time></trkpt><trkpt lat="38.8348071" lon="16.2862712"><ele>109.5</ele><time>2026-04-19T07:32:03.937Z</time></trkpt><trkpt lat="38.8348868" lon="16.2863299"><ele>109.33333333333334</ele><time>2026-04-19T07:32:04.932Z</time></trkpt><trkpt lat="38.8349541" lon="16.286401"><ele>109.16666666666667</ele><time>2026-04-19T07:32:05.948Z</time></trkpt><trkpt lat="38.8350161" lon="16.286471"><ele>109.0</ele><time>2026-04-19T07:32:06.943Z</time></trkpt><trkpt lat="38.8350811" lon="16.2865399"><ele>110.50000000000001</ele><time>2026-04-19T07:32:07.942Z</time></trkpt><trkpt lat="38.8351443" lon="16.2866081"><ele>112.0</ele><time>2026-04-19T07:32:08.939Z</time></trkpt><trkpt lat="38.8351995" lon="16.286705"><ele>113.5</ele><time>2026-04-19T07:32:09.939Z</time></trkpt><trkpt lat="38.8352456" lon="16.2868041"><ele>115.0</ele><time>2026-04-19T07:32:10.936Z</time></trkpt><trkpt lat="38.8352758" lon="16.2869103"><ele>116.50000000000001</ele><time>2026-04-19T07:32:11.94Z</time></trkpt><trkpt lat="38.8352992" lon="16.2870181"><ele>118.0</ele><time>2026-04-19T07:32:12.936Z</time></trkpt><trkpt lat="38.8353192" lon="16.2871193"><ele>118.00000000000001</ele><time>2026-04-19T07:32:13.941Z</time></trkpt><trkpt lat="38.8353404" lon="16.2872168"><ele>118.0</ele><time>2026-04-19T07:32:14.939Z</time></trkpt><trkpt lat="38.8353616" lon="16.2873088"><ele>118.0</ele><time>2026-04-19T07:32:15.945Z</time></trkpt><trkpt lat="38.8353835" lon="16.2874004"><ele>118.0</ele><time>2026-04-19T07:32:16.965Z</time></trkpt><trkpt lat="38.8354141" lon="16.2874914"><ele>118.00000000000001</ele><time>2026-04-19T07:32:17.929Z</time></trkpt><trkpt lat="38.8354462" lon="16.2875737"><ele>118.0</ele><time>2026-04-19T07:32:18.938Z</time></trkpt><trkpt lat="38.8354806" lon="16.2876618"><ele>119.57142857142857</ele><time>2026-04-19T07:32:19.948Z</time></trkpt><trkpt lat="38.8355169" lon="16.2877381"><ele>121.14285714285714</ele><time>2026-04-19T07:32:20.943Z</time></trkpt><trkpt lat="38.8355802" lon="16.2877786"><ele>122.71428571428571</ele><time>2026-04-19T07:32:21.938Z</time></trkpt><trkpt lat="38.8356485" lon="16.2878219"><ele>124.28571428571428</ele><time>2026-04-19T07:32:22.951Z</time></trkpt><trkpt lat="38.8357147" lon="16.2878671"><ele>125.85714285714286</ele><time>2026-04-19T07:32:23.95Z</time></trkpt><trkpt lat="38.8357793" lon="16.2879097"><ele>127.42857142857142</ele><time>2026-04-19T07:32:24.941Z</time></trkpt><trkpt lat="38.8358408" lon="16.2879437"><ele>129.0</ele><time>2026-04-19T07:32:25.937Z</time></trkpt><trkpt lat="38.8359028" lon="16.2879741"><ele>128.83333333333334</ele><time>2026-04-19T07:32:26.941Z</time></trkpt><trkpt lat="38.835977" lon="16.2879835"><ele>128.66666666666666</ele><time>2026-04-19T07:32:27.954Z</time></trkpt><trkpt lat="38.8360554" lon="16.2879902"><ele>128.5</ele><time>2026-04-19T07:32:28.938Z</time></trkpt><trkpt lat="38.8361374" lon="16.2879968"><ele>128.33333333333331</ele><time>2026-04-19T07:32:29.937Z</time></trkpt><trkpt lat="38.83622" lon="16.2880032"><ele>128.16666666666666</ele><time>2026-04-19T07:32:30.935Z</time></trkpt><trkpt lat="38.8363001" lon="16.2880192"><ele>128.0</ele><time>2026-04-19T07:32:31.939Z</time></trkpt><trkpt lat="38.8363788" lon="16.288035"><ele>128.0</ele><time>2026-04-19T07:32:32.942Z</time></trkpt><trkpt lat="38.8364609" lon="16.2880485"><ele>128.0</ele><time>2026-04-19T07:32:33.934Z</time></trkpt><trkpt lat="38.8365507" lon="16.2880667"><ele>128.0</ele><time>2026-04-19T07:32:34.949Z</time></trkpt><trkpt lat="38.8366437" lon="16.288084"><ele>128.0</ele><time>2026-04-19T07:32:35.934Z</time></trkpt><trkpt lat="38.836739" lon="16.2881025"><ele>128.0</ele><time>2026-04-19T07:32:36.943Z</time></trkpt><trkpt lat="38.836829" lon="16.2881216"><ele>133.0</ele><time>2026-04-19T07:32:37.949Z</time></trkpt><trkpt lat="38.8369174" lon="16.2881433"><ele>138.0</ele><time>2026-04-19T07:32:38.938Z</time></trkpt><trkpt lat="38.8370032" lon="16.2881599"><ele>143.0</ele><time>2026-04-19T07:32:39.948Z</time></trkpt><trkpt lat="38.8370923" lon="16.2881576"><ele>148.0</ele><time>2026-04-19T07:32:40.95Z</time></trkpt><trkpt lat="38.8371851" lon="16.2881737"><ele>153.0</ele><time>2026-04-19T07:32:41.933Z</time></trkpt><trkpt lat="38.8372825" lon="16.2881808"><ele>153.0</ele><time>2026-04-19T07:32:42.953Z</time></trkpt><trkpt lat="38.837379" lon="16.2882199"><ele>153.0</ele><time>2026-04-19T07:32:43.938Z</time></trkpt><trkpt lat="38.8374719" lon="16.2882609"><ele>153.0</ele><time>2026-04-19T07:32:44.942Z</time></trkpt><trkpt lat="38.8375631" lon="16.2883252"><ele>153.0</ele><time>2026-04-19T07:32:45.94Z</time></trkpt><trkpt lat="38.8376466" lon="16.2883961"><ele>153.0</ele><time>2026-04-19T07:32:46.933Z</time></trkpt><trkpt lat="38.8377274" lon="16.2884642"><ele>150.20000000000002</ele><time>2026-04-19T07:32:47.947Z</time></trkpt><trkpt lat="38.8378067" lon="16.2885348"><ele>147.4</ele><time>2026-04-19T07:32:48.937Z</time></trkpt><trkpt lat="38.8378966" lon="16.2885957"><ele>144.60000000000002</ele><time>2026-04-19T07:32:49.941Z</time></trkpt><trkpt lat="38.8379894" lon="16.2886459"><ele>141.8</ele><time>2026-04-19T07:32:50.945Z</time></trkpt><trkpt lat="38.8380808" lon="16.2886942"><ele>139.0</ele><time>2026-04-19T07:32:51.932Z</time></trkpt><trkpt lat="38.8381609" lon="16.2887392"><ele>139.0</ele><time>2026-04-19T07:32:52.94Z</time></trkpt><trkpt lat="38.8382167" lon="16.2887948"><ele>139.0</ele><time>2026-04-19T07:32:53.935Z</time></trkpt><trkpt lat="38.8382646" lon="16.2888571"><ele>139.0</ele><time>2026-04-19T07:32:54.956Z</time></trkpt><trkpt lat="38.8383281" lon="16.2889007"><ele>139.0</ele><time>2026-04-19T07:32:55.937Z</time></trkpt><trkpt lat="38.8384016" lon="16.2889574"><ele>139.0</ele><time>2026-04-19T07:32:56.94Z</time></trkpt><trkpt lat="38.8384821" lon="16.2890302"><ele>139.0</ele><time>2026-04-19T07:32:57.949Z</time></trkpt><trkpt lat="38.8385655" lon="16.2891135"><ele>140.8</ele><time>2026-04-19T07:32:58.955Z</time></trkpt><trkpt lat="38.8386419" lon="16.2892029"><ele>142.60000000000002</ele><time>2026-04-19T07:32:59.956Z</time></trkpt><trkpt lat="38.838723" lon="16.2892819"><ele>144.4</ele><time>2026-04-19T07:33:00.951Z</time></trkpt><trkpt lat="38.8388145" lon="16.2893607"><ele>146.20000000000002</ele><time>2026-04-19T07:33:01.944Z</time></trkpt><trkpt lat="38.8389208" lon="16.2894405"><ele>148.0</ele><time>2026-04-19T07:33:02.942Z</time></trkpt><trkpt lat="38.8390339" lon="16.2895249"><ele>148.0</ele><time>2026-04-19T07:33:03.944Z</time></trkpt><trkpt lat="38.8391463" lon="16.2896037"><ele>148.0</ele><time>2026-04-19T07:33:04.934Z</time></trkpt><trkpt lat="38.8392536" lon="16.2896808"><ele>148.0</ele><time>2026-04-19T07:33:05.953Z</time></trkpt><trkpt lat="38.8393331" lon="16.2897562"><ele>148.0</ele><time>2026-04-19T07:33:06.944Z</time></trkpt><trkpt lat="38.8394055" lon="16.2898321"><ele>148.0</ele><time>2026-04-19T07:33:07.942Z</time></trkpt><trkpt lat="38.8394709" lon="16.2899325"><ele>148.5</ele><time>2026-04-19T07:33:08.936Z</time></trkpt><trkpt lat="38.8395164" lon="16.290039"><ele>149.0</ele><time>2026-04-19T07:33:09.944Z</time></trkpt><trkpt lat="38.8395485" lon="16.2901414"><ele>149.5</ele><time>2026-04-19T07:33:10.947Z</time></trkpt><trkpt lat="38.8395771" lon="16.2902349"><ele>150.0</ele><time>2026-04-19T07:33:11.944Z</time></trkpt><trkpt lat="38.8395961" lon="16.2903351"><ele>150.5</ele><time>2026-04-19T07:33:12.948Z</time></trkpt><trkpt lat="38.8396172" lon="16.2904411"><ele>151.0</ele><time>2026-04-19T07:33:13.944Z</time></trkpt><trkpt lat="38.8396446" lon="16.2905489"><ele>152.83333333333334</ele><time>2026-04-19T07:33:14.959Z</time></trkpt><trkpt lat="38.8396595" lon="16.2906515"><ele>154.66666666666669</ele><time>2026-04-19T07:33:15.944Z</time></trkpt><trkpt lat="38.839671" lon="16.2907466"><ele>156.5</ele><time>2026-04-19T07:33:16.948Z</time></trkpt><trkpt lat="38.8396807" lon="16.2908301"><ele>158.33333333333334</ele><time>2026-04-19T07:33:17.935Z</time></trkpt><trkpt lat="38.8396983" lon="16.2909659"><ele>160.16666666666666</ele><time>2026-04-19T07:33:19.943Z</time></trkpt><trkpt lat="38.8397013" lon="16.2910935"><ele>162.0</ele><time>2026-04-19T07:33:21.94Z</time></trkpt><trkpt lat="38.839722" lon="16.2912543"><ele>162.0</ele><time>2026-04-19T07:33:23.939Z</time></trkpt><trkpt lat="38.8397288" lon="16.2913471"><ele>162.0</ele><time>2026-04-19T07:33:24.944Z</time></trkpt><trkpt lat="38.8397353" lon="16.2914428"><ele>162.0</ele><time>2026-04-19T07:33:25.959Z</time></trkpt><trkpt lat="38.8397459" lon="16.291553"><ele>162.0</ele><time>2026-04-19T07:33:26.947Z</time></trkpt><trkpt lat="38.8397533" lon="16.2916843"><ele>162.0</ele><time>2026-04-19T07:33:27.936Z</time></trkpt><trkpt lat="38.8397631" lon="16.2918388"><ele>165.0</ele><time>2026-04-19T07:33:28.945Z</time></trkpt><trkpt lat="38.8397745" lon="16.2920241"><ele>168.0</ele><time>2026-04-19T07:33:29.936Z</time></trkpt><trkpt lat="38.8397925" lon="16.2922125"><ele>171.0</ele><time>2026-04-19T07:33:30.932Z</time></trkpt><trkpt lat="38.8398147" lon="16.2923785"><ele>174.0</ele><time>2026-04-19T07:33:31.938Z</time></trkpt><trkpt lat="38.8398338" lon="16.292521"><ele>176.39999999999998</ele><time>2026-04-19T07:33:32.933Z</time></trkpt><trkpt lat="38.8398457" lon="16.2926522"><ele>178.8</ele><time>2026-04-19T07:33:33.935Z</time></trkpt><trkpt lat="38.8398568" lon="16.2927946"><ele>181.2</ele><time>2026-04-19T07:33:34.944Z</time></trkpt><trkpt lat="38.839853" lon="16.2929319"><ele>183.60000000000002</ele><time>2026-04-19T07:33:35.939Z</time></trkpt><trkpt lat="38.839847" lon="16.2930737"><ele>186.0</ele><time>2026-04-19T07:33:36.939Z</time></trkpt><trkpt lat="38.8398334" lon="16.2932075"><ele>186.60000000000002</ele><time>2026-04-19T07:33:37.944Z</time></trkpt><trkpt lat="38.8398268" lon="16.2933374"><ele>187.2</ele><time>2026-04-19T07:33:38.943Z</time></trkpt><trkpt lat="38.8398213" lon="16.2934636"><ele>187.8</ele><time>2026-04-19T07:33:39.946Z</time></trkpt><trkpt lat="38.8398389" lon="16.2935853"><ele>188.39999999999998</ele><time>2026-04-19T07:33:40.939Z</time></trkpt><trkpt lat="38.8398525" lon="16.2937092"><ele>189.0</ele><time>2026-04-19T07:33:41.946Z</time></trkpt><trkpt lat="38.8398661" lon="16.2938426"><ele>191.0</ele><time>2026-04-19T07:33:42.944Z</time></trkpt><trkpt lat="38.8398818" lon="16.2939821"><ele>193.0</ele><time>2026-04-19T07:33:43.944Z</time></trkpt><trkpt lat="38.8398989" lon="16.2941298"><ele>195.0</ele><time>2026-04-19T07:33:44.939Z</time></trkpt><trkpt lat="38.8399135" lon="16.2942894"><ele>197.0</ele><time>2026-04-19T07:33:45.938Z</time></trkpt><trkpt lat="38.8399285" lon="16.2944478"><ele>197.0</ele><time>2026-04-19T07:33:46.94Z</time></trkpt><trkpt lat="38.8399457" lon="16.294611"><ele>197.0</ele><time>2026-04-19T07:33:47.939Z</time></trkpt><trkpt lat="38.8399664" lon="16.2947784"><ele>197.0</ele><time>2026-04-19T07:33:48.939Z</time></trkpt><trkpt lat="38.8399897" lon="16.2949545"><ele>197.0</ele><time>2026-04-19T07:33:49.937Z</time></trkpt><trkpt lat="38.8400276" lon="16.295146"><ele>193.75</ele><time>2026-04-19T07:33:50.939Z</time></trkpt><trkpt lat="38.8400645" lon="16.295328"><ele>190.5</ele><time>2026-04-19T07:33:51.941Z</time></trkpt><trkpt lat="38.8400969" lon="16.2955083"><ele>187.25</ele><time>2026-04-19T07:33:52.943Z</time></trkpt><trkpt lat="38.8401279" lon="16.2956734"><ele>184.0</ele><time>2026-04-19T07:33:53.937Z</time></trkpt><trkpt lat="38.8401582" lon="16.2958294"><ele>184.0</ele><time>2026-04-19T07:33:54.949Z</time></trkpt><trkpt lat="38.8401796" lon="16.2959861"><ele>184.0</ele><time>2026-04-19T07:33:55.937Z</time></trkpt><trkpt lat="38.8401949" lon="16.296144"><ele>184.0</ele><time>2026-04-19T07:33:56.935Z</time></trkpt><trkpt lat="38.8402042" lon="16.2962911"><ele>184.0</ele><time>2026-04-19T07:33:57.942Z</time></trkpt><trkpt lat="38.8402209" lon="16.2964359"><ele>186.39999999999998</ele><time>2026-04-19T07:33:58.937Z</time></trkpt><trkpt lat="38.840237" lon="16.2965718"><ele>188.8</ele><time>2026-04-19T07:33:59.936Z</time></trkpt><trkpt lat="38.8402532" lon="16.2966992"><ele>191.2</ele><time>2026-04-19T07:34:00.943Z</time></trkpt><trkpt lat="38.8402584" lon="16.2968345"><ele>193.60000000000002</ele><time>2026-04-19T07:34:01.944Z</time></trkpt><trkpt lat="38.8402562" lon="16.2969688"><ele>196.0</ele><time>2026-04-19T07:34:02.938Z</time></trkpt><trkpt lat="38.8402466" lon="16.2970812"><ele>196.0</ele><time>2026-04-19T07:34:03.931Z</time></trkpt><trkpt lat="38.8402308" lon="16.297168"><ele>196.0</ele><time>2026-04-19T07:34:04.943Z</time></trkpt><trkpt lat="38.8401735" lon="16.2972825"><ele>196.0</ele><time>2026-04-19T07:34:06.944Z</time></trkpt><trkpt lat="38.8400783" lon="16.2972594"><ele>196.0</ele><time>2026-04-19T07:34:08.94Z</time></trkpt><trkpt lat="38.8400096" lon="16.2971442"><ele>196.0</ele><time>2026-04-19T07:34:10.935Z</time></trkpt><trkpt lat="38.839982" lon="16.297065"><ele>201.33333333333331</ele><time>2026-04-19T07:34:11.93Z</time></trkpt><trkpt lat="38.8399577" lon="16.2969813"><ele>206.66666666666666</ele><time>2026-04-19T07:34:12.931Z</time></trkpt><trkpt lat="38.8399371" lon="16.2968961"><ele>212.0</ele><time>2026-04-19T07:34:13.947Z</time></trkpt><trkpt lat="38.8399437" lon="16.2967916"><ele>217.33333333333331</ele><time>2026-04-19T07:34:15.939Z</time></trkpt><trkpt lat="38.8399434" lon="16.2966901"><ele>222.66666666666666</ele><time>2026-04-19T07:34:18.935Z</time></trkpt><trkpt lat="38.8399361" lon="16.2965892"><ele>228.0</ele><time>2026-04-19T07:34:20.94Z</time></trkpt><trkpt lat="38.8399208" lon="16.2964333"><ele>228.0</ele><time>2026-04-19T07:34:22.937Z</time></trkpt><trkpt lat="38.8399168" lon="16.2963425"><ele>227.99999999999997</ele><time>2026-04-19T07:34:23.953Z</time></trkpt><trkpt lat="38.8399124" lon="16.2962523"><ele>228.0</ele><time>2026-04-19T07:34:24.938Z</time></trkpt><trkpt lat="38.839904" lon="16.2961614"><ele>228.0</ele><time>2026-04-19T07:34:25.939Z</time></trkpt><trkpt lat="38.8398911" lon="16.2960734"><ele>227.99999999999997</ele><time>2026-04-19T07:34:26.947Z</time></trkpt><trkpt lat="38.8398876" lon="16.2959808"><ele>228.0</ele><time>2026-04-19T07:34:27.94Z</time></trkpt><trkpt lat="38.839876" lon="16.2958807"><ele>228.0</ele><time>2026-04-19T07:34:28.955Z</time></trkpt><trkpt lat="38.8398564" lon="16.2957693"><ele>228.0</ele><time>2026-04-19T07:34:29.94Z</time></trkpt><trkpt lat="38.8398218" lon="16.2956616"><ele>227.99999999999997</ele><time>2026-04-19T07:34:30.938Z</time></trkpt><trkpt lat="38.8397774" lon="16.2955703"><ele>228.0</ele><time>2026-04-19T07:34:31.945Z</time></trkpt><trkpt lat="38.8397388" lon="16.2954892"><ele>228.0</ele><time>2026-04-19T07:34:32.94Z</time></trkpt><trkpt lat="38.8397101" lon="16.2954096"><ele>227.99999999999997</ele><time>2026-04-19T07:34:33.956Z</time></trkpt><trkpt lat="38.8396803" lon="16.2953358"><ele>228.0</ele><time>2026-04-19T07:34:34.943Z</time></trkpt><trkpt lat="38.8396396" lon="16.2952687"><ele>228.0</ele><time>2026-04-19T07:34:35.938Z</time></trkpt><trkpt lat="38.8395948" lon="16.2952093"><ele>225.0</ele><time>2026-04-19T07:34:36.935Z</time></trkpt><trkpt lat="38.8395347" lon="16.2950771"><ele>222.0</ele><time>2026-04-19T07:34:38.937Z</time></trkpt><trkpt lat="38.8394836" lon="16.294946"><ele>219.0</ele><time>2026-04-19T07:34:40.932Z</time></trkpt><trkpt lat="38.8394513" lon="16.2948528"><ele>216.0</ele><time>2026-04-19T07:34:42.936Z</time></trkpt><trkpt lat="38.8394271" lon="16.2947771"><ele>213.0</ele><time>2026-04-19T07:34:44.937Z</time></trkpt><trkpt lat="38.8394091" lon="16.2946773"><ele>210.33333333333334</ele><time>2026-04-19T07:34:46.941Z</time></trkpt><trkpt lat="38.8393618" lon="16.2946006"><ele>207.66666666666669</ele><time>2026-04-19T07:34:48.943Z</time></trkpt><trkpt lat="38.8392873" lon="16.2945116"><ele>205.0</ele><time>2026-04-19T07:34:50.94Z</time></trkpt><trkpt lat="38.8391991" lon="16.2944414"><ele>202.33333333333334</ele><time>2026-04-19T07:34:52.94Z</time></trkpt><trkpt lat="38.8391374" lon="16.2944056"><ele>199.66666666666669</ele><time>2026-04-19T07:34:53.934Z</time></trkpt><trkpt lat="38.8390509" lon="16.2943617"><ele>197.0</ele><time>2026-04-19T07:34:55.936Z</time></trkpt><trkpt lat="38.8389852" lon="16.2943257"><ele>205.0</ele><time>2026-04-19T07:34:57.938Z</time></trkpt><trkpt lat="38.8389065" lon="16.2942974"><ele>213.0</ele><time>2026-04-19T07:34:59.942Z</time></trkpt><trkpt lat="38.8387952" lon="16.2942509"><ele>221.0</ele><time>2026-04-19T07:35:01.939Z</time></trkpt><trkpt lat="38.8387014" lon="16.2942083"><ele>229.0</ele><time>2026-04-19T07:35:03.951Z</time></trkpt><trkpt lat="38.8386299" lon="16.2941691"><ele>237.0</ele><time>2026-04-19T07:35:05.938Z</time></trkpt><trkpt lat="38.8385689" lon="16.2940801"><ele>236.99999999999997</ele><time>2026-04-19T07:35:07.94Z</time></trkpt><trkpt lat="38.8385248" lon="16.293994"><ele>237.0</ele><time>2026-04-19T07:35:09.938Z</time></trkpt><trkpt lat="38.838502" lon="16.2939078"><ele>236.99999999999997</ele><time>2026-04-19T07:35:11.936Z</time></trkpt><trkpt lat="38.8384647" lon="16.2938204"><ele>236.99999999999997</ele><time>2026-04-19T07:35:13.938Z</time></trkpt><trkpt lat="38.8384793" lon="16.2937143"><ele>237.0</ele><time>2026-04-19T07:35:15.941Z</time></trkpt><trkpt lat="38.8384891" lon="16.2936296"><ele>236.99999999999997</ele><time>2026-04-19T07:35:19.007Z</time></trkpt><trkpt lat="38.8385104" lon="16.293552"><ele>236.99999999999997</ele><time>2026-04-19T07:35:25.007Z</time></trkpt><trkpt lat="38.8385391" lon="16.2934657"><ele>236.33333333333334</ele><time>2026-04-19T07:35:34.172Z</time></trkpt><trkpt lat="38.8385711" lon="16.293352"><ele>235.66666666666669</ele><time>2026-04-19T07:35:37.752Z</time></trkpt><trkpt lat="38.8386081" lon="16.2932515"><ele>235.0</ele><time>2026-04-19T07:35:39.91Z</time></trkpt><trkpt lat="38.838605" lon="16.2931383"><ele>234.33333333333334</ele><time>2026-04-19T07:35:40.945Z</time></trkpt><trkpt lat="38.838589" lon="16.2930439"><ele>233.66666666666669</ele><time>2026-04-19T07:35:41.953Z</time></trkpt><trkpt lat="38.8385566" lon="16.2929746"><ele>233.0</ele><time>2026-04-19T07:35:42.937Z</time></trkpt><trkpt lat="38.8384514" lon="16.2929026"><ele>237.0</ele><time>2026-04-19T07:35:44.94Z</time></trkpt><trkpt lat="38.8383599" lon="16.2928855"><ele>241.0</ele><time>2026-04-19T07:35:46.942Z</time></trkpt><trkpt lat="38.8382455" lon="16.2928713"><ele>245.0</ele><time>2026-04-19T07:35:48.949Z</time></trkpt><trkpt lat="38.8381298" lon="16.292863"><ele>249.0</ele><time>2026-04-19T07:35:50.938Z</time></trkpt><trkpt lat="38.8380491" lon="16.2928458"><ele>253.0</ele><time>2026-04-19T07:35:52.952Z</time></trkpt><trkpt lat="38.8379673" lon="16.2928321"><ele>253.0</ele><time>2026-04-19T07:35:54.94Z</time></trkpt><trkpt lat="38.837883" lon="16.2928428"><ele>253.0</ele><time>2026-04-19T07:35:56.948Z</time></trkpt><trkpt lat="38.8377619" lon="16.2928368"><ele>253.0</ele><time>2026-04-19T07:35:58.936Z</time></trkpt><trkpt lat="38.8376451" lon="16.2928019"><ele>253.0</ele><time>2026-04-19T07:36:00.946Z</time></trkpt><trkpt lat="38.8375737" lon="16.2927817"><ele>253.0</ele><time>2026-04-19T07:36:02.943Z</time></trkpt><trkpt lat="38.8375075" lon="16.2927532"><ele>255.99999999999997</ele><time>2026-04-19T07:36:05.942Z</time></trkpt><trkpt lat="38.8374159" lon="16.292725"><ele>259.0</ele><time>2026-04-19T07:36:07.94Z</time></trkpt><trkpt lat="38.837334" lon="16.2927053"><ele>262.0</ele><time>2026-04-19T07:36:09.946Z</time></trkpt><trkpt lat="38.8372541" lon="16.292735"><ele>265.0</ele><time>2026-04-19T07:36:23.947Z</time></trkpt><trkpt lat="38.8371671" lon="16.2928342"><ele>268.0</ele><time>2026-04-19T07:36:25.94Z</time></trkpt><trkpt lat="38.8371056" lon="16.2928654"><ele>271.0</ele><time>2026-04-19T07:36:26.939Z</time></trkpt><trkpt lat="38.8369907" lon="16.2929188"><ele>271.0</ele><time>2026-04-19T07:36:28.933Z</time></trkpt><trkpt lat="38.83691" lon="16.2930066"><ele>271.0</ele><time>2026-04-19T07:36:30.943Z</time></trkpt><trkpt lat="38.836847" lon="16.2930788"><ele>271.0</ele><time>2026-04-19T07:36:37.948Z</time></trkpt><trkpt lat="38.83681" lon="16.2931578"><ele>271.0</ele><time>2026-04-19T07:36:39.935Z</time></trkpt><trkpt lat="38.8367738" lon="16.2932301"><ele>271.0</ele><time>2026-04-19T07:36:54.938Z</time></trkpt><trkpt lat="38.8367995" lon="16.2933327"><ele>271.0</ele><time>2026-04-19T07:36:58.949Z</time></trkpt><trkpt lat="38.8368735" lon="16.2933689"><ele>274.0</ele><time>2026-04-19T07:37:00.942Z</time></trkpt><trkpt lat="38.8369921" lon="16.2933579"><ele>277.0</ele><time>2026-04-19T07:37:02.934Z</time></trkpt><trkpt lat="38.8370686" lon="16.2933435"><ele>280.0</ele><time>2026-04-19T07:37:03.941Z</time></trkpt><trkpt lat="38.8371372" lon="16.2933242"><ele>283.0</ele><time>2026-04-19T07:37:04.948Z</time></trkpt><trkpt lat="38.8372033" lon="16.2933151"><ele>286.0</ele><time>2026-04-19T07:37:05.944Z</time></trkpt><trkpt lat="38.8372743" lon="16.2933278"><ele>289.0</ele><time>2026-04-19T07:37:07.936Z</time></trkpt><trkpt lat="38.8373483" lon="16.2933405"><ele>289.0</ele><time>2026-04-19T07:37:10.933Z</time></trkpt><trkpt lat="38.8374202" lon="16.2933385"><ele>289.0</ele><time>2026-04-19T07:37:13.95Z</time></trkpt><trkpt lat="38.8374924" lon="16.2933954"><ele>289.0</ele><time>2026-04-19T07:37:15.94Z</time></trkpt><trkpt lat="38.8375815" lon="16.2934604"><ele>289.0</ele><time>2026-04-19T07:37:17.941Z</time></trkpt><trkpt lat="38.8376493" lon="16.2935328"><ele>289.0</ele><time>2026-04-19T07:37:19.948Z</time></trkpt><trkpt lat="38.8376893" lon="16.2936136"><ele>289.0</ele><time>2026-04-19T07:37:21.943Z</time></trkpt><trkpt lat="38.8377143" lon="16.2937052"><ele>287.5</ele><time>2026-04-19T07:37:23.943Z</time></trkpt><trkpt lat="38.8377419" lon="16.2937934"><ele>286.0</ele><time>2026-04-19T07:37:25.945Z</time></trkpt><trkpt lat="38.8377621" lon="16.2938737"><ele>284.5</ele><time>2026-04-19T07:37:27.947Z</time></trkpt><trkpt lat="38.8377756" lon="16.2939838"><ele>283.0</ele><time>2026-04-19T07:37:30.951Z</time></trkpt><trkpt lat="38.8377769" lon="16.2940879"><ele>281.5</ele><time>2026-04-19T07:37:33.953Z</time></trkpt><trkpt lat="38.8377562" lon="16.2941749"><ele>280.0</ele><time>2026-04-19T07:37:39.945Z</time></trkpt><trkpt lat="38.8377255" lon="16.2942779"><ele>280.0</ele><time>2026-04-19T07:37:42.948Z</time></trkpt><trkpt lat="38.8376974" lon="16.2943612"><ele>280.0</ele><time>2026-04-19T07:37:44.941Z</time></trkpt><trkpt lat="38.8376557" lon="16.2944467"><ele>280.0</ele><time>2026-04-19T07:37:59.948Z</time></trkpt><trkpt lat="38.8376186" lon="16.2945193"><ele>280.0</ele><time>2026-04-19T07:38:03.943Z</time></trkpt><trkpt lat="38.8375693" lon="16.2946202"><ele>280.0</ele><time>2026-04-19T07:38:07.959Z</time></trkpt><trkpt lat="38.8375219" lon="16.2947171"><ele>280.0</ele><time>2026-04-19T07:38:09.947Z</time></trkpt><trkpt lat="38.8374778" lon="16.2948195"><ele>287.2</ele><time>2026-04-19T07:38:11.944Z</time></trkpt><trkpt lat="38.8374311" lon="16.2949243"><ele>294.4</ele><time>2026-04-19T07:38:14.952Z</time></trkpt><trkpt lat="38.8373853" lon="16.2950455"><ele>301.6</ele><time>2026-04-19T07:38:16.94Z</time></trkpt><trkpt lat="38.8373706" lon="16.2951822"><ele>308.8</ele><time>2026-04-19T07:38:18.953Z</time></trkpt><trkpt lat="38.8373639" lon="16.2952656"><ele>316.0</ele><time>2026-04-19T07:38:19.945Z</time></trkpt><trkpt lat="38.8373686" lon="16.2954036"><ele>316.0</ele><time>2026-04-19T07:38:21.938Z</time></trkpt><trkpt lat="38.8373815" lon="16.2955198"><ele>316.0</ele><time>2026-04-19T07:38:23.936Z</time></trkpt><trkpt lat="38.8373832" lon="16.2956211"><ele>316.0</ele><time>2026-04-19T07:38:25.952Z</time></trkpt><trkpt lat="38.8373844" lon="16.2957231"><ele>316.0</ele><time>2026-04-19T07:38:27.943Z</time></trkpt><trkpt lat="38.8373864" lon="16.295833"><ele>316.0</ele><time>2026-04-19T07:38:30.939Z</time></trkpt><trkpt lat="38.8373905" lon="16.2959545"><ele>316.0</ele><time>2026-04-19T07:38:33.947Z</time></trkpt><trkpt lat="38.8373956" lon="16.2960429"><ele>317.0</ele><time>2026-04-19T07:38:35.933Z</time></trkpt><trkpt lat="38.8373976" lon="16.2961443"><ele>318.0</ele><time>2026-04-19T07:38:37.94Z</time></trkpt><trkpt lat="38.8373899" lon="16.2962662"><ele>319.0</ele><time>2026-04-19T07:38:39.942Z</time></trkpt><trkpt lat="38.8373732" lon="16.2963739"><ele>320.0</ele><time>2026-04-19T07:38:41.943Z</time></trkpt><trkpt lat="38.8373517" lon="16.2964859"><ele>321.0</ele><time>2026-04-19T07:38:47.942Z</time></trkpt><trkpt lat="38.8373256" lon="16.2965918"><ele>322.0</ele><time>2026-04-19T07:38:49.948Z</time></trkpt><trkpt lat="38.8373013" lon="16.2966673"><ele>322.16666666666663</ele><time>2026-04-19T07:38:50.944Z</time></trkpt><trkpt lat="38.8372505" lon="16.2968154"><ele>322.3333333333333</ele><time>2026-04-19T07:38:52.948Z</time></trkpt><trkpt lat="38.8372245" lon="16.2968929"><ele>322.5</ele><time>2026-04-19T07:38:53.939Z</time></trkpt><trkpt lat="38.837194" lon="16.2969699"><ele>322.6666666666667</ele><time>2026-04-19T07:38:54.941Z</time></trkpt><trkpt lat="38.8371471" lon="16.2970766"><ele>322.83333333333337</ele><time>2026-04-19T07:38:56.936Z</time></trkpt><trkpt lat="38.8371165" lon="16.2971745"><ele>323.0</ele><time>2026-04-19T07:38:59.944Z</time></trkpt><trkpt lat="38.8370875" lon="16.2972881"><ele>323.0</ele><time>2026-04-19T07:39:02.943Z</time></trkpt><trkpt lat="38.8370525" lon="16.2973846"><ele>323.0</ele><time>2026-04-19T07:39:08.938Z</time></trkpt><trkpt lat="38.8370033" lon="16.297485"><ele>323.0</ele><time>2026-04-19T07:39:11.935Z</time></trkpt><trkpt lat="38.8369614" lon="16.2975715"><ele>323.0</ele><time>2026-04-19T07:39:13.954Z</time></trkpt><trkpt lat="38.8369084" lon="16.297674"><ele>323.0</ele><time>2026-04-19T07:39:15.953Z</time></trkpt><trkpt lat="38.8368507" lon="16.2977722"><ele>323.0</ele><time>2026-04-19T07:39:17.941Z</time></trkpt><trkpt lat="38.8367781" lon="16.2978968"><ele>324.0</ele><time>2026-04-19T07:39:19.946Z</time></trkpt><trkpt lat="38.8366957" lon="16.2980202"><ele>325.0</ele><time>2026-04-19T07:39:21.94Z</time></trkpt><trkpt lat="38.8366502" lon="16.2980909"><ele>326.0</ele><time>2026-04-19T07:39:22.938Z</time></trkpt><trkpt lat="38.8366014" lon="16.2981692"><ele>327.0</ele><time>2026-04-19T07:39:23.939Z</time></trkpt><trkpt lat="38.8365492" lon="16.2982546"><ele>328.0</ele><time>2026-04-19T07:39:24.941Z</time></trkpt><trkpt lat="38.8364986" lon="16.2983443"><ele>329.0</ele><time>2026-04-19T07:39:25.96Z</time></trkpt><trkpt lat="38.8364475" lon="16.2984358"><ele>329.5</ele><time>2026-04-19T07:39:26.943Z</time></trkpt><trkpt lat="38.8363961" lon="16.298528"><ele>330.0</ele><time>2026-04-19T07:39:27.937Z</time></trkpt><trkpt lat="38.8363461" lon="16.2986193"><ele>330.5</ele><time>2026-04-19T07:39:28.931Z</time></trkpt><trkpt lat="38.8362971" lon="16.2987073"><ele>331.0</ele><time>2026-04-19T07:39:29.942Z</time></trkpt><trkpt lat="38.8362476" lon="16.298788"><ele>331.5</ele><time>2026-04-19T07:39:30.94Z</time></trkpt><trkpt lat="38.8361967" lon="16.2988657"><ele>332.0</ele><time>2026-04-19T07:39:31.939Z</time></trkpt><trkpt lat="38.8361472" lon="16.2989426"><ele>332.1666666666667</ele><time>2026-04-19T07:39:32.938Z</time></trkpt><trkpt lat="38.836095" lon="16.2990177"><ele>332.33333333333337</ele><time>2026-04-19T07:39:33.937Z</time></trkpt><trkpt lat="38.8360414" lon="16.2990955"><ele>332.5</ele><time>2026-04-19T07:39:34.955Z</time></trkpt><trkpt lat="38.8359871" lon="16.2991751"><ele>332.6666666666667</ele><time>2026-04-19T07:39:35.937Z</time></trkpt><trkpt lat="38.8359367" lon="16.2992613"><ele>332.8333333333333</ele><time>2026-04-19T07:39:36.942Z</time></trkpt><trkpt lat="38.8358909" lon="16.2993591"><ele>333.0</ele><time>2026-04-19T07:39:37.938Z</time></trkpt><trkpt lat="38.8358457" lon="16.2994586"><ele>333.4</ele><time>2026-04-19T07:39:38.939Z</time></trkpt><trkpt lat="38.8357932" lon="16.2995556"><ele>333.79999999999995</ele><time>2026-04-19T07:39:39.951Z</time></trkpt><trkpt lat="38.8357368" lon="16.299654"><ele>334.2</ele><time>2026-04-19T07:39:40.935Z</time></trkpt><trkpt lat="38.8356788" lon="16.2997556"><ele>334.6</ele><time>2026-04-19T07:39:41.939Z</time></trkpt><trkpt lat="38.8356175" lon="16.2998551"><ele>335.0</ele><time>2026-04-19T07:39:42.939Z</time></trkpt><trkpt lat="38.8355521" lon="16.2999547"><ele>335.8</ele><time>2026-04-19T07:39:43.943Z</time></trkpt><trkpt lat="38.8354771" lon="16.3000445"><ele>336.6</ele><time>2026-04-19T07:39:44.94Z</time></trkpt><trkpt lat="38.8353909" lon="16.3001186"><ele>337.4</ele><time>2026-04-19T07:39:45.938Z</time></trkpt><trkpt lat="38.8352976" lon="16.3001844"><ele>338.2</ele><time>2026-04-19T07:39:46.939Z</time></trkpt><trkpt lat="38.8352009" lon="16.3002552"><ele>339.0</ele><time>2026-04-19T07:39:47.943Z</time></trkpt><trkpt lat="38.8350993" lon="16.3003302"><ele>339.5</ele><time>2026-04-19T07:39:48.955Z</time></trkpt><trkpt lat="38.8349912" lon="16.3004073"><ele>340.0</ele><time>2026-04-19T07:39:49.935Z</time></trkpt><trkpt lat="38.8348782" lon="16.3004877"><ele>340.5</ele><time>2026-04-19T07:39:50.94Z</time></trkpt><trkpt lat="38.8347615" lon="16.3005675"><ele>341.0</ele><time>2026-04-19T07:39:51.944Z</time></trkpt><trkpt lat="38.8346423" lon="16.300647"><ele>341.25</ele><time>2026-04-19T07:39:52.94Z</time></trkpt><trkpt lat="38.8345234" lon="16.3007287"><ele>341.5</ele><time>2026-04-19T07:39:53.945Z</time></trkpt><trkpt lat="38.8344052" lon="16.3008172"><ele>341.75</ele><time>2026-04-19T07:39:54.937Z</time></trkpt><trkpt lat="38.834287" lon="16.300905"><ele>342.0</ele><time>2026-04-19T07:39:55.936Z</time></trkpt><trkpt lat="38.8341727" lon="16.3009885"><ele>343.0</ele><time>2026-04-19T07:39:56.939Z</time></trkpt><trkpt lat="38.8340665" lon="16.301058"><ele>344.0</ele><time>2026-04-19T07:39:57.942Z</time></trkpt><trkpt lat="38.8339685" lon="16.3011045"><ele>345.0</ele><time>2026-04-19T07:39:58.939Z</time></trkpt><trkpt lat="38.833879" lon="16.3011435"><ele>346.0</ele><time>2026-04-19T07:39:59.957Z</time></trkpt><trkpt lat="38.8337859" lon="16.3011497"><ele>347.0</ele><time>2026-04-19T07:40:00.939Z</time></trkpt><trkpt lat="38.8336978" lon="16.3011557"><ele>347.0</ele><time>2026-04-19T07:40:01.939Z</time></trkpt><trkpt lat="38.8336097" lon="16.3011685"><ele>347.0</ele><time>2026-04-19T07:40:02.935Z</time></trkpt><trkpt lat="38.8335193" lon="16.3011863"><ele>347.0</ele><time>2026-04-19T07:40:03.94Z</time></trkpt><trkpt lat="38.8334276" lon="16.301203"><ele>347.0</ele><time>2026-04-19T07:40:04.948Z</time></trkpt><trkpt lat="38.8333328" lon="16.3012146"><ele>347.0</ele><time>2026-04-19T07:40:05.943Z</time></trkpt><trkpt lat="38.833237" lon="16.301227"><ele>347.6</ele><time>2026-04-19T07:40:06.935Z</time></trkpt><trkpt lat="38.8331405" lon="16.3012446"><ele>348.20000000000005</ele><time>2026-04-19T07:40:07.938Z</time></trkpt><trkpt lat="38.8330417" lon="16.3012588"><ele>348.8</ele><time>2026-04-19T07:40:08.934Z</time></trkpt><trkpt lat="38.8329391" lon="16.3012689"><ele>349.4</ele><time>2026-04-19T07:40:09.94Z</time></trkpt><trkpt lat="38.8328335" lon="16.3012817"><ele>350.0</ele><time>2026-04-19T07:40:10.935Z</time></trkpt><trkpt lat="38.8327226" lon="16.3012941"><ele>351.0</ele><time>2026-04-19T07:40:11.94Z</time></trkpt><trkpt lat="38.8326021" lon="16.3013076"><ele>352.0</ele><time>2026-04-19T07:40:12.936Z</time></trkpt><trkpt lat="38.8324574" lon="16.301328"><ele>353.0</ele><time>2026-04-19T07:40:13.937Z</time></trkpt><trkpt lat="38.8323026" lon="16.3013678"><ele>354.0</ele><time>2026-04-19T07:40:14.938Z</time></trkpt><trkpt lat="38.832162" lon="16.3014437"><ele>355.3333333333333</ele><time>2026-04-19T07:40:15.939Z</time></trkpt><trkpt lat="38.8320447" lon="16.3015576"><ele>356.66666666666663</ele><time>2026-04-19T07:40:16.935Z</time></trkpt><trkpt lat="38.8319441" lon="16.3017034"><ele>358.0</ele><time>2026-04-19T07:40:17.935Z</time></trkpt><trkpt lat="38.831853" lon="16.3018591"><ele>358.75</ele><time>2026-04-19T07:40:18.942Z</time></trkpt><trkpt lat="38.8317713" lon="16.3020079"><ele>359.5</ele><time>2026-04-19T07:40:19.945Z</time></trkpt><trkpt lat="38.8316984" lon="16.3021439"><ele>360.25</ele><time>2026-04-19T07:40:20.946Z</time></trkpt><trkpt lat="38.8316373" lon="16.3022668"><ele>361.0</ele><time>2026-04-19T07:40:21.942Z</time></trkpt><trkpt lat="38.8315893" lon="16.3023779"><ele>361.4</ele><time>2026-04-19T07:40:22.949Z</time></trkpt><trkpt lat="38.8315552" lon="16.302472"><ele>361.8</ele><time>2026-04-19T07:40:23.944Z</time></trkpt><trkpt lat="38.8315336" lon="16.3025494"><ele>362.2</ele><time>2026-04-19T07:40:24.94Z</time></trkpt><trkpt lat="38.8315019" lon="16.3026753"><ele>362.59999999999997</ele><time>2026-04-19T07:40:26.937Z</time></trkpt><trkpt lat="38.8314786" lon="16.3027998"><ele>363.0</ele><time>2026-04-19T07:40:28.94Z</time></trkpt><trkpt lat="38.8314573" lon="16.3029445"><ele>363.0</ele><time>2026-04-19T07:40:30.951Z</time></trkpt><trkpt lat="38.8314457" lon="16.3030271"><ele>363.0</ele><time>2026-04-19T07:40:31.94Z</time></trkpt><trkpt lat="38.8314358" lon="16.3031183"><ele>363.0</ele><time>2026-04-19T07:40:32.94Z</time></trkpt><trkpt lat="38.8314241" lon="16.3032184"><ele>363.0</ele><time>2026-04-19T07:40:33.945Z</time></trkpt><trkpt lat="38.8314067" lon="16.3033377"><ele>363.0</ele><time>2026-04-19T07:40:34.943Z</time></trkpt><trkpt lat="38.8313878" lon="16.303454"><ele>363.0</ele><time>2026-04-19T07:40:35.95Z</time></trkpt><trkpt lat="38.8313688" lon="16.3035589"><ele>363.3333333333333</ele><time>2026-04-19T07:40:36.933Z</time></trkpt><trkpt lat="38.8313479" lon="16.3036513"><ele>363.6666666666667</ele><time>2026-04-19T07:40:37.937Z</time></trkpt><trkpt lat="38.8313256" lon="16.3037379"><ele>364.0</ele><time>2026-04-19T07:40:38.932Z</time></trkpt><trkpt lat="38.8312971" lon="16.3038203"><ele>364.33333333333337</ele><time>2026-04-19T07:40:39.94Z</time></trkpt><trkpt lat="38.8312595" lon="16.3038898"><ele>364.6666666666667</ele><time>2026-04-19T07:40:40.937Z</time></trkpt><trkpt lat="38.8311669" lon="16.3039573"><ele>365.0</ele><time>2026-04-19T07:40:42.937Z</time></trkpt><trkpt lat="38.8311389" lon="16.3040396"><ele>366.0</ele><time>2026-04-19T07:40:45.939Z</time></trkpt><trkpt lat="38.8311571" lon="16.304144"><ele>367.0</ele><time>2026-04-19T07:40:47.946Z</time></trkpt><trkpt lat="38.8311784" lon="16.3042287"><ele>368.0</ele><time>2026-04-19T07:40:48.938Z</time></trkpt><trkpt lat="38.8311975" lon="16.3043255"><ele>369.0</ele><time>2026-04-19T07:40:49.939Z</time></trkpt><trkpt lat="38.8312135" lon="16.3044328"><ele>370.0</ele><time>2026-04-19T07:40:50.942Z</time></trkpt><trkpt lat="38.8312292" lon="16.3045528"><ele>371.0</ele><time>2026-04-19T07:40:51.937Z</time></trkpt><trkpt lat="38.83124" lon="16.3046747"><ele>372.6</ele><time>2026-04-19T07:40:52.937Z</time></trkpt><trkpt lat="38.8312559" lon="16.3048009"><ele>374.20000000000005</ele><time>2026-04-19T07:40:53.939Z</time></trkpt><trkpt lat="38.8312703" lon="16.3049339"><ele>375.79999999999995</ele><time>2026-04-19T07:40:54.939Z</time></trkpt><trkpt lat="38.8312847" lon="16.3050713"><ele>377.4</ele><time>2026-04-19T07:40:55.947Z</time></trkpt><trkpt lat="38.8313023" lon="16.3052095"><ele>379.0</ele><time>2026-04-19T07:40:56.942Z</time></trkpt><trkpt lat="38.831321" lon="16.3053489"><ele>379.0</ele><time>2026-04-19T07:40:57.938Z</time></trkpt><trkpt lat="38.831341" lon="16.3054894"><ele>379.0</ele><time>2026-04-19T07:40:58.939Z</time></trkpt><trkpt lat="38.8313639" lon="16.3056292"><ele>379.0</ele><time>2026-04-19T07:40:59.934Z</time></trkpt><trkpt lat="38.8313898" lon="16.3057634"><ele>379.0</ele><time>2026-04-19T07:41:00.942Z</time></trkpt><trkpt lat="38.8314184" lon="16.3058967"><ele>379.0</ele><time>2026-04-19T07:41:01.94Z</time></trkpt><trkpt lat="38.8314468" lon="16.3060305"><ele>381.2</ele><time>2026-04-19T07:41:02.937Z</time></trkpt><trkpt lat="38.8314727" lon="16.3061672"><ele>383.4</ele><time>2026-04-19T07:41:03.942Z</time></trkpt><trkpt lat="38.8314852" lon="16.3063106"><ele>385.6</ele><time>2026-04-19T07:41:04.944Z</time></trkpt><trkpt lat="38.8314701" lon="16.3064479"><ele>387.8</ele><time>2026-04-19T07:41:05.946Z</time></trkpt><trkpt lat="38.831423" lon="16.3065588"><ele>390.0</ele><time>2026-04-19T07:41:06.938Z</time></trkpt><trkpt lat="38.8313765" lon="16.3066669"><ele>391.8</ele><time>2026-04-19T07:41:07.94Z</time></trkpt><trkpt lat="38.8312963" lon="16.3067509"><ele>393.6</ele><time>2026-04-19T07:41:08.942Z</time></trkpt><trkpt lat="38.8312188" lon="16.3068306"><ele>395.4</ele><time>2026-04-19T07:41:09.949Z</time></trkpt><trkpt lat="38.8311441" lon="16.3069138"><ele>397.2</ele><time>2026-04-19T07:41:10.933Z</time></trkpt><trkpt lat="38.8310762" lon="16.306988"><ele>399.0</ele><time>2026-04-19T07:41:11.955Z</time></trkpt><trkpt lat="38.8310118" lon="16.3070596"><ele>401.0</ele><time>2026-04-19T07:41:12.939Z</time></trkpt><trkpt lat="38.8309517" lon="16.3071273"><ele>403.0</ele><time>2026-04-19T07:41:13.946Z</time></trkpt><trkpt lat="38.8308944" lon="16.3071932"><ele>405.0</ele><time>2026-04-19T07:41:14.94Z</time></trkpt><trkpt lat="38.8308393" lon="16.3072582"><ele>407.0</ele><time>2026-04-19T07:41:15.937Z</time></trkpt><trkpt lat="38.8307875" lon="16.3073244"><ele>409.0</ele><time>2026-04-19T07:41:16.947Z</time></trkpt><trkpt lat="38.830738" lon="16.3073962"><ele>411.0</ele><time>2026-04-19T07:41:17.936Z</time></trkpt><trkpt lat="38.8306972" lon="16.3074862"><ele>411.0</ele><time>2026-04-19T07:41:18.957Z</time></trkpt><trkpt lat="38.8306679" lon="16.3075937"><ele>411.0</ele><time>2026-04-19T07:41:19.931Z</time></trkpt><trkpt lat="38.830645" lon="16.3077114"><ele>411.0</ele><time>2026-04-19T07:41:20.936Z</time></trkpt><trkpt lat="38.8306238" lon="16.3078368"><ele>411.0</ele><time>2026-04-19T07:41:21.935Z</time></trkpt><trkpt lat="38.8305933" lon="16.3079621"><ele>411.0</ele><time>2026-04-19T07:41:22.937Z</time></trkpt><trkpt lat="38.8305483" lon="16.3080818"><ele>410.6</ele><time>2026-04-19T07:41:23.939Z</time></trkpt><trkpt lat="38.8304924" lon="16.3081958"><ele>410.20000000000005</ele><time>2026-04-19T07:41:24.939Z</time></trkpt><trkpt lat="38.8304289" lon="16.3083082"><ele>409.79999999999995</ele><time>2026-04-19T07:41:25.943Z</time></trkpt><trkpt lat="38.8303607" lon="16.3084194"><ele>409.4</ele><time>2026-04-19T07:41:26.939Z</time></trkpt><trkpt lat="38.830292" lon="16.3085312"><ele>409.0</ele><time>2026-04-19T07:41:27.938Z</time></trkpt><trkpt lat="38.8302249" lon="16.3086453"><ele>409.00000000000006</ele><time>2026-04-19T07:41:28.937Z</time></trkpt><trkpt lat="38.8301606" lon="16.308757"><ele>409.0</ele><time>2026-04-19T07:41:29.937Z</time></trkpt><trkpt lat="38.8301046" lon="16.3088531"><ele>409.0</ele><time>2026-04-19T07:41:30.934Z</time></trkpt><trkpt lat="38.8300584" lon="16.3089305"><ele>409.0</ele><time>2026-04-19T07:41:31.944Z</time></trkpt><trkpt lat="38.829995" lon="16.3090279"><ele>409.00000000000006</ele><time>2026-04-19T07:41:33.94Z</time></trkpt><trkpt lat="38.8299425" lon="16.3090806"><ele>409.0</ele><time>2026-04-19T07:41:35.942Z</time></trkpt><trkpt lat="38.8298796" lon="16.3091421"><ele>410.83333333333337</ele><time>2026-04-19T07:41:38.935Z</time></trkpt><trkpt lat="38.829883" lon="16.3092234"><ele>412.6666666666667</ele><time>2026-04-19T07:41:44.938Z</time></trkpt><trkpt lat="38.8299349" lon="16.3093109"><ele>414.5</ele><time>2026-04-19T07:41:46.939Z</time></trkpt><trkpt lat="38.8299786" lon="16.3093836"><ele>416.33333333333337</ele><time>2026-04-19T07:41:47.938Z</time></trkpt><trkpt lat="38.8300185" lon="16.3094729"><ele>418.1666666666667</ele><time>2026-04-19T07:41:48.939Z</time></trkpt><trkpt lat="38.8300561" lon="16.3095662"><ele>420.0</ele><time>2026-04-19T07:41:49.938Z</time></trkpt><trkpt lat="38.8300755" lon="16.3096942"><ele>420.5</ele><time>2026-04-19T07:41:50.935Z</time></trkpt><trkpt lat="38.8300789" lon="16.3098285"><ele>421.0</ele><time>2026-04-19T07:41:51.933Z</time></trkpt><trkpt lat="38.830077" lon="16.309973"><ele>421.5</ele><time>2026-04-19T07:41:52.939Z</time></trkpt><trkpt lat="38.8300625" lon="16.3101225"><ele>422.0</ele><time>2026-04-19T07:41:53.947Z</time></trkpt><trkpt lat="38.8300387" lon="16.3102769"><ele>422.0</ele><time>2026-04-19T07:41:54.942Z</time></trkpt><trkpt lat="38.8299978" lon="16.3104573"><ele>422.0</ele><time>2026-04-19T07:41:55.942Z</time></trkpt><trkpt lat="38.8299447" lon="16.3106422"><ele>422.0</ele><time>2026-04-19T07:41:56.943Z</time></trkpt><trkpt lat="38.8298797" lon="16.3108192"><ele>422.25</ele><time>2026-04-19T07:41:57.938Z</time></trkpt><trkpt lat="38.8298043" lon="16.3109868"><ele>422.5</ele><time>2026-04-19T07:41:58.932Z</time></trkpt><trkpt lat="38.8297243" lon="16.3111408"><ele>422.75</ele><time>2026-04-19T07:41:59.951Z</time></trkpt><trkpt lat="38.829649" lon="16.3112813"><ele>423.0</ele><time>2026-04-19T07:42:00.94Z</time></trkpt><trkpt lat="38.8295837" lon="16.3114073"><ele>423.2</ele><time>2026-04-19T07:42:01.934Z</time></trkpt><trkpt lat="38.8295263" lon="16.3115155"><ele>423.4</ele><time>2026-04-19T07:42:02.939Z</time></trkpt><trkpt lat="38.8294693" lon="16.3116222"><ele>423.59999999999997</ele><time>2026-04-19T07:42:03.937Z</time></trkpt><trkpt lat="38.8294084" lon="16.3117347"><ele>423.79999999999995</ele><time>2026-04-19T07:42:04.943Z</time></trkpt><trkpt lat="38.8293431" lon="16.3118498"><ele>424.0</ele><time>2026-04-19T07:42:05.951Z</time></trkpt><trkpt lat="38.8292752" lon="16.3119602"><ele>424.79999999999995</ele><time>2026-04-19T07:42:06.935Z</time></trkpt><trkpt lat="38.8292022" lon="16.3120609"><ele>425.59999999999997</ele><time>2026-04-19T07:42:07.949Z</time></trkpt><trkpt lat="38.8291129" lon="16.3121405"><ele>426.4</ele><time>2026-04-19T07:42:08.942Z</time></trkpt><trkpt lat="38.8290106" lon="16.3121861"><ele>427.2</ele><time>2026-04-19T07:42:09.939Z</time></trkpt><trkpt lat="38.8289046" lon="16.312202"><ele>428.0</ele><time>2026-04-19T07:42:10.942Z</time></trkpt><trkpt lat="38.828796" lon="16.3121907"><ele>428.0</ele><time>2026-04-19T07:42:11.937Z</time></trkpt><trkpt lat="38.8286896" lon="16.3121674"><ele>427.99999999999994</ele><time>2026-04-19T07:42:12.935Z</time></trkpt><trkpt lat="38.8285895" lon="16.3121454"><ele>427.99999999999994</ele><time>2026-04-19T07:42:13.938Z</time></trkpt><trkpt lat="38.8284922" lon="16.3121229"><ele>428.0</ele><time>2026-04-19T07:42:14.959Z</time></trkpt><trkpt lat="38.8283958" lon="16.3120961"><ele>428.0</ele><time>2026-04-19T07:42:15.935Z</time></trkpt><trkpt lat="38.8283144" lon="16.3120755"><ele>428.3333333333333</ele><time>2026-04-19T07:42:16.941Z</time></trkpt><trkpt lat="38.8282142" lon="16.3121015"><ele>428.66666666666663</ele><time>2026-04-19T07:42:18.942Z</time></trkpt><trkpt lat="38.8281627" lon="16.3122044"><ele>429.0</ele><time>2026-04-19T07:42:20.939Z</time></trkpt><trkpt lat="38.8281484" lon="16.312297"><ele>429.33333333333337</ele><time>2026-04-19T07:42:21.94Z</time></trkpt><trkpt lat="38.8281355" lon="16.3124037"><ele>429.6666666666667</ele><time>2026-04-19T07:42:22.946Z</time></trkpt><trkpt lat="38.8281235" lon="16.3125194"><ele>430.0</ele><time>2026-04-19T07:42:23.935Z</time></trkpt><trkpt lat="38.8281077" lon="16.3126397"><ele>430.1666666666667</ele><time>2026-04-19T07:42:24.94Z</time></trkpt><trkpt lat="38.8280891" lon="16.3127637"><ele>430.33333333333337</ele><time>2026-04-19T07:42:25.936Z</time></trkpt><trkpt lat="38.8280709" lon="16.3128852"><ele>430.5</ele><time>2026-04-19T07:42:26.946Z</time></trkpt><trkpt lat="38.8280501" lon="16.3129899"><ele>430.66666666666663</ele><time>2026-04-19T07:42:27.942Z</time></trkpt><trkpt lat="38.8280316" lon="16.3130734"><ele>430.8333333333333</ele><time>2026-04-19T07:42:28.936Z</time></trkpt><trkpt lat="38.8280131" lon="16.3131706"><ele>431.0</ele><time>2026-04-19T07:42:30.934Z</time></trkpt><trkpt lat="38.8280118" lon="16.3132657"><ele>431.4</ele><time>2026-04-19T07:42:32.948Z</time></trkpt><trkpt lat="38.8280199" lon="16.3133483"><ele>431.8</ele><time>2026-04-19T07:42:33.947Z</time></trkpt><trkpt lat="38.8280362" lon="16.3134499"><ele>432.19999999999993</ele><time>2026-04-19T07:42:34.941Z</time></trkpt><trkpt lat="38.8280584" lon="16.3135655"><ele>432.59999999999997</ele><time>2026-04-19T07:42:35.934Z</time></trkpt><trkpt lat="38.8280831" lon="16.3136925"><ele>433.0</ele><time>2026-04-19T07:42:36.934Z</time></trkpt><trkpt lat="38.8281047" lon="16.3138308"><ele>432.25</ele><time>2026-04-19T07:42:37.942Z</time></trkpt><trkpt lat="38.8281262" lon="16.3139752"><ele>431.5</ele><time>2026-04-19T07:42:38.934Z</time></trkpt><trkpt lat="38.828149" lon="16.3141242"><ele>430.75</ele><time>2026-04-19T07:42:39.938Z</time></trkpt><trkpt lat="38.828171" lon="16.3142781"><ele>430.0</ele><time>2026-04-19T07:42:40.945Z</time></trkpt><trkpt lat="38.8281801" lon="16.3144366"><ele>430.0</ele><time>2026-04-19T07:42:41.941Z</time></trkpt><trkpt lat="38.8281716" lon="16.3145971"><ele>430.0</ele><time>2026-04-19T07:42:42.955Z</time></trkpt><trkpt lat="38.8281582" lon="16.3147564"><ele>430.0</ele><time>2026-04-19T07:42:43.932Z</time></trkpt><trkpt lat="38.8281441" lon="16.3149172"><ele>430.0</ele><time>2026-04-19T07:42:44.938Z</time></trkpt><trkpt lat="38.8281285" lon="16.3150893"><ele>429.5</ele><time>2026-04-19T07:42:45.94Z</time></trkpt><trkpt lat="38.8281098" lon="16.3152585"><ele>429.0</ele><time>2026-04-19T07:42:46.938Z</time></trkpt><trkpt lat="38.8280882" lon="16.3154283"><ele>428.5</ele><time>2026-04-19T07:42:47.941Z</time></trkpt><trkpt lat="38.8280641" lon="16.3155879"><ele>428.0</ele><time>2026-04-19T07:42:48.944Z</time></trkpt><trkpt lat="38.8280413" lon="16.3157389"><ele>427.25</ele><time>2026-04-19T07:42:49.94Z</time></trkpt><trkpt lat="38.8280218" lon="16.3158843"><ele>426.5</ele><time>2026-04-19T07:42:50.939Z</time></trkpt><trkpt lat="38.8280057" lon="16.3160253"><ele>425.75</ele><time>2026-04-19T07:42:51.938Z</time></trkpt><trkpt lat="38.8279878" lon="16.3161742"><ele>425.0</ele><time>2026-04-19T07:42:52.941Z</time></trkpt><trkpt lat="38.8279698" lon="16.3163284"><ele>424.5</ele><time>2026-04-19T07:42:53.931Z</time></trkpt><trkpt lat="38.8279529" lon="16.3164809"><ele>424.0</ele><time>2026-04-19T07:42:54.958Z</time></trkpt><trkpt lat="38.8279371" lon="16.31663"><ele>423.5</ele><time>2026-04-19T07:42:55.941Z</time></trkpt><trkpt lat="38.8279226" lon="16.3167751"><ele>423.0</ele><time>2026-04-19T07:42:56.937Z</time></trkpt><trkpt lat="38.8279087" lon="16.3169196"><ele>423.0</ele><time>2026-04-19T07:42:57.942Z</time></trkpt><trkpt lat="38.8278918" lon="16.3170658"><ele>423.0</ele><time>2026-04-19T07:42:58.94Z</time></trkpt><trkpt lat="38.8278738" lon="16.3172129"><ele>423.0</ele><time>2026-04-19T07:42:59.942Z</time></trkpt><trkpt lat="38.8278567" lon="16.3173652"><ele>423.0</ele><time>2026-04-19T07:43:00.954Z</time></trkpt><trkpt lat="38.8278416" lon="16.3175171"><ele>422.4</ele><time>2026-04-19T07:43:01.935Z</time></trkpt><trkpt lat="38.8278242" lon="16.3176659"><ele>421.79999999999995</ele><time>2026-04-19T07:43:02.942Z</time></trkpt><trkpt lat="38.8278077" lon="16.3178104"><ele>421.2</ele><time>2026-04-19T07:43:03.942Z</time></trkpt><trkpt lat="38.8277922" lon="16.3179506"><ele>420.6</ele><time>2026-04-19T07:43:04.935Z</time></trkpt><trkpt lat="38.8277772" lon="16.3180846"><ele>420.0</ele><time>2026-04-19T07:43:05.948Z</time></trkpt><trkpt lat="38.8277627" lon="16.3182139"><ele>419.5</ele><time>2026-04-19T07:43:06.935Z</time></trkpt><trkpt lat="38.8277488" lon="16.318338"><ele>419.0</ele><time>2026-04-19T07:43:07.938Z</time></trkpt><trkpt lat="38.8277343" lon="16.3184547"><ele>418.5</ele><time>2026-04-19T07:43:08.935Z</time></trkpt><trkpt lat="38.8277196" lon="16.3185546"><ele>418.0</ele><time>2026-04-19T07:43:09.944Z</time></trkpt><trkpt lat="38.8277067" lon="16.3186368"><ele>417.5</ele><time>2026-04-19T07:43:10.938Z</time></trkpt><trkpt lat="38.8276856" lon="16.3187235"><ele>417.0</ele><time>2026-04-19T07:43:12.935Z</time></trkpt><trkpt lat="38.8276475" lon="16.3188238"><ele>417.5</ele><time>2026-04-19T07:43:18.935Z</time></trkpt><trkpt lat="38.8276397" lon="16.3189273"><ele>418.0</ele><time>2026-04-19T07:43:20.934Z</time></trkpt><trkpt lat="38.8276859" lon="16.3191127"><ele>418.5</ele><time>2026-04-19T07:43:22.936Z</time></trkpt><trkpt lat="38.8277288" lon="16.319266"><ele>419.0</ele><time>2026-04-19T07:43:23.94Z</time></trkpt><trkpt lat="38.827771" lon="16.3194541"><ele>419.0</ele><time>2026-04-19T07:43:24.932Z</time></trkpt><trkpt lat="38.8278124" lon="16.3196491"><ele>419.0</ele><time>2026-04-19T07:43:25.937Z</time></trkpt><trkpt lat="38.8278505" lon="16.3198277"><ele>419.0</ele><time>2026-04-19T07:43:26.94Z</time></trkpt><trkpt lat="38.827889" lon="16.3199931"><ele>419.0</ele><time>2026-04-19T07:43:27.938Z</time></trkpt><trkpt lat="38.8279238" lon="16.3201459"><ele>420.2</ele><time>2026-04-19T07:43:28.935Z</time></trkpt><trkpt lat="38.827952" lon="16.3202672"><ele>421.4</ele><time>2026-04-19T07:43:29.943Z</time></trkpt><trkpt lat="38.8279701" lon="16.3203639"><ele>422.6</ele><time>2026-04-19T07:43:30.934Z</time></trkpt><trkpt lat="38.8279686" lon="16.3204503"><ele>423.8</ele><time>2026-04-19T07:43:31.936Z</time></trkpt><trkpt lat="38.8279122" lon="16.3206025"><ele>425.0</ele><time>2026-04-19T07:43:33.939Z</time></trkpt><trkpt lat="38.8278632" lon="16.3207069"><ele>424.5</ele><time>2026-04-19T07:43:34.93Z</time></trkpt><trkpt lat="38.8278064" lon="16.3208487"><ele>424.0</ele><time>2026-04-19T07:43:35.947Z</time></trkpt><trkpt lat="38.8277437" lon="16.3210087"><ele>423.5</ele><time>2026-04-19T07:43:36.943Z</time></trkpt><trkpt lat="38.8276832" lon="16.3211611"><ele>423.0</ele><time>2026-04-19T07:43:37.945Z</time></trkpt><trkpt lat="38.8276227" lon="16.3213128"><ele>426.33333333333337</ele><time>2026-04-19T07:43:38.948Z</time></trkpt><trkpt lat="38.8275574" lon="16.3214688"><ele>429.6666666666667</ele><time>2026-04-19T07:43:39.937Z</time></trkpt><trkpt lat="38.8274746" lon="16.3216343"><ele>433.0</ele><time>2026-04-19T07:43:40.947Z</time></trkpt><trkpt lat="38.8273744" lon="16.3218064"><ele>433.0</ele><time>2026-04-19T07:43:41.944Z</time></trkpt><trkpt lat="38.8272674" lon="16.3219789"><ele>433.0</ele><time>2026-04-19T07:43:42.947Z</time></trkpt><trkpt lat="38.8271675" lon="16.3221384"><ele>433.0</ele><time>2026-04-19T07:43:43.939Z</time></trkpt><trkpt lat="38.8270772" lon="16.3222918"><ele>433.75</ele><time>2026-04-19T07:43:44.94Z</time></trkpt><trkpt lat="38.8270029" lon="16.3224489"><ele>434.5</ele><time>2026-04-19T07:43:45.936Z</time></trkpt><trkpt lat="38.8269435" lon="16.3226129"><ele>435.25</ele><time>2026-04-19T07:43:46.932Z</time></trkpt><trkpt lat="38.8268893" lon="16.3227769"><ele>436.0</ele><time>2026-04-19T07:43:47.943Z</time></trkpt><trkpt lat="38.8268392" lon="16.3229394"><ele>436.5</ele><time>2026-04-19T07:43:48.937Z</time></trkpt><trkpt lat="38.8267928" lon="16.3231021"><ele>437.0</ele><time>2026-04-19T07:43:49.931Z</time></trkpt><trkpt lat="38.8267496" lon="16.3232717"><ele>437.5</ele><time>2026-04-19T07:43:50.949Z</time></trkpt><trkpt lat="38.8267063" lon="16.3234476"><ele>438.0</ele><time>2026-04-19T07:43:51.933Z</time></trkpt><trkpt lat="38.826662" lon="16.3236288"><ele>438.0</ele><time>2026-04-19T07:43:52.938Z</time></trkpt><trkpt lat="38.8266202" lon="16.3238074"><ele>438.0</ele><time>2026-04-19T07:43:53.933Z</time></trkpt><trkpt lat="38.826583" lon="16.3239693"><ele>438.0</ele><time>2026-04-19T07:43:54.937Z</time></trkpt><trkpt lat="38.8265481" lon="16.324112"><ele>438.0</ele><time>2026-04-19T07:43:55.939Z</time></trkpt><trkpt lat="38.8265199" lon="16.3242373"><ele>439.0</ele><time>2026-04-19T07:43:56.949Z</time></trkpt><trkpt lat="38.8264961" lon="16.3243437"><ele>439.99999999999994</ele><time>2026-04-19T07:43:57.936Z</time></trkpt><trkpt lat="38.8264694" lon="16.3244239"><ele>440.99999999999994</ele><time>2026-04-19T07:43:58.942Z</time></trkpt><trkpt lat="38.8263953" lon="16.3244989"><ele>442.0</ele><time>2026-04-19T07:44:00.949Z</time></trkpt><trkpt lat="38.8262881" lon="16.3245086"><ele>443.0</ele><time>2026-04-19T07:44:02.942Z</time></trkpt><trkpt lat="38.8261611" lon="16.3245016"><ele>443.0</ele><time>2026-04-19T07:44:04.936Z</time></trkpt><trkpt lat="38.82608" lon="16.3245071"><ele>442.99999999999994</ele><time>2026-04-19T07:44:05.932Z</time></trkpt><trkpt lat="38.8259877" lon="16.3245324"><ele>442.99999999999994</ele><time>2026-04-19T07:44:06.947Z</time></trkpt><trkpt lat="38.8258926" lon="16.3245843"><ele>443.0</ele><time>2026-04-19T07:44:07.933Z</time></trkpt><trkpt lat="38.8258002" lon="16.324656"><ele>443.0</ele><time>2026-04-19T07:44:08.937Z</time></trkpt><trkpt lat="38.825715" lon="16.324725"><ele>443.59999999999997</ele><time>2026-04-19T07:44:09.947Z</time></trkpt><trkpt lat="38.8256312" lon="16.3247778"><ele>444.19999999999993</ele><time>2026-04-19T07:44:10.939Z</time></trkpt><trkpt lat="38.8255456" lon="16.3247958"><ele>444.8</ele><time>2026-04-19T07:44:11.956Z</time></trkpt><trkpt lat="38.8254605" lon="16.3247792"><ele>445.4</ele><time>2026-04-19T07:44:12.936Z</time></trkpt><trkpt lat="38.8253719" lon="16.3247452"><ele>446.0</ele><time>2026-04-19T07:44:13.934Z</time></trkpt><trkpt lat="38.8252815" lon="16.3247039"><ele>444.20000000000005</ele><time>2026-04-19T07:44:14.947Z</time></trkpt><trkpt lat="38.8251894" lon="16.3246635"><ele>442.40000000000003</ele><time>2026-04-19T07:44:15.935Z</time></trkpt><trkpt lat="38.8250938" lon="16.3246345"><ele>440.6</ele><time>2026-04-19T07:44:16.95Z</time></trkpt><trkpt lat="38.8249968" lon="16.3246253"><ele>438.8</ele><time>2026-04-19T07:44:17.932Z</time></trkpt><trkpt lat="38.8249051" lon="16.3246425"><ele>437.0</ele><time>2026-04-19T07:44:18.937Z</time></trkpt><trkpt lat="38.8248174" lon="16.3246802"><ele>435.8</ele><time>2026-04-19T07:44:19.934Z</time></trkpt><trkpt lat="38.8247288" lon="16.3247196"><ele>434.6</ele><time>2026-04-19T07:44:20.94Z</time></trkpt><trkpt lat="38.8246365" lon="16.3247516"><ele>433.40000000000003</ele><time>2026-04-19T07:44:21.944Z</time></trkpt><trkpt lat="38.8245484" lon="16.3247768"><ele>432.20000000000005</ele><time>2026-04-19T07:44:22.937Z</time></trkpt><trkpt lat="38.8244631" lon="16.3247891"><ele>431.0</ele><time>2026-04-19T07:44:23.935Z</time></trkpt><trkpt lat="38.8243769" lon="16.3247736"><ele>430.99999999999994</ele><time>2026-04-19T07:44:24.938Z</time></trkpt><trkpt lat="38.8243008" lon="16.324743"><ele>431.0</ele><time>2026-04-19T07:44:25.935Z</time></trkpt><trkpt lat="38.824224" lon="16.3247274"><ele>431.0</ele><time>2026-04-19T07:44:26.951Z</time></trkpt><trkpt lat="38.8241307" lon="16.3247342"><ele>431.0</ele><time>2026-04-19T07:44:27.936Z</time></trkpt><trkpt lat="38.8240393" lon="16.324767"><ele>430.99999999999994</ele><time>2026-04-19T07:44:28.934Z</time></trkpt><trkpt lat="38.8239471" lon="16.3248094"><ele>431.0</ele><time>2026-04-19T07:44:29.942Z</time></trkpt><trkpt lat="38.8238481" lon="16.3248558"><ele>429.25</ele><time>2026-04-19T07:44:30.934Z</time></trkpt><trkpt lat="38.8237483" lon="16.3249053"><ele>427.5</ele><time>2026-04-19T07:44:31.944Z</time></trkpt><trkpt lat="38.8236452" lon="16.3249602"><ele>425.75</ele><time>2026-04-19T07:44:32.938Z</time></trkpt><trkpt lat="38.8235328" lon="16.3250131"><ele>424.0</ele><time>2026-04-19T07:44:33.941Z</time></trkpt><trkpt lat="38.8234131" lon="16.3250718"><ele>424.0</ele><time>2026-04-19T07:44:34.935Z</time></trkpt><trkpt lat="38.8232858" lon="16.3251297"><ele>424.0</ele><time>2026-04-19T07:44:35.933Z</time></trkpt><trkpt lat="38.8231574" lon="16.3251804"><ele>424.0</ele><time>2026-04-19T07:44:36.937Z</time></trkpt><trkpt lat="38.8230323" lon="16.3252268"><ele>424.0</ele><time>2026-04-19T07:44:37.937Z</time></trkpt><trkpt lat="38.8229195" lon="16.3252683"><ele>424.00000000000006</ele><time>2026-04-19T07:44:38.939Z</time></trkpt><trkpt lat="38.8228207" lon="16.3253074"><ele>424.0</ele><time>2026-04-19T07:44:39.936Z</time></trkpt><trkpt lat="38.8227344" lon="16.3253484"><ele>424.0</ele><time>2026-04-19T07:44:40.935Z</time></trkpt><trkpt lat="38.8226608" lon="16.3254049"><ele>424.0</ele><time>2026-04-19T07:44:41.945Z</time></trkpt><trkpt lat="38.8225945" lon="16.3254721"><ele>424.00000000000006</ele><time>2026-04-19T07:44:42.932Z</time></trkpt><trkpt lat="38.8225331" lon="16.3255396"><ele>424.0</ele><time>2026-04-19T07:44:43.943Z</time></trkpt><trkpt lat="38.8224723" lon="16.3256022"><ele>423.4</ele><time>2026-04-19T07:44:44.933Z</time></trkpt><trkpt lat="38.8224119" lon="16.3256654"><ele>422.79999999999995</ele><time>2026-04-19T07:44:45.936Z</time></trkpt><trkpt lat="38.8223461" lon="16.3257359"><ele>422.20000000000005</ele><time>2026-04-19T07:44:46.93Z</time></trkpt><trkpt lat="38.822279" lon="16.3258174"><ele>421.6</ele><time>2026-04-19T07:44:47.934Z</time></trkpt><trkpt lat="38.8222125" lon="16.3259104"><ele>421.0</ele><time>2026-04-19T07:44:48.931Z</time></trkpt><trkpt lat="38.8221611" lon="16.3260262"><ele>421.0</ele><time>2026-04-19T07:44:49.937Z</time></trkpt><trkpt lat="38.8221374" lon="16.3261608"><ele>421.0</ele><time>2026-04-19T07:44:50.954Z</time></trkpt><trkpt lat="38.8221286" lon="16.3262923"><ele>421.0</ele><time>2026-04-19T07:44:51.936Z</time></trkpt><trkpt lat="38.8221118" lon="16.3264136"><ele>421.0</ele><time>2026-04-19T07:44:52.934Z</time></trkpt><trkpt lat="38.8220776" lon="16.3265181"><ele>421.0</ele><time>2026-04-19T07:44:53.938Z</time></trkpt><trkpt lat="38.8220461" lon="16.3266161"><ele>421.50000000000006</ele><time>2026-04-19T07:44:54.947Z</time></trkpt><trkpt lat="38.8220385" lon="16.3267205"><ele>422.0</ele><time>2026-04-19T07:44:55.939Z</time></trkpt><trkpt lat="38.8220454" lon="16.3268159"><ele>422.5</ele><time>2026-04-19T07:44:56.932Z</time></trkpt><trkpt lat="38.822109" lon="16.3269024"><ele>423.0</ele><time>2026-04-19T07:44:57.935Z</time></trkpt><trkpt lat="38.8221823" lon="16.3269827"><ele>423.50000000000006</ele><time>2026-04-19T07:44:58.934Z</time></trkpt><trkpt lat="38.8222543" lon="16.3270402"><ele>424.0</ele><time>2026-04-19T07:44:59.94Z</time></trkpt><trkpt lat="38.8223207" lon="16.3270867"><ele>424.0</ele><time>2026-04-19T07:45:00.935Z</time></trkpt><trkpt lat="38.8223731" lon="16.3271383"><ele>424.0</ele><time>2026-04-19T07:45:01.954Z</time></trkpt><trkpt lat="38.8223584" lon="16.3272788"><ele>424.0</ele><time>2026-04-19T07:45:03.934Z</time></trkpt><trkpt lat="38.8222875" lon="16.3273402"><ele>424.0</ele><time>2026-04-19T07:45:04.94Z</time></trkpt><trkpt lat="38.822206" lon="16.3274159"><ele>424.0</ele><time>2026-04-19T07:45:05.934Z</time></trkpt><trkpt lat="38.8221111" lon="16.3275248"><ele>419.75</ele><time>2026-04-19T07:45:06.941Z</time></trkpt><trkpt lat="38.822025" lon="16.3276446"><ele>415.5</ele><time>2026-04-19T07:45:07.93Z</time></trkpt><trkpt lat="38.8219747" lon="16.3277959"><ele>411.25</ele><time>2026-04-19T07:45:08.928Z</time></trkpt><trkpt lat="38.8219297" lon="16.3279424"><ele>407.0</ele><time>2026-04-19T07:45:09.937Z</time></trkpt><trkpt lat="38.8218766" lon="16.3280764"><ele>404.0</ele><time>2026-04-19T07:45:10.929Z</time></trkpt><trkpt lat="38.8218098" lon="16.3281918"><ele>401.0</ele><time>2026-04-19T07:45:11.947Z</time></trkpt><trkpt lat="38.8217552" lon="16.3283058"><ele>398.0</ele><time>2026-04-19T07:45:12.935Z</time></trkpt><trkpt lat="38.8217205" lon="16.3284378"><ele>395.0</ele><time>2026-04-19T07:45:13.936Z</time></trkpt><trkpt lat="38.821688" lon="16.3285714"><ele>392.0</ele><time>2026-04-19T07:45:14.94Z</time></trkpt><trkpt lat="38.8216705" lon="16.3287095"><ele>392.0</ele><time>2026-04-19T07:45:15.938Z</time></trkpt><trkpt lat="38.8216503" lon="16.3288472"><ele>392.0</ele><time>2026-04-19T07:45:16.945Z</time></trkpt><trkpt lat="38.8216204" lon="16.328984"><ele>392.0</ele><time>2026-04-19T07:45:17.935Z</time></trkpt><trkpt lat="38.8215845" lon="16.3291177"><ele>392.0</ele><time>2026-04-19T07:45:18.938Z</time></trkpt><trkpt lat="38.821538" lon="16.3292403"><ele>392.0</ele><time>2026-04-19T07:45:19.938Z</time></trkpt><trkpt lat="38.8214795" lon="16.3293512"><ele>393.0</ele><time>2026-04-19T07:45:20.936Z</time></trkpt><trkpt lat="38.8214175" lon="16.3294515"><ele>394.0</ele><time>2026-04-19T07:45:21.951Z</time></trkpt><trkpt lat="38.8213626" lon="16.3295502"><ele>395.0</ele><time>2026-04-19T07:45:22.943Z</time></trkpt><trkpt lat="38.821321" lon="16.3296552"><ele>396.0</ele><time>2026-04-19T07:45:23.937Z</time></trkpt><trkpt lat="38.8212922" lon="16.3297688"><ele>397.0</ele><time>2026-04-19T07:45:24.953Z</time></trkpt><trkpt lat="38.821265" lon="16.3298896"><ele>399.40000000000003</ele><time>2026-04-19T07:45:25.933Z</time></trkpt><trkpt lat="38.8212334" lon="16.3300158"><ele>401.8</ele><time>2026-04-19T07:45:26.949Z</time></trkpt><trkpt lat="38.8212078" lon="16.3301316"><ele>404.2</ele><time>2026-04-19T07:45:27.934Z</time></trkpt><trkpt lat="38.8211902" lon="16.3302279"><ele>406.6</ele><time>2026-04-19T07:45:28.942Z</time></trkpt><trkpt lat="38.8211812" lon="16.3303084"><ele>409.0</ele><time>2026-04-19T07:45:29.935Z</time></trkpt><trkpt lat="38.8211855" lon="16.3304668"><ele>409.0</ele><time>2026-04-19T07:45:31.935Z</time></trkpt><trkpt lat="38.8211931" lon="16.3305495"><ele>409.0</ele><time>2026-04-19T07:45:32.953Z</time></trkpt><trkpt lat="38.8212011" lon="16.3306382"><ele>409.0</ele><time>2026-04-19T07:45:33.942Z</time></trkpt><trkpt lat="38.8212095" lon="16.3307312"><ele>409.0</ele><time>2026-04-19T07:45:34.937Z</time></trkpt><trkpt lat="38.8212199" lon="16.3308288"><ele>409.0</ele><time>2026-04-19T07:45:35.934Z</time></trkpt><trkpt lat="38.8212371" lon="16.3309306"><ele>409.0</ele><time>2026-04-19T07:45:36.934Z</time></trkpt><trkpt lat="38.8212658" lon="16.3310279"><ele>409.0</ele><time>2026-04-19T07:45:37.939Z</time></trkpt><trkpt lat="38.8212904" lon="16.3311177"><ele>408.79999999999995</ele><time>2026-04-19T07:45:38.936Z</time></trkpt><trkpt lat="38.8212778" lon="16.3312159"><ele>408.59999999999997</ele><time>2026-04-19T07:45:39.934Z</time></trkpt><trkpt lat="38.8212403" lon="16.331332"><ele>408.4</ele><time>2026-04-19T07:45:40.95Z</time></trkpt><trkpt lat="38.8212045" lon="16.3314582"><ele>408.2</ele><time>2026-04-19T07:45:41.938Z</time></trkpt><trkpt lat="38.8211645" lon="16.3315878"><ele>408.0</ele><time>2026-04-19T07:45:42.944Z</time></trkpt><trkpt lat="38.8211236" lon="16.3317025"><ele>407.1666666666667</ele><time>2026-04-19T07:45:43.935Z</time></trkpt><trkpt lat="38.8210706" lon="16.3317814"><ele>406.33333333333337</ele><time>2026-04-19T07:45:44.934Z</time></trkpt><trkpt lat="38.8209995" lon="16.3318175"><ele>405.5</ele><time>2026-04-19T07:45:45.94Z</time></trkpt><trkpt lat="38.8209175" lon="16.3318199"><ele>404.6666666666667</ele><time>2026-04-19T07:45:46.927Z</time></trkpt><trkpt lat="38.8208286" lon="16.3317931"><ele>403.83333333333337</ele><time>2026-04-19T07:45:47.93Z</time></trkpt><trkpt lat="38.8207308" lon="16.3317512"><ele>403.0</ele><time>2026-04-19T07:45:48.934Z</time></trkpt><trkpt lat="38.8206133" lon="16.3316964"><ele>399.5</ele><time>2026-04-19T07:45:49.936Z</time></trkpt><trkpt lat="38.8204811" lon="16.3316273"><ele>396.0</ele><time>2026-04-19T07:45:50.935Z</time></trkpt><trkpt lat="38.8203553" lon="16.3315483"><ele>392.5</ele><time>2026-04-19T07:45:51.932Z</time></trkpt><trkpt lat="38.8202501" lon="16.3314527"><ele>389.0</ele><time>2026-04-19T07:45:52.943Z</time></trkpt><trkpt lat="38.8201584" lon="16.3313327"><ele>391.75</ele><time>2026-04-19T07:45:53.937Z</time></trkpt><trkpt lat="38.8200749" lon="16.3311952"><ele>394.5</ele><time>2026-04-19T07:45:54.933Z</time></trkpt><trkpt lat="38.8199999" lon="16.3310379"><ele>397.25</ele><time>2026-04-19T07:45:55.931Z</time></trkpt><trkpt lat="38.8199258" lon="16.3308647"><ele>400.0</ele><time>2026-04-19T07:45:56.93Z</time></trkpt><trkpt lat="38.8198366" lon="16.3306737"><ele>393.6666666666667</ele><time>2026-04-19T07:45:57.941Z</time></trkpt><trkpt lat="38.8197276" lon="16.3304771"><ele>387.33333333333337</ele><time>2026-04-19T07:45:58.931Z</time></trkpt><trkpt lat="38.81962" lon="16.330304"><ele>381.0</ele><time>2026-04-19T07:45:59.936Z</time></trkpt><trkpt lat="38.8195432" lon="16.3301435"><ele>381.0</ele><time>2026-04-19T07:46:00.936Z</time></trkpt><trkpt lat="38.8195124" lon="16.3299771"><ele>381.0</ele><time>2026-04-19T07:46:01.928Z</time></trkpt><trkpt lat="38.8194859" lon="16.3298251"><ele>381.0</ele><time>2026-04-19T07:46:02.946Z</time></trkpt><trkpt lat="38.819425" lon="16.3297066"><ele>381.0</ele><time>2026-04-19T07:46:03.93Z</time></trkpt><trkpt lat="38.8193278" lon="16.3296255"><ele>386.0</ele><time>2026-04-19T07:46:04.934Z</time></trkpt><trkpt lat="38.8192272" lon="16.3295605"><ele>391.0</ele><time>2026-04-19T07:46:05.934Z</time></trkpt><trkpt lat="38.8190931" lon="16.3295731"><ele>396.0</ele><time>2026-04-19T07:46:06.944Z</time></trkpt><trkpt lat="38.8189673" lon="16.3295773"><ele>401.0</ele><time>2026-04-19T07:46:07.926Z</time></trkpt><trkpt lat="38.8188675" lon="16.3295613"><ele>401.0</ele><time>2026-04-19T07:46:08.93Z</time></trkpt><trkpt lat="38.8187863" lon="16.3295219"><ele>401.0</ele><time>2026-04-19T07:46:09.94Z</time></trkpt><trkpt lat="38.8186864" lon="16.3294547"><ele>401.0</ele><time>2026-04-19T07:46:10.937Z</time></trkpt><trkpt lat="38.8185816" lon="16.3293989"><ele>401.0</ele><time>2026-04-19T07:46:11.958Z</time></trkpt><trkpt lat="38.818482" lon="16.3293409"><ele>401.0</ele><time>2026-04-19T07:46:12.937Z</time></trkpt><trkpt lat="38.8183871" lon="16.3292966"><ele>403.8</ele><time>2026-04-19T07:46:13.941Z</time></trkpt><trkpt lat="38.8182934" lon="16.329258"><ele>406.6</ele><time>2026-04-19T07:46:14.932Z</time></trkpt><trkpt lat="38.8182009" lon="16.3292239"><ele>409.4</ele><time>2026-04-19T07:46:15.938Z</time></trkpt><trkpt lat="38.8181147" lon="16.329219"><ele>412.2</ele><time>2026-04-19T07:46:16.943Z</time></trkpt><trkpt lat="38.8180205" lon="16.3292264"><ele>415.0</ele><time>2026-04-19T07:46:17.94Z</time></trkpt><trkpt lat="38.8179143" lon="16.3292421"><ele>415.0</ele><time>2026-04-19T07:46:18.946Z</time></trkpt><trkpt lat="38.8177932" lon="16.3292535"><ele>415.0</ele><time>2026-04-19T07:46:19.947Z</time></trkpt><trkpt lat="38.817679" lon="16.3292545"><ele>415.0</ele><time>2026-04-19T07:46:20.943Z</time></trkpt><trkpt lat="38.8175756" lon="16.3292506"><ele>415.0</ele><time>2026-04-19T07:46:21.937Z</time></trkpt><trkpt lat="38.8174808" lon="16.3292436"><ele>415.0</ele><time>2026-04-19T07:46:22.932Z</time></trkpt><trkpt lat="38.8173859" lon="16.32923"><ele>416.4</ele><time>2026-04-19T07:46:23.937Z</time></trkpt><trkpt lat="38.8172876" lon="16.3292105"><ele>417.8</ele><time>2026-04-19T07:46:24.942Z</time></trkpt><trkpt lat="38.8171833" lon="16.3291788"><ele>419.20000000000005</ele><time>2026-04-19T07:46:25.932Z</time></trkpt><trkpt lat="38.8170756" lon="16.3291411"><ele>420.6</ele><time>2026-04-19T07:46:26.934Z</time></trkpt><trkpt lat="38.8169689" lon="16.3291111"><ele>422.0</ele><time>2026-04-19T07:46:27.927Z</time></trkpt><trkpt lat="38.8168747" lon="16.3290978"><ele>420.8333333333333</ele><time>2026-04-19T07:46:28.941Z</time></trkpt><trkpt lat="38.8168058" lon="16.3290931"><ele>419.66666666666663</ele><time>2026-04-19T07:46:29.933Z</time></trkpt><trkpt lat="38.8167378" lon="16.3290454"><ele>418.5</ele><time>2026-04-19T07:46:31.936Z</time></trkpt><trkpt lat="38.8167516" lon="16.3289615"><ele>417.33333333333337</ele><time>2026-04-19T07:46:33.943Z</time></trkpt><trkpt lat="38.8168035" lon="16.3289129"><ele>416.1666666666667</ele><time>2026-04-19T07:46:34.939Z</time></trkpt><trkpt lat="38.8168622" lon="16.3288341"><ele>415.0</ele><time>2026-04-19T07:46:35.936Z</time></trkpt><trkpt lat="38.8169233" lon="16.328748"><ele>415.00000000000006</ele><time>2026-04-19T07:46:36.935Z</time></trkpt><trkpt lat="38.8169652" lon="16.3286737"><ele>415.0</ele><time>2026-04-19T07:46:37.934Z</time></trkpt><trkpt lat="38.8170153" lon="16.328567"><ele>415.0</ele><time>2026-04-19T07:46:39.936Z</time></trkpt><trkpt lat="38.817014" lon="16.3284813"><ele>415.0</ele><time>2026-04-19T07:46:41.937Z</time></trkpt><trkpt lat="38.8170108" lon="16.3283881"><ele>415.00000000000006</ele><time>2026-04-19T07:46:43.935Z</time></trkpt><trkpt lat="38.8170214" lon="16.3282469"><ele>415.0</ele><time>2026-04-19T07:46:45.933Z</time></trkpt><trkpt lat="38.8170135" lon="16.3281224"><ele>411.4</ele><time>2026-04-19T07:46:47.939Z</time></trkpt><trkpt lat="38.8169949" lon="16.3280036"><ele>407.8</ele><time>2026-04-19T07:46:49.945Z</time></trkpt><trkpt lat="38.8169862" lon="16.3278793"><ele>404.20000000000005</ele><time>2026-04-19T07:46:51.936Z</time></trkpt><trkpt lat="38.8169961" lon="16.3277503"><ele>400.6</ele><time>2026-04-19T07:46:53.936Z</time></trkpt><trkpt lat="38.8170033" lon="16.3276225"><ele>397.0</ele><time>2026-04-19T07:46:55.951Z</time></trkpt><trkpt lat="38.8169996" lon="16.3275198"><ele>397.00000000000006</ele><time>2026-04-19T07:46:57.943Z</time></trkpt><trkpt lat="38.8169825" lon="16.3273675"><ele>397.0</ele><time>2026-04-19T07:47:02.936Z</time></trkpt><trkpt lat="38.816977" lon="16.327271"><ele>397.0</ele><time>2026-04-19T07:47:04.93Z</time></trkpt><trkpt lat="38.8169893" lon="16.3271889"><ele>397.0</ele><time>2026-04-19T07:47:06.932Z</time></trkpt><trkpt lat="38.817001" lon="16.327081"><ele>397.00000000000006</ele><time>2026-04-19T07:47:10.939Z</time></trkpt><trkpt lat="38.8170275" lon="16.3270074"><ele>397.0</ele><time>2026-04-19T07:47:12.935Z</time></trkpt><trkpt lat="38.8170758" lon="16.3269514"><ele>393.8</ele><time>2026-04-19T07:47:14.931Z</time></trkpt><trkpt lat="38.8171439" lon="16.3268894"><ele>390.6</ele><time>2026-04-19T07:47:17.936Z</time></trkpt><trkpt lat="38.8172125" lon="16.3268444"><ele>387.40000000000003</ele><time>2026-04-19T07:47:19.946Z</time></trkpt><trkpt lat="38.8173083" lon="16.3268493"><ele>384.20000000000005</ele><time>2026-04-19T07:47:21.928Z</time></trkpt><trkpt lat="38.8174041" lon="16.3268765"><ele>381.0</ele><time>2026-04-19T07:47:23.938Z</time></trkpt><trkpt lat="38.817495" lon="16.3269188"><ele>381.0</ele><time>2026-04-19T07:47:25.934Z</time></trkpt><trkpt lat="38.8175765" lon="16.3269301"><ele>381.0</ele><time>2026-04-19T07:47:27.939Z</time></trkpt><trkpt lat="38.8176555" lon="16.326882"><ele>381.0</ele><time>2026-04-19T07:47:29.936Z</time></trkpt><trkpt lat="38.8176824" lon="16.3268071"><ele>381.0</ele><time>2026-04-19T07:47:31.942Z</time></trkpt><trkpt lat="38.8176552" lon="16.3267051"><ele>381.0</ele><time>2026-04-19T07:47:33.939Z</time></trkpt><trkpt lat="38.8176291" lon="16.326613"><ele>381.0</ele><time>2026-04-19T07:47:35.946Z</time></trkpt><trkpt lat="38.8176232" lon="16.3264928"><ele>376.8333333333333</ele><time>2026-04-19T07:47:37.944Z</time></trkpt><trkpt lat="38.8176281" lon="16.3263802"><ele>372.6666666666667</ele><time>2026-04-19T07:47:39.959Z</time></trkpt><trkpt lat="38.8176442" lon="16.3262249"><ele>368.5</ele><time>2026-04-19T07:47:46.933Z</time></trkpt><trkpt lat="38.817607" lon="16.3261552"><ele>364.33333333333337</ele><time>2026-04-19T07:47:47.943Z</time></trkpt><trkpt lat="38.8175851" lon="16.3260706"><ele>360.1666666666667</ele><time>2026-04-19T07:47:49.953Z</time></trkpt><trkpt lat="38.817566" lon="16.3259726"><ele>356.0</ele><time>2026-04-19T07:47:51.936Z</time></trkpt><trkpt lat="38.8176935" lon="16.32595"><ele>356.0</ele><time>2026-04-19T07:47:56.941Z</time></trkpt><trkpt lat="38.817769" lon="16.3259555"><ele>356.0</ele><time>2026-04-19T07:47:58.936Z</time></trkpt><trkpt lat="38.8178482" lon="16.3259197"><ele>356.0</ele><time>2026-04-19T07:48:00.94Z</time></trkpt><trkpt lat="38.8179255" lon="16.3258702"><ele>356.0</ele><time>2026-04-19T07:48:02.94Z</time></trkpt><trkpt lat="38.8180094" lon="16.3258189"><ele>356.0</ele><time>2026-04-19T07:48:05.935Z</time></trkpt><trkpt lat="38.8180869" lon="16.3258008"><ele>356.0</ele><time>2026-04-19T07:48:09.945Z</time></trkpt><trkpt lat="38.8181627" lon="16.325824"><ele>356.0</ele><time>2026-04-19T07:48:12.936Z</time></trkpt><trkpt lat="38.8182357" lon="16.3257914"><ele>356.0</ele><time>2026-04-19T07:48:14.938Z</time></trkpt><trkpt lat="38.8182902" lon="16.3257032"><ele>356.0</ele><time>2026-04-19T07:48:16.937Z</time></trkpt><trkpt lat="38.8183048" lon="16.3255923"><ele>356.0</ele><time>2026-04-19T07:48:19.931Z</time></trkpt><trkpt lat="38.8183063" lon="16.325482"><ele>356.0</ele><time>2026-04-19T07:48:22.94Z</time></trkpt><trkpt lat="38.8183089" lon="16.3253983"><ele>356.0</ele><time>2026-04-19T07:48:25.967Z</time></trkpt><trkpt lat="38.8182895" lon="16.3253094"><ele>352.0</ele><time>2026-04-19T07:48:28.931Z</time></trkpt><trkpt lat="38.8182838" lon="16.3251918"><ele>348.0</ele><time>2026-04-19T07:48:31.932Z</time></trkpt><trkpt lat="38.8182959" lon="16.3250929"><ele>344.0</ele><time>2026-04-19T07:48:33.94Z</time></trkpt><trkpt lat="38.8182788" lon="16.3249953"><ele>340.0</ele><time>2026-04-19T07:48:35.933Z</time></trkpt><trkpt lat="38.8182482" lon="16.3249008"><ele>336.0</ele><time>2026-04-19T07:48:38.939Z</time></trkpt><trkpt lat="38.8182164" lon="16.3248187"><ele>332.0</ele><time>2026-04-19T07:48:41.945Z</time></trkpt><trkpt lat="38.8181952" lon="16.324728"><ele>328.5</ele><time>2026-04-19T07:48:44.934Z</time></trkpt><trkpt lat="38.8181913" lon="16.3246282"><ele>325.0</ele><time>2026-04-19T07:48:47.941Z</time></trkpt><trkpt lat="38.8181852" lon="16.3245321"><ele>321.5</ele><time>2026-04-19T07:48:50.932Z</time></trkpt><trkpt lat="38.8181857" lon="16.3244438"><ele>318.0</ele><time>2026-04-19T07:48:53.938Z</time></trkpt><trkpt lat="38.8181626" lon="16.3243585"><ele>314.5</ele><time>2026-04-19T07:48:57.94Z</time></trkpt><trkpt lat="38.8181132" lon="16.324276"><ele>311.0</ele><time>2026-04-19T07:49:01.959Z</time></trkpt><trkpt lat="38.8180497" lon="16.3241925"><ele>311.0</ele><time>2026-04-19T07:49:04.933Z</time></trkpt><trkpt lat="38.8179877" lon="16.324147"><ele>311.0</ele><time>2026-04-19T07:49:07.939Z</time></trkpt><trkpt lat="38.8179591" lon="16.3240528"><ele>311.0</ele><time>2026-04-19T07:49:11.938Z</time></trkpt><trkpt lat="38.8179109" lon="16.3239932"><ele>311.0</ele><time>2026-04-19T07:49:15.93Z</time></trkpt><trkpt lat="38.8178539" lon="16.3239565"><ele>311.0</ele><time>2026-04-19T07:49:18.944Z</time></trkpt><trkpt lat="38.8177981" lon="16.3240139"><ele>311.0</ele><time>2026-04-19T07:49:21.948Z</time></trkpt><trkpt lat="38.8177632" lon="16.3240889"><ele>311.0</ele><time>2026-04-19T07:49:24.938Z</time></trkpt><trkpt lat="38.8177245" lon="16.3241562"><ele>311.0</ele><time>2026-04-19T07:49:27.946Z</time></trkpt><trkpt lat="38.8176945" lon="16.3242302"><ele>311.0</ele><time>2026-04-19T07:49:30.935Z</time></trkpt><trkpt lat="38.8176464" lon="16.3243082"><ele>311.0</ele><time>2026-04-19T07:49:34.938Z</time></trkpt><trkpt lat="38.8175904" lon="16.3243547"><ele>311.0</ele><time>2026-04-19T07:49:37.949Z</time></trkpt><trkpt lat="38.8175312" lon="16.3243929"><ele>311.0</ele><time>2026-04-19T07:49:42.934Z</time></trkpt><trkpt lat="38.8174674" lon="16.3244305"><ele>311.0</ele><time>2026-04-19T07:49:46.928Z</time></trkpt><trkpt lat="38.8174099" lon="16.3244751"><ele>311.0</ele><time>2026-04-19T07:49:49.931Z</time></trkpt><trkpt lat="38.8173285" lon="16.3245058"><ele>312.0</ele><time>2026-04-19T07:49:52.934Z</time></trkpt><trkpt lat="38.817269" lon="16.3244774"><ele>313.0</ele><time>2026-04-19T07:49:55.935Z</time></trkpt><trkpt lat="38.8171665" lon="16.3244825"><ele>314.0</ele><time>2026-04-19T07:49:58.933Z</time></trkpt><trkpt lat="38.8170935" lon="16.3245431"><ele>315.0</ele><time>2026-04-19T07:50:00.939Z</time></trkpt><trkpt lat="38.817018" lon="16.3246361"><ele>316.0</ele><time>2026-04-19T07:50:02.933Z</time></trkpt><trkpt lat="38.8169473" lon="16.3246893"><ele>317.0</ele><time>2026-04-19T07:50:04.933Z</time></trkpt><trkpt lat="38.8168873" lon="16.3247462"><ele>314.6666666666667</ele><time>2026-04-19T07:51:26.939Z</time></trkpt><trkpt lat="38.8168053" lon="16.3247989"><ele>312.33333333333337</ele><time>2026-04-19T07:51:36.942Z</time></trkpt><trkpt lat="38.8167344" lon="16.3248289"><ele>310.0</ele><time>2026-04-19T07:51:42.934Z</time></trkpt><trkpt lat="38.8167651" lon="16.3247434"><ele>307.6666666666667</ele><time>2026-04-19T07:51:52.932Z</time></trkpt><trkpt lat="38.8168099" lon="16.3246527"><ele>305.3333333333333</ele><time>2026-04-19T07:51:55.929Z</time></trkpt><trkpt lat="38.8168413" lon="16.3245745"><ele>303.0</ele><time>2026-04-19T07:51:57.94Z</time></trkpt><trkpt lat="38.8168798" lon="16.3245058"><ele>301.5</ele><time>2026-04-19T07:51:59.949Z</time></trkpt><trkpt lat="38.8169322" lon="16.3244159"><ele>300.0</ele><time>2026-04-19T07:52:03.936Z</time></trkpt><trkpt lat="38.8169791" lon="16.3243088"><ele>298.5</ele><time>2026-04-19T07:52:07.941Z</time></trkpt><trkpt lat="38.8169887" lon="16.3242133"><ele>297.0</ele><time>2026-04-19T07:52:11.932Z</time></trkpt><trkpt lat="38.8170034" lon="16.3241175"><ele>295.5</ele><time>2026-04-19T07:52:14.936Z</time></trkpt><trkpt lat="38.8170155" lon="16.324025"><ele>294.0</ele><time>2026-04-19T07:52:16.929Z</time></trkpt><trkpt lat="38.8170464" lon="16.3239409"><ele>293.0</ele><time>2026-04-19T07:52:23.95Z</time></trkpt><trkpt lat="38.8170819" lon="16.323861"><ele>292.0</ele><time>2026-04-19T07:52:29.947Z</time></trkpt><trkpt lat="38.81709" lon="16.3237774"><ele>291.0</ele><time>2026-04-19T07:52:33.952Z</time></trkpt><trkpt lat="38.8171209" lon="16.3237061"><ele>290.0</ele><time>2026-04-19T07:52:38.944Z</time></trkpt><trkpt lat="38.8171297" lon="16.3236234"><ele>289.0</ele><time>2026-04-19T07:52:42.934Z</time></trkpt><trkpt lat="38.8171405" lon="16.3235408"><ele>288.0</ele><time>2026-04-19T07:52:45.935Z</time></trkpt><trkpt lat="38.8171139" lon="16.323443"><ele>287.0</ele><time>2026-04-19T07:52:48.941Z</time></trkpt><trkpt lat="38.817058" lon="16.3233696"><ele>287.0</ele><time>2026-04-19T07:52:50.948Z</time></trkpt><trkpt lat="38.8170116" lon="16.3232685"><ele>287.0</ele><time>2026-04-19T07:52:52.937Z</time></trkpt><trkpt lat="38.8169939" lon="16.323163"><ele>287.0</ele><time>2026-04-19T07:52:54.946Z</time></trkpt><trkpt lat="38.8169873" lon="16.3230674"><ele>287.0</ele><time>2026-04-19T07:52:56.931Z</time></trkpt><trkpt lat="38.8169787" lon="16.3229816"><ele>287.0</ele><time>2026-04-19T07:53:03.946Z</time></trkpt><trkpt lat="38.8169802" lon="16.3228451"><ele>287.0</ele><time>2026-04-19T07:53:06.939Z</time></trkpt><trkpt lat="38.817008" lon="16.3227236"><ele>286.2</ele><time>2026-04-19T07:53:08.931Z</time></trkpt><trkpt lat="38.8170673" lon="16.3226121"><ele>285.4</ele><time>2026-04-19T07:53:10.972Z</time></trkpt><trkpt lat="38.8171104" lon="16.3225182"><ele>284.6</ele><time>2026-04-19T07:53:12.943Z</time></trkpt><trkpt lat="38.817132" lon="16.3224142"><ele>283.8</ele><time>2026-04-19T07:53:14.946Z</time></trkpt><trkpt lat="38.8171631" lon="16.3222964"><ele>283.0</ele><time>2026-04-19T07:53:16.935Z</time></trkpt><trkpt lat="38.8172106" lon="16.3221831"><ele>285.16666666666663</ele><time>2026-04-19T07:53:18.937Z</time></trkpt><trkpt lat="38.8172573" lon="16.322108"><ele>287.3333333333333</ele><time>2026-04-19T07:53:21.931Z</time></trkpt><trkpt lat="38.8173301" lon="16.3220397"><ele>289.5</ele><time>2026-04-19T07:53:24.943Z</time></trkpt><trkpt lat="38.8173855" lon="16.3219863"><ele>291.6666666666667</ele><time>2026-04-19T07:53:27.934Z</time></trkpt><trkpt lat="38.8174511" lon="16.3219222"><ele>293.83333333333337</ele><time>2026-04-19T07:53:38.928Z</time></trkpt><trkpt lat="38.8175269" lon="16.321916"><ele>296.0</ele><time>2026-04-19T07:53:41.941Z</time></trkpt><trkpt lat="38.8175951" lon="16.3219219"><ele>293.0</ele><time>2026-04-19T07:53:44.932Z</time></trkpt><trkpt lat="38.8176604" lon="16.3219422"><ele>290.0</ele><time>2026-04-19T07:53:48.929Z</time></trkpt><trkpt lat="38.8177296" lon="16.3219298"><ele>287.0</ele><time>2026-04-19T07:53:50.93Z</time></trkpt><trkpt lat="38.8178154" lon="16.3218774"><ele>284.0</ele><time>2026-04-19T07:53:52.934Z</time></trkpt><trkpt lat="38.8178992" lon="16.3218068"><ele>281.0</ele><time>2026-04-19T07:53:54.932Z</time></trkpt><trkpt lat="38.8179873" lon="16.3217194"><ele>278.0</ele><time>2026-04-19T07:53:56.942Z</time></trkpt><trkpt lat="38.8180532" lon="16.3216224"><ele>278.0</ele><time>2026-04-19T07:53:58.934Z</time></trkpt><trkpt lat="38.8181118" lon="16.3215118"><ele>278.0</ele><time>2026-04-19T07:54:00.942Z</time></trkpt><trkpt lat="38.818197" lon="16.3214242"><ele>278.0</ele><time>2026-04-19T07:54:02.933Z</time></trkpt><trkpt lat="38.8182667" lon="16.3213503"><ele>278.0</ele><time>2026-04-19T07:54:04.927Z</time></trkpt><trkpt lat="38.8183127" lon="16.321237"><ele>278.0</ele><time>2026-04-19T07:54:06.935Z</time></trkpt><trkpt lat="38.8183752" lon="16.321107"><ele>276.4</ele><time>2026-04-19T07:54:08.934Z</time></trkpt><trkpt lat="38.8184271" lon="16.3209956"><ele>274.8</ele><time>2026-04-19T07:54:10.959Z</time></trkpt><trkpt lat="38.8184788" lon="16.3209011"><ele>273.2</ele><time>2026-04-19T07:54:13.935Z</time></trkpt><trkpt lat="38.8185357" lon="16.320818"><ele>271.6</ele><time>2026-04-19T07:54:15.934Z</time></trkpt><trkpt lat="38.8185872" lon="16.3207262"><ele>270.0</ele><time>2026-04-19T07:54:17.937Z</time></trkpt><trkpt lat="38.8186642" lon="16.3206271"><ele>271.1666666666667</ele><time>2026-04-19T07:54:19.934Z</time></trkpt><trkpt lat="38.8187358" lon="16.320537"><ele>272.3333333333333</ele><time>2026-04-19T07:54:21.946Z</time></trkpt><trkpt lat="38.8188002" lon="16.3204661"><ele>273.5</ele><time>2026-04-19T07:54:23.936Z</time></trkpt><trkpt lat="38.8188478" lon="16.3204126"><ele>274.66666666666663</ele><time>2026-04-19T07:54:25.941Z</time></trkpt><trkpt lat="38.8189083" lon="16.3203574"><ele>275.8333333333333</ele><time>2026-04-19T07:54:29.936Z</time></trkpt><trkpt lat="38.8190003" lon="16.3202778"><ele>277.0</ele><time>2026-04-19T07:54:31.94Z</time></trkpt><trkpt lat="38.8190597" lon="16.3202269"><ele>277.0</ele><time>2026-04-19T07:54:32.932Z</time></trkpt><trkpt lat="38.8191291" lon="16.3201676"><ele>277.0</ele><time>2026-04-19T07:54:33.932Z</time></trkpt><trkpt lat="38.8191948" lon="16.3201149"><ele>277.0</ele><time>2026-04-19T07:54:34.936Z</time></trkpt><trkpt lat="38.8192581" lon="16.3200709"><ele>277.0</ele><time>2026-04-19T07:54:35.933Z</time></trkpt><trkpt lat="38.8193203" lon="16.3200352"><ele>277.0</ele><time>2026-04-19T07:54:36.94Z</time></trkpt><trkpt lat="38.8193826" lon="16.3200038"><ele>277.0</ele><time>2026-04-19T07:54:37.933Z</time></trkpt><trkpt lat="38.8194482" lon="16.3199751"><ele>277.0</ele><time>2026-04-19T07:54:38.948Z</time></trkpt><trkpt lat="38.8195118" lon="16.3199516"><ele>273.8</ele><time>2026-04-19T07:54:39.936Z</time></trkpt><trkpt lat="38.8196275" lon="16.3199097"><ele>270.6</ele><time>2026-04-19T07:54:41.939Z</time></trkpt><trkpt lat="38.819742" lon="16.3199242"><ele>267.40000000000003</ele><time>2026-04-19T07:54:43.935Z</time></trkpt><trkpt lat="38.8198459" lon="16.3199483"><ele>264.2</ele><time>2026-04-19T07:54:45.947Z</time></trkpt><trkpt lat="38.8199343" lon="16.3199949"><ele>261.0</ele><time>2026-04-19T07:54:47.946Z</time></trkpt><trkpt lat="38.8200372" lon="16.320001"><ele>261.0</ele><time>2026-04-19T07:54:49.934Z</time></trkpt><trkpt lat="38.8201319" lon="16.3199559"><ele>261.0</ele><time>2026-04-19T07:54:51.932Z</time></trkpt><trkpt lat="38.8202055" lon="16.3198597"><ele>261.0</ele><time>2026-04-19T07:54:53.933Z</time></trkpt><trkpt lat="38.82027" lon="16.3197312"><ele>261.0</ele><time>2026-04-19T07:54:55.939Z</time></trkpt><trkpt lat="38.8202954" lon="16.319653"><ele>261.0</ele><time>2026-04-19T07:54:56.936Z</time></trkpt><trkpt lat="38.8203244" lon="16.3195661"><ele>260.1666666666667</ele><time>2026-04-19T07:54:57.95Z</time></trkpt><trkpt lat="38.8203543" lon="16.3194729"><ele>259.3333333333333</ele><time>2026-04-19T07:54:58.939Z</time></trkpt><trkpt lat="38.8203852" lon="16.3193656"><ele>258.5</ele><time>2026-04-19T07:54:59.937Z</time></trkpt><trkpt lat="38.8204131" lon="16.3192532"><ele>257.66666666666663</ele><time>2026-04-19T07:55:00.942Z</time></trkpt><trkpt lat="38.8204362" lon="16.3191427"><ele>256.8333333333333</ele><time>2026-04-19T07:55:01.938Z</time></trkpt><trkpt lat="38.8204585" lon="16.3190338"><ele>256.0</ele><time>2026-04-19T07:55:02.943Z</time></trkpt><trkpt lat="38.8204823" lon="16.318928"><ele>254.49999999999997</ele><time>2026-04-19T07:55:03.934Z</time></trkpt><trkpt lat="38.8205168" lon="16.3188235"><ele>253.0</ele><time>2026-04-19T07:55:04.933Z</time></trkpt><trkpt lat="38.8205499" lon="16.3187244"><ele>251.5</ele><time>2026-04-19T07:55:05.942Z</time></trkpt><trkpt lat="38.8206026" lon="16.3186251"><ele>250.0</ele><time>2026-04-19T07:55:06.942Z</time></trkpt><trkpt lat="38.8206483" lon="16.3185201"><ele>248.49999999999997</ele><time>2026-04-19T07:55:07.941Z</time></trkpt><trkpt lat="38.8206878" lon="16.3184216"><ele>247.0</ele><time>2026-04-19T07:55:08.933Z</time></trkpt><trkpt lat="38.8207054" lon="16.3183216"><ele>247.0</ele><time>2026-04-19T07:55:09.934Z</time></trkpt><trkpt lat="38.8207196" lon="16.3182191"><ele>247.0</ele><time>2026-04-19T07:55:10.932Z</time></trkpt><trkpt lat="38.820723" lon="16.318112"><ele>247.0</ele><time>2026-04-19T07:55:11.934Z</time></trkpt><trkpt lat="38.8207254" lon="16.3179898"><ele>247.0</ele><time>2026-04-19T07:55:12.934Z</time></trkpt><trkpt lat="38.8207372" lon="16.3178664"><ele>247.0</ele><time>2026-04-19T07:55:13.935Z</time></trkpt><trkpt lat="38.8207521" lon="16.317748"><ele>247.66666666666666</ele><time>2026-04-19T07:55:14.94Z</time></trkpt><trkpt lat="38.8207678" lon="16.3176369"><ele>248.33333333333331</ele><time>2026-04-19T07:55:15.939Z</time></trkpt><trkpt lat="38.8207922" lon="16.3175305"><ele>249.0</ele><time>2026-04-19T07:55:16.939Z</time></trkpt><trkpt lat="38.8208406" lon="16.3174303"><ele>249.66666666666669</ele><time>2026-04-19T07:55:17.935Z</time></trkpt><trkpt lat="38.8208855" lon="16.3173421"><ele>250.33333333333334</ele><time>2026-04-19T07:55:18.936Z</time></trkpt><trkpt lat="38.8209394" lon="16.3172712"><ele>251.0</ele><time>2026-04-19T07:55:19.931Z</time></trkpt><trkpt lat="38.8209938" lon="16.3172056"><ele>251.66666666666669</ele><time>2026-04-19T07:55:20.932Z</time></trkpt><trkpt lat="38.8210446" lon="16.3171411"><ele>252.33333333333334</ele><time>2026-04-19T07:55:21.935Z</time></trkpt><trkpt lat="38.8210914" lon="16.3169931"><ele>253.0</ele><time>2026-04-19T07:55:23.934Z</time></trkpt><trkpt lat="38.8211072" lon="16.3169051"><ele>253.66666666666669</ele><time>2026-04-19T07:55:24.944Z</time></trkpt><trkpt lat="38.8211151" lon="16.3168211"><ele>254.33333333333334</ele><time>2026-04-19T07:55:25.93Z</time></trkpt><trkpt lat="38.8211193" lon="16.3167375"><ele>255.0</ele><time>2026-04-19T07:55:26.937Z</time></trkpt><trkpt lat="38.8211274" lon="16.316648"><ele>255.0</ele><time>2026-04-19T07:55:27.947Z</time></trkpt><trkpt lat="38.8211323" lon="16.3165537"><ele>255.00000000000003</ele><time>2026-04-19T07:55:28.939Z</time></trkpt><trkpt lat="38.8211366" lon="16.3164591"><ele>255.0</ele><time>2026-04-19T07:55:29.932Z</time></trkpt><trkpt lat="38.8211405" lon="16.3163589"><ele>255.0</ele><time>2026-04-19T07:55:30.936Z</time></trkpt><trkpt lat="38.8211419" lon="16.3162665"><ele>255.00000000000003</ele><time>2026-04-19T07:55:31.946Z</time></trkpt><trkpt lat="38.8211378" lon="16.316181"><ele>255.0</ele><time>2026-04-19T07:55:32.939Z</time></trkpt><trkpt lat="38.8211212" lon="16.3160878"><ele>255.0</ele><time>2026-04-19T07:55:33.938Z</time></trkpt><trkpt lat="38.8210924" lon="16.315987"><ele>255.4</ele><time>2026-04-19T07:55:34.944Z</time></trkpt><trkpt lat="38.8210628" lon="16.3158976"><ele>255.8</ele><time>2026-04-19T07:55:35.939Z</time></trkpt><trkpt lat="38.8210203" lon="16.3157776"><ele>256.2</ele><time>2026-04-19T07:55:37.931Z</time></trkpt><trkpt lat="38.8209775" lon="16.3156656"><ele>256.6</ele><time>2026-04-19T07:55:39.939Z</time></trkpt><trkpt lat="38.8209062" lon="16.3155587"><ele>257.0</ele><time>2026-04-19T07:55:41.936Z</time></trkpt><trkpt lat="38.8208168" lon="16.3154558"><ele>253.39999999999998</ele><time>2026-04-19T07:55:43.939Z</time></trkpt><trkpt lat="38.8207549" lon="16.3153886"><ele>249.79999999999998</ele><time>2026-04-19T07:55:45.942Z</time></trkpt><trkpt lat="38.8207433" lon="16.3152936"><ele>246.2</ele><time>2026-04-19T07:55:47.933Z</time></trkpt><trkpt lat="38.8207913" lon="16.3151669"><ele>242.6</ele><time>2026-04-19T07:55:49.945Z</time></trkpt><trkpt lat="38.8208067" lon="16.3150275"><ele>239.0</ele><time>2026-04-19T07:55:51.935Z</time></trkpt><trkpt lat="38.8207813" lon="16.3148747"><ele>239.00000000000003</ele><time>2026-04-19T07:55:53.934Z</time></trkpt><trkpt lat="38.820765" lon="16.3147405"><ele>239.0</ele><time>2026-04-19T07:55:55.934Z</time></trkpt><trkpt lat="38.8207977" lon="16.3146488"><ele>239.0</ele><time>2026-04-19T07:55:57.932Z</time></trkpt><trkpt lat="38.8208483" lon="16.3145674"><ele>239.0</ele><time>2026-04-19T07:55:59.942Z</time></trkpt><trkpt lat="38.8208695" lon="16.3144779"><ele>239.00000000000003</ele><time>2026-04-19T07:56:01.936Z</time></trkpt><trkpt lat="38.8208455" lon="16.31435"><ele>239.0</ele><time>2026-04-19T07:56:03.939Z</time></trkpt><trkpt lat="38.8207897" lon="16.3142123"><ele>237.50000000000003</ele><time>2026-04-19T07:56:05.933Z</time></trkpt><trkpt lat="38.8207518" lon="16.3141289"><ele>236.0</ele><time>2026-04-19T07:56:06.936Z</time></trkpt><trkpt lat="38.8207169" lon="16.3140361"><ele>234.5</ele><time>2026-04-19T07:56:07.939Z</time></trkpt><trkpt lat="38.8206803" lon="16.3139323"><ele>233.0</ele><time>2026-04-19T07:56:08.932Z</time></trkpt><trkpt lat="38.8206579" lon="16.313817"><ele>231.50000000000003</ele><time>2026-04-19T07:56:09.945Z</time></trkpt><trkpt lat="38.8206492" lon="16.3136801"><ele>230.0</ele><time>2026-04-19T07:56:10.931Z</time></trkpt><trkpt lat="38.8206446" lon="16.3135238"><ele>230.0</ele><time>2026-04-19T07:56:11.939Z</time></trkpt><trkpt lat="38.8206333" lon="16.313362"><ele>230.0</ele><time>2026-04-19T07:56:12.933Z</time></trkpt><trkpt lat="38.8206198" lon="16.3131903"><ele>230.0</ele><time>2026-04-19T07:56:13.941Z</time></trkpt><trkpt lat="38.8206024" lon="16.3130201"><ele>230.0</ele><time>2026-04-19T07:56:14.935Z</time></trkpt><trkpt lat="38.8206019" lon="16.3128803"><ele>230.2</ele><time>2026-04-19T07:56:15.937Z</time></trkpt><trkpt lat="38.8206156" lon="16.3127746"><ele>230.4</ele><time>2026-04-19T07:56:16.932Z</time></trkpt><trkpt lat="38.8206382" lon="16.3126892"><ele>230.60000000000002</ele><time>2026-04-19T07:56:17.933Z</time></trkpt><trkpt lat="38.8206895" lon="16.3125503"><ele>230.8</ele><time>2026-04-19T07:56:19.951Z</time></trkpt><trkpt lat="38.8207554" lon="16.3124141"><ele>231.0</ele><time>2026-04-19T07:56:21.945Z</time></trkpt><trkpt lat="38.8207956" lon="16.3123468"><ele>231.0</ele><time>2026-04-19T07:56:22.949Z</time></trkpt><trkpt lat="38.8208347" lon="16.3122801"><ele>231.0</ele><time>2026-04-19T07:56:23.94Z</time></trkpt><trkpt lat="38.8208785" lon="16.3122175"><ele>231.0</ele><time>2026-04-19T07:56:24.949Z</time></trkpt><trkpt lat="38.8209302" lon="16.3121035"><ele>231.0</ele><time>2026-04-19T07:56:26.93Z</time></trkpt><trkpt lat="38.8209766" lon="16.3119495"><ele>231.0</ele><time>2026-04-19T07:56:28.928Z</time></trkpt><trkpt lat="38.8210119" lon="16.3118616"><ele>231.0</ele><time>2026-04-19T07:56:29.943Z</time></trkpt><trkpt lat="38.8210473" lon="16.3117741"><ele>230.5</ele><time>2026-04-19T07:56:30.94Z</time></trkpt><trkpt lat="38.8210766" lon="16.3116981"><ele>230.0</ele><time>2026-04-19T07:56:31.936Z</time></trkpt><trkpt lat="38.8210704" lon="16.3115589"><ele>229.5</ele><time>2026-04-19T07:56:33.939Z</time></trkpt><trkpt lat="38.821052" lon="16.3114687"><ele>229.0</ele><time>2026-04-19T07:56:34.933Z</time></trkpt><trkpt lat="38.821033" lon="16.3113639"><ele>228.5</ele><time>2026-04-19T07:56:35.93Z</time></trkpt><trkpt lat="38.8210066" lon="16.3112541"><ele>228.0</ele><time>2026-04-19T07:56:36.939Z</time></trkpt><trkpt lat="38.8209775" lon="16.3111413"><ele>227.0</ele><time>2026-04-19T07:56:37.935Z</time></trkpt><trkpt lat="38.8209548" lon="16.311037"><ele>226.0</ele><time>2026-04-19T07:56:38.936Z</time></trkpt><trkpt lat="38.8209303" lon="16.3109405"><ele>225.0</ele><time>2026-04-19T07:56:39.932Z</time></trkpt><trkpt lat="38.820899" lon="16.3108524"><ele>224.0</ele><time>2026-04-19T07:56:40.938Z</time></trkpt><trkpt lat="38.8208347" lon="16.3107792"><ele>223.0</ele><time>2026-04-19T07:56:41.947Z</time></trkpt><trkpt lat="38.8207654" lon="16.3107049"><ele>222.0</ele><time>2026-04-19T07:56:42.936Z</time></trkpt><trkpt lat="38.8206987" lon="16.3106138"><ele>220.0</ele><time>2026-04-19T07:56:43.937Z</time></trkpt><trkpt lat="38.8206345" lon="16.3105234"><ele>218.0</ele><time>2026-04-19T07:56:44.94Z</time></trkpt><trkpt lat="38.8205792" lon="16.310414"><ele>216.0</ele><time>2026-04-19T07:56:45.936Z</time></trkpt><trkpt lat="38.8205374" lon="16.3102927"><ele>214.0</ele><time>2026-04-19T07:56:46.931Z</time></trkpt><trkpt lat="38.8205023" lon="16.3101643"><ele>212.0</ele><time>2026-04-19T07:56:47.929Z</time></trkpt><trkpt lat="38.8204885" lon="16.3100448"><ele>212.0</ele><time>2026-04-19T07:56:48.935Z</time></trkpt><trkpt lat="38.8205022" lon="16.3099097"><ele>212.0</ele><time>2026-04-19T07:56:49.929Z</time></trkpt><trkpt lat="38.8205334" lon="16.3097793"><ele>212.0</ele><time>2026-04-19T07:56:50.933Z</time></trkpt><trkpt lat="38.8205696" lon="16.3096463"><ele>212.0</ele><time>2026-04-19T07:56:51.928Z</time></trkpt><trkpt lat="38.8206094" lon="16.309535"><ele>212.0</ele><time>2026-04-19T07:56:52.941Z</time></trkpt><trkpt lat="38.8206347" lon="16.3094408"><ele>212.16666666666669</ele><time>2026-04-19T07:56:53.932Z</time></trkpt><trkpt lat="38.820659" lon="16.3093383"><ele>212.33333333333334</ele><time>2026-04-19T07:56:54.929Z</time></trkpt><trkpt lat="38.8206747" lon="16.3092221"><ele>212.5</ele><time>2026-04-19T07:56:55.938Z</time></trkpt><trkpt lat="38.8206991" lon="16.3090928"><ele>212.66666666666669</ele><time>2026-04-19T07:56:56.93Z</time></trkpt><trkpt lat="38.8207199" lon="16.3089964"><ele>212.83333333333334</ele><time>2026-04-19T07:56:57.941Z</time></trkpt><trkpt lat="38.8207339" lon="16.3089076"><ele>213.0</ele><time>2026-04-19T07:56:58.956Z</time></trkpt><trkpt lat="38.8207489" lon="16.3087438"><ele>213.16666666666666</ele><time>2026-04-19T07:57:00.949Z</time></trkpt><trkpt lat="38.8207526" lon="16.3086577"><ele>213.33333333333331</ele><time>2026-04-19T07:57:01.941Z</time></trkpt><trkpt lat="38.8207474" lon="16.3085596"><ele>213.5</ele><time>2026-04-19T07:57:02.953Z</time></trkpt><trkpt lat="38.8207378" lon="16.3084506"><ele>213.66666666666666</ele><time>2026-04-19T07:57:03.934Z</time></trkpt><trkpt lat="38.8207266" lon="16.3083264"><ele>213.83333333333331</ele><time>2026-04-19T07:57:04.94Z</time></trkpt><trkpt lat="38.8207255" lon="16.3081955"><ele>214.0</ele><time>2026-04-19T07:57:05.953Z</time></trkpt><trkpt lat="38.8207336" lon="16.3080626"><ele>214.99999999999997</ele><time>2026-04-19T07:57:06.948Z</time></trkpt><trkpt lat="38.8207451" lon="16.307932"><ele>216.0</ele><time>2026-04-19T07:57:07.932Z</time></trkpt><trkpt lat="38.8207553" lon="16.3078144"><ele>217.0</ele><time>2026-04-19T07:57:08.939Z</time></trkpt><trkpt lat="38.8207705" lon="16.3077145"><ele>218.0</ele><time>2026-04-19T07:57:09.938Z</time></trkpt><trkpt lat="38.8207864" lon="16.3076243"><ele>218.99999999999997</ele><time>2026-04-19T07:57:10.932Z</time></trkpt><trkpt lat="38.820809" lon="16.3075304"><ele>220.0</ele><time>2026-04-19T07:57:11.935Z</time></trkpt><trkpt lat="38.8208822" lon="16.3074152"><ele>220.0</ele><time>2026-04-19T07:57:12.933Z</time></trkpt><trkpt lat="38.8209513" lon="16.3073123"><ele>220.0</ele><time>2026-04-19T07:57:13.941Z</time></trkpt><trkpt lat="38.821013" lon="16.3072172"><ele>220.0</ele><time>2026-04-19T07:57:14.932Z</time></trkpt><trkpt lat="38.8210702" lon="16.3071233"><ele>220.0</ele><time>2026-04-19T07:57:15.937Z</time></trkpt><trkpt lat="38.8211298" lon="16.3070343"><ele>220.0</ele><time>2026-04-19T07:57:16.93Z</time></trkpt><trkpt lat="38.8211877" lon="16.3069579"><ele>215.4</ele><time>2026-04-19T07:57:17.933Z</time></trkpt><trkpt lat="38.8212369" lon="16.3068965"><ele>210.8</ele><time>2026-04-19T07:57:18.938Z</time></trkpt><trkpt lat="38.8213126" lon="16.3067894"><ele>206.2</ele><time>2026-04-19T07:57:20.934Z</time></trkpt><trkpt lat="38.8213679" lon="16.3066567"><ele>201.6</ele><time>2026-04-19T07:57:22.939Z</time></trkpt><trkpt lat="38.8213907" lon="16.3065596"><ele>197.0</ele><time>2026-04-19T07:57:23.936Z</time></trkpt><trkpt lat="38.8214146" lon="16.3064508"><ele>199.0</ele><time>2026-04-19T07:57:24.931Z</time></trkpt><trkpt lat="38.8214672" lon="16.306335"><ele>201.0</ele><time>2026-04-19T07:57:25.931Z</time></trkpt><trkpt lat="38.8215258" lon="16.3062255"><ele>203.0</ele><time>2026-04-19T07:57:26.935Z</time></trkpt><trkpt lat="38.8215972" lon="16.3061189"><ele>205.0</ele><time>2026-04-19T07:57:27.94Z</time></trkpt><trkpt lat="38.8216785" lon="16.3060191"><ele>207.0</ele><time>2026-04-19T07:57:28.933Z</time></trkpt><trkpt lat="38.8217575" lon="16.3059289"><ele>203.6</ele><time>2026-04-19T07:57:29.942Z</time></trkpt><trkpt lat="38.8218245" lon="16.3058468"><ele>200.2</ele><time>2026-04-19T07:57:30.937Z</time></trkpt><trkpt lat="38.8218732" lon="16.3057738"><ele>196.8</ele><time>2026-04-19T07:57:31.935Z</time></trkpt><trkpt lat="38.8219318" lon="16.3056916"><ele>193.4</ele><time>2026-04-19T07:57:33.939Z</time></trkpt><trkpt lat="38.8219777" lon="16.3056087"><ele>190.0</ele><time>2026-04-19T07:57:35.932Z</time></trkpt><trkpt lat="38.8219993" lon="16.3054522"><ele>189.2</ele><time>2026-04-19T07:57:37.942Z</time></trkpt><trkpt lat="38.8220097" lon="16.3053714"><ele>188.4</ele><time>2026-04-19T07:57:38.939Z</time></trkpt><trkpt lat="38.8220046" lon="16.3052363"><ele>187.60000000000002</ele><time>2026-04-19T07:57:40.937Z</time></trkpt><trkpt lat="38.8219535" lon="16.3050734"><ele>186.8</ele><time>2026-04-19T07:57:42.94Z</time></trkpt><trkpt lat="38.8219048" lon="16.304976"><ele>186.0</ele><time>2026-04-19T07:57:43.938Z</time></trkpt><trkpt lat="38.8218783" lon="16.3048766"><ele>186.0</ele><time>2026-04-19T07:57:44.928Z</time></trkpt><trkpt lat="38.8218748" lon="16.3047564"><ele>186.0</ele><time>2026-04-19T07:57:45.936Z</time></trkpt><trkpt lat="38.821861" lon="16.3046336"><ele>186.0</ele><time>2026-04-19T07:57:46.939Z</time></trkpt><trkpt lat="38.8218428" lon="16.3045027"><ele>186.0</ele><time>2026-04-19T07:57:47.933Z</time></trkpt><trkpt lat="38.8218143" lon="16.3043913"><ele>186.0</ele><time>2026-04-19T07:57:48.938Z</time></trkpt><trkpt lat="38.8217791" lon="16.304279"><ele>191.0</ele><time>2026-04-19T07:57:49.94Z</time></trkpt><trkpt lat="38.8217483" lon="16.3041769"><ele>196.0</ele><time>2026-04-19T07:57:50.932Z</time></trkpt><trkpt lat="38.8217366" lon="16.3040776"><ele>201.0</ele><time>2026-04-19T07:57:51.933Z</time></trkpt><trkpt lat="38.8217411" lon="16.3039596"><ele>206.0</ele><time>2026-04-19T07:57:52.936Z</time></trkpt><trkpt lat="38.8217646" lon="16.3038111"><ele>211.0</ele><time>2026-04-19T07:57:53.934Z</time></trkpt><trkpt lat="38.8217962" lon="16.3036219"><ele>203.5</ele><time>2026-04-19T07:57:54.935Z</time></trkpt><trkpt lat="38.8218266" lon="16.3034242"><ele>196.0</ele><time>2026-04-19T07:57:55.936Z</time></trkpt><trkpt lat="38.8218546" lon="16.3032553"><ele>188.5</ele><time>2026-04-19T07:57:56.938Z</time></trkpt><trkpt lat="38.8218678" lon="16.303113"><ele>181.0</ele><time>2026-04-19T07:57:57.934Z</time></trkpt><trkpt lat="38.8218378" lon="16.3029569"><ele>187.0</ele><time>2026-04-19T07:57:58.941Z</time></trkpt><trkpt lat="38.8218005" lon="16.302806"><ele>193.0</ele><time>2026-04-19T07:57:59.936Z</time></trkpt><trkpt lat="38.8217768" lon="16.3026822"><ele>199.0</ele><time>2026-04-19T07:58:00.938Z</time></trkpt><trkpt lat="38.8217405" lon="16.3025931"><ele>205.0</ele><time>2026-04-19T07:58:01.932Z</time></trkpt><trkpt lat="38.8216832" lon="16.3025192"><ele>211.0</ele><time>2026-04-19T07:58:02.954Z</time></trkpt><trkpt lat="38.821605" lon="16.3024596"><ele>210.99999999999997</ele><time>2026-04-19T07:58:03.934Z</time></trkpt><trkpt lat="38.8215215" lon="16.3023854"><ele>211.0</ele><time>2026-04-19T07:58:04.938Z</time></trkpt><trkpt lat="38.8214505" lon="16.3022991"><ele>211.0</ele><time>2026-04-19T07:58:05.947Z</time></trkpt><trkpt lat="38.8213893" lon="16.3022274"><ele>211.0</ele><time>2026-04-19T07:58:06.931Z</time></trkpt><trkpt lat="38.8213382" lon="16.3021673"><ele>210.99999999999997</ele><time>2026-04-19T07:58:07.95Z</time></trkpt><trkpt lat="38.8212962" lon="16.3020937"><ele>211.0</ele><time>2026-04-19T07:58:08.943Z</time></trkpt><trkpt lat="38.8212596" lon="16.3019948"><ele>209.99999999999997</ele><time>2026-04-19T07:58:09.94Z</time></trkpt><trkpt lat="38.8212184" lon="16.3019075"><ele>209.0</ele><time>2026-04-19T07:58:10.944Z</time></trkpt><trkpt lat="38.8211951" lon="16.3018183"><ele>208.0</ele><time>2026-04-19T07:58:11.935Z</time></trkpt><trkpt lat="38.8211923" lon="16.3017252"><ele>207.0</ele><time>2026-04-19T07:58:12.935Z</time></trkpt><trkpt lat="38.8211912" lon="16.3016308"><ele>205.99999999999997</ele><time>2026-04-19T07:58:13.939Z</time></trkpt><trkpt lat="38.8212006" lon="16.3015314"><ele>205.0</ele><time>2026-04-19T07:58:14.945Z</time></trkpt><trkpt lat="38.8212124" lon="16.3014289"><ele>206.33333333333331</ele><time>2026-04-19T07:58:15.936Z</time></trkpt><trkpt lat="38.8212185" lon="16.30132"><ele>207.66666666666666</ele><time>2026-04-19T07:58:16.944Z</time></trkpt><trkpt lat="38.8212254" lon="16.301211"><ele>209.0</ele><time>2026-04-19T07:58:17.938Z</time></trkpt><trkpt lat="38.8212332" lon="16.3011031"><ele>210.33333333333331</ele><time>2026-04-19T07:58:18.945Z</time></trkpt><trkpt lat="38.8212465" lon="16.3009898"><ele>211.66666666666666</ele><time>2026-04-19T07:58:19.938Z</time></trkpt><trkpt lat="38.8212706" lon="16.3008816"><ele>213.0</ele><time>2026-04-19T07:58:20.949Z</time></trkpt><trkpt lat="38.8213021" lon="16.3007774"><ele>213.0</ele><time>2026-04-19T07:58:21.933Z</time></trkpt><trkpt lat="38.8213357" lon="16.3006753"><ele>213.0</ele><time>2026-04-19T07:58:22.93Z</time></trkpt><trkpt lat="38.8213683" lon="16.3005756"><ele>213.0</ele><time>2026-04-19T07:58:23.934Z</time></trkpt><trkpt lat="38.8213985" lon="16.3004825"><ele>213.0</ele><time>2026-04-19T07:58:24.935Z</time></trkpt><trkpt lat="38.8214204" lon="16.3003917"><ele>213.0</ele><time>2026-04-19T07:58:25.94Z</time></trkpt><trkpt lat="38.8214381" lon="16.3002975"><ele>213.0</ele><time>2026-04-19T07:58:26.941Z</time></trkpt><trkpt lat="38.8214644" lon="16.3002082"><ele>214.85714285714283</ele><time>2026-04-19T07:58:27.935Z</time></trkpt><trkpt lat="38.8214794" lon="16.3001145"><ele>216.71428571428572</ele><time>2026-04-19T07:58:28.935Z</time></trkpt><trkpt lat="38.8214937" lon="16.3000241"><ele>218.57142857142856</ele><time>2026-04-19T07:58:29.933Z</time></trkpt><trkpt lat="38.8215137" lon="16.2999396"><ele>220.42857142857142</ele><time>2026-04-19T07:58:30.94Z</time></trkpt><trkpt lat="38.8215385" lon="16.2998535"><ele>222.28571428571428</ele><time>2026-04-19T07:58:31.931Z</time></trkpt><trkpt lat="38.8215651" lon="16.2997675"><ele>224.14285714285714</ele><time>2026-04-19T07:58:32.931Z</time></trkpt><trkpt lat="38.8215884" lon="16.2996912"><ele>226.0</ele><time>2026-04-19T07:58:33.939Z</time></trkpt><trkpt lat="38.8216129" lon="16.299609"><ele>227.66666666666666</ele><time>2026-04-19T07:58:34.953Z</time></trkpt><trkpt lat="38.8216287" lon="16.2995181"><ele>229.33333333333331</ele><time>2026-04-19T07:58:35.938Z</time></trkpt><trkpt lat="38.8216522" lon="16.2993761"><ele>231.0</ele><time>2026-04-19T07:58:37.941Z</time></trkpt><trkpt lat="38.8215745" lon="16.2992557"><ele>232.66666666666669</ele><time>2026-04-19T07:58:39.933Z</time></trkpt><trkpt lat="38.8215251" lon="16.299204"><ele>234.33333333333334</ele><time>2026-04-19T07:58:40.938Z</time></trkpt><trkpt lat="38.8214756" lon="16.299151"><ele>236.0</ele><time>2026-04-19T07:58:41.933Z</time></trkpt><trkpt lat="38.8214124" lon="16.2990613"><ele>236.00000000000003</ele><time>2026-04-19T07:58:43.943Z</time></trkpt><trkpt lat="38.821354" lon="16.2989661"><ele>236.0</ele><time>2026-04-19T07:58:46.932Z</time></trkpt><trkpt lat="38.8212992" lon="16.2988842"><ele>236.0</ele><time>2026-04-19T07:58:49.938Z</time></trkpt><trkpt lat="38.8212362" lon="16.2988369"><ele>236.0</ele><time>2026-04-19T07:59:08.947Z</time></trkpt><trkpt lat="38.8211812" lon="16.2988806"><ele>236.00000000000003</ele><time>2026-04-19T07:59:10.947Z</time></trkpt><trkpt lat="38.8211079" lon="16.2988504"><ele>236.0</ele><time>2026-04-19T07:59:13.941Z</time></trkpt><trkpt lat="38.8210987" lon="16.2987618"><ele>235.16666666666669</ele><time>2026-04-19T08:00:07.938Z</time></trkpt><trkpt lat="38.8210391" lon="16.2986775"><ele>234.33333333333334</ele><time>2026-04-19T08:00:38.934Z</time></trkpt><trkpt lat="38.8209765" lon="16.298634"><ele>233.5</ele><time>2026-04-19T08:00:40.938Z</time></trkpt><trkpt lat="38.8209028" lon="16.2985807"><ele>232.66666666666669</ele><time>2026-04-19T08:00:42.939Z</time></trkpt><trkpt lat="38.8208391" lon="16.2985418"><ele>231.83333333333334</ele><time>2026-04-19T08:00:44.968Z</time></trkpt><trkpt lat="38.8207848" lon="16.2984866"><ele>231.0</ele><time>2026-04-19T08:00:46.942Z</time></trkpt><trkpt lat="38.8207364" lon="16.2984143"><ele>238.4</ele><time>2026-04-19T08:00:48.932Z</time></trkpt><trkpt lat="38.8206913" lon="16.2983162"><ele>245.8</ele><time>2026-04-19T08:00:50.939Z</time></trkpt><trkpt lat="38.8206278" lon="16.2982575"><ele>253.20000000000002</ele><time>2026-04-19T08:00:52.935Z</time></trkpt><trkpt lat="38.8205261" lon="16.2982536"><ele>260.6</ele><time>2026-04-19T08:00:54.944Z</time></trkpt><trkpt lat="38.8204066" lon="16.2982702"><ele>268.0</ele><time>2026-04-19T08:00:56.939Z</time></trkpt><trkpt lat="38.8202902" lon="16.2982838"><ele>268.0</ele><time>2026-04-19T08:00:58.948Z</time></trkpt><trkpt lat="38.8201924" lon="16.2982935"><ele>268.0</ele><time>2026-04-19T08:01:00.949Z</time></trkpt><trkpt lat="38.8200858" lon="16.2982992"><ele>268.0</ele><time>2026-04-19T08:01:02.942Z</time></trkpt><trkpt lat="38.8199714" lon="16.2982856"><ele>268.0</ele><time>2026-04-19T08:01:04.945Z</time></trkpt><trkpt lat="38.8198552" lon="16.2982777"><ele>268.0</ele><time>2026-04-19T08:01:06.95Z</time></trkpt><trkpt lat="38.8197563" lon="16.2982675"><ele>272.4</ele><time>2026-04-19T08:01:08.94Z</time></trkpt><trkpt lat="38.8196883" lon="16.2982706"><ele>276.8</ele><time>2026-04-19T08:01:10.935Z</time></trkpt><trkpt lat="38.8196129" lon="16.2982921"><ele>281.2</ele><time>2026-04-19T08:01:12.936Z</time></trkpt><trkpt lat="38.8195268" lon="16.2983286"><ele>285.6</ele><time>2026-04-19T08:01:14.93Z</time></trkpt><trkpt lat="38.8194163" lon="16.2983669"><ele>290.0</ele><time>2026-04-19T08:01:16.943Z</time></trkpt><trkpt lat="38.8193035" lon="16.2984094"><ele>293.0</ele><time>2026-04-19T08:01:18.935Z</time></trkpt><trkpt lat="38.8192051" lon="16.2984584"><ele>296.0</ele><time>2026-04-19T08:01:20.95Z</time></trkpt><trkpt lat="38.8191062" lon="16.2984774"><ele>299.0</ele><time>2026-04-19T08:01:22.93Z</time></trkpt><trkpt lat="38.8189953" lon="16.2984781"><ele>302.0</ele><time>2026-04-19T08:01:24.928Z</time></trkpt><trkpt lat="38.8189049" lon="16.2984736"><ele>305.0</ele><time>2026-04-19T08:01:26.944Z</time></trkpt><trkpt lat="38.8188261" lon="16.298489"><ele>305.0</ele><time>2026-04-19T08:01:28.947Z</time></trkpt><trkpt lat="38.8187486" lon="16.2985346"><ele>305.0</ele><time>2026-04-19T08:01:30.933Z</time></trkpt><trkpt lat="38.8186784" lon="16.298616"><ele>305.0</ele><time>2026-04-19T08:01:32.929Z</time></trkpt><trkpt lat="38.8186174" lon="16.2986921"><ele>305.0</ele><time>2026-04-19T08:01:34.937Z</time></trkpt><trkpt lat="38.8185385" lon="16.2987561"><ele>305.0</ele><time>2026-04-19T08:01:36.934Z</time></trkpt><trkpt lat="38.8184657" lon="16.2988166"><ele>305.0</ele><time>2026-04-19T08:01:38.938Z</time></trkpt><trkpt lat="38.8183828" lon="16.2989012"><ele>310.6</ele><time>2026-04-19T08:01:40.936Z</time></trkpt><trkpt lat="38.8183083" lon="16.2989823"><ele>316.2</ele><time>2026-04-19T08:01:42.931Z</time></trkpt><trkpt lat="38.8182484" lon="16.2990849"><ele>321.79999999999995</ele><time>2026-04-19T08:01:44.934Z</time></trkpt><trkpt lat="38.8182043" lon="16.2991986"><ele>327.4</ele><time>2026-04-19T08:01:46.933Z</time></trkpt><trkpt lat="38.8181639" lon="16.2993045"><ele>333.0</ele><time>2026-04-19T08:01:48.934Z</time></trkpt><trkpt lat="38.8181132" lon="16.2994226"><ele>333.0</ele><time>2026-04-19T08:01:50.932Z</time></trkpt><trkpt lat="38.8180614" lon="16.2995209"><ele>333.0</ele><time>2026-04-19T08:01:52.932Z</time></trkpt><trkpt lat="38.8179784" lon="16.2996032"><ele>333.0</ele><time>2026-04-19T08:01:54.947Z</time></trkpt><trkpt lat="38.8178714" lon="16.299657"><ele>333.0</ele><time>2026-04-19T08:01:56.932Z</time></trkpt><trkpt lat="38.8178206" lon="16.2997056"><ele>333.0</ele><time>2026-04-19T08:01:57.94Z</time></trkpt><trkpt lat="38.8177496" lon="16.2998205"><ele>335.8333333333333</ele><time>2026-04-19T08:01:59.937Z</time></trkpt><trkpt lat="38.817709" lon="16.2999486"><ele>338.6666666666667</ele><time>2026-04-19T08:02:01.935Z</time></trkpt><trkpt lat="38.8176832" lon="16.3000541"><ele>341.5</ele><time>2026-04-19T08:02:03.938Z</time></trkpt><trkpt lat="38.8176566" lon="16.3001457"><ele>344.33333333333337</ele><time>2026-04-19T08:02:05.935Z</time></trkpt><trkpt lat="38.8176191" lon="16.3002134"><ele>347.1666666666667</ele><time>2026-04-19T08:02:07.933Z</time></trkpt><trkpt lat="38.8175432" lon="16.3002741"><ele>350.0</ele><time>2026-04-19T08:02:09.948Z</time></trkpt><trkpt lat="38.8174625" lon="16.3003158"><ele>352.1666666666667</ele><time>2026-04-19T08:02:11.941Z</time></trkpt><trkpt lat="38.8174201" lon="16.3003969"><ele>354.33333333333337</ele><time>2026-04-19T08:02:13.931Z</time></trkpt><trkpt lat="38.8174288" lon="16.3005069"><ele>356.5</ele><time>2026-04-19T08:02:15.935Z</time></trkpt><trkpt lat="38.8174484" lon="16.3006128"><ele>358.6666666666667</ele><time>2026-04-19T08:02:17.934Z</time></trkpt><trkpt lat="38.8174888" lon="16.3007168"><ele>360.8333333333333</ele><time>2026-04-19T08:02:19.928Z</time></trkpt><trkpt lat="38.8175139" lon="16.3008292"><ele>363.0</ele><time>2026-04-19T08:02:21.942Z</time></trkpt><trkpt lat="38.8175515" lon="16.3009529"><ele>363.79999999999995</ele><time>2026-04-19T08:02:23.94Z</time></trkpt><trkpt lat="38.8176402" lon="16.3010747"><ele>364.6</ele><time>2026-04-19T08:02:25.938Z</time></trkpt><trkpt lat="38.8176861" lon="16.3011305"><ele>365.4</ele><time>2026-04-19T08:02:26.933Z</time></trkpt><trkpt lat="38.8177144" lon="16.3012679"><ele>366.20000000000005</ele><time>2026-04-19T08:02:28.943Z</time></trkpt><trkpt lat="38.817716" lon="16.3014071"><ele>367.0</ele><time>2026-04-19T08:02:30.944Z</time></trkpt><trkpt lat="38.8177289" lon="16.3015558"><ele>367.0</ele><time>2026-04-19T08:02:32.944Z</time></trkpt><trkpt lat="38.8177502" lon="16.3017055"><ele>367.0</ele><time>2026-04-19T08:02:34.938Z</time></trkpt><trkpt lat="38.817767" lon="16.3017953"><ele>367.0</ele><time>2026-04-19T08:02:35.942Z</time></trkpt><trkpt lat="38.8177842" lon="16.3018793"><ele>367.0</ele><time>2026-04-19T08:02:36.943Z</time></trkpt><trkpt lat="38.8178005" lon="16.3019615"><ele>367.0</ele><time>2026-04-19T08:02:37.933Z</time></trkpt><trkpt lat="38.8178165" lon="16.302062"><ele>367.0</ele><time>2026-04-19T08:02:38.935Z</time></trkpt><trkpt lat="38.8178287" lon="16.3021569"><ele>367.0</ele><time>2026-04-19T08:02:39.931Z</time></trkpt><trkpt lat="38.8178336" lon="16.3022411"><ele>367.0</ele><time>2026-04-19T08:02:40.934Z</time></trkpt><trkpt lat="38.8178299" lon="16.3023954"><ele>367.0</ele><time>2026-04-19T08:02:42.939Z</time></trkpt><trkpt lat="38.817822" lon="16.3024891"><ele>367.0</ele><time>2026-04-19T08:02:43.945Z</time></trkpt><trkpt lat="38.8178128" lon="16.3025878"><ele>367.0</ele><time>2026-04-19T08:02:44.933Z</time></trkpt><trkpt lat="38.817801" lon="16.3026734"><ele>367.0</ele><time>2026-04-19T08:02:45.941Z</time></trkpt><trkpt lat="38.8177885" lon="16.3027607"><ele>367.8333333333333</ele><time>2026-04-19T08:02:46.94Z</time></trkpt><trkpt lat="38.8177414" lon="16.3029214"><ele>368.66666666666663</ele><time>2026-04-19T08:02:48.937Z</time></trkpt><trkpt lat="38.8176958" lon="16.302985"><ele>369.5</ele><time>2026-04-19T08:02:49.94Z</time></trkpt><trkpt lat="38.8176481" lon="16.3030597"><ele>370.3333333333333</ele><time>2026-04-19T08:02:50.948Z</time></trkpt><trkpt lat="38.8175971" lon="16.30313"><ele>371.1666666666667</ele><time>2026-04-19T08:02:51.935Z</time></trkpt><trkpt lat="38.8175409" lon="16.3032061"><ele>372.0</ele><time>2026-04-19T08:02:52.946Z</time></trkpt><trkpt lat="38.8174973" lon="16.3032658"><ele>379.6666666666667</ele><time>2026-04-19T08:02:53.941Z</time></trkpt><trkpt lat="38.8174413" lon="16.3033893"><ele>387.33333333333337</ele><time>2026-04-19T08:02:55.935Z</time></trkpt><trkpt lat="38.8174425" lon="16.303507"><ele>395.0</ele><time>2026-04-19T08:03:00.954Z</time></trkpt><trkpt lat="38.8174426" lon="16.3036055"><ele>402.6666666666667</ele><time>2026-04-19T08:03:04.943Z</time></trkpt><trkpt lat="38.8174405" lon="16.303713"><ele>410.33333333333337</ele><time>2026-04-19T08:03:07.939Z</time></trkpt><trkpt lat="38.8173779" lon="16.3037592"><ele>418.0</ele><time>2026-04-19T08:03:11.945Z</time></trkpt><trkpt lat="38.8173375" lon="16.3036816"><ele>418.00000000000006</ele><time>2026-04-19T08:03:14.935Z</time></trkpt><trkpt lat="38.8173309" lon="16.3035761"><ele>418.0</ele><time>2026-04-19T08:03:16.94Z</time></trkpt><trkpt lat="38.8173205" lon="16.3034889"><ele>418.0</ele><time>2026-04-19T08:03:17.938Z</time></trkpt><trkpt lat="38.8172955" lon="16.3033911"><ele>418.0</ele><time>2026-04-19T08:03:18.94Z</time></trkpt><trkpt lat="38.8172803" lon="16.3033064"><ele>418.00000000000006</ele><time>2026-04-19T08:03:19.947Z</time></trkpt><trkpt lat="38.8173302" lon="16.3031681"><ele>418.0</ele><time>2026-04-19T08:03:21.954Z</time></trkpt><trkpt lat="38.8173759" lon="16.3030228"><ele>417.59999999999997</ele><time>2026-04-19T08:03:23.931Z</time></trkpt><trkpt lat="38.8174225" lon="16.3028825"><ele>417.2</ele><time>2026-04-19T08:03:25.943Z</time></trkpt><trkpt lat="38.8174298" lon="16.3027617"><ele>416.8</ele><time>2026-04-19T08:03:27.936Z</time></trkpt><trkpt lat="38.8173289" lon="16.3027455"><ele>416.4</ele><time>2026-04-19T08:03:30.936Z</time></trkpt><trkpt lat="38.8172375" lon="16.3027461"><ele>416.0</ele><time>2026-04-19T08:03:32.945Z</time></trkpt><trkpt lat="38.8171304" lon="16.3027132"><ele>415.99999999999994</ele><time>2026-04-19T08:03:34.941Z</time></trkpt><trkpt lat="38.8170299" lon="16.3026811"><ele>416.0</ele><time>2026-04-19T08:03:36.939Z</time></trkpt><trkpt lat="38.8169714" lon="16.3025897"><ele>416.0</ele><time>2026-04-19T08:03:38.938Z</time></trkpt><trkpt lat="38.8168981" lon="16.3025016"><ele>416.0</ele><time>2026-04-19T08:03:40.948Z</time></trkpt><trkpt lat="38.816838" lon="16.3024672"><ele>415.99999999999994</ele><time>2026-04-19T08:03:41.942Z</time></trkpt><trkpt lat="38.8167772" lon="16.3024423"><ele>416.0</ele><time>2026-04-19T08:03:42.934Z</time></trkpt><trkpt lat="38.8166917" lon="16.3024488"><ele>420.4</ele><time>2026-04-19T08:03:44.939Z</time></trkpt><trkpt lat="38.8166048" lon="16.3025215"><ele>424.8</ele><time>2026-04-19T08:03:46.948Z</time></trkpt><trkpt lat="38.8165895" lon="16.3026449"><ele>429.19999999999993</ele><time>2026-04-19T08:03:48.932Z</time></trkpt><trkpt lat="38.8165516" lon="16.3027788"><ele>433.59999999999997</ele><time>2026-04-19T08:03:50.932Z</time></trkpt><trkpt lat="38.8165411" lon="16.3029232"><ele>438.0</ele><time>2026-04-19T08:03:52.939Z</time></trkpt><trkpt lat="38.8165172" lon="16.303078"><ele>441.0</ele><time>2026-04-19T08:03:54.936Z</time></trkpt><trkpt lat="38.8164428" lon="16.3032031"><ele>443.99999999999994</ele><time>2026-04-19T08:03:56.941Z</time></trkpt><trkpt lat="38.8163776" lon="16.3032499"><ele>446.99999999999994</ele><time>2026-04-19T08:03:57.94Z</time></trkpt><trkpt lat="38.8163209" lon="16.303292"><ele>450.0</ele><time>2026-04-19T08:03:58.938Z</time></trkpt><trkpt lat="38.8162377" lon="16.3033643"><ele>453.0</ele><time>2026-04-19T08:04:00.933Z</time></trkpt><trkpt lat="38.8161696" lon="16.3034891"><ele>453.0</ele><time>2026-04-19T08:04:02.932Z</time></trkpt><trkpt lat="38.8161323" lon="16.3035689"><ele>453.0</ele><time>2026-04-19T08:04:03.931Z</time></trkpt><trkpt lat="38.8160915" lon="16.3036457"><ele>453.0</ele><time>2026-04-19T08:04:04.942Z</time></trkpt><trkpt lat="38.8160363" lon="16.3037148"><ele>453.0</ele><time>2026-04-19T08:04:05.931Z</time></trkpt><trkpt lat="38.8159859" lon="16.303791"><ele>453.0</ele><time>2026-04-19T08:04:06.936Z</time></trkpt><trkpt lat="38.8159301" lon="16.3038818"><ele>453.0</ele><time>2026-04-19T08:04:07.936Z</time></trkpt><trkpt lat="38.8158609" lon="16.3039572"><ele>455.6666666666667</ele><time>2026-04-19T08:04:08.934Z</time></trkpt><trkpt lat="38.8157794" lon="16.3040212"><ele>458.33333333333337</ele><time>2026-04-19T08:04:09.932Z</time></trkpt><trkpt lat="38.8157271" lon="16.3041256"><ele>461.0</ele><time>2026-04-19T08:04:10.937Z</time></trkpt><trkpt lat="38.8156983" lon="16.3042125"><ele>463.6666666666667</ele><time>2026-04-19T08:04:11.941Z</time></trkpt><trkpt lat="38.8156522" lon="16.3042975"><ele>466.33333333333337</ele><time>2026-04-19T08:04:26.955Z</time></trkpt><trkpt lat="38.8155815" lon="16.3043904"><ele>469.0</ele><time>2026-04-19T08:04:28.94Z</time></trkpt><trkpt lat="38.815544" lon="16.3044557"><ele>469.0</ele><time>2026-04-19T08:04:29.946Z</time></trkpt><trkpt lat="38.8154651" lon="16.3045827"><ele>469.0</ele><time>2026-04-19T08:04:31.936Z</time></trkpt><trkpt lat="38.8154106" lon="16.30465"><ele>469.0</ele><time>2026-04-19T08:04:32.964Z</time></trkpt><trkpt lat="38.815346" lon="16.3047211"><ele>469.0</ele><time>2026-04-19T08:04:33.933Z</time></trkpt><trkpt lat="38.8152836" lon="16.3048009"><ele>469.0</ele><time>2026-04-19T08:04:34.936Z</time></trkpt><trkpt lat="38.8152298" lon="16.3048974"><ele>470.50000000000006</ele><time>2026-04-19T08:04:35.942Z</time></trkpt><trkpt lat="38.8151803" lon="16.304991"><ele>472.0</ele><time>2026-04-19T08:04:36.931Z</time></trkpt><trkpt lat="38.815142" lon="16.3050776"><ele>473.5</ele><time>2026-04-19T08:04:37.938Z</time></trkpt><trkpt lat="38.8151184" lon="16.3051641"><ele>475.0</ele><time>2026-04-19T08:04:38.932Z</time></trkpt><trkpt lat="38.8150982" lon="16.3052413"><ele>476.50000000000006</ele><time>2026-04-19T08:04:39.939Z</time></trkpt><trkpt lat="38.8150939" lon="16.3053348"><ele>478.0</ele><time>2026-04-19T08:04:40.936Z</time></trkpt><trkpt lat="38.8150906" lon="16.3054334"><ele>478.33333333333337</ele><time>2026-04-19T08:04:41.936Z</time></trkpt><trkpt lat="38.815082" lon="16.3055337"><ele>478.6666666666667</ele><time>2026-04-19T08:04:42.933Z</time></trkpt><trkpt lat="38.8150609" lon="16.3056356"><ele>479.0</ele><time>2026-04-19T08:04:43.935Z</time></trkpt><trkpt lat="38.8150393" lon="16.305735"><ele>479.33333333333337</ele><time>2026-04-19T08:04:44.933Z</time></trkpt><trkpt lat="38.8150234" lon="16.3058286"><ele>479.6666666666667</ele><time>2026-04-19T08:04:45.936Z</time></trkpt><trkpt lat="38.8150181" lon="16.3059248"><ele>480.0</ele><time>2026-04-19T08:04:46.936Z</time></trkpt><trkpt lat="38.8150323" lon="16.3060096"><ele>481.5</ele><time>2026-04-19T08:04:47.932Z</time></trkpt><trkpt lat="38.8150453" lon="16.3060889"><ele>483.0</ele><time>2026-04-19T08:04:48.937Z</time></trkpt><trkpt lat="38.815045" lon="16.306181"><ele>484.5</ele><time>2026-04-19T08:04:49.932Z</time></trkpt><trkpt lat="38.8150478" lon="16.3062748"><ele>486.0</ele><time>2026-04-19T08:04:50.934Z</time></trkpt><trkpt lat="38.815039" lon="16.3063711"><ele>487.5</ele><time>2026-04-19T08:04:51.941Z</time></trkpt><trkpt lat="38.8149979" lon="16.3064534"><ele>489.0</ele><time>2026-04-19T08:04:52.934Z</time></trkpt><trkpt lat="38.814938" lon="16.3065456"><ele>489.2</ele><time>2026-04-19T08:04:54.937Z</time></trkpt><trkpt lat="38.8148882" lon="16.3066089"><ele>489.4</ele><time>2026-04-19T08:04:57.934Z</time></trkpt><trkpt lat="38.814832" lon="16.3066907"><ele>489.6</ele><time>2026-04-19T08:04:59.937Z</time></trkpt><trkpt lat="38.8147676" lon="16.3068058"><ele>489.8</ele><time>2026-04-19T08:05:01.944Z</time></trkpt><trkpt lat="38.8146989" lon="16.3069345"><ele>490.0</ele><time>2026-04-19T08:05:03.932Z</time></trkpt><trkpt lat="38.8146503" lon="16.3069883"><ele>490.0</ele><time>2026-04-19T08:05:04.937Z</time></trkpt><trkpt lat="38.8146023" lon="16.3070442"><ele>490.0</ele><time>2026-04-19T08:05:05.94Z</time></trkpt><trkpt lat="38.8145531" lon="16.307102"><ele>490.0</ele><time>2026-04-19T08:05:06.947Z</time></trkpt><trkpt lat="38.8145015" lon="16.307166"><ele>490.0</ele><time>2026-04-19T08:05:07.943Z</time></trkpt><trkpt lat="38.8144509" lon="16.307227"><ele>490.0</ele><time>2026-04-19T08:05:08.935Z</time></trkpt><trkpt lat="38.8143957" lon="16.3072949"><ele>490.0</ele><time>2026-04-19T08:05:09.932Z</time></trkpt><trkpt lat="38.8143403" lon="16.307355"><ele>490.0</ele><time>2026-04-19T08:05:10.935Z</time></trkpt><trkpt lat="38.8142821" lon="16.3074125"><ele>493.00000000000006</ele><time>2026-04-19T08:05:11.941Z</time></trkpt><trkpt lat="38.8142315" lon="16.3074775"><ele>496.0</ele><time>2026-04-19T08:05:12.933Z</time></trkpt><trkpt lat="38.8141789" lon="16.3075445"><ele>499.0</ele><time>2026-04-19T08:05:13.938Z</time></trkpt><trkpt lat="38.8141279" lon="16.3076103"><ele>502.0</ele><time>2026-04-19T08:05:14.931Z</time></trkpt><trkpt lat="38.8140938" lon="16.307703"><ele>505.00000000000006</ele><time>2026-04-19T08:05:15.932Z</time></trkpt><trkpt lat="38.8140501" lon="16.3077995"><ele>508.0</ele><time>2026-04-19T08:05:16.943Z</time></trkpt><trkpt lat="38.8140003" lon="16.3078846"><ele>508.00000000000006</ele><time>2026-04-19T08:05:17.933Z</time></trkpt><trkpt lat="38.8139511" lon="16.3079641"><ele>508.0</ele><time>2026-04-19T08:05:18.93Z</time></trkpt><trkpt lat="38.8138873" lon="16.3080372"><ele>508.0</ele><time>2026-04-19T08:05:19.936Z</time></trkpt><trkpt lat="38.813817" lon="16.3081108"><ele>508.0</ele><time>2026-04-19T08:05:20.93Z</time></trkpt><trkpt lat="38.8137433" lon="16.3081855"><ele>508.00000000000006</ele><time>2026-04-19T08:05:21.936Z</time></trkpt><trkpt lat="38.8136796" lon="16.3082626"><ele>508.0</ele><time>2026-04-19T08:05:22.931Z</time></trkpt><trkpt lat="38.813616" lon="16.308338"><ele>507.50000000000006</ele><time>2026-04-19T08:05:23.93Z</time></trkpt><trkpt lat="38.813547" lon="16.308413"><ele>507.0</ele><time>2026-04-19T08:05:24.933Z</time></trkpt><trkpt lat="38.8134824" lon="16.3084839"><ele>506.5</ele><time>2026-04-19T08:05:25.934Z</time></trkpt><trkpt lat="38.8134212" lon="16.3085443"><ele>506.0</ele><time>2026-04-19T08:05:26.942Z</time></trkpt><trkpt lat="38.81336" lon="16.3086056"><ele>505.50000000000006</ele><time>2026-04-19T08:05:27.933Z</time></trkpt><trkpt lat="38.8132977" lon="16.3086635"><ele>505.0</ele><time>2026-04-19T08:05:28.933Z</time></trkpt><trkpt lat="38.8132349" lon="16.3087204"><ele>506.1666666666667</ele><time>2026-04-19T08:05:29.933Z</time></trkpt><trkpt lat="38.8131728" lon="16.3087794"><ele>507.33333333333337</ele><time>2026-04-19T08:05:30.939Z</time></trkpt><trkpt lat="38.8131078" lon="16.3088339"><ele>508.5</ele><time>2026-04-19T08:05:31.932Z</time></trkpt><trkpt lat="38.8130434" lon="16.3088892"><ele>509.66666666666663</ele><time>2026-04-19T08:05:32.934Z</time></trkpt><trkpt lat="38.8129745" lon="16.3089454"><ele>510.8333333333333</ele><time>2026-04-19T08:05:33.933Z</time></trkpt><trkpt lat="38.8129027" lon="16.3090069"><ele>512.0</ele><time>2026-04-19T08:05:34.931Z</time></trkpt><trkpt lat="38.8128292" lon="16.3090685"><ele>511.99999999999994</ele><time>2026-04-19T08:05:35.935Z</time></trkpt><trkpt lat="38.8127553" lon="16.3091293"><ele>512.0</ele><time>2026-04-19T08:05:36.938Z</time></trkpt><trkpt lat="38.8126856" lon="16.3091978"><ele>512.0</ele><time>2026-04-19T08:05:37.929Z</time></trkpt><trkpt lat="38.8126169" lon="16.3092683"><ele>512.0</ele><time>2026-04-19T08:05:38.934Z</time></trkpt><trkpt lat="38.8125478" lon="16.3093356"><ele>511.99999999999994</ele><time>2026-04-19T08:05:39.929Z</time></trkpt><trkpt lat="38.8124794" lon="16.3094011"><ele>512.0</ele><time>2026-04-19T08:05:40.932Z</time></trkpt><trkpt lat="38.8124125" lon="16.3094621"><ele>513.5</ele><time>2026-04-19T08:05:41.934Z</time></trkpt><trkpt lat="38.8123402" lon="16.3095134"><ele>515.0</ele><time>2026-04-19T08:05:42.933Z</time></trkpt><trkpt lat="38.8122665" lon="16.3095573"><ele>516.5</ele><time>2026-04-19T08:05:43.95Z</time></trkpt><trkpt lat="38.8121992" lon="16.3095966"><ele>518.0</ele><time>2026-04-19T08:05:44.927Z</time></trkpt><trkpt lat="38.812137" lon="16.3096347"><ele>519.5</ele><time>2026-04-19T08:05:45.937Z</time></trkpt><trkpt lat="38.8120158" lon="16.3096766"><ele>521.0</ele><time>2026-04-19T08:05:47.941Z</time></trkpt><trkpt lat="38.8118944" lon="16.3096703"><ele>521.2</ele><time>2026-04-19T08:05:49.936Z</time></trkpt><trkpt lat="38.8117975" lon="16.3097247"><ele>521.4000000000001</ele><time>2026-04-19T08:05:51.933Z</time></trkpt><trkpt lat="38.8116847" lon="16.3098052"><ele>521.6</ele><time>2026-04-19T08:05:53.938Z</time></trkpt><trkpt lat="38.8116147" lon="16.3098391"><ele>521.8000000000001</ele><time>2026-04-19T08:05:54.938Z</time></trkpt><trkpt lat="38.8115398" lon="16.3098734"><ele>522.0</ele><time>2026-04-19T08:05:55.932Z</time></trkpt><trkpt lat="38.811458" lon="16.3099142"><ele>523.4</ele><time>2026-04-19T08:05:56.934Z</time></trkpt><trkpt lat="38.8113708" lon="16.3099683"><ele>524.8000000000001</ele><time>2026-04-19T08:05:57.935Z</time></trkpt><trkpt lat="38.8112851" lon="16.310022"><ele>526.2</ele><time>2026-04-19T08:05:58.932Z</time></trkpt><trkpt lat="38.8112042" lon="16.3100908"><ele>527.6</ele><time>2026-04-19T08:05:59.934Z</time></trkpt><trkpt lat="38.8111347" lon="16.310177"><ele>529.0</ele><time>2026-04-19T08:06:00.938Z</time></trkpt><trkpt lat="38.8110585" lon="16.3103003"><ele>528.0</ele><time>2026-04-19T08:06:01.933Z</time></trkpt><trkpt lat="38.8109836" lon="16.3104388"><ele>527.0</ele><time>2026-04-19T08:06:02.93Z</time></trkpt><trkpt lat="38.81091" lon="16.3105813"><ele>526.0</ele><time>2026-04-19T08:06:03.931Z</time></trkpt><trkpt lat="38.8108402" lon="16.3107209"><ele>525.0</ele><time>2026-04-19T08:06:04.933Z</time></trkpt><trkpt lat="38.8107752" lon="16.3108584"><ele>527.5</ele><time>2026-04-19T08:06:05.937Z</time></trkpt><trkpt lat="38.8107104" lon="16.310991"><ele>530.0</ele><time>2026-04-19T08:06:06.931Z</time></trkpt><trkpt lat="38.8106457" lon="16.3111232"><ele>532.5</ele><time>2026-04-19T08:06:07.933Z</time></trkpt><trkpt lat="38.8105798" lon="16.3112645"><ele>535.0</ele><time>2026-04-19T08:06:08.93Z</time></trkpt><trkpt lat="38.810514" lon="16.3114071"><ele>536.6</ele><time>2026-04-19T08:06:09.956Z</time></trkpt><trkpt lat="38.8104437" lon="16.3115371"><ele>538.2</ele><time>2026-04-19T08:06:10.95Z</time></trkpt><trkpt lat="38.810367" lon="16.311632"><ele>539.8</ele><time>2026-04-19T08:06:11.931Z</time></trkpt><trkpt lat="38.8103002" lon="16.3117229"><ele>541.4</ele><time>2026-04-19T08:06:12.937Z</time></trkpt><trkpt lat="38.8102358" lon="16.3118114"><ele>543.0</ele><time>2026-04-19T08:06:13.934Z</time></trkpt><trkpt lat="38.8101949" lon="16.3119285"><ele>543.0</ele><time>2026-04-19T08:06:14.935Z</time></trkpt><trkpt lat="38.8101718" lon="16.3120746"><ele>543.0</ele><time>2026-04-19T08:06:15.938Z</time></trkpt><trkpt lat="38.8101529" lon="16.3122392"><ele>543.0</ele><time>2026-04-19T08:06:16.936Z</time></trkpt><trkpt lat="38.8101251" lon="16.3124114"><ele>543.0</ele><time>2026-04-19T08:06:17.932Z</time></trkpt><trkpt lat="38.810088" lon="16.3125923"><ele>546.3333333333334</ele><time>2026-04-19T08:06:18.936Z</time></trkpt><trkpt lat="38.8100286" lon="16.3127773"><ele>549.6666666666667</ele><time>2026-04-19T08:06:19.938Z</time></trkpt><trkpt lat="38.8099519" lon="16.3129812"><ele>553.0</ele><time>2026-04-19T08:06:20.934Z</time></trkpt><trkpt lat="38.8098527" lon="16.313196"><ele>555.3333333333334</ele><time>2026-04-19T08:06:21.94Z</time></trkpt><trkpt lat="38.8097514" lon="16.3134053"><ele>557.6666666666666</ele><time>2026-04-19T08:06:22.935Z</time></trkpt><trkpt lat="38.8096523" lon="16.313594"><ele>560.0</ele><time>2026-04-19T08:06:23.935Z</time></trkpt><trkpt lat="38.8095664" lon="16.3137614"><ele>562.25</ele><time>2026-04-19T08:06:24.941Z</time></trkpt><trkpt lat="38.8094907" lon="16.3139096"><ele>564.5</ele><time>2026-04-19T08:06:25.937Z</time></trkpt><trkpt lat="38.8094189" lon="16.3140434"><ele>566.75</ele><time>2026-04-19T08:06:26.932Z</time></trkpt><trkpt lat="38.8093502" lon="16.3141726"><ele>569.0</ele><time>2026-04-19T08:06:27.938Z</time></trkpt><trkpt lat="38.8092782" lon="16.3143057"><ele>569.3333333333333</ele><time>2026-04-19T08:06:28.949Z</time></trkpt><trkpt lat="38.8091938" lon="16.3144561"><ele>569.6666666666666</ele><time>2026-04-19T08:06:29.943Z</time></trkpt><trkpt lat="38.8091011" lon="16.3146141"><ele>570.0</ele><time>2026-04-19T08:06:30.939Z</time></trkpt><trkpt lat="38.8090022" lon="16.3147772"><ele>570.6666666666666</ele><time>2026-04-19T08:06:31.932Z</time></trkpt><trkpt lat="38.8088979" lon="16.3149443"><ele>571.3333333333333</ele><time>2026-04-19T08:06:32.936Z</time></trkpt><trkpt lat="38.8087885" lon="16.3151175"><ele>572.0</ele><time>2026-04-19T08:06:33.944Z</time></trkpt><trkpt lat="38.8086762" lon="16.3152883"><ele>572.0</ele><time>2026-04-19T08:06:34.933Z</time></trkpt><trkpt lat="38.8085597" lon="16.3154628"><ele>572.0</ele><time>2026-04-19T08:06:35.94Z</time></trkpt><trkpt lat="38.8084362" lon="16.3156497"><ele>572.0</ele><time>2026-04-19T08:06:36.931Z</time></trkpt><trkpt lat="38.8083051" lon="16.3158538"><ele>574.0</ele><time>2026-04-19T08:06:37.939Z</time></trkpt><trkpt lat="38.808175" lon="16.3160659"><ele>576.0</ele><time>2026-04-19T08:06:38.934Z</time></trkpt><trkpt lat="38.8080514" lon="16.3162707"><ele>578.0</ele><time>2026-04-19T08:06:39.938Z</time></trkpt><trkpt lat="38.8079363" lon="16.3164652"><ele>579.6666666666666</ele><time>2026-04-19T08:06:40.936Z</time></trkpt><trkpt lat="38.8078345" lon="16.3166438"><ele>581.3333333333334</ele><time>2026-04-19T08:06:41.939Z</time></trkpt><trkpt lat="38.8077424" lon="16.3168045"><ele>583.0</ele><time>2026-04-19T08:06:42.97Z</time></trkpt><trkpt lat="38.8076553" lon="16.3169487"><ele>584.75</ele><time>2026-04-19T08:06:43.941Z</time></trkpt><trkpt lat="38.8075709" lon="16.3170793"><ele>586.5</ele><time>2026-04-19T08:06:44.938Z</time></trkpt><trkpt lat="38.8074926" lon="16.3171942"><ele>588.25</ele><time>2026-04-19T08:06:45.938Z</time></trkpt><trkpt lat="38.8074237" lon="16.317308"><ele>590.0</ele><time>2026-04-19T08:06:46.95Z</time></trkpt><trkpt lat="38.8073554" lon="16.3174259"><ele>590.75</ele><time>2026-04-19T08:06:47.937Z</time></trkpt><trkpt lat="38.8072711" lon="16.3175411"><ele>591.5</ele><time>2026-04-19T08:06:48.938Z</time></trkpt><trkpt lat="38.8071735" lon="16.3176615"><ele>592.25</ele><time>2026-04-19T08:06:49.939Z</time></trkpt><trkpt lat="38.8070828" lon="16.3177719"><ele>593.0</ele><time>2026-04-19T08:06:50.936Z</time></trkpt><trkpt lat="38.8070022" lon="16.3178683"><ele>593.0</ele><time>2026-04-19T08:06:51.942Z</time></trkpt><trkpt lat="38.8069182" lon="16.3179568"><ele>593.0</ele><time>2026-04-19T08:06:52.943Z</time></trkpt><trkpt lat="38.8068274" lon="16.3180445"><ele>593.0</ele><time>2026-04-19T08:06:53.945Z</time></trkpt><trkpt lat="38.8067432" lon="16.3181392"><ele>593.0</ele><time>2026-04-19T08:06:54.936Z</time></trkpt><trkpt lat="38.8066676" lon="16.3182418"><ele>593.0</ele><time>2026-04-19T08:06:55.936Z</time></trkpt><trkpt lat="38.8065951" lon="16.3183255"><ele>594.6</ele><time>2026-04-19T08:06:56.936Z</time></trkpt><trkpt lat="38.8065136" lon="16.3184023"><ele>596.1999999999999</ele><time>2026-04-19T08:06:57.937Z</time></trkpt><trkpt lat="38.8064245" lon="16.3184546"><ele>597.8</ele><time>2026-04-19T08:06:58.933Z</time></trkpt><trkpt lat="38.8063288" lon="16.3185064"><ele>599.4</ele><time>2026-04-19T08:06:59.939Z</time></trkpt><trkpt lat="38.8062284" lon="16.318555"><ele>601.0</ele><time>2026-04-19T08:07:00.938Z</time></trkpt><trkpt lat="38.8061371" lon="16.318598"><ele>601.0</ele><time>2026-04-19T08:07:01.934Z</time></trkpt><trkpt lat="38.8060524" lon="16.3186354"><ele>601.0</ele><time>2026-04-19T08:07:02.938Z</time></trkpt><trkpt lat="38.805968" lon="16.3186646"><ele>601.0</ele><time>2026-04-19T08:07:03.935Z</time></trkpt><trkpt lat="38.8058884" lon="16.3186948"><ele>601.0</ele><time>2026-04-19T08:07:04.932Z</time></trkpt><trkpt lat="38.8058092" lon="16.3187181"><ele>601.0</ele><time>2026-04-19T08:07:05.932Z</time></trkpt><trkpt lat="38.8057387" lon="16.3187422"><ele>601.0</ele><time>2026-04-19T08:07:06.93Z</time></trkpt><trkpt lat="38.8056791" lon="16.3187705"><ele>601.1666666666667</ele><time>2026-04-19T08:07:07.934Z</time></trkpt><trkpt lat="38.8055921" lon="16.3188091"><ele>601.3333333333334</ele><time>2026-04-19T08:07:09.937Z</time></trkpt><trkpt lat="38.8055123" lon="16.3188348"><ele>601.5</ele><time>2026-04-19T08:07:15.941Z</time></trkpt><trkpt lat="38.8053992" lon="16.318867"><ele>601.6666666666666</ele><time>2026-04-19T08:07:24.965Z</time></trkpt><trkpt lat="38.8053185" lon="16.3188567"><ele>601.8333333333333</ele><time>2026-04-19T08:07:27.014Z</time></trkpt><trkpt lat="38.8052534" lon="16.3188461"><ele>602.0</ele><time>2026-04-19T08:07:28.939Z</time></trkpt><trkpt lat="38.8051867" lon="16.3188434"><ele>600.1666666666666</ele><time>2026-04-19T08:07:30.944Z</time></trkpt><trkpt lat="38.8051096" lon="16.3188665"><ele>598.3333333333333</ele><time>2026-04-19T08:07:34.946Z</time></trkpt><trkpt lat="38.8050428" lon="16.318874"><ele>596.5</ele><time>2026-04-19T08:07:35.953Z</time></trkpt><trkpt lat="38.8049785" lon="16.3188783"><ele>594.6666666666666</ele><time>2026-04-19T08:07:38.95Z</time></trkpt><trkpt lat="38.8048821" lon="16.3188652"><ele>592.8333333333334</ele><time>2026-04-19T08:07:40.933Z</time></trkpt><trkpt lat="38.8047632" lon="16.318829"><ele>591.0</ele><time>2026-04-19T08:07:42.932Z</time></trkpt><trkpt lat="38.8046784" lon="16.3188227"><ele>591.0</ele><time>2026-04-19T08:07:44.935Z</time></trkpt><trkpt lat="38.8045942" lon="16.318853"><ele>591.0</ele><time>2026-04-19T08:07:46.946Z</time></trkpt><trkpt lat="38.8045186" lon="16.3189168"><ele>591.0</ele><time>2026-04-19T08:07:48.935Z</time></trkpt><trkpt lat="38.8044491" lon="16.3189426"><ele>591.0</ele><time>2026-04-19T08:07:50.948Z</time></trkpt><trkpt lat="38.804379" lon="16.3189682"><ele>591.0</ele><time>2026-04-19T08:07:52.939Z</time></trkpt><trkpt lat="38.8042849" lon="16.3190242"><ele>591.0</ele><time>2026-04-19T08:07:54.936Z</time></trkpt><trkpt lat="38.8041956" lon="16.3190921"><ele>586.6666666666666</ele><time>2026-04-19T08:07:56.935Z</time></trkpt><trkpt lat="38.8041074" lon="16.3191078"><ele>582.3333333333334</ele><time>2026-04-19T08:07:58.934Z</time></trkpt><trkpt lat="38.8040404" lon="16.3191266"><ele>578.0</ele><time>2026-04-19T08:08:00.939Z</time></trkpt><trkpt lat="38.8039746" lon="16.319139"><ele>573.6666666666667</ele><time>2026-04-19T08:08:02.936Z</time></trkpt><trkpt lat="38.8038923" lon="16.3191241"><ele>569.3333333333334</ele><time>2026-04-19T08:08:06.93Z</time></trkpt><trkpt lat="38.8038205" lon="16.3191347"><ele>565.0</ele><time>2026-04-19T08:08:08.936Z</time></trkpt><trkpt lat="38.8037288" lon="16.3191981"><ele>565.0</ele><time>2026-04-19T08:08:11.939Z</time></trkpt><trkpt lat="38.8036918" lon="16.3192809"><ele>565.0</ele><time>2026-04-19T08:08:13.94Z</time></trkpt><trkpt lat="38.8036874" lon="16.3194267"><ele>565.0</ele><time>2026-04-19T08:08:18.954Z</time></trkpt><trkpt lat="38.8036823" lon="16.3195399"><ele>565.0</ele><time>2026-04-19T08:08:25.948Z</time></trkpt><trkpt lat="38.8036578" lon="16.3196172"><ele>565.0</ele><time>2026-04-19T08:08:28.957Z</time></trkpt><trkpt lat="38.8036202" lon="16.3197318"><ele>565.0</ele><time>2026-04-19T08:08:32.963Z</time></trkpt><trkpt lat="38.8035922" lon="16.3198476"><ele>563.4285714285713</ele><time>2026-04-19T08:08:34.934Z</time></trkpt><trkpt lat="38.8035617" lon="16.3199402"><ele>561.8571428571429</ele><time>2026-04-19T08:08:36.944Z</time></trkpt><trkpt lat="38.8035359" lon="16.3200226"><ele>560.2857142857142</ele><time>2026-04-19T08:08:38.94Z</time></trkpt><trkpt lat="38.8035039" lon="16.3201062"><ele>558.7142857142857</ele><time>2026-04-19T08:08:43.947Z</time></trkpt><trkpt lat="38.8034631" lon="16.3201723"><ele>557.1428571428571</ele><time>2026-04-19T08:08:59.943Z</time></trkpt><trkpt lat="38.8033987" lon="16.3202402"><ele>555.5714285714286</ele><time>2026-04-19T08:09:03.946Z</time></trkpt><trkpt lat="38.8033407" lon="16.3202931"><ele>554.0</ele><time>2026-04-19T08:09:05.938Z</time></trkpt><trkpt lat="38.8032698" lon="16.3203468"><ele>554.0</ele><time>2026-04-19T08:09:07.933Z</time></trkpt><trkpt lat="38.8031923" lon="16.3203726"><ele>554.0</ele><time>2026-04-19T08:09:09.933Z</time></trkpt><trkpt lat="38.8031488" lon="16.320493"><ele>554.0</ele><time>2026-04-19T08:09:12.943Z</time></trkpt><trkpt lat="38.8031903" lon="16.3206377"><ele>554.0</ele><time>2026-04-19T08:09:14.933Z</time></trkpt><trkpt lat="38.803219" lon="16.3207612"><ele>554.0</ele><time>2026-04-19T08:09:16.941Z</time></trkpt><trkpt lat="38.8032615" lon="16.3208434"><ele>552.2</ele><time>2026-04-19T08:09:18.937Z</time></trkpt><trkpt lat="38.8033638" lon="16.3208797"><ele>550.4</ele><time>2026-04-19T08:09:21.938Z</time></trkpt><trkpt lat="38.8034564" lon="16.3209351"><ele>548.6</ele><time>2026-04-19T08:09:23.939Z</time></trkpt><trkpt lat="38.8035326" lon="16.3210334"><ele>546.8</ele><time>2026-04-19T08:09:25.949Z</time></trkpt><trkpt lat="38.8035953" lon="16.3211234"><ele>545.0</ele><time>2026-04-19T08:09:27.954Z</time></trkpt><trkpt lat="38.8036373" lon="16.3211873"><ele>544.0</ele><time>2026-04-19T08:09:29.934Z</time></trkpt><trkpt lat="38.8037041" lon="16.3211985"><ele>543.0</ele><time>2026-04-19T08:09:31.936Z</time></trkpt><trkpt lat="38.8037806" lon="16.321228"><ele>542.0</ele><time>2026-04-19T08:09:34.937Z</time></trkpt><trkpt lat="38.8037997" lon="16.3213051"><ele>541.0</ele><time>2026-04-19T08:09:36.937Z</time></trkpt><trkpt lat="38.8038061" lon="16.3214026"><ele>540.0</ele><time>2026-04-19T08:09:38.934Z</time></trkpt><trkpt lat="38.8038462" lon="16.3214683"><ele>539.0</ele><time>2026-04-19T08:09:40.934Z</time></trkpt><trkpt lat="38.803921" lon="16.3215122"><ele>538.0</ele><time>2026-04-19T08:09:54.932Z</time></trkpt><trkpt lat="38.8039956" lon="16.3215669"><ele>537.8</ele><time>2026-04-19T08:09:56.934Z</time></trkpt><trkpt lat="38.8040578" lon="16.3216689"><ele>537.5999999999999</ele><time>2026-04-19T08:09:58.938Z</time></trkpt><trkpt lat="38.8040939" lon="16.3217654"><ele>537.4000000000001</ele><time>2026-04-19T08:10:00.952Z</time></trkpt><trkpt lat="38.8040329" lon="16.3218079"><ele>537.2</ele><time>2026-04-19T08:10:02.936Z</time></trkpt><trkpt lat="38.8039209" lon="16.321873"><ele>537.0</ele><time>2026-04-19T08:10:04.939Z</time></trkpt><trkpt lat="38.8038904" lon="16.3219658"><ele>537.0</ele><time>2026-04-19T08:10:05.934Z</time></trkpt><trkpt lat="38.8038567" lon="16.3220628"><ele>537.0</ele><time>2026-04-19T08:10:06.939Z</time></trkpt><trkpt lat="38.803805" lon="16.3221644"><ele>537.0</ele><time>2026-04-19T08:10:07.962Z</time></trkpt><trkpt lat="38.8037301" lon="16.3222805"><ele>537.0</ele><time>2026-04-19T08:10:08.945Z</time></trkpt><trkpt lat="38.8036405" lon="16.3223906"><ele>537.0</ele><time>2026-04-19T08:10:09.936Z</time></trkpt><trkpt lat="38.8035467" lon="16.322504"><ele>540.0</ele><time>2026-04-19T08:10:10.932Z</time></trkpt><trkpt lat="38.8034493" lon="16.3226161"><ele>543.0</ele><time>2026-04-19T08:10:11.948Z</time></trkpt><trkpt lat="38.8033646" lon="16.3227199"><ele>546.0</ele><time>2026-04-19T08:10:12.934Z</time></trkpt><trkpt lat="38.8033002" lon="16.3227955"><ele>549.0</ele><time>2026-04-19T08:10:13.942Z</time></trkpt><trkpt lat="38.8032187" lon="16.3228171"><ele>552.0</ele><time>2026-04-19T08:10:15.953Z</time></trkpt><trkpt lat="38.8031498" lon="16.3227966"><ele>552.0</ele><time>2026-04-19T08:10:19.946Z</time></trkpt><trkpt lat="38.8030499" lon="16.3227761"><ele>552.0</ele><time>2026-04-19T08:10:22.936Z</time></trkpt><trkpt lat="38.8029502" lon="16.3227821"><ele>552.0</ele><time>2026-04-19T08:10:24.943Z</time></trkpt><trkpt lat="38.8028646" lon="16.3227825"><ele>552.0</ele><time>2026-04-19T08:10:26.933Z</time></trkpt><trkpt lat="38.8027774" lon="16.3227771"><ele>552.0</ele><time>2026-04-19T08:10:28.945Z</time></trkpt><trkpt lat="38.8026609" lon="16.322786"><ele>552.3333333333334</ele><time>2026-04-19T08:10:30.954Z</time></trkpt><trkpt lat="38.8025653" lon="16.3228207"><ele>552.6666666666666</ele><time>2026-04-19T08:10:32.932Z</time></trkpt><trkpt lat="38.8024914" lon="16.3228546"><ele>553.0</ele><time>2026-04-19T08:10:34.939Z</time></trkpt><trkpt lat="38.8024265" lon="16.3228766"><ele>553.3333333333333</ele><time>2026-04-19T08:10:36.943Z</time></trkpt><trkpt lat="38.8023415" lon="16.3228641"><ele>553.6666666666666</ele><time>2026-04-19T08:10:38.934Z</time></trkpt><trkpt lat="38.8022314" lon="16.3228433"><ele>554.0</ele><time>2026-04-19T08:10:40.938Z</time></trkpt><trkpt lat="38.8021188" lon="16.3228234"><ele>554.0</ele><time>2026-04-19T08:10:42.939Z</time></trkpt><trkpt lat="38.8020091" lon="16.3228288"><ele>554.0</ele><time>2026-04-19T08:10:44.933Z</time></trkpt><trkpt lat="38.8019009" lon="16.3228501"><ele>554.0</ele><time>2026-04-19T08:10:46.936Z</time></trkpt><trkpt lat="38.8017858" lon="16.3228655"><ele>554.0</ele><time>2026-04-19T08:10:48.939Z</time></trkpt><trkpt lat="38.8016696" lon="16.3228819"><ele>552.8</ele><time>2026-04-19T08:10:50.941Z</time></trkpt><trkpt lat="38.8015895" lon="16.3228755"><ele>551.5999999999999</ele><time>2026-04-19T08:10:52.939Z</time></trkpt><trkpt lat="38.8015092" lon="16.3229044"><ele>550.4</ele><time>2026-04-19T08:10:55.935Z</time></trkpt><trkpt lat="38.8014194" lon="16.3229865"><ele>549.1999999999999</ele><time>2026-04-19T08:10:57.937Z</time></trkpt><trkpt lat="38.801368" lon="16.3230695"><ele>548.0</ele><time>2026-04-19T08:10:58.942Z</time></trkpt><trkpt lat="38.8013249" lon="16.3231757"><ele>546.6</ele><time>2026-04-19T08:10:59.936Z</time></trkpt><trkpt lat="38.8012945" lon="16.3232702"><ele>545.1999999999999</ele><time>2026-04-19T08:11:00.934Z</time></trkpt><trkpt lat="38.8012537" lon="16.3234006"><ele>543.8</ele><time>2026-04-19T08:11:02.939Z</time></trkpt><trkpt lat="38.8011876" lon="16.3235011"><ele>542.4</ele><time>2026-04-19T08:11:04.933Z</time></trkpt><trkpt lat="38.8011333" lon="16.3236231"><ele>541.0</ele><time>2026-04-19T08:11:06.938Z</time></trkpt><trkpt lat="38.8010891" lon="16.3237711"><ele>539.4</ele><time>2026-04-19T08:11:08.94Z</time></trkpt><trkpt lat="38.8010655" lon="16.3239075"><ele>537.8</ele><time>2026-04-19T08:11:10.946Z</time></trkpt><trkpt lat="38.8010646" lon="16.3240315"><ele>536.1999999999999</ele><time>2026-04-19T08:11:12.937Z</time></trkpt><trkpt lat="38.8010727" lon="16.324166"><ele>534.6</ele><time>2026-04-19T08:11:14.946Z</time></trkpt><trkpt lat="38.8010654" lon="16.3243008"><ele>533.0</ele><time>2026-04-19T08:11:16.944Z</time></trkpt><trkpt lat="38.8010389" lon="16.3243806"><ele>533.0</ele><time>2026-04-19T08:11:17.94Z</time></trkpt><trkpt lat="38.8010072" lon="16.3244569"><ele>533.0</ele><time>2026-04-19T08:11:18.942Z</time></trkpt><trkpt lat="38.8009489" lon="16.3245833"><ele>533.0</ele><time>2026-04-19T08:11:20.937Z</time></trkpt><trkpt lat="38.8008815" lon="16.324716"><ele>533.0</ele><time>2026-04-19T08:11:22.936Z</time></trkpt><trkpt lat="38.8007831" lon="16.3248149"><ele>533.0</ele><time>2026-04-19T08:11:24.937Z</time></trkpt><trkpt lat="38.8007285" lon="16.3248576"><ele>533.0</ele><time>2026-04-19T08:11:25.947Z</time></trkpt><trkpt lat="38.800644" lon="16.3249294"><ele>533.0</ele><time>2026-04-19T08:11:27.981Z</time></trkpt><trkpt lat="38.8005915" lon="16.3249966"><ele>533.0</ele><time>2026-04-19T08:11:29.936Z</time></trkpt><trkpt lat="38.8005283" lon="16.3250759"><ele>533.0</ele><time>2026-04-19T08:11:32.938Z</time></trkpt><trkpt lat="38.800491" lon="16.3251631"><ele>533.0</ele><time>2026-04-19T08:11:34.94Z</time></trkpt><trkpt lat="38.8004987" lon="16.3252481"><ele>533.0</ele><time>2026-04-19T08:11:36.945Z</time></trkpt><trkpt lat="38.8005523" lon="16.3253027"><ele>533.0</ele><time>2026-04-19T08:11:38.94Z</time></trkpt><trkpt lat="38.8006128" lon="16.3253586"><ele>533.0</ele><time>2026-04-19T08:11:41.939Z</time></trkpt><trkpt lat="38.800692" lon="16.3254054"><ele>533.0</ele><time>2026-04-19T08:11:44.938Z</time></trkpt><trkpt lat="38.800758" lon="16.3254747"><ele>533.0</ele><time>2026-04-19T08:11:46.938Z</time></trkpt><trkpt lat="38.8008087" lon="16.3255444"><ele>533.0</ele><time>2026-04-19T08:11:48.935Z</time></trkpt><trkpt lat="38.8008224" lon="16.3256538"><ele>533.0</ele><time>2026-04-19T08:11:51.946Z</time></trkpt><trkpt lat="38.8008508" lon="16.3257475"><ele>533.0</ele><time>2026-04-19T08:11:54.934Z</time></trkpt><trkpt lat="38.8008775" lon="16.3258212"><ele>533.0</ele><time>2026-04-19T08:11:56.934Z</time></trkpt><trkpt lat="38.8009026" lon="16.3259341"><ele>533.0</ele><time>2026-04-19T08:11:58.937Z</time></trkpt><trkpt lat="38.800922" lon="16.3260563"><ele>533.0</ele><time>2026-04-19T08:12:00.957Z</time></trkpt><trkpt lat="38.8009397" lon="16.3261622"><ele>533.0</ele><time>2026-04-19T08:12:02.934Z</time></trkpt><trkpt lat="38.800952" lon="16.3262593"><ele>533.0</ele><time>2026-04-19T08:12:04.935Z</time></trkpt><trkpt lat="38.8009718" lon="16.326365"><ele>533.8333333333333</ele><time>2026-04-19T08:12:06.936Z</time></trkpt><trkpt lat="38.8009875" lon="16.3264737"><ele>534.6666666666666</ele><time>2026-04-19T08:12:08.941Z</time></trkpt><trkpt lat="38.8010103" lon="16.3265565"><ele>535.5</ele><time>2026-04-19T08:12:10.941Z</time></trkpt><trkpt lat="38.8010424" lon="16.3266533"><ele>536.3333333333334</ele><time>2026-04-19T08:12:12.943Z</time></trkpt><trkpt lat="38.8010778" lon="16.3267314"><ele>537.1666666666667</ele><time>2026-04-19T08:12:14.944Z</time></trkpt><trkpt lat="38.8010996" lon="16.3268275"><ele>538.0</ele><time>2026-04-19T08:12:16.942Z</time></trkpt><trkpt lat="38.8011263" lon="16.32695"><ele>536.3333333333334</ele><time>2026-04-19T08:12:18.944Z</time></trkpt><trkpt lat="38.801149" lon="16.3270754"><ele>534.6666666666667</ele><time>2026-04-19T08:12:20.933Z</time></trkpt><trkpt lat="38.801166" lon="16.3271776"><ele>533.0</ele><time>2026-04-19T08:12:22.939Z</time></trkpt><trkpt lat="38.8011807" lon="16.3272883"><ele>531.3333333333334</ele><time>2026-04-19T08:12:24.938Z</time></trkpt><trkpt lat="38.8011946" lon="16.3273974"><ele>529.6666666666666</ele><time>2026-04-19T08:12:26.95Z</time></trkpt><trkpt lat="38.8012026" lon="16.3274798"><ele>528.0</ele><time>2026-04-19T08:12:29.939Z</time></trkpt><trkpt lat="38.8012125" lon="16.3275699"><ele>518.0</ele><time>2026-04-19T08:12:34.949Z</time></trkpt><trkpt lat="38.8012603" lon="16.3276754"><ele>518.0</ele><time>2026-04-19T08:20:02.923Z</time></trkpt><trkpt lat="38.8012807" lon="16.3277836"><ele>518.0</ele><time>2026-04-19T08:20:04.941Z</time></trkpt><trkpt lat="38.8012835" lon="16.3278684"><ele>518.0</ele><time>2026-04-19T08:20:06.944Z</time></trkpt><trkpt lat="38.8012995" lon="16.3279696"><ele>518.0</ele><time>2026-04-19T08:20:09.946Z</time></trkpt><trkpt lat="38.8013161" lon="16.3280546"><ele>518.0</ele><time>2026-04-19T08:20:13.944Z</time></trkpt></trkseg><trkseg><trkpt lat="38.8017253" lon="16.3299153"><ele>507.0</ele><time>2026-04-19T09:10:41.946Z</time></trkpt><trkpt lat="38.8017404" lon="16.3300351"><ele>507.0</ele><time>2026-04-19T09:13:08.919Z</time></trkpt><trkpt lat="38.8017336" lon="16.3301212"><ele>507.0</ele><time>2026-04-19T09:13:12.938Z</time></trkpt><trkpt lat="38.8017504" lon="16.3302661"><ele>507.0</ele><time>2026-04-19T09:15:13.908Z</time></trkpt><trkpt lat="38.801815" lon="16.3302924"><ele>507.0</ele><time>2026-04-19T09:15:20.94Z</time></trkpt><trkpt lat="38.8018793" lon="16.3302557"><ele>507.0</ele><time>2026-04-19T09:15:24.948Z</time></trkpt><trkpt lat="38.8019403" lon="16.3302167"><ele>507.0</ele><time>2026-04-19T09:15:44.941Z</time></trkpt><trkpt lat="38.8020057" lon="16.3301792"><ele>507.0</ele><time>2026-04-19T09:15:48.954Z</time></trkpt><trkpt lat="38.8020534" lon="16.3301169"><ele>507.0</ele><time>2026-04-19T09:15:53.941Z</time></trkpt><trkpt lat="38.8021007" lon="16.3300505"><ele>507.0</ele><time>2026-04-19T09:15:57.943Z</time></trkpt><trkpt lat="38.8021484" lon="16.3299872"><ele>507.0</ele><time>2026-04-19T09:16:00.939Z</time></trkpt><trkpt lat="38.8022096" lon="16.3299338"><ele>507.0</ele><time>2026-04-19T09:16:04.934Z</time></trkpt><trkpt lat="38.802266" lon="16.3298885"><ele>507.0</ele><time>2026-04-19T09:16:10.939Z</time></trkpt><trkpt lat="38.8023127" lon="16.3298131"><ele>507.0</ele><time>2026-04-19T09:18:09.922Z</time></trkpt><trkpt lat="38.8023885" lon="16.3298255"><ele>507.00000000000006</ele><time>2026-04-19T09:18:21.944Z</time></trkpt><trkpt lat="38.8024888" lon="16.3297892"><ele>507.00000000000006</ele><time>2026-04-19T09:18:24.938Z</time></trkpt><trkpt lat="38.8026026" lon="16.3297626"><ele>507.0</ele><time>2026-04-19T09:18:26.94Z</time></trkpt><trkpt lat="38.8027176" lon="16.3297461"><ele>507.0</ele><time>2026-04-19T09:18:28.943Z</time></trkpt><trkpt lat="38.8028251" lon="16.3297225"><ele>509.5</ele><time>2026-04-19T09:18:30.944Z</time></trkpt><trkpt lat="38.8029272" lon="16.3296949"><ele>512.0</ele><time>2026-04-19T09:18:32.941Z</time></trkpt><trkpt lat="38.8030315" lon="16.3296571"><ele>514.5</ele><time>2026-04-19T09:18:34.947Z</time></trkpt><trkpt lat="38.8031461" lon="16.3296189"><ele>517.0</ele><time>2026-04-19T09:18:36.943Z</time></trkpt><trkpt lat="38.8032607" lon="16.329578"><ele>517.0</ele><time>2026-04-19T09:18:38.952Z</time></trkpt><trkpt lat="38.8033704" lon="16.329548"><ele>517.0</ele><time>2026-04-19T09:18:40.945Z</time></trkpt><trkpt lat="38.8034792" lon="16.3295346"><ele>517.0</ele><time>2026-04-19T09:18:42.94Z</time></trkpt><trkpt lat="38.8035815" lon="16.3295328"><ele>517.0</ele><time>2026-04-19T09:18:44.956Z</time></trkpt><trkpt lat="38.8036785" lon="16.3295358"><ele>517.0</ele><time>2026-04-19T09:18:46.938Z</time></trkpt><trkpt lat="38.8037699" lon="16.3295187"><ele>518.2857142857143</ele><time>2026-04-19T09:18:48.946Z</time></trkpt><trkpt lat="38.8038392" lon="16.3294997"><ele>519.5714285714287</ele><time>2026-04-19T09:18:55.95Z</time></trkpt><trkpt lat="38.8039036" lon="16.3295331"><ele>520.8571428571429</ele><time>2026-04-19T09:19:00.948Z</time></trkpt><trkpt lat="38.8039826" lon="16.3295181"><ele>522.1428571428571</ele><time>2026-04-19T09:19:04.947Z</time></trkpt><trkpt lat="38.8040468" lon="16.3295103"><ele>523.4285714285713</ele><time>2026-04-19T09:19:51.938Z</time></trkpt><trkpt lat="38.8041172" lon="16.3295293"><ele>524.7142857142857</ele><time>2026-04-19T09:19:56.952Z</time></trkpt><trkpt lat="38.8041859" lon="16.3295581"><ele>526.0</ele><time>2026-04-19T09:20:01.954Z</time></trkpt><trkpt lat="38.8042301" lon="16.329638"><ele>526.0</ele><time>2026-04-19T09:20:05.942Z</time></trkpt><trkpt lat="38.8042846" lon="16.3297057"><ele>526.0</ele><time>2026-04-19T09:20:08.939Z</time></trkpt><trkpt lat="38.8043394" lon="16.3297927"><ele>526.0</ele><time>2026-04-19T09:20:10.941Z</time></trkpt><trkpt lat="38.8043814" lon="16.3298942"><ele>526.0</ele><time>2026-04-19T09:20:12.94Z</time></trkpt><trkpt lat="38.8044241" lon="16.3299779"><ele>526.0</ele><time>2026-04-19T09:20:14.953Z</time></trkpt><trkpt lat="38.8044624" lon="16.3300554"><ele>526.0</ele><time>2026-04-19T09:20:16.937Z</time></trkpt><trkpt lat="38.8045031" lon="16.3301328"><ele>524.2857142857142</ele><time>2026-04-19T09:20:18.95Z</time></trkpt><trkpt lat="38.8045498" lon="16.3302072"><ele>522.5714285714286</ele><time>2026-04-19T09:20:20.954Z</time></trkpt><trkpt lat="38.8045784" lon="16.3302796"><ele>520.8571428571429</ele><time>2026-04-19T09:20:22.955Z</time></trkpt><trkpt lat="38.8045872" lon="16.3303641"><ele>519.1428571428571</ele><time>2026-04-19T09:20:24.952Z</time></trkpt><trkpt lat="38.8045802" lon="16.3304625"><ele>517.4285714285714</ele><time>2026-04-19T09:20:26.954Z</time></trkpt><trkpt lat="38.8045712" lon="16.3305503"><ele>515.7142857142857</ele><time>2026-04-19T09:20:28.954Z</time></trkpt><trkpt lat="38.8045449" lon="16.3306602"><ele>514.0</ele><time>2026-04-19T09:20:31.948Z</time></trkpt><trkpt lat="38.8045267" lon="16.3307507"><ele>513.1428571428571</ele><time>2026-04-19T09:20:34.952Z</time></trkpt><trkpt lat="38.8045331" lon="16.3308375"><ele>512.2857142857143</ele><time>2026-04-19T09:20:39.945Z</time></trkpt><trkpt lat="38.8045242" lon="16.3309285"><ele>511.42857142857144</ele><time>2026-04-19T09:20:44.951Z</time></trkpt><trkpt lat="38.8045519" lon="16.3310165"><ele>510.57142857142856</ele><time>2026-04-19T09:20:46.94Z</time></trkpt><trkpt lat="38.8045656" lon="16.331096"><ele>509.71428571428567</ele><time>2026-04-19T09:20:48.946Z</time></trkpt><trkpt lat="38.8045573" lon="16.3311763"><ele>508.8571428571429</ele><time>2026-04-19T09:20:51.944Z</time></trkpt><trkpt lat="38.8045353" lon="16.3312687"><ele>508.0</ele><time>2026-04-19T09:20:55.943Z</time></trkpt><trkpt lat="38.8045099" lon="16.3313559"><ele>506.83333333333337</ele><time>2026-04-19T09:20:59.942Z</time></trkpt><trkpt lat="38.8044941" lon="16.33144"><ele>505.6666666666667</ele><time>2026-04-19T09:21:02.942Z</time></trkpt><trkpt lat="38.8044676" lon="16.3315248"><ele>504.5</ele><time>2026-04-19T09:21:07.95Z</time></trkpt><trkpt lat="38.8044395" lon="16.3316201"><ele>503.33333333333337</ele><time>2026-04-19T09:21:10.954Z</time></trkpt><trkpt lat="38.8044107" lon="16.3317229"><ele>502.1666666666667</ele><time>2026-04-19T09:21:18.943Z</time></trkpt><trkpt lat="38.8043799" lon="16.3318135"><ele>501.0</ele><time>2026-04-19T09:21:21.954Z</time></trkpt><trkpt lat="38.804362" lon="16.3319221"><ele>501.0</ele><time>2026-04-19T09:21:24.941Z</time></trkpt><trkpt lat="38.8043514" lon="16.3320335"><ele>501.0</ele><time>2026-04-19T09:21:27.945Z</time></trkpt><trkpt lat="38.8043525" lon="16.3321204"><ele>501.0</ele><time>2026-04-19T09:21:30.946Z</time></trkpt><trkpt lat="38.8043559" lon="16.3322287"><ele>501.0</ele><time>2026-04-19T09:21:33.946Z</time></trkpt><trkpt lat="38.8043344" lon="16.3323356"><ele>501.0</ele><time>2026-04-19T09:21:36.96Z</time></trkpt><trkpt lat="38.8043265" lon="16.3324259"><ele>501.0</ele><time>2026-04-19T09:21:38.951Z</time></trkpt><trkpt lat="38.8043279" lon="16.3325302"><ele>501.0</ele><time>2026-04-19T09:21:41.942Z</time></trkpt><trkpt lat="38.804345" lon="16.3326174"><ele>501.0</ele><time>2026-04-19T09:21:44.938Z</time></trkpt><trkpt lat="38.8043696" lon="16.3327032"><ele>501.0</ele><time>2026-04-19T09:21:47.943Z</time></trkpt><trkpt lat="38.804406" lon="16.3327857"><ele>501.0</ele><time>2026-04-19T09:21:50.957Z</time></trkpt><trkpt lat="38.8044386" lon="16.3328681"><ele>501.0</ele><time>2026-04-19T09:21:53.954Z</time></trkpt><trkpt lat="38.8044431" lon="16.3329503"><ele>501.0</ele><time>2026-04-19T09:21:56.942Z</time></trkpt><trkpt lat="38.804435" lon="16.3330416"><ele>501.0</ele><time>2026-04-19T09:21:59.944Z</time></trkpt><trkpt lat="38.8044249" lon="16.3331274"><ele>501.57142857142856</ele><time>2026-04-19T09:22:02.938Z</time></trkpt><trkpt lat="38.804425" lon="16.3332248"><ele>502.1428571428571</ele><time>2026-04-19T09:22:05.943Z</time></trkpt><trkpt lat="38.804463" lon="16.3333104"><ele>502.71428571428567</ele><time>2026-04-19T09:22:08.951Z</time></trkpt><trkpt lat="38.8045006" lon="16.3333774"><ele>503.2857142857143</ele><time>2026-04-19T09:22:10.938Z</time></trkpt><trkpt lat="38.8045509" lon="16.3334572"><ele>503.8571428571428</ele><time>2026-04-19T09:22:13.939Z</time></trkpt><trkpt lat="38.8045668" lon="16.3335516"><ele>504.4285714285714</ele><time>2026-04-19T09:22:17.942Z</time></trkpt><trkpt lat="38.804583" lon="16.3336466"><ele>505.0</ele><time>2026-04-19T09:22:23.952Z</time></trkpt><trkpt lat="38.8045904" lon="16.3337577"><ele>505.00000000000006</ele><time>2026-04-19T09:22:26.948Z</time></trkpt><trkpt lat="38.8046093" lon="16.3338639"><ele>505.0</ele><time>2026-04-19T09:22:29.95Z</time></trkpt><trkpt lat="38.8046278" lon="16.333965"><ele>505.0</ele><time>2026-04-19T09:22:32.948Z</time></trkpt><trkpt lat="38.8046462" lon="16.3340691"><ele>505.0</ele><time>2026-04-19T09:22:35.957Z</time></trkpt><trkpt lat="38.804663" lon="16.334155"><ele>505.00000000000006</ele><time>2026-04-19T09:22:37.947Z</time></trkpt><trkpt lat="38.8046927" lon="16.3342294"><ele>505.0</ele><time>2026-04-19T09:22:39.949Z</time></trkpt><trkpt lat="38.8047371" lon="16.3343421"><ele>505.6666666666667</ele><time>2026-04-19T09:22:42.945Z</time></trkpt><trkpt lat="38.8047535" lon="16.3344333"><ele>506.33333333333337</ele><time>2026-04-19T09:22:44.951Z</time></trkpt><trkpt lat="38.804711" lon="16.3345032"><ele>507.0</ele><time>2026-04-19T09:22:46.941Z</time></trkpt><trkpt lat="38.804652" lon="16.3345653"><ele>507.66666666666663</ele><time>2026-04-19T09:22:48.947Z</time></trkpt><trkpt lat="38.8045947" lon="16.3346329"><ele>508.3333333333333</ele><time>2026-04-19T09:22:50.954Z</time></trkpt><trkpt lat="38.8045438" lon="16.3347138"><ele>509.0</ele><time>2026-04-19T09:22:52.943Z</time></trkpt><trkpt lat="38.8044975" lon="16.3347994"><ele>507.3333333333333</ele><time>2026-04-19T09:22:54.948Z</time></trkpt><trkpt lat="38.804452" lon="16.3348713"><ele>505.66666666666663</ele><time>2026-04-19T09:22:56.941Z</time></trkpt><trkpt lat="38.8043848" lon="16.3349314"><ele>504.0</ele><time>2026-04-19T09:22:58.942Z</time></trkpt><trkpt lat="38.804325" lon="16.3349975"><ele>502.33333333333337</ele><time>2026-04-19T09:23:00.949Z</time></trkpt><trkpt lat="38.8042629" lon="16.3350695"><ele>500.6666666666667</ele><time>2026-04-19T09:23:02.938Z</time></trkpt><trkpt lat="38.804206" lon="16.3351378"><ele>499.0</ele><time>2026-04-19T09:23:04.941Z</time></trkpt><trkpt lat="38.8041561" lon="16.3351914"><ele>503.6666666666667</ele><time>2026-04-19T09:23:06.945Z</time></trkpt><trkpt lat="38.8040918" lon="16.3352476"><ele>508.33333333333337</ele><time>2026-04-19T09:23:08.945Z</time></trkpt><trkpt lat="38.8040194" lon="16.3352918"><ele>513.0</ele><time>2026-04-19T09:23:10.955Z</time></trkpt><trkpt lat="38.803931" lon="16.3353411"><ele>517.6666666666666</ele><time>2026-04-19T09:23:13.946Z</time></trkpt><trkpt lat="38.8038457" lon="16.3353873"><ele>522.3333333333333</ele><time>2026-04-19T09:23:16.941Z</time></trkpt><trkpt lat="38.8037744" lon="16.3354235"><ele>527.0</ele><time>2026-04-19T09:23:19.938Z</time></trkpt><trkpt lat="38.8037163" lon="16.3354555"><ele>527.0</ele><time>2026-04-19T09:23:21.943Z</time></trkpt><trkpt lat="38.8036761" lon="16.3355442"><ele>527.0</ele><time>2026-04-19T09:23:23.937Z</time></trkpt><trkpt lat="38.8036277" lon="16.3356222"><ele>527.0</ele><time>2026-04-19T09:23:25.942Z</time></trkpt><trkpt lat="38.8035728" lon="16.3357007"><ele>527.0</ele><time>2026-04-19T09:23:27.937Z</time></trkpt><trkpt lat="38.8034822" lon="16.3358082"><ele>527.0</ele><time>2026-04-19T09:23:29.947Z</time></trkpt><trkpt lat="38.8034286" lon="16.3358705"><ele>527.0</ele><time>2026-04-19T09:23:30.945Z</time></trkpt><trkpt lat="38.8033796" lon="16.3359243"><ele>532.0</ele><time>2026-04-19T09:23:31.947Z</time></trkpt><trkpt lat="38.8033139" lon="16.3360163"><ele>537.0</ele><time>2026-04-19T09:23:33.943Z</time></trkpt><trkpt lat="38.803252" lon="16.3360969"><ele>542.0</ele><time>2026-04-19T09:23:35.966Z</time></trkpt><trkpt lat="38.8031978" lon="16.3362029"><ele>547.0</ele><time>2026-04-19T09:23:37.941Z</time></trkpt><trkpt lat="38.8031673" lon="16.3363161"><ele>552.0</ele><time>2026-04-19T09:23:39.955Z</time></trkpt><trkpt lat="38.803156" lon="16.3364312"><ele>552.2</ele><time>2026-04-19T09:23:41.939Z</time></trkpt><trkpt lat="38.8032037" lon="16.3365423"><ele>552.4000000000001</ele><time>2026-04-19T09:23:43.944Z</time></trkpt><trkpt lat="38.8032362" lon="16.3366657"><ele>552.5999999999999</ele><time>2026-04-19T09:23:45.94Z</time></trkpt><trkpt lat="38.8032328" lon="16.336784"><ele>552.8</ele><time>2026-04-19T09:23:47.944Z</time></trkpt><trkpt lat="38.8032266" lon="16.3369031"><ele>553.0</ele><time>2026-04-19T09:23:49.949Z</time></trkpt><trkpt lat="38.8031806" lon="16.3370459"><ele>553.0</ele><time>2026-04-19T09:23:51.937Z</time></trkpt><trkpt lat="38.8031492" lon="16.3371353"><ele>553.0</ele><time>2026-04-19T09:23:52.935Z</time></trkpt><trkpt lat="38.8031151" lon="16.3372062"><ele>553.0</ele><time>2026-04-19T09:23:53.94Z</time></trkpt><trkpt lat="38.8030517" lon="16.3373143"><ele>553.0</ele><time>2026-04-19T09:23:55.948Z</time></trkpt><trkpt lat="38.8030079" lon="16.3374161"><ele>553.0</ele><time>2026-04-19T09:23:57.942Z</time></trkpt><trkpt lat="38.8029737" lon="16.3375147"><ele>553.0</ele><time>2026-04-19T09:23:59.954Z</time></trkpt><trkpt lat="38.8029215" lon="16.3376165"><ele>553.0</ele><time>2026-04-19T09:24:01.933Z</time></trkpt><trkpt lat="38.802881" lon="16.3377267"><ele>553.0</ele><time>2026-04-19T09:24:03.949Z</time></trkpt><trkpt lat="38.8028705" lon="16.3378102"><ele>553.0</ele><time>2026-04-19T09:24:04.936Z</time></trkpt><trkpt lat="38.802865" lon="16.3379454"><ele>553.0</ele><time>2026-04-19T09:24:06.941Z</time></trkpt><trkpt lat="38.8028506" lon="16.338046"><ele>553.0</ele><time>2026-04-19T09:24:09.947Z</time></trkpt><trkpt lat="38.8028573" lon="16.3381758"><ele>553.0</ele><time>2026-04-19T09:24:11.942Z</time></trkpt><trkpt lat="38.8028598" lon="16.3383176"><ele>552.8</ele><time>2026-04-19T09:24:13.938Z</time></trkpt><trkpt lat="38.802864" lon="16.3384539"><ele>552.5999999999999</ele><time>2026-04-19T09:24:15.94Z</time></trkpt><trkpt lat="38.8028853" lon="16.3385873"><ele>552.4000000000001</ele><time>2026-04-19T09:24:17.937Z</time></trkpt><trkpt lat="38.8029219" lon="16.3386932"><ele>552.2</ele><time>2026-04-19T09:24:19.944Z</time></trkpt><trkpt lat="38.8029824" lon="16.3387979"><ele>552.0</ele><time>2026-04-19T09:24:21.941Z</time></trkpt><trkpt lat="38.8030474" lon="16.3389045"><ele>555.0</ele><time>2026-04-19T09:24:23.938Z</time></trkpt><trkpt lat="38.8030981" lon="16.3389898"><ele>558.0</ele><time>2026-04-19T09:24:25.944Z</time></trkpt><trkpt lat="38.8031483" lon="16.3390891"><ele>561.0</ele><time>2026-04-19T09:24:27.941Z</time></trkpt><trkpt lat="38.8031828" lon="16.3391586"><ele>564.0</ele><time>2026-04-19T09:24:28.943Z</time></trkpt><trkpt lat="38.8032203" lon="16.3392358"><ele>567.0</ele><time>2026-04-19T09:24:29.944Z</time></trkpt><trkpt lat="38.8032896" lon="16.3393914"><ele>567.0</ele><time>2026-04-19T09:24:31.948Z</time></trkpt><trkpt lat="38.8033648" lon="16.3395148"><ele>567.0</ele><time>2026-04-19T09:24:33.937Z</time></trkpt><trkpt lat="38.8034149" lon="16.3395663"><ele>567.0</ele><time>2026-04-19T09:24:34.939Z</time></trkpt><trkpt lat="38.8034912" lon="16.3396436"><ele>567.0</ele><time>2026-04-19T09:24:36.953Z</time></trkpt><trkpt lat="38.8035533" lon="16.3397464"><ele>567.0</ele><time>2026-04-19T09:24:38.952Z</time></trkpt><trkpt lat="38.8036" lon="16.3398458"><ele>565.1428571428571</ele><time>2026-04-19T09:24:40.955Z</time></trkpt><trkpt lat="38.8036354" lon="16.3399281"><ele>563.2857142857142</ele><time>2026-04-19T09:24:42.942Z</time></trkpt><trkpt lat="38.8036706" lon="16.3400196"><ele>561.4285714285714</ele><time>2026-04-19T09:24:44.939Z</time></trkpt><trkpt lat="38.8036973" lon="16.3401128"><ele>559.5714285714286</ele><time>2026-04-19T09:24:46.941Z</time></trkpt><trkpt lat="38.8037221" lon="16.3401989"><ele>557.7142857142857</ele><time>2026-04-19T09:24:48.942Z</time></trkpt><trkpt lat="38.8037249" lon="16.3402969"><ele>555.8571428571429</ele><time>2026-04-19T09:24:51.941Z</time></trkpt><trkpt lat="38.8036966" lon="16.3403715"><ele>554.0</ele><time>2026-04-19T09:24:54.951Z</time></trkpt><trkpt lat="38.8036499" lon="16.34043"><ele>554.0</ele><time>2026-04-19T09:24:57.95Z</time></trkpt><trkpt lat="38.8036442" lon="16.3405226"><ele>554.0</ele><time>2026-04-19T09:25:02.939Z</time></trkpt><trkpt lat="38.8037201" lon="16.3405822"><ele>554.0</ele><time>2026-04-19T09:25:05.93Z</time></trkpt><trkpt lat="38.8037906" lon="16.3405903"><ele>554.0</ele><time>2026-04-19T09:25:07.937Z</time></trkpt><trkpt lat="38.8038701" lon="16.3405564"><ele>554.0</ele><time>2026-04-19T09:25:09.941Z</time></trkpt><trkpt lat="38.8039559" lon="16.3405318"><ele>554.0</ele><time>2026-04-19T09:25:11.934Z</time></trkpt><trkpt lat="38.8040829" lon="16.3405267"><ele>554.0</ele><time>2026-04-19T09:25:13.944Z</time></trkpt><trkpt lat="38.8042185" lon="16.3405261"><ele>554.0</ele><time>2026-04-19T09:25:15.958Z</time></trkpt><trkpt lat="38.8042914" lon="16.3405225"><ele>554.0</ele><time>2026-04-19T09:25:16.945Z</time></trkpt><trkpt lat="38.8044076" lon="16.3405021"><ele>554.0</ele><time>2026-04-19T09:25:18.943Z</time></trkpt><trkpt lat="38.8045024" lon="16.3404932"><ele>554.0</ele><time>2026-04-19T09:25:20.938Z</time></trkpt><trkpt lat="38.8046026" lon="16.3404985"><ele>555.2</ele><time>2026-04-19T09:25:22.944Z</time></trkpt><trkpt lat="38.8046758" lon="16.3405159"><ele>556.4</ele><time>2026-04-19T09:25:24.945Z</time></trkpt><trkpt lat="38.8047537" lon="16.3405406"><ele>557.6</ele><time>2026-04-19T09:25:26.945Z</time></trkpt><trkpt lat="38.8048448" lon="16.3405926"><ele>558.8</ele><time>2026-04-19T09:25:28.943Z</time></trkpt><trkpt lat="38.8049266" lon="16.3406739"><ele>560.0</ele><time>2026-04-19T09:25:30.955Z</time></trkpt><trkpt lat="38.804979" lon="16.3407741"><ele>560.0</ele><time>2026-04-19T09:25:32.948Z</time></trkpt><trkpt lat="38.8050139" lon="16.3408679"><ele>560.0</ele><time>2026-04-19T09:25:34.952Z</time></trkpt><trkpt lat="38.8049589" lon="16.3409589"><ele>560.0</ele><time>2026-04-19T09:25:37.948Z</time></trkpt><trkpt lat="38.8048564" lon="16.3409629"><ele>560.0</ele><time>2026-04-19T09:25:39.951Z</time></trkpt><trkpt lat="38.8047305" lon="16.3409634"><ele>560.0</ele><time>2026-04-19T09:25:41.94Z</time></trkpt><trkpt lat="38.8046621" lon="16.3409705"><ele>560.0</ele><time>2026-04-19T09:25:42.945Z</time></trkpt><trkpt lat="38.8046013" lon="16.3409966"><ele>560.0</ele><time>2026-04-19T09:25:43.945Z</time></trkpt><trkpt lat="38.8045235" lon="16.3410872"><ele>560.0</ele><time>2026-04-19T09:25:45.959Z</time></trkpt><trkpt lat="38.8044844" lon="16.3412267"><ele>560.0</ele><time>2026-04-19T09:25:47.947Z</time></trkpt><trkpt lat="38.8044587" lon="16.3413072"><ele>560.0</ele><time>2026-04-19T09:25:48.944Z</time></trkpt><trkpt lat="38.8044234" lon="16.3414411"><ele>562.6</ele><time>2026-04-19T09:25:50.943Z</time></trkpt><trkpt lat="38.8043819" lon="16.3415542"><ele>565.2</ele><time>2026-04-19T09:25:52.942Z</time></trkpt><trkpt lat="38.8043259" lon="16.3416555"><ele>567.8</ele><time>2026-04-19T09:25:54.951Z</time></trkpt><trkpt lat="38.8042505" lon="16.3417311"><ele>570.4</ele><time>2026-04-19T09:25:56.945Z</time></trkpt><trkpt lat="38.8041469" lon="16.3418215"><ele>573.0</ele><time>2026-04-19T09:25:58.948Z</time></trkpt><trkpt lat="38.804093" lon="16.3418797"><ele>575.4</ele><time>2026-04-19T09:25:59.939Z</time></trkpt><trkpt lat="38.8040122" lon="16.3419908"><ele>577.8</ele><time>2026-04-19T09:26:01.944Z</time></trkpt><trkpt lat="38.8039491" lon="16.342109"><ele>580.2</ele><time>2026-04-19T09:26:03.946Z</time></trkpt><trkpt lat="38.8039064" lon="16.3422412"><ele>582.6</ele><time>2026-04-19T09:26:05.936Z</time></trkpt><trkpt lat="38.8038772" lon="16.3423678"><ele>585.0</ele><time>2026-04-19T09:26:07.955Z</time></trkpt><trkpt lat="38.803856" lon="16.3424657"><ele>587.8333333333334</ele><time>2026-04-19T09:26:09.948Z</time></trkpt><trkpt lat="38.8038109" lon="16.3425536"><ele>590.6666666666666</ele><time>2026-04-19T09:26:12.947Z</time></trkpt><trkpt lat="38.803788" lon="16.3426478"><ele>593.5</ele><time>2026-04-19T09:26:15.945Z</time></trkpt><trkpt lat="38.803753" lon="16.3427347"><ele>596.3333333333333</ele><time>2026-04-19T09:29:28.943Z</time></trkpt><trkpt lat="38.8037576" lon="16.3428408"><ele>599.1666666666666</ele><time>2026-04-19T09:29:30.941Z</time></trkpt><trkpt lat="38.803755" lon="16.3429285"><ele>602.0</ele><time>2026-04-19T09:29:31.941Z</time></trkpt><trkpt lat="38.8037249" lon="16.3430434"><ele>604.25</ele><time>2026-04-19T09:29:32.946Z</time></trkpt><trkpt lat="38.8036859" lon="16.3431715"><ele>606.5</ele><time>2026-04-19T09:29:33.943Z</time></trkpt><trkpt lat="38.8036432" lon="16.3433005"><ele>608.75</ele><time>2026-04-19T09:29:34.935Z</time></trkpt><trkpt lat="38.8035621" lon="16.3434264"><ele>611.0</ele><time>2026-04-19T09:29:35.936Z</time></trkpt><trkpt lat="38.803459" lon="16.3435447"><ele>612.1666666666666</ele><time>2026-04-19T09:29:36.937Z</time></trkpt><trkpt lat="38.803366" lon="16.3436514"><ele>613.3333333333333</ele><time>2026-04-19T09:29:37.936Z</time></trkpt><trkpt lat="38.803295" lon="16.3437335"><ele>614.5</ele><time>2026-04-19T09:29:38.937Z</time></trkpt><trkpt lat="38.80324" lon="16.3438006"><ele>615.6666666666666</ele><time>2026-04-19T09:29:39.932Z</time></trkpt><trkpt lat="38.8031883" lon="16.343868"><ele>616.8333333333334</ele><time>2026-04-19T09:29:40.947Z</time></trkpt><trkpt lat="38.8031409" lon="16.3439386"><ele>618.0</ele><time>2026-04-19T09:29:41.946Z</time></trkpt><trkpt lat="38.8030965" lon="16.3440047"><ele>621.4</ele><time>2026-04-19T09:29:42.943Z</time></trkpt><trkpt lat="38.8030543" lon="16.3440689"><ele>624.8</ele><time>2026-04-19T09:29:43.945Z</time></trkpt><trkpt lat="38.8029868" lon="16.3441692"><ele>628.2</ele><time>2026-04-19T09:29:45.947Z</time></trkpt><trkpt lat="38.8029327" lon="16.3442577"><ele>631.6</ele><time>2026-04-19T09:29:47.941Z</time></trkpt><trkpt lat="38.8028559" lon="16.3443733"><ele>635.0</ele><time>2026-04-19T09:29:49.951Z</time></trkpt><trkpt lat="38.8027612" lon="16.3444934"><ele>635.0</ele><time>2026-04-19T09:29:51.94Z</time></trkpt><trkpt lat="38.8027142" lon="16.3445723"><ele>635.0</ele><time>2026-04-19T09:29:52.939Z</time></trkpt><trkpt lat="38.8026792" lon="16.344662"><ele>635.0</ele><time>2026-04-19T09:29:53.937Z</time></trkpt><trkpt lat="38.8026637" lon="16.3447767"><ele>635.0</ele><time>2026-04-19T09:29:54.939Z</time></trkpt><trkpt lat="38.8026688" lon="16.3449015"><ele>635.0</ele><time>2026-04-19T09:29:55.936Z</time></trkpt><trkpt lat="38.8026847" lon="16.3450142"><ele>635.0</ele><time>2026-04-19T09:29:56.94Z</time></trkpt><trkpt lat="38.8027106" lon="16.3451097"><ele>636.6</ele><time>2026-04-19T09:29:57.941Z</time></trkpt><trkpt lat="38.8027402" lon="16.3451895"><ele>638.2</ele><time>2026-04-19T09:29:58.938Z</time></trkpt><trkpt lat="38.8027778" lon="16.3452562"><ele>639.8</ele><time>2026-04-19T09:29:59.936Z</time></trkpt><trkpt lat="38.8028523" lon="16.3453725"><ele>641.4</ele><time>2026-04-19T09:30:01.93Z</time></trkpt><trkpt lat="38.8029051" lon="16.3454783"><ele>643.0</ele><time>2026-04-19T09:30:03.933Z</time></trkpt><trkpt lat="38.8028612" lon="16.3456046"><ele>645.4</ele><time>2026-04-19T09:30:05.933Z</time></trkpt><trkpt lat="38.80276" lon="16.3457035"><ele>647.8</ele><time>2026-04-19T09:30:07.946Z</time></trkpt><trkpt lat="38.8027062" lon="16.3457639"><ele>650.2</ele><time>2026-04-19T09:30:08.943Z</time></trkpt><trkpt lat="38.8026738" lon="16.3458749"><ele>652.6</ele><time>2026-04-19T09:30:09.941Z</time></trkpt><trkpt lat="38.8026367" lon="16.3459813"><ele>655.0</ele><time>2026-04-19T09:30:10.953Z</time></trkpt><trkpt lat="38.8025943" lon="16.3460876"><ele>657.3333333333334</ele><time>2026-04-19T09:30:11.944Z</time></trkpt><trkpt lat="38.8025477" lon="16.3461875"><ele>659.6666666666667</ele><time>2026-04-19T09:30:12.941Z</time></trkpt><trkpt lat="38.8024977" lon="16.3462772"><ele>662.0</ele><time>2026-04-19T09:30:13.942Z</time></trkpt><trkpt lat="38.8024546" lon="16.3463686"><ele>664.3333333333334</ele><time>2026-04-19T09:30:14.935Z</time></trkpt><trkpt lat="38.8024128" lon="16.3464605"><ele>666.6666666666666</ele><time>2026-04-19T09:30:15.948Z</time></trkpt><trkpt lat="38.8023727" lon="16.3465502"><ele>669.0</ele><time>2026-04-19T09:30:16.937Z</time></trkpt><trkpt lat="38.8023346" lon="16.3466379"><ele>670.8333333333334</ele><time>2026-04-19T09:30:17.94Z</time></trkpt><trkpt lat="38.8022991" lon="16.3467197"><ele>672.6666666666666</ele><time>2026-04-19T09:30:18.939Z</time></trkpt><trkpt lat="38.8022612" lon="16.3467996"><ele>674.5</ele><time>2026-04-19T09:30:19.938Z</time></trkpt><trkpt lat="38.8022193" lon="16.3468805"><ele>676.3333333333333</ele><time>2026-04-19T09:30:20.937Z</time></trkpt><trkpt lat="38.8021756" lon="16.346969"><ele>678.1666666666666</ele><time>2026-04-19T09:30:21.947Z</time></trkpt><trkpt lat="38.8021287" lon="16.3470655"><ele>680.0</ele><time>2026-04-19T09:30:22.934Z</time></trkpt><trkpt lat="38.8020833" lon="16.347164"><ele>680.2</ele><time>2026-04-19T09:30:23.936Z</time></trkpt><trkpt lat="38.8020386" lon="16.3472625"><ele>680.4</ele><time>2026-04-19T09:30:24.936Z</time></trkpt><trkpt lat="38.8019933" lon="16.3473607"><ele>680.5999999999999</ele><time>2026-04-19T09:30:25.938Z</time></trkpt><trkpt lat="38.8019419" lon="16.347462"><ele>680.8</ele><time>2026-04-19T09:30:26.94Z</time></trkpt><trkpt lat="38.8018797" lon="16.3475602"><ele>681.0</ele><time>2026-04-19T09:30:27.935Z</time></trkpt><trkpt lat="38.8018166" lon="16.3476597"><ele>683.0</ele><time>2026-04-19T09:30:28.939Z</time></trkpt><trkpt lat="38.8017618" lon="16.3477658"><ele>685.0</ele><time>2026-04-19T09:30:29.94Z</time></trkpt><trkpt lat="38.8017053" lon="16.3478661"><ele>687.0</ele><time>2026-04-19T09:30:30.943Z</time></trkpt><trkpt lat="38.8016607" lon="16.3479711"><ele>689.0</ele><time>2026-04-19T09:30:31.944Z</time></trkpt><trkpt lat="38.8016193" lon="16.3480745"><ele>691.0</ele><time>2026-04-19T09:30:32.94Z</time></trkpt><trkpt lat="38.8015807" lon="16.3481703"><ele>691.8333333333334</ele><time>2026-04-19T09:30:33.941Z</time></trkpt><trkpt lat="38.8015464" lon="16.3482618"><ele>692.6666666666667</ele><time>2026-04-19T09:30:34.951Z</time></trkpt><trkpt lat="38.8015094" lon="16.348345"><ele>693.5</ele><time>2026-04-19T09:30:35.937Z</time></trkpt><trkpt lat="38.8014691" lon="16.3484221"><ele>694.3333333333334</ele><time>2026-04-19T09:30:36.932Z</time></trkpt><trkpt lat="38.8014314" lon="16.3484886"><ele>695.1666666666666</ele><time>2026-04-19T09:30:37.939Z</time></trkpt><trkpt lat="38.8013853" lon="16.3486064"><ele>696.0</ele><time>2026-04-19T09:30:42.936Z</time></trkpt><trkpt lat="38.8013867" lon="16.348695"><ele>696.0</ele><time>2026-04-19T09:30:43.941Z</time></trkpt><trkpt lat="38.8013957" lon="16.348826"><ele>696.0</ele><time>2026-04-19T09:30:44.94Z</time></trkpt><trkpt lat="38.8014077" lon="16.3489772"><ele>696.0</ele><time>2026-04-19T09:30:45.937Z</time></trkpt><trkpt lat="38.8014191" lon="16.3491335"><ele>696.0</ele><time>2026-04-19T09:30:46.941Z</time></trkpt><trkpt lat="38.8014324" lon="16.3492884"><ele>697.5999999999999</ele><time>2026-04-19T09:30:47.945Z</time></trkpt><trkpt lat="38.8014479" lon="16.3494417"><ele>699.2</ele><time>2026-04-19T09:30:48.94Z</time></trkpt><trkpt lat="38.8014768" lon="16.3495857"><ele>700.8</ele><time>2026-04-19T09:30:49.941Z</time></trkpt><trkpt lat="38.8015319" lon="16.3497016"><ele>702.4000000000001</ele><time>2026-04-19T09:30:50.937Z</time></trkpt><trkpt lat="38.8016173" lon="16.3497818"><ele>704.0</ele><time>2026-04-19T09:30:51.936Z</time></trkpt><trkpt lat="38.801717" lon="16.3498376"><ele>704.6666666666666</ele><time>2026-04-19T09:30:52.96Z</time></trkpt><trkpt lat="38.8018198" lon="16.349883"><ele>705.3333333333333</ele><time>2026-04-19T09:30:53.939Z</time></trkpt><trkpt lat="38.8019117" lon="16.3499198"><ele>706.0</ele><time>2026-04-19T09:30:54.939Z</time></trkpt><trkpt lat="38.8019764" lon="16.3499436"><ele>706.6666666666666</ele><time>2026-04-19T09:30:55.94Z</time></trkpt><trkpt lat="38.8020411" lon="16.3499833"><ele>707.3333333333334</ele><time>2026-04-19T09:30:57.944Z</time></trkpt><trkpt lat="38.8020816" lon="16.3500741"><ele>708.0</ele><time>2026-04-19T09:30:59.938Z</time></trkpt><trkpt lat="38.8020772" lon="16.3501849"><ele>708.0</ele><time>2026-04-19T09:31:00.937Z</time></trkpt><trkpt lat="38.802072" lon="16.3503147"><ele>708.0</ele><time>2026-04-19T09:31:01.933Z</time></trkpt><trkpt lat="38.8020508" lon="16.3504641"><ele>708.0</ele><time>2026-04-19T09:31:02.944Z</time></trkpt><trkpt lat="38.8020172" lon="16.3505945"><ele>708.0</ele><time>2026-04-19T09:31:03.952Z</time></trkpt><trkpt lat="38.8019866" lon="16.3506894"><ele>708.0</ele><time>2026-04-19T09:31:04.94Z</time></trkpt><trkpt lat="38.8019583" lon="16.3507706"><ele>708.8333333333334</ele><time>2026-04-19T09:31:05.938Z</time></trkpt><trkpt lat="38.8019147" lon="16.3508672"><ele>709.6666666666666</ele><time>2026-04-19T09:31:07.943Z</time></trkpt><trkpt lat="38.8018821" lon="16.3509627"><ele>710.5</ele><time>2026-04-19T09:31:10.945Z</time></trkpt><trkpt lat="38.8018598" lon="16.3510432"><ele>711.3333333333333</ele><time>2026-04-19T09:31:12.942Z</time></trkpt><trkpt lat="38.8018401" lon="16.3511513"><ele>712.1666666666666</ele><time>2026-04-19T09:31:14.959Z</time></trkpt><trkpt lat="38.8018201" lon="16.351259"><ele>713.0</ele><time>2026-04-19T09:31:16.934Z</time></trkpt><trkpt lat="38.8017967" lon="16.3513558"><ele>715.6666666666666</ele><time>2026-04-19T09:31:18.933Z</time></trkpt><trkpt lat="38.8017725" lon="16.3514552"><ele>718.3333333333333</ele><time>2026-04-19T09:31:21.934Z</time></trkpt><trkpt lat="38.8017386" lon="16.3515508"><ele>721.0</ele><time>2026-04-19T09:31:24.94Z</time></trkpt><trkpt lat="38.8017087" lon="16.3516395"><ele>723.6666666666666</ele><time>2026-04-19T09:31:26.941Z</time></trkpt><trkpt lat="38.8016775" lon="16.3517346"><ele>726.3333333333334</ele><time>2026-04-19T09:31:28.94Z</time></trkpt><trkpt lat="38.8016505" lon="16.3518414"><ele>729.0</ele><time>2026-04-19T09:31:30.948Z</time></trkpt><trkpt lat="38.8016347" lon="16.3519419"><ele>729.0</ele><time>2026-04-19T09:31:32.951Z</time></trkpt><trkpt lat="38.8016098" lon="16.3520506"><ele>729.0</ele><time>2026-04-19T09:31:34.933Z</time></trkpt><trkpt lat="38.8015723" lon="16.3521549"><ele>729.0</ele><time>2026-04-19T09:31:36.939Z</time></trkpt><trkpt lat="38.8015552" lon="16.3522609"><ele>729.0</ele><time>2026-04-19T09:31:38.95Z</time></trkpt><trkpt lat="38.8015255" lon="16.352347"><ele>729.0</ele><time>2026-04-19T09:31:40.946Z</time></trkpt><trkpt lat="38.8015022" lon="16.3524426"><ele>729.0</ele><time>2026-04-19T09:31:54.938Z</time></trkpt><trkpt lat="38.8014716" lon="16.3525153"><ele>730.0</ele><time>2026-04-19T09:32:00.937Z</time></trkpt><trkpt lat="38.8014089" lon="16.3525723"><ele>731.0</ele><time>2026-04-19T09:32:07.942Z</time></trkpt><trkpt lat="38.8013583" lon="16.3526209"><ele>732.0</ele><time>2026-04-19T09:33:36.931Z</time></trkpt><trkpt lat="38.8013129" lon="16.3526812"><ele>733.0</ele><time>2026-04-19T09:33:45.934Z</time></trkpt><trkpt lat="38.8012693" lon="16.3527576"><ele>734.0</ele><time>2026-04-19T09:34:00.942Z</time></trkpt><trkpt lat="38.8012211" lon="16.35285"><ele>735.0</ele><time>2026-04-19T09:34:04.943Z</time></trkpt><trkpt lat="38.8011765" lon="16.3529288"><ele>736.0</ele><time>2026-04-19T09:34:07.945Z</time></trkpt><trkpt lat="38.8011389" lon="16.353002"><ele>737.3333333333334</ele><time>2026-04-19T09:34:09.936Z</time></trkpt><trkpt lat="38.8011011" lon="16.3530703"><ele>738.6666666666667</ele><time>2026-04-19T09:34:14.943Z</time></trkpt><trkpt lat="38.8010529" lon="16.3531422"><ele>740.0</ele><time>2026-04-19T09:34:16.942Z</time></trkpt><trkpt lat="38.8009842" lon="16.3532626"><ele>741.3333333333334</ele><time>2026-04-19T09:34:18.944Z</time></trkpt><trkpt lat="38.8009343" lon="16.3533348"><ele>742.6666666666666</ele><time>2026-04-19T09:34:19.939Z</time></trkpt><trkpt lat="38.8008764" lon="16.3534084"><ele>744.0</ele><time>2026-04-19T09:34:20.943Z</time></trkpt><trkpt lat="38.8008249" lon="16.3534774"><ele>746.0</ele><time>2026-04-19T09:34:21.939Z</time></trkpt><trkpt lat="38.8007793" lon="16.3535383"><ele>748.0</ele><time>2026-04-19T09:34:22.933Z</time></trkpt><trkpt lat="38.8006997" lon="16.3536373"><ele>750.0</ele><time>2026-04-19T09:34:24.939Z</time></trkpt><trkpt lat="38.8006594" lon="16.3537141"><ele>752.0</ele><time>2026-04-19T09:34:26.94Z</time></trkpt><trkpt lat="38.8006083" lon="16.3537821"><ele>754.0</ele><time>2026-04-19T09:34:28.941Z</time></trkpt><trkpt lat="38.8005588" lon="16.3538575"><ele>756.0</ele><time>2026-04-19T09:34:30.948Z</time></trkpt><trkpt lat="38.8005057" lon="16.353947"><ele>758.0</ele><time>2026-04-19T09:34:33.939Z</time></trkpt><trkpt lat="38.8004475" lon="16.3540563"><ele>760.0</ele><time>2026-04-19T09:34:35.937Z</time></trkpt><trkpt lat="38.8004148" lon="16.3541309"><ele>762.0</ele><time>2026-04-19T09:34:36.934Z</time></trkpt><trkpt lat="38.8003677" lon="16.3542544"><ele>764.0</ele><time>2026-04-19T09:34:38.937Z</time></trkpt><trkpt lat="38.8003336" lon="16.3543518"><ele>766.0</ele><time>2026-04-19T09:34:40.935Z</time></trkpt><trkpt lat="38.8002756" lon="16.354472"><ele>766.0</ele><time>2026-04-19T09:34:42.933Z</time></trkpt><trkpt lat="38.8002011" lon="16.3545815"><ele>766.0</ele><time>2026-04-19T09:34:44.94Z</time></trkpt><trkpt lat="38.8001244" lon="16.3546908"><ele>766.0</ele><time>2026-04-19T09:34:46.938Z</time></trkpt><trkpt lat="38.8000573" lon="16.3547892"><ele>766.0</ele><time>2026-04-19T09:34:48.935Z</time></trkpt><trkpt lat="38.8000097" lon="16.3548491"><ele>766.0</ele><time>2026-04-19T09:34:50.935Z</time></trkpt><trkpt lat="38.7999634" lon="16.3549126"><ele>768.6666666666667</ele><time>2026-04-19T09:34:53.939Z</time></trkpt><trkpt lat="38.7999177" lon="16.3549707"><ele>771.3333333333334</ele><time>2026-04-19T09:35:00.939Z</time></trkpt><trkpt lat="38.7998492" lon="16.3550422"><ele>774.0</ele><time>2026-04-19T09:35:13.938Z</time></trkpt><trkpt lat="38.7997912" lon="16.3550884"><ele>776.6666666666667</ele><time>2026-04-19T09:35:16.949Z</time></trkpt><trkpt lat="38.799731" lon="16.3551401"><ele>779.3333333333334</ele><time>2026-04-19T09:35:18.937Z</time></trkpt><trkpt lat="38.7996509" lon="16.355214"><ele>782.0</ele><time>2026-04-19T09:35:21.936Z</time></trkpt><trkpt lat="38.7995917" lon="16.355288"><ele>781.9999999999999</ele><time>2026-04-19T09:35:24.935Z</time></trkpt><trkpt lat="38.7995344" lon="16.3553435"><ele>782.0</ele><time>2026-04-19T09:35:27.939Z</time></trkpt><trkpt lat="38.799475" lon="16.3553909"><ele>782.0</ele><time>2026-04-19T09:35:31.937Z</time></trkpt><trkpt lat="38.7994281" lon="16.3554506"><ele>782.0</ele><time>2026-04-19T09:35:40.953Z</time></trkpt><trkpt lat="38.7993773" lon="16.3555101"><ele>782.0</ele><time>2026-04-19T09:35:43.939Z</time></trkpt><trkpt lat="38.7993262" lon="16.3555647"><ele>781.9999999999999</ele><time>2026-04-19T09:35:46.941Z</time></trkpt><trkpt lat="38.7992637" lon="16.3556293"><ele>782.0</ele><time>2026-04-19T09:35:50.94Z</time></trkpt><trkpt lat="38.7991971" lon="16.3556657"><ele>783.4285714285713</ele><time>2026-04-19T09:36:09.941Z</time></trkpt><trkpt lat="38.7991522" lon="16.3557329"><ele>784.8571428571429</ele><time>2026-04-19T09:36:13.933Z</time></trkpt><trkpt lat="38.7991037" lon="16.3557976"><ele>786.2857142857142</ele><time>2026-04-19T09:36:17.935Z</time></trkpt><trkpt lat="38.7990551" lon="16.3558718"><ele>787.7142857142857</ele><time>2026-04-19T09:36:20.938Z</time></trkpt><trkpt lat="38.799009" lon="16.3559648"><ele>789.1428571428571</ele><time>2026-04-19T09:36:23.94Z</time></trkpt><trkpt lat="38.7989695" lon="16.356037"><ele>790.5714285714286</ele><time>2026-04-19T09:36:25.936Z</time></trkpt><trkpt lat="38.7989059" lon="16.3560689"><ele>792.0</ele><time>2026-04-19T09:36:29.957Z</time></trkpt><trkpt lat="38.7988517" lon="16.3559975"><ele>792.0</ele><time>2026-04-19T09:36:33.935Z</time></trkpt><trkpt lat="38.7988114" lon="16.3559093"><ele>792.0</ele><time>2026-04-19T09:36:36.941Z</time></trkpt><trkpt lat="38.79876" lon="16.3558319"><ele>792.0</ele><time>2026-04-19T09:36:38.949Z</time></trkpt><trkpt lat="38.7986808" lon="16.355786"><ele>792.0</ele><time>2026-04-19T09:36:40.935Z</time></trkpt><trkpt lat="38.7985716" lon="16.3558135"><ele>792.0</ele><time>2026-04-19T09:36:42.934Z</time></trkpt><trkpt lat="38.7985138" lon="16.3558672"><ele>792.0</ele><time>2026-04-19T09:36:44.941Z</time></trkpt><trkpt lat="38.7984624" lon="16.3559293"><ele>792.6666666666666</ele><time>2026-04-19T09:36:47.936Z</time></trkpt><trkpt lat="38.7984016" lon="16.355986"><ele>793.3333333333333</ele><time>2026-04-19T09:36:51.942Z</time></trkpt><trkpt lat="38.7983282" lon="16.3560027"><ele>794.0</ele><time>2026-04-19T09:36:53.943Z</time></trkpt><trkpt lat="38.7982484" lon="16.3560224"><ele>794.6666666666666</ele><time>2026-04-19T09:36:56.934Z</time></trkpt><trkpt lat="38.7981854" lon="16.3560523"><ele>795.3333333333333</ele><time>2026-04-19T09:37:00.942Z</time></trkpt><trkpt lat="38.7981209" lon="16.3561061"><ele>796.0</ele><time>2026-04-19T09:37:04.945Z</time></trkpt><trkpt lat="38.7980623" lon="16.3561772"><ele>795.9999999999999</ele><time>2026-04-19T09:37:07.931Z</time></trkpt><trkpt lat="38.7979992" lon="16.3562545"><ele>796.0</ele><time>2026-04-19T09:37:10.928Z</time></trkpt><trkpt lat="38.7979327" lon="16.3563131"><ele>796.0</ele><time>2026-04-19T09:37:13.934Z</time></trkpt><trkpt lat="38.7978737" lon="16.3563687"><ele>796.0</ele><time>2026-04-19T09:37:16.935Z</time></trkpt><trkpt lat="38.7978162" lon="16.3564212"><ele>795.9999999999999</ele><time>2026-04-19T09:37:25.949Z</time></trkpt><trkpt lat="38.7977613" lon="16.3564819"><ele>796.0</ele><time>2026-04-19T09:37:30.953Z</time></trkpt><trkpt lat="38.7976983" lon="16.3565584"><ele>796.9999999999999</ele><time>2026-04-19T09:37:33.935Z</time></trkpt><trkpt lat="38.7976184" lon="16.3565771"><ele>798.0</ele><time>2026-04-19T09:37:36.943Z</time></trkpt><trkpt lat="38.7975587" lon="16.3565296"><ele>799.0</ele><time>2026-04-19T09:37:38.941Z</time></trkpt><trkpt lat="38.7974823" lon="16.3564876"><ele>800.0</ele><time>2026-04-19T09:37:41.93Z</time></trkpt><trkpt lat="38.7974149" lon="16.3564467"><ele>800.9999999999999</ele><time>2026-04-19T09:37:43.935Z</time></trkpt><trkpt lat="38.7973316" lon="16.3564092"><ele>802.0</ele><time>2026-04-19T09:37:45.932Z</time></trkpt><trkpt lat="38.7972481" lon="16.3563917"><ele>801.9999999999999</ele><time>2026-04-19T09:37:47.934Z</time></trkpt><trkpt lat="38.7971917" lon="16.356454"><ele>802.0</ele><time>2026-04-19T09:37:49.937Z</time></trkpt><trkpt lat="38.7971755" lon="16.3565515"><ele>802.0</ele><time>2026-04-19T09:37:51.94Z</time></trkpt><trkpt lat="38.7971653" lon="16.3566637"><ele>802.0</ele><time>2026-04-19T09:37:53.939Z</time></trkpt><trkpt lat="38.7971656" lon="16.3567688"><ele>801.9999999999999</ele><time>2026-04-19T09:37:55.935Z</time></trkpt><trkpt lat="38.7971713" lon="16.3568604"><ele>802.0</ele><time>2026-04-19T09:37:57.933Z</time></trkpt><trkpt lat="38.7971809" lon="16.356953"><ele>801.9999999999999</ele><time>2026-04-19T09:37:59.938Z</time></trkpt><trkpt lat="38.7971485" lon="16.3570602"><ele>802.0</ele><time>2026-04-19T09:38:02.943Z</time></trkpt><trkpt lat="38.7971203" lon="16.357151"><ele>802.0</ele><time>2026-04-19T09:38:04.941Z</time></trkpt><trkpt lat="38.797132" lon="16.3572766"><ele>802.0</ele><time>2026-04-19T09:38:06.94Z</time></trkpt><trkpt lat="38.7971248" lon="16.3573613"><ele>801.9999999999999</ele><time>2026-04-19T09:38:08.933Z</time></trkpt><trkpt lat="38.7970861" lon="16.3574504"><ele>802.0</ele><time>2026-04-19T09:38:10.941Z</time></trkpt><trkpt lat="38.7970666" lon="16.3575612"><ele>804.8333333333333</ele><time>2026-04-19T09:38:12.937Z</time></trkpt><trkpt lat="38.7970088" lon="16.3576208"><ele>807.6666666666666</ele><time>2026-04-19T09:38:15.935Z</time></trkpt><trkpt lat="38.7969399" lon="16.3576186"><ele>810.5</ele><time>2026-04-19T09:38:17.931Z</time></trkpt><trkpt lat="38.7968742" lon="16.3576399"><ele>813.3333333333333</ele><time>2026-04-19T09:38:19.94Z</time></trkpt><trkpt lat="38.7968027" lon="16.3576639"><ele>816.1666666666666</ele><time>2026-04-19T09:38:21.952Z</time></trkpt><trkpt lat="38.7967091" lon="16.3576819"><ele>819.0</ele><time>2026-04-19T09:38:23.933Z</time></trkpt><trkpt lat="38.7965798" lon="16.3577124"><ele>820.5</ele><time>2026-04-19T09:38:25.938Z</time></trkpt><trkpt lat="38.7965107" lon="16.3577261"><ele>822.0</ele><time>2026-04-19T09:38:26.937Z</time></trkpt><trkpt lat="38.7964129" lon="16.3577392"><ele>823.5</ele><time>2026-04-19T09:38:28.933Z</time></trkpt><trkpt lat="38.7963255" lon="16.3577645"><ele>825.0</ele><time>2026-04-19T09:38:30.945Z</time></trkpt><trkpt lat="38.7962468" lon="16.3578016"><ele>826.5</ele><time>2026-04-19T09:38:33.946Z</time></trkpt><trkpt lat="38.7961626" lon="16.3578402"><ele>828.0</ele><time>2026-04-19T09:38:42.933Z</time></trkpt><trkpt lat="38.7960771" lon="16.3578818"><ele>830.3333333333334</ele><time>2026-04-19T09:38:44.933Z</time></trkpt><trkpt lat="38.7959746" lon="16.357925"><ele>832.6666666666667</ele><time>2026-04-19T09:38:46.932Z</time></trkpt><trkpt lat="38.795915" lon="16.3579516"><ele>835.0</ele><time>2026-04-19T09:38:47.933Z</time></trkpt><trkpt lat="38.7958543" lon="16.3579783"><ele>837.3333333333334</ele><time>2026-04-19T09:38:48.939Z</time></trkpt><trkpt lat="38.795788" lon="16.3580102"><ele>839.6666666666667</ele><time>2026-04-19T09:38:49.942Z</time></trkpt><trkpt lat="38.7957204" lon="16.3580454"><ele>842.0</ele><time>2026-04-19T09:38:50.932Z</time></trkpt><trkpt lat="38.7956491" lon="16.3580831"><ele>843.0000000000001</ele><time>2026-04-19T09:38:51.941Z</time></trkpt><trkpt lat="38.7955737" lon="16.3581178"><ele>844.0</ele><time>2026-04-19T09:38:52.936Z</time></trkpt><trkpt lat="38.7954981" lon="16.3581454"><ele>845.0</ele><time>2026-04-19T09:38:53.933Z</time></trkpt><trkpt lat="38.795423" lon="16.3581679"><ele>846.0</ele><time>2026-04-19T09:38:54.933Z</time></trkpt><trkpt lat="38.7953561" lon="16.3581783"><ele>847.0000000000001</ele><time>2026-04-19T09:38:55.931Z</time></trkpt><trkpt lat="38.7952656" lon="16.3582397"><ele>848.0</ele><time>2026-04-19T09:38:57.94Z</time></trkpt><trkpt lat="38.7951585" lon="16.3583548"><ele>850.4</ele><time>2026-04-19T09:38:59.94Z</time></trkpt><trkpt lat="38.7950818" lon="16.3584289"><ele>852.8</ele><time>2026-04-19T09:39:00.942Z</time></trkpt><trkpt lat="38.7949927" lon="16.3585024"><ele>855.2</ele><time>2026-04-19T09:39:01.943Z</time></trkpt><trkpt lat="38.7948947" lon="16.3585605"><ele>857.6</ele><time>2026-04-19T09:39:02.937Z</time></trkpt><trkpt lat="38.7947988" lon="16.3586193"><ele>860.0</ele><time>2026-04-19T09:39:03.957Z</time></trkpt><trkpt lat="38.7947257" lon="16.3586857"><ele>860.0</ele><time>2026-04-19T09:39:04.94Z</time></trkpt><trkpt lat="38.7946733" lon="16.3587532"><ele>860.0</ele><time>2026-04-19T09:39:05.943Z</time></trkpt><trkpt lat="38.7946298" lon="16.3588208"><ele>860.0</ele><time>2026-04-19T09:39:06.947Z</time></trkpt><trkpt lat="38.7945887" lon="16.3588833"><ele>860.0</ele><time>2026-04-19T09:39:07.939Z</time></trkpt><trkpt lat="38.7945131" lon="16.3590186"><ele>860.0</ele><time>2026-04-19T09:39:09.94Z</time></trkpt><trkpt lat="38.7944404" lon="16.3591423"><ele>863.0</ele><time>2026-04-19T09:39:11.94Z</time></trkpt><trkpt lat="38.7943752" lon="16.3592644"><ele>866.0</ele><time>2026-04-19T09:39:13.935Z</time></trkpt><trkpt lat="38.7943114" lon="16.3593819"><ele>869.0</ele><time>2026-04-19T09:39:15.94Z</time></trkpt><trkpt lat="38.7942861" lon="16.3595272"><ele>872.0</ele><time>2026-04-19T09:39:17.94Z</time></trkpt><trkpt lat="38.7942907" lon="16.3596107"><ele>875.0</ele><time>2026-04-19T09:39:18.931Z</time></trkpt><trkpt lat="38.7942974" lon="16.3596949"><ele>876.0000000000001</ele><time>2026-04-19T09:39:19.936Z</time></trkpt><trkpt lat="38.7942547" lon="16.3597763"><ele>877.0</ele><time>2026-04-19T09:39:21.94Z</time></trkpt><trkpt lat="38.7941721" lon="16.3597546"><ele>878.0</ele><time>2026-04-19T09:39:22.94Z</time></trkpt><trkpt lat="38.7940622" lon="16.359725"><ele>879.0</ele><time>2026-04-19T09:39:23.944Z</time></trkpt><trkpt lat="38.7939581" lon="16.3597002"><ele>880.0000000000001</ele><time>2026-04-19T09:39:24.942Z</time></trkpt><trkpt lat="38.7938947" lon="16.3597112"><ele>881.0</ele><time>2026-04-19T09:39:25.945Z</time></trkpt><trkpt lat="38.7938378" lon="16.3597527"><ele>881.5999999999999</ele><time>2026-04-19T09:39:27.951Z</time></trkpt><trkpt lat="38.7938603" lon="16.3598556"><ele>882.1999999999999</ele><time>2026-04-19T09:39:31.939Z</time></trkpt><trkpt lat="38.7938846" lon="16.3599786"><ele>882.8000000000001</ele><time>2026-04-19T09:39:33.936Z</time></trkpt><trkpt lat="38.7939104" lon="16.3601288"><ele>883.4000000000001</ele><time>2026-04-19T09:39:35.947Z</time></trkpt><trkpt lat="38.7939134" lon="16.3602766"><ele>884.0</ele><time>2026-04-19T09:39:37.943Z</time></trkpt><trkpt lat="38.7938897" lon="16.3604076"><ele>884.0</ele><time>2026-04-19T09:39:39.939Z</time></trkpt><trkpt lat="38.7938274" lon="16.3605033"><ele>884.0</ele><time>2026-04-19T09:39:41.934Z</time></trkpt><trkpt lat="38.7937374" lon="16.3606111"><ele>884.0</ele><time>2026-04-19T09:39:43.942Z</time></trkpt><trkpt lat="38.7936528" lon="16.3607156"><ele>884.0</ele><time>2026-04-19T09:39:45.941Z</time></trkpt><trkpt lat="38.7935701" lon="16.3608145"><ele>883.1666666666667</ele><time>2026-04-19T09:39:47.941Z</time></trkpt><trkpt lat="38.7935356" lon="16.3609234"><ele>882.3333333333334</ele><time>2026-04-19T09:39:49.95Z</time></trkpt><trkpt lat="38.7935268" lon="16.3610225"><ele>881.5</ele><time>2026-04-19T09:39:51.947Z</time></trkpt><trkpt lat="38.79349" lon="16.3610892"><ele>880.6666666666667</ele><time>2026-04-19T09:39:53.943Z</time></trkpt><trkpt lat="38.7934553" lon="16.3611762"><ele>879.8333333333334</ele><time>2026-04-19T09:39:56.939Z</time></trkpt><trkpt lat="38.7934435" lon="16.3612736"><ele>879.0</ele><time>2026-04-19T09:39:58.945Z</time></trkpt><trkpt lat="38.7934378" lon="16.3614128"><ele>875.6</ele><time>2026-04-19T09:40:00.937Z</time></trkpt><trkpt lat="38.7934343" lon="16.3615681"><ele>872.2</ele><time>2026-04-19T09:40:02.938Z</time></trkpt><trkpt lat="38.7934375" lon="16.361724"><ele>868.8000000000001</ele><time>2026-04-19T09:40:04.946Z</time></trkpt><trkpt lat="38.7934447" lon="16.3618832"><ele>865.4000000000001</ele><time>2026-04-19T09:40:06.942Z</time></trkpt><trkpt lat="38.7934512" lon="16.3619673"><ele>862.0</ele><time>2026-04-19T09:40:07.938Z</time></trkpt><trkpt lat="38.793456" lon="16.3620509"><ele>862.0</ele><time>2026-04-19T09:40:08.937Z</time></trkpt><trkpt lat="38.7934591" lon="16.3621413"><ele>862.0</ele><time>2026-04-19T09:40:09.947Z</time></trkpt><trkpt lat="38.793473" lon="16.3622319"><ele>862.0</ele><time>2026-04-19T09:40:10.935Z</time></trkpt><trkpt lat="38.7935196" lon="16.3623467"><ele>862.0</ele><time>2026-04-19T09:40:12.944Z</time></trkpt><trkpt lat="38.7936468" lon="16.3623533"><ele>862.0</ele><time>2026-04-19T09:40:14.94Z</time></trkpt><trkpt lat="38.7937553" lon="16.3623543"><ele>860.8</ele><time>2026-04-19T09:40:15.949Z</time></trkpt><trkpt lat="38.7938657" lon="16.3623731"><ele>859.6</ele><time>2026-04-19T09:40:16.938Z</time></trkpt><trkpt lat="38.7939645" lon="16.3624232"><ele>858.3999999999999</ele><time>2026-04-19T09:40:17.939Z</time></trkpt><trkpt lat="38.7940404" lon="16.3625085"><ele>857.1999999999999</ele><time>2026-04-19T09:40:18.936Z</time></trkpt><trkpt lat="38.7940773" lon="16.3626413"><ele>856.0</ele><time>2026-04-19T09:40:19.943Z</time></trkpt><trkpt lat="38.7940881" lon="16.3627976"><ele>856.0</ele><time>2026-04-19T09:40:20.936Z</time></trkpt><trkpt lat="38.7940902" lon="16.3629568"><ele>855.9999999999999</ele><time>2026-04-19T09:40:21.942Z</time></trkpt><trkpt lat="38.7940975" lon="16.3631025"><ele>855.9999999999999</ele><time>2026-04-19T09:40:22.942Z</time></trkpt><trkpt lat="38.7941019" lon="16.3632222"><ele>856.0</ele><time>2026-04-19T09:40:23.936Z</time></trkpt><trkpt lat="38.7941053" lon="16.3633111"><ele>856.0</ele><time>2026-04-19T09:40:24.937Z</time></trkpt><trkpt lat="38.7941445" lon="16.3634005"><ele>854.2857142857143</ele><time>2026-04-19T09:40:26.949Z</time></trkpt><trkpt lat="38.7941922" lon="16.3634652"><ele>852.5714285714286</ele><time>2026-04-19T09:40:27.944Z</time></trkpt><trkpt lat="38.7942368" lon="16.3635423"><ele>850.8571428571429</ele><time>2026-04-19T09:40:28.942Z</time></trkpt><trkpt lat="38.7942646" lon="16.3636172"><ele>849.1428571428571</ele><time>2026-04-19T09:40:29.94Z</time></trkpt><trkpt lat="38.7942747" lon="16.3636983"><ele>847.4285714285714</ele><time>2026-04-19T09:40:30.942Z</time></trkpt><trkpt lat="38.7942699" lon="16.3637809"><ele>845.7142857142858</ele><time>2026-04-19T09:40:31.935Z</time></trkpt><trkpt lat="38.7942387" lon="16.3638682"><ele>844.0</ele><time>2026-04-19T09:40:32.934Z</time></trkpt><trkpt lat="38.7942045" lon="16.3639532"><ele>843.0</ele><time>2026-04-19T09:40:33.944Z</time></trkpt><trkpt lat="38.7941834" lon="16.3640295"><ele>842.0</ele><time>2026-04-19T09:40:34.941Z</time></trkpt><trkpt lat="38.7941715" lon="16.3641288"><ele>841.0</ele><time>2026-04-19T09:40:36.94Z</time></trkpt><trkpt lat="38.7941672" lon="16.3642326"><ele>840.0</ele><time>2026-04-19T09:40:39.941Z</time></trkpt><trkpt lat="38.7941854" lon="16.3643273"><ele>839.0</ele><time>2026-04-19T09:40:42.945Z</time></trkpt><trkpt lat="38.7941873" lon="16.3644131"><ele>838.0</ele><time>2026-04-19T09:40:45.946Z</time></trkpt><trkpt lat="38.7941942" lon="16.3645126"><ele>837.0</ele><time>2026-04-19T09:40:48.936Z</time></trkpt><trkpt lat="38.7942067" lon="16.3646125"><ele>834.5</ele><time>2026-04-19T09:40:51.947Z</time></trkpt><trkpt lat="38.7942314" lon="16.3646971"><ele>832.0</ele><time>2026-04-19T09:40:53.946Z</time></trkpt><trkpt lat="38.7942564" lon="16.3647825"><ele>829.5</ele><time>2026-04-19T09:40:55.939Z</time></trkpt><trkpt lat="38.7942369" lon="16.3648796"><ele>827.0</ele><time>2026-04-19T09:40:58.929Z</time></trkpt><trkpt lat="38.7942146" lon="16.36496"><ele>824.5</ele><time>2026-04-19T09:41:00.941Z</time></trkpt><trkpt lat="38.7941805" lon="16.3650784"><ele>822.0</ele><time>2026-04-19T09:41:03.938Z</time></trkpt><trkpt lat="38.7941743" lon="16.3651816"><ele>822.0</ele><time>2026-04-19T09:41:05.944Z</time></trkpt><trkpt lat="38.7941769" lon="16.3653117"><ele>822.0</ele><time>2026-04-19T09:41:07.94Z</time></trkpt><trkpt lat="38.7941577" lon="16.365416"><ele>822.0</ele><time>2026-04-19T09:41:09.937Z</time></trkpt><trkpt lat="38.7941292" lon="16.3654903"><ele>822.0</ele><time>2026-04-19T09:41:11.936Z</time></trkpt><trkpt lat="38.7940925" lon="16.3655634"><ele>822.0</ele><time>2026-04-19T09:41:13.936Z</time></trkpt><trkpt lat="38.7940446" lon="16.3656604"><ele>822.0</ele><time>2026-04-19T09:41:15.937Z</time></trkpt><trkpt lat="38.7939992" lon="16.3657238"><ele>820.3333333333334</ele><time>2026-04-19T09:41:17.943Z</time></trkpt><trkpt lat="38.7939522" lon="16.3658535"><ele>818.6666666666667</ele><time>2026-04-19T09:41:19.936Z</time></trkpt><trkpt lat="38.7939283" lon="16.36593"><ele>817.0</ele><time>2026-04-19T09:41:20.942Z</time></trkpt><trkpt lat="38.7938869" lon="16.366055"><ele>815.3333333333334</ele><time>2026-04-19T09:41:22.936Z</time></trkpt><trkpt lat="38.7938342" lon="16.3661457"><ele>813.6666666666667</ele><time>2026-04-19T09:41:24.939Z</time></trkpt><trkpt lat="38.7937805" lon="16.3662102"><ele>812.0</ele><time>2026-04-19T09:41:26.943Z</time></trkpt><trkpt lat="38.7937223" lon="16.3662765"><ele>812.0</ele><time>2026-04-19T09:41:28.938Z</time></trkpt><trkpt lat="38.7936802" lon="16.3663391"><ele>812.0</ele><time>2026-04-19T09:41:30.942Z</time></trkpt><trkpt lat="38.7936215" lon="16.3664172"><ele>812.0</ele><time>2026-04-19T09:41:33.933Z</time></trkpt><trkpt lat="38.7935614" lon="16.3664785"><ele>812.0</ele><time>2026-04-19T09:41:35.942Z</time></trkpt><trkpt lat="38.7935049" lon="16.3665276"><ele>812.0</ele><time>2026-04-19T09:41:37.941Z</time></trkpt><trkpt lat="38.7934599" lon="16.3666054"><ele>812.0</ele><time>2026-04-19T09:41:40.945Z</time></trkpt><trkpt lat="38.7934731" lon="16.3666937"><ele>812.0</ele><time>2026-04-19T09:41:42.941Z</time></trkpt><trkpt lat="38.7935091" lon="16.366806"><ele>810.0</ele><time>2026-04-19T09:41:45.945Z</time></trkpt><trkpt lat="38.7935634" lon="16.3669086"><ele>808.0</ele><time>2026-04-19T09:41:48.942Z</time></trkpt><trkpt lat="38.7936043" lon="16.3670044"><ele>806.0</ele><time>2026-04-19T09:41:50.936Z</time></trkpt><trkpt lat="38.7936714" lon="16.3671178"><ele>804.0</ele><time>2026-04-19T09:41:52.936Z</time></trkpt><trkpt lat="38.793716" lon="16.3672183"><ele>802.0</ele><time>2026-04-19T09:41:54.972Z</time></trkpt><trkpt lat="38.7936522" lon="16.3672707"><ele>800.9999999999999</ele><time>2026-04-19T09:41:56.933Z</time></trkpt><trkpt lat="38.7935964" lon="16.3673267"><ele>800.0</ele><time>2026-04-19T09:41:58.942Z</time></trkpt><trkpt lat="38.7935555" lon="16.3674046"><ele>799.0</ele><time>2026-04-19T09:42:01.948Z</time></trkpt><trkpt lat="38.7935375" lon="16.3674917"><ele>798.0</ele><time>2026-04-19T09:42:04.932Z</time></trkpt><trkpt lat="38.7935476" lon="16.3675825"><ele>796.9999999999999</ele><time>2026-04-19T09:42:07.933Z</time></trkpt><trkpt lat="38.7935575" lon="16.3677771"><ele>796.0</ele><time>2026-04-19T09:42:58.95Z</time></trkpt><trkpt lat="38.7935765" lon="16.3678603"><ele>796.0</ele><time>2026-04-19T09:43:01.94Z</time></trkpt><trkpt lat="38.7936231" lon="16.3679377"><ele>796.0</ele><time>2026-04-19T09:43:03.945Z</time></trkpt><trkpt lat="38.7936513" lon="16.3680702"><ele>796.0</ele><time>2026-04-19T09:43:06.939Z</time></trkpt><trkpt lat="38.7936836" lon="16.3681808"><ele>796.0</ele><time>2026-04-19T09:43:08.937Z</time></trkpt><trkpt lat="38.7937034" lon="16.3683022"><ele>796.0</ele><time>2026-04-19T09:43:10.941Z</time></trkpt><trkpt lat="38.7937151" lon="16.3684555"><ele>796.0</ele><time>2026-04-19T09:43:12.932Z</time></trkpt><trkpt lat="38.7937287" lon="16.3685579"><ele>796.0</ele><time>2026-04-19T09:43:13.931Z</time></trkpt><trkpt lat="38.7937536" lon="16.3686889"><ele>796.0</ele><time>2026-04-19T09:43:14.935Z</time></trkpt><trkpt lat="38.7938096" lon="16.3687929"><ele>796.0</ele><time>2026-04-19T09:43:15.933Z</time></trkpt><trkpt lat="38.7938601" lon="16.368879"><ele>796.0</ele><time>2026-04-19T09:43:16.933Z</time></trkpt><trkpt lat="38.793905" lon="16.3689783"><ele>797.8</ele><time>2026-04-19T09:43:17.937Z</time></trkpt><trkpt lat="38.7939523" lon="16.369071"><ele>799.5999999999999</ele><time>2026-04-19T09:43:18.93Z</time></trkpt><trkpt lat="38.7939993" lon="16.3691791"><ele>801.4</ele><time>2026-04-19T09:43:19.933Z</time></trkpt><trkpt lat="38.7940697" lon="16.3692686"><ele>803.2</ele><time>2026-04-19T09:43:20.933Z</time></trkpt><trkpt lat="38.7941538" lon="16.3693912"><ele>805.0</ele><time>2026-04-19T09:43:21.933Z</time></trkpt><trkpt lat="38.7942415" lon="16.3694942"><ele>805.0</ele><time>2026-04-19T09:43:22.934Z</time></trkpt><trkpt lat="38.7943255" lon="16.3696381"><ele>805.0</ele><time>2026-04-19T09:43:23.943Z</time></trkpt><trkpt lat="38.7944097" lon="16.3697963"><ele>805.0</ele><time>2026-04-19T09:43:24.933Z</time></trkpt><trkpt lat="38.794472" lon="16.3699364"><ele>805.0</ele><time>2026-04-19T09:43:25.935Z</time></trkpt><trkpt lat="38.7945187" lon="16.3700709"><ele>805.4</ele><time>2026-04-19T09:43:26.937Z</time></trkpt><trkpt lat="38.7945711" lon="16.370202"><ele>805.8</ele><time>2026-04-19T09:43:27.94Z</time></trkpt><trkpt lat="38.7946257" lon="16.3703251"><ele>806.2</ele><time>2026-04-19T09:43:28.928Z</time></trkpt><trkpt lat="38.7946741" lon="16.3704431"><ele>806.6</ele><time>2026-04-19T09:43:29.937Z</time></trkpt><trkpt lat="38.7947051" lon="16.3705616"><ele>807.0</ele><time>2026-04-19T09:43:30.936Z</time></trkpt><trkpt lat="38.7947398" lon="16.3706768"><ele>807.0</ele><time>2026-04-19T09:43:31.934Z</time></trkpt><trkpt lat="38.7948035" lon="16.3707846"><ele>807.0</ele><time>2026-04-19T09:43:32.933Z</time></trkpt><trkpt lat="38.7948566" lon="16.3708977"><ele>807.0</ele><time>2026-04-19T09:43:33.939Z</time></trkpt><trkpt lat="38.7949117" lon="16.3710006"><ele>807.0</ele><time>2026-04-19T09:43:34.939Z</time></trkpt><trkpt lat="38.794968" lon="16.3710841"><ele>807.0</ele><time>2026-04-19T09:43:35.934Z</time></trkpt><trkpt lat="38.7950207" lon="16.3711615"><ele>807.0</ele><time>2026-04-19T09:43:36.932Z</time></trkpt><trkpt lat="38.7950791" lon="16.371259"><ele>807.0</ele><time>2026-04-19T09:43:37.934Z</time></trkpt><trkpt lat="38.7951285" lon="16.3713493"><ele>807.0</ele><time>2026-04-19T09:43:38.934Z</time></trkpt><trkpt lat="38.7951848" lon="16.3714482"><ele>807.0</ele><time>2026-04-19T09:43:39.934Z</time></trkpt><trkpt lat="38.795233" lon="16.3715449"><ele>807.0</ele><time>2026-04-19T09:43:40.938Z</time></trkpt><trkpt lat="38.7952995" lon="16.3716395"><ele>807.0</ele><time>2026-04-19T09:43:41.933Z</time></trkpt><trkpt lat="38.7953622" lon="16.3717415"><ele>807.0</ele><time>2026-04-19T09:43:42.936Z</time></trkpt><trkpt lat="38.7954313" lon="16.3718621"><ele>807.0</ele><time>2026-04-19T09:43:43.936Z</time></trkpt><trkpt lat="38.7955158" lon="16.3719877"><ele>807.0</ele><time>2026-04-19T09:43:44.932Z</time></trkpt><trkpt lat="38.7956023" lon="16.3721177"><ele>809.25</ele><time>2026-04-19T09:43:45.939Z</time></trkpt><trkpt lat="38.7956888" lon="16.3722629"><ele>811.5</ele><time>2026-04-19T09:43:46.942Z</time></trkpt><trkpt lat="38.7957627" lon="16.3723996"><ele>813.75</ele><time>2026-04-19T09:43:47.939Z</time></trkpt><trkpt lat="38.7958473" lon="16.3724964"><ele>816.0</ele><time>2026-04-19T09:43:48.935Z</time></trkpt><trkpt lat="38.7959323" lon="16.3725755"><ele>816.0</ele><time>2026-04-19T09:43:49.947Z</time></trkpt><trkpt lat="38.7960016" lon="16.3726574"><ele>816.0</ele><time>2026-04-19T09:43:50.944Z</time></trkpt><trkpt lat="38.7960565" lon="16.3727586"><ele>816.0</ele><time>2026-04-19T09:43:51.956Z</time></trkpt><trkpt lat="38.7960969" lon="16.3728605"><ele>816.0</ele><time>2026-04-19T09:43:52.945Z</time></trkpt><trkpt lat="38.7961388" lon="16.3729653"><ele>816.0</ele><time>2026-04-19T09:43:53.946Z</time></trkpt><trkpt lat="38.7961941" lon="16.3730766"><ele>817.0</ele><time>2026-04-19T09:43:54.952Z</time></trkpt><trkpt lat="38.7962496" lon="16.373187"><ele>818.0</ele><time>2026-04-19T09:43:55.946Z</time></trkpt><trkpt lat="38.7963053" lon="16.3732986"><ele>819.0</ele><time>2026-04-19T09:43:56.947Z</time></trkpt><trkpt lat="38.7963554" lon="16.3734132"><ele>820.0</ele><time>2026-04-19T09:43:57.943Z</time></trkpt><trkpt lat="38.7963986" lon="16.3735279"><ele>821.0</ele><time>2026-04-19T09:43:58.953Z</time></trkpt><trkpt lat="38.7964356" lon="16.3736293"><ele>821.0</ele><time>2026-04-19T09:43:59.943Z</time></trkpt><trkpt lat="38.796473" lon="16.3737225"><ele>821.0</ele><time>2026-04-19T09:44:00.943Z</time></trkpt><trkpt lat="38.7965633" lon="16.3737544"><ele>821.0</ele><time>2026-04-19T09:44:01.946Z</time></trkpt><trkpt lat="38.7966644" lon="16.3737758"><ele>821.0</ele><time>2026-04-19T09:44:02.941Z</time></trkpt><trkpt lat="38.7967625" lon="16.3738045"><ele>821.0</ele><time>2026-04-19T09:44:03.94Z</time></trkpt><trkpt lat="38.796863" lon="16.3738264"><ele>822.0</ele><time>2026-04-19T09:44:04.943Z</time></trkpt><trkpt lat="38.796965" lon="16.3738508"><ele>823.0</ele><time>2026-04-19T09:44:05.944Z</time></trkpt><trkpt lat="38.7970684" lon="16.3738676"><ele>824.0</ele><time>2026-04-19T09:44:06.943Z</time></trkpt><trkpt lat="38.7971712" lon="16.3738716"><ele>825.0</ele><time>2026-04-19T09:44:07.935Z</time></trkpt><trkpt lat="38.7972718" lon="16.3738451"><ele>826.0</ele><time>2026-04-19T09:44:08.947Z</time></trkpt><trkpt lat="38.7973692" lon="16.3738139"><ele>826.5999999999999</ele><time>2026-04-19T09:44:09.946Z</time></trkpt><trkpt lat="38.7974288" lon="16.3737178"><ele>827.2</ele><time>2026-04-19T09:44:10.949Z</time></trkpt><trkpt lat="38.7974705" lon="16.3736041"><ele>827.8</ele><time>2026-04-19T09:44:11.935Z</time></trkpt><trkpt lat="38.7975071" lon="16.3734801"><ele>828.4000000000001</ele><time>2026-04-19T09:44:12.958Z</time></trkpt><trkpt lat="38.797537" lon="16.3733543"><ele>829.0</ele><time>2026-04-19T09:44:13.939Z</time></trkpt><trkpt lat="38.7975464" lon="16.3732385"><ele>828.9999999999999</ele><time>2026-04-19T09:44:14.941Z</time></trkpt><trkpt lat="38.7975435" lon="16.3731516"><ele>829.0</ele><time>2026-04-19T09:44:15.943Z</time></trkpt><trkpt lat="38.7975326" lon="16.3730511"><ele>829.0</ele><time>2026-04-19T09:44:21.944Z</time></trkpt><trkpt lat="38.7975729" lon="16.3731177"><ele>829.0</ele><time>2026-04-19T09:44:25.939Z</time></trkpt><trkpt lat="38.7975358" lon="16.3732311"><ele>828.9999999999999</ele><time>2026-04-19T09:44:27.946Z</time></trkpt><trkpt lat="38.797513" lon="16.3733728"><ele>829.0</ele><time>2026-04-19T09:44:29.942Z</time></trkpt><trkpt lat="38.797488" lon="16.3734713"><ele>828.9999999999999</ele><time>2026-04-19T09:44:31.942Z</time></trkpt><trkpt lat="38.79746" lon="16.3735762"><ele>829.0</ele><time>2026-04-19T09:44:33.943Z</time></trkpt><trkpt lat="38.7974308" lon="16.3736798"><ele>829.0</ele><time>2026-04-19T09:44:35.944Z</time></trkpt><trkpt lat="38.7973908" lon="16.3737829"><ele>829.0</ele><time>2026-04-19T09:44:37.944Z</time></trkpt><trkpt lat="38.7973297" lon="16.3738166"><ele>828.9999999999999</ele><time>2026-04-19T09:44:38.944Z</time></trkpt><trkpt lat="38.7972612" lon="16.3738493"><ele>829.0</ele><time>2026-04-19T09:44:39.939Z</time></trkpt><trkpt lat="38.7971884" lon="16.3738618"><ele>828.9999999999999</ele><time>2026-04-19T09:44:40.94Z</time></trkpt><trkpt lat="38.7971099" lon="16.3738561"><ele>829.0</ele><time>2026-04-19T09:44:41.941Z</time></trkpt><trkpt lat="38.7970331" lon="16.3738438"><ele>829.0</ele><time>2026-04-19T09:44:42.936Z</time></trkpt><trkpt lat="38.7969598" lon="16.3738293"><ele>829.0</ele><time>2026-04-19T09:44:43.938Z</time></trkpt><trkpt lat="38.7968973" lon="16.3738113"><ele>828.9999999999999</ele><time>2026-04-19T09:44:44.94Z</time></trkpt><trkpt lat="38.7968034" lon="16.3737719"><ele>829.0</ele><time>2026-04-19T09:44:46.937Z</time></trkpt><trkpt lat="38.7967338" lon="16.3738043"><ele>828.4999999999999</ele><time>2026-04-19T09:44:49.944Z</time></trkpt><trkpt lat="38.7967766" lon="16.3738726"><ele>828.0</ele><time>2026-04-19T09:44:51.952Z</time></trkpt><trkpt lat="38.7968374" lon="16.3739346"><ele>827.5</ele><time>2026-04-19T09:44:52.94Z</time></trkpt><trkpt lat="38.7969116" lon="16.3740096"><ele>827.0</ele><time>2026-04-19T09:44:53.947Z</time></trkpt><trkpt lat="38.7969923" lon="16.3740881"><ele>826.4999999999999</ele><time>2026-04-19T09:44:54.942Z</time></trkpt><trkpt lat="38.7970733" lon="16.3741692"><ele>826.0</ele><time>2026-04-19T09:44:55.951Z</time></trkpt><trkpt lat="38.7971544" lon="16.3742468"><ele>825.9999999999999</ele><time>2026-04-19T09:44:56.949Z</time></trkpt><trkpt lat="38.7972297" lon="16.3743138"><ele>826.0</ele><time>2026-04-19T09:44:57.942Z</time></trkpt><trkpt lat="38.797311" lon="16.3743517"><ele>826.0</ele><time>2026-04-19T09:44:58.94Z</time></trkpt><trkpt lat="38.7973976" lon="16.3743789"><ele>826.0</ele><time>2026-04-19T09:44:59.945Z</time></trkpt><trkpt lat="38.7974829" lon="16.374417"><ele>825.9999999999999</ele><time>2026-04-19T09:45:00.948Z</time></trkpt><trkpt lat="38.7975641" lon="16.3744533"><ele>826.0</ele><time>2026-04-19T09:45:01.952Z</time></trkpt><trkpt lat="38.7976424" lon="16.3744914"><ele>826.6666666666666</ele><time>2026-04-19T09:45:02.946Z</time></trkpt><trkpt lat="38.7977076" lon="16.3745556"><ele>827.3333333333333</ele><time>2026-04-19T09:45:03.941Z</time></trkpt><trkpt lat="38.7977751" lon="16.3746232"><ele>828.0</ele><time>2026-04-19T09:45:04.94Z</time></trkpt><trkpt lat="38.7978414" lon="16.374683"><ele>828.6666666666667</ele><time>2026-04-19T09:45:05.948Z</time></trkpt><trkpt lat="38.797911" lon="16.3747304"><ele>829.3333333333334</ele><time>2026-04-19T09:45:06.94Z</time></trkpt><trkpt lat="38.7979789" lon="16.374765"><ele>830.0</ele><time>2026-04-19T09:45:07.953Z</time></trkpt><trkpt lat="38.7980508" lon="16.3747681"><ele>828.1428571428571</ele><time>2026-04-19T09:45:08.94Z</time></trkpt><trkpt lat="38.7981267" lon="16.3747508"><ele>826.2857142857143</ele><time>2026-04-19T09:45:09.951Z</time></trkpt><trkpt lat="38.7981986" lon="16.3747361"><ele>824.4285714285713</ele><time>2026-04-19T09:45:10.937Z</time></trkpt><trkpt lat="38.7982708" lon="16.3747469"><ele>822.5714285714286</ele><time>2026-04-19T09:45:11.944Z</time></trkpt><trkpt lat="38.7983285" lon="16.3747931"><ele>820.7142857142857</ele><time>2026-04-19T09:45:12.938Z</time></trkpt><trkpt lat="38.7983914" lon="16.3748059"><ele>818.8571428571428</ele><time>2026-04-19T09:45:13.947Z</time></trkpt><trkpt lat="38.798455" lon="16.3748318"><ele>817.0</ele><time>2026-04-19T09:45:14.946Z</time></trkpt><trkpt lat="38.7985119" lon="16.3749108"><ele>816.6666666666666</ele><time>2026-04-19T09:45:15.936Z</time></trkpt><trkpt lat="38.7985739" lon="16.3749947"><ele>816.3333333333333</ele><time>2026-04-19T09:45:16.945Z</time></trkpt><trkpt lat="38.7986385" lon="16.3750579"><ele>816.0</ele><time>2026-04-19T09:45:17.948Z</time></trkpt><trkpt lat="38.7987073" lon="16.3751116"><ele>815.6666666666667</ele><time>2026-04-19T09:45:18.941Z</time></trkpt><trkpt lat="38.7987759" lon="16.3751681"><ele>815.3333333333334</ele><time>2026-04-19T09:45:19.943Z</time></trkpt><trkpt lat="38.7988331" lon="16.3752281"><ele>815.0</ele><time>2026-04-19T09:45:20.944Z</time></trkpt><trkpt lat="38.7988845" lon="16.375282"><ele>815.0000000000001</ele><time>2026-04-19T09:45:21.95Z</time></trkpt><trkpt lat="38.7989476" lon="16.3753525"><ele>815.0</ele><time>2026-04-19T09:45:22.937Z</time></trkpt><trkpt lat="38.7990011" lon="16.3754171"><ele>815.0</ele><time>2026-04-19T09:45:23.935Z</time></trkpt><trkpt lat="38.799103" lon="16.3754949"><ele>815.0</ele><time>2026-04-19T09:45:25.944Z</time></trkpt><trkpt lat="38.7991729" lon="16.3754961"><ele>815.0000000000001</ele><time>2026-04-19T09:45:26.942Z</time></trkpt><trkpt lat="38.7992378" lon="16.3755123"><ele>815.0</ele><time>2026-04-19T09:45:27.939Z</time></trkpt><trkpt lat="38.7993153" lon="16.3755489"><ele>812.8</ele><time>2026-04-19T09:45:29.947Z</time></trkpt><trkpt lat="38.799285" lon="16.3756371"><ele>810.6</ele><time>2026-04-19T09:45:31.948Z</time></trkpt><trkpt lat="38.79923" lon="16.3756931"><ele>808.4000000000001</ele><time>2026-04-19T09:45:32.942Z</time></trkpt><trkpt lat="38.7991807" lon="16.3757876"><ele>806.2</ele><time>2026-04-19T09:45:33.943Z</time></trkpt><trkpt lat="38.7991702" lon="16.375918"><ele>804.0</ele><time>2026-04-19T09:45:34.942Z</time></trkpt><trkpt lat="38.7991761" lon="16.3760675"><ele>804.0</ele><time>2026-04-19T09:45:35.936Z</time></trkpt><trkpt lat="38.7992031" lon="16.3762093"><ele>804.0</ele><time>2026-04-19T09:45:36.941Z</time></trkpt><trkpt lat="38.7992649" lon="16.3763294"><ele>804.0</ele><time>2026-04-19T09:45:37.947Z</time></trkpt><trkpt lat="38.7993664" lon="16.3764203"><ele>804.0</ele><time>2026-04-19T09:45:38.949Z</time></trkpt><trkpt lat="38.7994656" lon="16.3764934"><ele>800.25</ele><time>2026-04-19T09:45:39.94Z</time></trkpt><trkpt lat="38.7995703" lon="16.3765888"><ele>796.5</ele><time>2026-04-19T09:45:40.936Z</time></trkpt><trkpt lat="38.7996657" lon="16.3766913"><ele>792.75</ele><time>2026-04-19T09:45:41.94Z</time></trkpt><trkpt lat="38.7997459" lon="16.3767875"><ele>789.0</ele><time>2026-04-19T09:45:42.95Z</time></trkpt><trkpt lat="38.7998189" lon="16.3768772"><ele>789.0</ele><time>2026-04-19T09:45:43.938Z</time></trkpt><trkpt lat="38.7998773" lon="16.3769783"><ele>789.0</ele><time>2026-04-19T09:45:44.944Z</time></trkpt><trkpt lat="38.7999337" lon="16.3770844"><ele>789.0</ele><time>2026-04-19T09:45:45.95Z</time></trkpt><trkpt lat="38.799995" lon="16.3771833"><ele>789.0</ele><time>2026-04-19T09:45:46.941Z</time></trkpt><trkpt lat="38.8000534" lon="16.3772711"><ele>789.0</ele><time>2026-04-19T09:45:47.942Z</time></trkpt><trkpt lat="38.8000855" lon="16.3773493"><ele>787.9999999999999</ele><time>2026-04-19T09:45:48.94Z</time></trkpt><trkpt lat="38.8000814" lon="16.37744"><ele>787.0</ele><time>2026-04-19T09:45:50.954Z</time></trkpt><trkpt lat="38.7999903" lon="16.3774441"><ele>786.0</ele><time>2026-04-19T09:45:52.942Z</time></trkpt><trkpt lat="38.7999214" lon="16.3774328"><ele>785.0</ele><time>2026-04-19T09:45:53.944Z</time></trkpt><trkpt lat="38.7998477" lon="16.3774215"><ele>784.0</ele><time>2026-04-19T09:45:54.936Z</time></trkpt><trkpt lat="38.7997719" lon="16.3774222"><ele>782.9999999999999</ele><time>2026-04-19T09:45:55.94Z</time></trkpt><trkpt lat="38.7997074" lon="16.3774278"><ele>782.0</ele><time>2026-04-19T09:45:56.941Z</time></trkpt><trkpt lat="38.7996004" lon="16.3774456"><ele>782.0</ele><time>2026-04-19T09:45:58.947Z</time></trkpt><trkpt lat="38.7994896" lon="16.3774485"><ele>782.0</ele><time>2026-04-19T09:46:00.941Z</time></trkpt><trkpt lat="38.7993651" lon="16.3774229"><ele>782.0</ele><time>2026-04-19T09:46:02.942Z</time></trkpt><trkpt lat="38.7993019" lon="16.3773966"><ele>782.0</ele><time>2026-04-19T09:46:03.942Z</time></trkpt><trkpt lat="38.7992417" lon="16.377368"><ele>782.0</ele><time>2026-04-19T09:46:04.945Z</time></trkpt><trkpt lat="38.799126" lon="16.3773095"><ele>782.1666666666667</ele><time>2026-04-19T09:46:06.95Z</time></trkpt><trkpt lat="38.7990619" lon="16.3772812"><ele>782.3333333333334</ele><time>2026-04-19T09:46:07.941Z</time></trkpt><trkpt lat="38.7989902" lon="16.3772548"><ele>782.5</ele><time>2026-04-19T09:46:08.939Z</time></trkpt><trkpt lat="38.7989077" lon="16.3772302"><ele>782.6666666666667</ele><time>2026-04-19T09:46:09.944Z</time></trkpt><trkpt lat="38.7988113" lon="16.3771971"><ele>782.8333333333334</ele><time>2026-04-19T09:46:10.946Z</time></trkpt><trkpt lat="38.7987015" lon="16.3771529"><ele>783.0</ele><time>2026-04-19T09:46:11.943Z</time></trkpt><trkpt lat="38.7985884" lon="16.3770968"><ele>785.25</ele><time>2026-04-19T09:46:12.938Z</time></trkpt><trkpt lat="38.7984805" lon="16.3770231"><ele>787.5</ele><time>2026-04-19T09:46:13.939Z</time></trkpt><trkpt lat="38.7983791" lon="16.3769342"><ele>789.75</ele><time>2026-04-19T09:46:14.949Z</time></trkpt><trkpt lat="38.7982811" lon="16.376851"><ele>792.0</ele><time>2026-04-19T09:46:15.94Z</time></trkpt><trkpt lat="38.7981769" lon="16.3767975"><ele>792.0</ele><time>2026-04-19T09:46:16.94Z</time></trkpt><trkpt lat="38.7980641" lon="16.3767791"><ele>792.0</ele><time>2026-04-19T09:46:17.949Z</time></trkpt><trkpt lat="38.7979453" lon="16.3767838"><ele>792.0</ele><time>2026-04-19T09:46:18.948Z</time></trkpt><trkpt lat="38.7978197" lon="16.3767901"><ele>792.0</ele><time>2026-04-19T09:46:19.938Z</time></trkpt><trkpt lat="38.7976893" lon="16.3767858"><ele>792.8</ele><time>2026-04-19T09:46:20.94Z</time></trkpt><trkpt lat="38.7975659" lon="16.3767658"><ele>793.6</ele><time>2026-04-19T09:46:21.936Z</time></trkpt><trkpt lat="38.7974667" lon="16.3767379"><ele>794.4</ele><time>2026-04-19T09:46:22.939Z</time></trkpt><trkpt lat="38.7973875" lon="16.376717"><ele>795.1999999999999</ele><time>2026-04-19T09:46:23.94Z</time></trkpt><trkpt lat="38.7973058" lon="16.3767219"><ele>796.0</ele><time>2026-04-19T09:46:25.94Z</time></trkpt><trkpt lat="38.7972629" lon="16.3767949"><ele>796.0</ele><time>2026-04-19T09:46:29.941Z</time></trkpt><trkpt lat="38.7972704" lon="16.3769783"><ele>796.0</ele><time>2026-04-19T09:46:31.942Z</time></trkpt><trkpt lat="38.7972876" lon="16.377112"><ele>796.0</ele><time>2026-04-19T09:46:32.939Z</time></trkpt><trkpt lat="38.7973065" lon="16.3772547"><ele>796.0</ele><time>2026-04-19T09:46:33.944Z</time></trkpt><trkpt lat="38.7973231" lon="16.3773708"><ele>794.9999999999999</ele><time>2026-04-19T09:46:34.947Z</time></trkpt><trkpt lat="38.7973402" lon="16.3774524"><ele>794.0</ele><time>2026-04-19T09:46:35.941Z</time></trkpt><trkpt lat="38.7973671" lon="16.3775768"><ele>793.0</ele><time>2026-04-19T09:46:37.944Z</time></trkpt><trkpt lat="38.7973927" lon="16.3777091"><ele>792.0</ele><time>2026-04-19T09:46:39.937Z</time></trkpt><trkpt lat="38.7974096" lon="16.3777902"><ele>790.9999999999999</ele><time>2026-04-19T09:46:40.938Z</time></trkpt><trkpt lat="38.7974261" lon="16.3778873"><ele>790.0</ele><time>2026-04-19T09:46:41.952Z</time></trkpt><trkpt lat="38.7974514" lon="16.3780025"><ele>790.25</ele><time>2026-04-19T09:46:42.939Z</time></trkpt><trkpt lat="38.7974785" lon="16.378128"><ele>790.5</ele><time>2026-04-19T09:46:43.936Z</time></trkpt><trkpt lat="38.7975103" lon="16.3782768"><ele>790.75</ele><time>2026-04-19T09:46:44.94Z</time></trkpt><trkpt lat="38.7975494" lon="16.3784484"><ele>791.0</ele><time>2026-04-19T09:46:45.94Z</time></trkpt><trkpt lat="38.7975905" lon="16.378624"><ele>791.0</ele><time>2026-04-19T09:46:46.928Z</time></trkpt><trkpt lat="38.7976309" lon="16.3787886"><ele>791.0</ele><time>2026-04-19T09:46:47.936Z</time></trkpt><trkpt lat="38.7976662" lon="16.3789353"><ele>791.0</ele><time>2026-04-19T09:46:48.94Z</time></trkpt><trkpt lat="38.7976975" lon="16.3790857"><ele>791.0</ele><time>2026-04-19T09:46:49.936Z</time></trkpt><trkpt lat="38.7977239" lon="16.3792403"><ele>787.5999999999999</ele><time>2026-04-19T09:46:50.936Z</time></trkpt><trkpt lat="38.7977395" lon="16.3793842"><ele>784.2</ele><time>2026-04-19T09:46:51.937Z</time></trkpt><trkpt lat="38.7977566" lon="16.3795207"><ele>780.8</ele><time>2026-04-19T09:46:52.94Z</time></trkpt><trkpt lat="38.7977887" lon="16.379651"><ele>777.4000000000001</ele><time>2026-04-19T09:46:53.932Z</time></trkpt><trkpt lat="38.7978619" lon="16.3797647"><ele>774.0</ele><time>2026-04-19T09:46:54.94Z</time></trkpt><trkpt lat="38.7979381" lon="16.3798835"><ele>773.4000000000001</ele><time>2026-04-19T09:46:55.944Z</time></trkpt><trkpt lat="38.7980099" lon="16.3799914"><ele>772.8</ele><time>2026-04-19T09:46:56.937Z</time></trkpt><trkpt lat="38.7980635" lon="16.3800963"><ele>772.2</ele><time>2026-04-19T09:46:57.934Z</time></trkpt><trkpt lat="38.7981006" lon="16.3802075"><ele>771.5999999999999</ele><time>2026-04-19T09:46:58.94Z</time></trkpt><trkpt lat="38.7981054" lon="16.3803242"><ele>771.0</ele><time>2026-04-19T09:46:59.944Z</time></trkpt><trkpt lat="38.7981109" lon="16.3804227"><ele>770.0</ele><time>2026-04-19T09:47:00.94Z</time></trkpt><trkpt lat="38.7981078" lon="16.3805279"><ele>769.0</ele><time>2026-04-19T09:47:01.931Z</time></trkpt><trkpt lat="38.798118" lon="16.3806421"><ele>768.0</ele><time>2026-04-19T09:47:02.938Z</time></trkpt><trkpt lat="38.798168" lon="16.380757"><ele>767.0</ele><time>2026-04-19T09:47:03.945Z</time></trkpt><trkpt lat="38.7982181" lon="16.380871"><ele>766.0</ele><time>2026-04-19T09:47:04.944Z</time></trkpt><trkpt lat="38.7982366" lon="16.3809712"><ele>766.0</ele><time>2026-04-19T09:47:05.938Z</time></trkpt><trkpt lat="38.7982483" lon="16.3810612"><ele>766.0</ele><time>2026-04-19T09:47:06.934Z</time></trkpt><trkpt lat="38.7982187" lon="16.3811417"><ele>766.0</ele><time>2026-04-19T09:47:07.932Z</time></trkpt><trkpt lat="38.7981434" lon="16.3812085"><ele>766.0</ele><time>2026-04-19T09:47:08.936Z</time></trkpt><trkpt lat="38.7980535" lon="16.381231"><ele>766.0</ele><time>2026-04-19T09:47:09.942Z</time></trkpt><trkpt lat="38.7979641" lon="16.3812406"><ele>766.0</ele><time>2026-04-19T09:47:10.937Z</time></trkpt><trkpt lat="38.7978588" lon="16.3812433"><ele>766.0</ele><time>2026-04-19T09:47:11.936Z</time></trkpt><trkpt lat="38.7977441" lon="16.3812404"><ele>766.0</ele><time>2026-04-19T09:47:12.941Z</time></trkpt><trkpt lat="38.7976254" lon="16.3812397"><ele>766.0</ele><time>2026-04-19T09:47:13.936Z</time></trkpt><trkpt lat="38.797504" lon="16.3812166"><ele>766.0</ele><time>2026-04-19T09:47:14.929Z</time></trkpt><trkpt lat="38.7973988" lon="16.3812063"><ele>765.4</ele><time>2026-04-19T09:47:15.937Z</time></trkpt><trkpt lat="38.7973005" lon="16.3811989"><ele>764.8</ele><time>2026-04-19T09:47:16.932Z</time></trkpt><trkpt lat="38.7972015" lon="16.3811937"><ele>764.1999999999999</ele><time>2026-04-19T09:47:17.935Z</time></trkpt><trkpt lat="38.7971132" lon="16.3812185"><ele>763.5999999999999</ele><time>2026-04-19T09:47:18.931Z</time></trkpt><trkpt lat="38.7970314" lon="16.381252"><ele>763.0</ele><time>2026-04-19T09:47:19.937Z</time></trkpt><trkpt lat="38.7969573" lon="16.3812803"><ele>763.0</ele><time>2026-04-19T09:47:20.93Z</time></trkpt><trkpt lat="38.7968812" lon="16.3813351"><ele>763.0</ele><time>2026-04-19T09:47:21.94Z</time></trkpt><trkpt lat="38.7968073" lon="16.3814234"><ele>763.0</ele><time>2026-04-19T09:47:22.934Z</time></trkpt><trkpt lat="38.796743" lon="16.3815154"><ele>763.0</ele><time>2026-04-19T09:47:23.937Z</time></trkpt><trkpt lat="38.796698" lon="16.3816167"><ele>763.0</ele><time>2026-04-19T09:47:24.936Z</time></trkpt><trkpt lat="38.796662" lon="16.3817465"><ele>759.6666666666667</ele><time>2026-04-19T09:47:25.939Z</time></trkpt><trkpt lat="38.7966611" lon="16.381864"><ele>756.3333333333334</ele><time>2026-04-19T09:47:26.933Z</time></trkpt><trkpt lat="38.7966678" lon="16.3819654"><ele>753.0</ele><time>2026-04-19T09:47:27.933Z</time></trkpt><trkpt lat="38.7966843" lon="16.3820546"><ele>749.6666666666666</ele><time>2026-04-19T09:47:28.939Z</time></trkpt><trkpt lat="38.7967" lon="16.3821829"><ele>746.3333333333333</ele><time>2026-04-19T09:47:30.942Z</time></trkpt><trkpt lat="38.7967078" lon="16.3822739"><ele>743.0</ele><time>2026-04-19T09:47:31.935Z</time></trkpt><trkpt lat="38.7967097" lon="16.3823727"><ele>741.1666666666666</ele><time>2026-04-19T09:47:32.935Z</time></trkpt><trkpt lat="38.7967015" lon="16.3824659"><ele>739.3333333333333</ele><time>2026-04-19T09:47:33.939Z</time></trkpt><trkpt lat="38.7966665" lon="16.3825442"><ele>737.5</ele><time>2026-04-19T09:47:34.942Z</time></trkpt><trkpt lat="38.796616" lon="16.3825986"><ele>735.6666666666666</ele><time>2026-04-19T09:47:35.943Z</time></trkpt><trkpt lat="38.7965373" lon="16.3826303"><ele>733.8333333333334</ele><time>2026-04-19T09:47:36.948Z</time></trkpt><trkpt lat="38.7964388" lon="16.382663"><ele>732.0</ele><time>2026-04-19T09:47:37.937Z</time></trkpt><trkpt lat="38.7963382" lon="16.3826657"><ele>732.0</ele><time>2026-04-19T09:47:38.938Z</time></trkpt><trkpt lat="38.7962299" lon="16.3826693"><ele>732.0</ele><time>2026-04-19T09:47:39.938Z</time></trkpt><trkpt lat="38.7961245" lon="16.3826434"><ele>732.0</ele><time>2026-04-19T09:47:40.935Z</time></trkpt><trkpt lat="38.7960018" lon="16.382617"><ele>732.0</ele><time>2026-04-19T09:47:41.933Z</time></trkpt><trkpt lat="38.795873" lon="16.3826025"><ele>729.5</ele><time>2026-04-19T09:47:42.938Z</time></trkpt><trkpt lat="38.7957546" lon="16.3826028"><ele>727.0</ele><time>2026-04-19T09:47:43.941Z</time></trkpt><trkpt lat="38.7956455" lon="16.3826057"><ele>724.5</ele><time>2026-04-19T09:47:44.934Z</time></trkpt><trkpt lat="38.7955418" lon="16.3825799"><ele>722.0</ele><time>2026-04-19T09:47:45.939Z</time></trkpt><trkpt lat="38.7954406" lon="16.3824977"><ele>722.0</ele><time>2026-04-19T09:47:46.938Z</time></trkpt><trkpt lat="38.7953402" lon="16.3824332"><ele>722.0</ele><time>2026-04-19T09:47:47.937Z</time></trkpt><trkpt lat="38.7952466" lon="16.3823787"><ele>722.0</ele><time>2026-04-19T09:47:48.931Z</time></trkpt><trkpt lat="38.7951882" lon="16.3823384"><ele>722.0</ele><time>2026-04-19T09:47:49.936Z</time></trkpt><trkpt lat="38.7951278" lon="16.3822739"><ele>722.0</ele><time>2026-04-19T09:47:51.955Z</time></trkpt><trkpt lat="38.7950874" lon="16.3822112"><ele>722.0</ele><time>2026-04-19T09:47:53.946Z</time></trkpt><trkpt lat="38.7950594" lon="16.3821268"><ele>722.1666666666666</ele><time>2026-04-19T09:48:06.942Z</time></trkpt><trkpt lat="38.7950244" lon="16.3820552"><ele>722.3333333333333</ele><time>2026-04-19T09:48:09.95Z</time></trkpt><trkpt lat="38.7949918" lon="16.381979"><ele>722.5</ele><time>2026-04-19T09:48:20.948Z</time></trkpt><trkpt lat="38.7949165" lon="16.3819165"><ele>722.6666666666666</ele><time>2026-04-19T09:48:26.94Z</time></trkpt><trkpt lat="38.7948625" lon="16.381872"><ele>722.8333333333334</ele><time>2026-04-19T09:48:28.951Z</time></trkpt><trkpt lat="38.794775" lon="16.381823"><ele>723.0</ele><time>2026-04-19T09:48:30.944Z</time></trkpt><trkpt lat="38.7946681" lon="16.3817802"><ele>723.0</ele><time>2026-04-19T09:48:32.942Z</time></trkpt><trkpt lat="38.7946016" lon="16.3817486"><ele>723.0</ele><time>2026-04-19T09:48:33.938Z</time></trkpt><trkpt lat="38.7945285" lon="16.3817227"><ele>723.0</ele><time>2026-04-19T09:48:34.939Z</time></trkpt><trkpt lat="38.7944143" lon="16.381731"><ele>723.0</ele><time>2026-04-19T09:48:36.936Z</time></trkpt><trkpt lat="38.7943549" lon="16.3817787"><ele>723.0</ele><time>2026-04-19T09:48:38.941Z</time></trkpt><trkpt lat="38.7943152" lon="16.3818559"><ele>723.0</ele><time>2026-04-19T09:48:41.937Z</time></trkpt><trkpt lat="38.7942875" lon="16.3819379"><ele>723.0</ele><time>2026-04-19T09:48:58.948Z</time></trkpt><trkpt lat="38.7942825" lon="16.3820406"><ele>723.0</ele><time>2026-04-19T09:49:01.941Z</time></trkpt><trkpt lat="38.7943434" lon="16.3821322"><ele>723.0</ele><time>2026-04-19T09:49:04.941Z</time></trkpt><trkpt lat="38.7944054" lon="16.3821868"><ele>723.0</ele><time>2026-04-19T09:49:16.942Z</time></trkpt><trkpt lat="38.7944454" lon="16.3822784"><ele>723.0</ele><time>2026-04-19T09:49:22.944Z</time></trkpt><trkpt lat="38.7944744" lon="16.3823509"><ele>723.0</ele><time>2026-04-19T09:49:24.942Z</time></trkpt><trkpt lat="38.7944645" lon="16.3824521"><ele>721.5999999999999</ele><time>2026-04-19T09:49:26.935Z</time></trkpt><trkpt lat="38.794428" lon="16.3826155"><ele>720.1999999999999</ele><time>2026-04-19T09:49:28.947Z</time></trkpt><trkpt lat="38.7943921" lon="16.3827464"><ele>718.8</ele><time>2026-04-19T09:49:29.94Z</time></trkpt><trkpt lat="38.7943606" lon="16.3828495"><ele>717.4</ele><time>2026-04-19T09:49:30.942Z</time></trkpt><trkpt lat="38.7943259" lon="16.382932"><ele>716.0</ele><time>2026-04-19T09:49:31.937Z</time></trkpt><trkpt lat="38.7942815" lon="16.3829941"><ele>718.4</ele><time>2026-04-19T09:49:32.938Z</time></trkpt><trkpt lat="38.7942171" lon="16.3830713"><ele>720.8</ele><time>2026-04-19T09:49:33.938Z</time></trkpt><trkpt lat="38.7941461" lon="16.3831539"><ele>723.1999999999999</ele><time>2026-04-19T09:49:34.929Z</time></trkpt><trkpt lat="38.7940656" lon="16.3832503"><ele>725.5999999999999</ele><time>2026-04-19T09:49:35.939Z</time></trkpt><trkpt lat="38.7939897" lon="16.3833437"><ele>728.0</ele><time>2026-04-19T09:49:36.945Z</time></trkpt><trkpt lat="38.7939182" lon="16.3834322"><ele>728.0</ele><time>2026-04-19T09:49:37.937Z</time></trkpt><trkpt lat="38.7938422" lon="16.383525"><ele>728.0</ele><time>2026-04-19T09:49:38.939Z</time></trkpt><trkpt lat="38.7937534" lon="16.3835894"><ele>728.0</ele><time>2026-04-19T09:49:39.942Z</time></trkpt><trkpt lat="38.7936598" lon="16.3836453"><ele>728.0</ele><time>2026-04-19T09:49:40.935Z</time></trkpt><trkpt lat="38.793568" lon="16.3837008"><ele>728.0</ele><time>2026-04-19T09:49:41.938Z</time></trkpt><trkpt lat="38.7934782" lon="16.3837556"><ele>729.8</ele><time>2026-04-19T09:49:42.941Z</time></trkpt><trkpt lat="38.7933772" lon="16.3838138"><ele>731.5999999999999</ele><time>2026-04-19T09:49:43.945Z</time></trkpt><trkpt lat="38.7932796" lon="16.383858"><ele>733.4000000000001</ele><time>2026-04-19T09:49:44.939Z</time></trkpt><trkpt lat="38.7931793" lon="16.3838969"><ele>735.2</ele><time>2026-04-19T09:49:45.937Z</time></trkpt><trkpt lat="38.7930797" lon="16.3839314"><ele>737.0</ele><time>2026-04-19T09:49:46.94Z</time></trkpt><trkpt lat="38.7929805" lon="16.3839476"><ele>737.0</ele><time>2026-04-19T09:49:47.944Z</time></trkpt><trkpt lat="38.7928832" lon="16.383963"><ele>737.0</ele><time>2026-04-19T09:49:48.936Z</time></trkpt><trkpt lat="38.7927879" lon="16.3839562"><ele>737.0</ele><time>2026-04-19T09:49:49.94Z</time></trkpt><trkpt lat="38.7926958" lon="16.3839485"><ele>737.0</ele><time>2026-04-19T09:49:50.939Z</time></trkpt><trkpt lat="38.7926152" lon="16.3839076"><ele>737.0</ele><time>2026-04-19T09:49:51.941Z</time></trkpt><trkpt lat="38.7925363" lon="16.3838487"><ele>740.4000000000001</ele><time>2026-04-19T09:49:52.944Z</time></trkpt><trkpt lat="38.7924559" lon="16.3837845"><ele>743.8000000000001</ele><time>2026-04-19T09:49:53.941Z</time></trkpt><trkpt lat="38.7923686" lon="16.3837129"><ele>747.2</ele><time>2026-04-19T09:49:54.949Z</time></trkpt><trkpt lat="38.792278" lon="16.3836499"><ele>750.6</ele><time>2026-04-19T09:49:55.947Z</time></trkpt><trkpt lat="38.7921791" lon="16.3835867"><ele>754.0</ele><time>2026-04-19T09:49:56.95Z</time></trkpt><trkpt lat="38.7920791" lon="16.3835227"><ele>754.0</ele><time>2026-04-19T09:49:57.942Z</time></trkpt><trkpt lat="38.7919841" lon="16.3834448"><ele>754.0</ele><time>2026-04-19T09:49:58.949Z</time></trkpt><trkpt lat="38.7919001" lon="16.3833464"><ele>754.0</ele><time>2026-04-19T09:49:59.943Z</time></trkpt><trkpt lat="38.7918206" lon="16.383242"><ele>754.0</ele><time>2026-04-19T09:50:00.95Z</time></trkpt><trkpt lat="38.7917386" lon="16.3831458"><ele>754.6</ele><time>2026-04-19T09:50:01.949Z</time></trkpt><trkpt lat="38.7916618" lon="16.3830581"><ele>755.2</ele><time>2026-04-19T09:50:02.949Z</time></trkpt><trkpt lat="38.791571" lon="16.3830132"><ele>755.8000000000001</ele><time>2026-04-19T09:50:03.947Z</time></trkpt><trkpt lat="38.7914693" lon="16.3830024"><ele>756.4000000000001</ele><time>2026-04-19T09:50:04.937Z</time></trkpt><trkpt lat="38.7913556" lon="16.3830008"><ele>757.0</ele><time>2026-04-19T09:50:05.942Z</time></trkpt><trkpt lat="38.7912395" lon="16.3830052"><ele>757.0</ele><time>2026-04-19T09:50:06.95Z</time></trkpt><trkpt lat="38.7911247" lon="16.3830015"><ele>757.0</ele><time>2026-04-19T09:50:07.945Z</time></trkpt><trkpt lat="38.7910185" lon="16.382997"><ele>757.0</ele><time>2026-04-19T09:50:08.939Z</time></trkpt><trkpt lat="38.7909444" lon="16.3829643"><ele>757.0</ele><time>2026-04-19T09:50:09.943Z</time></trkpt><trkpt lat="38.7908938" lon="16.3828932"><ele>757.0</ele><time>2026-04-19T09:50:10.941Z</time></trkpt><trkpt lat="38.7908934" lon="16.3827903"><ele>756.8333333333334</ele><time>2026-04-19T09:50:11.952Z</time></trkpt><trkpt lat="38.7909082" lon="16.3826814"><ele>756.6666666666667</ele><time>2026-04-19T09:50:12.941Z</time></trkpt><trkpt lat="38.7909196" lon="16.3825663"><ele>756.5</ele><time>2026-04-19T09:50:13.945Z</time></trkpt><trkpt lat="38.7909262" lon="16.3824478"><ele>756.3333333333334</ele><time>2026-04-19T09:50:14.937Z</time></trkpt><trkpt lat="38.7909327" lon="16.3823348"><ele>756.1666666666666</ele><time>2026-04-19T09:50:15.938Z</time></trkpt><trkpt lat="38.7909419" lon="16.3822255"><ele>756.0</ele><time>2026-04-19T09:50:16.938Z</time></trkpt><trkpt lat="38.7909451" lon="16.3821258"><ele>758.1428571428571</ele><time>2026-04-19T09:50:17.935Z</time></trkpt><trkpt lat="38.7909393" lon="16.3820392"><ele>760.2857142857142</ele><time>2026-04-19T09:50:18.946Z</time></trkpt><trkpt lat="38.7909248" lon="16.3819521"><ele>762.4285714285714</ele><time>2026-04-19T09:50:19.932Z</time></trkpt><trkpt lat="38.7909099" lon="16.3818595"><ele>764.5714285714286</ele><time>2026-04-19T09:50:20.942Z</time></trkpt><trkpt lat="38.7908947" lon="16.3817719"><ele>766.7142857142857</ele><time>2026-04-19T09:50:21.943Z</time></trkpt><trkpt lat="38.7908674" lon="16.3816829"><ele>768.8571428571429</ele><time>2026-04-19T09:50:22.939Z</time></trkpt><trkpt lat="38.7908423" lon="16.3815956"><ele>771.0</ele><time>2026-04-19T09:50:23.933Z</time></trkpt><trkpt lat="38.7908092" lon="16.3815116"><ele>771.0</ele><time>2026-04-19T09:50:24.933Z</time></trkpt><trkpt lat="38.7907641" lon="16.3814257"><ele>771.0</ele><time>2026-04-19T09:50:25.938Z</time></trkpt><trkpt lat="38.7907025" lon="16.3813384"><ele>771.0</ele><time>2026-04-19T09:50:26.945Z</time></trkpt><trkpt lat="38.7906241" lon="16.3812617"><ele>771.0</ele><time>2026-04-19T09:50:27.941Z</time></trkpt><trkpt lat="38.7905332" lon="16.3811995"><ele>771.0</ele><time>2026-04-19T09:50:28.934Z</time></trkpt><trkpt lat="38.7904309" lon="16.3811707"><ele>774.5</ele><time>2026-04-19T09:50:29.943Z</time></trkpt><trkpt lat="38.7903212" lon="16.3811432"><ele>778.0</ele><time>2026-04-19T09:50:30.941Z</time></trkpt><trkpt lat="38.7902016" lon="16.3811508"><ele>781.5</ele><time>2026-04-19T09:50:31.932Z</time></trkpt><trkpt lat="38.7900857" lon="16.3811401"><ele>785.0</ele><time>2026-04-19T09:50:32.942Z</time></trkpt><trkpt lat="38.7899822" lon="16.3810924"><ele>785.1666666666667</ele><time>2026-04-19T09:50:33.939Z</time></trkpt><trkpt lat="38.7898978" lon="16.3810181"><ele>785.3333333333334</ele><time>2026-04-19T09:50:34.941Z</time></trkpt><trkpt lat="38.7898437" lon="16.3809336"><ele>785.5</ele><time>2026-04-19T09:50:35.943Z</time></trkpt><trkpt lat="38.7898125" lon="16.3808551"><ele>785.6666666666667</ele><time>2026-04-19T09:50:36.938Z</time></trkpt><trkpt lat="38.7897966" lon="16.3807616"><ele>785.8333333333334</ele><time>2026-04-19T09:50:38.95Z</time></trkpt><trkpt lat="38.7897433" lon="16.3807069"><ele>786.0</ele><time>2026-04-19T09:50:42.946Z</time></trkpt><trkpt lat="38.789664" lon="16.380734"><ele>786.0</ele><time>2026-04-19T09:50:45.948Z</time></trkpt><trkpt lat="38.7895864" lon="16.3807725"><ele>786.0</ele><time>2026-04-19T09:50:47.941Z</time></trkpt><trkpt lat="38.7895136" lon="16.3808044"><ele>786.0</ele><time>2026-04-19T09:50:48.947Z</time></trkpt><trkpt lat="38.7894336" lon="16.3808389"><ele>786.0</ele><time>2026-04-19T09:50:49.938Z</time></trkpt><trkpt lat="38.7893452" lon="16.3808559"><ele>786.0</ele><time>2026-04-19T09:50:50.938Z</time></trkpt><trkpt lat="38.789249" lon="16.3808706"><ele>786.0</ele><time>2026-04-19T09:50:51.947Z</time></trkpt><trkpt lat="38.7891479" lon="16.3808871"><ele>786.8</ele><time>2026-04-19T09:50:52.95Z</time></trkpt><trkpt lat="38.7890459" lon="16.3808987"><ele>787.5999999999999</ele><time>2026-04-19T09:50:53.945Z</time></trkpt><trkpt lat="38.7889379" lon="16.3809092"><ele>788.4</ele><time>2026-04-19T09:50:54.945Z</time></trkpt><trkpt lat="38.7888277" lon="16.3809022"><ele>789.2</ele><time>2026-04-19T09:50:55.94Z</time></trkpt><trkpt lat="38.7887294" lon="16.3808864"><ele>790.0</ele><time>2026-04-19T09:50:56.942Z</time></trkpt><trkpt lat="38.7886282" lon="16.3808855"><ele>789.9999999999999</ele><time>2026-04-19T09:50:57.942Z</time></trkpt><trkpt lat="38.7885279" lon="16.380881"><ele>790.0</ele><time>2026-04-19T09:50:58.941Z</time></trkpt><trkpt lat="38.7884367" lon="16.3808736"><ele>790.0</ele><time>2026-04-19T09:50:59.94Z</time></trkpt><trkpt lat="38.7883537" lon="16.3808626"><ele>790.0</ele><time>2026-04-19T09:51:00.941Z</time></trkpt><trkpt lat="38.7882679" lon="16.3808503"><ele>789.9999999999999</ele><time>2026-04-19T09:51:01.937Z</time></trkpt><trkpt lat="38.7881951" lon="16.3808665"><ele>790.0</ele><time>2026-04-19T09:51:02.943Z</time></trkpt><trkpt lat="38.7881236" lon="16.3809094"><ele>788.9999999999999</ele><time>2026-04-19T09:51:03.941Z</time></trkpt><trkpt lat="38.7880565" lon="16.3809716"><ele>788.0</ele><time>2026-04-19T09:51:04.952Z</time></trkpt><trkpt lat="38.7879832" lon="16.3810333"><ele>787.0</ele><time>2026-04-19T09:51:05.947Z</time></trkpt><trkpt lat="38.7879053" lon="16.3810923"><ele>786.0</ele><time>2026-04-19T09:51:06.949Z</time></trkpt><trkpt lat="38.7878317" lon="16.3811491"><ele>784.9999999999999</ele><time>2026-04-19T09:51:07.933Z</time></trkpt><trkpt lat="38.7877694" lon="16.3812126"><ele>784.0</ele><time>2026-04-19T09:51:08.948Z</time></trkpt><trkpt lat="38.7877061" lon="16.3812766"><ele>781.6</ele><time>2026-04-19T09:51:09.949Z</time></trkpt><trkpt lat="38.7876401" lon="16.3813171"><ele>779.2</ele><time>2026-04-19T09:51:10.94Z</time></trkpt><trkpt lat="38.7875664" lon="16.3813041"><ele>776.8000000000001</ele><time>2026-04-19T09:51:11.942Z</time></trkpt><trkpt lat="38.787481" lon="16.3812688"><ele>774.4000000000001</ele><time>2026-04-19T09:51:12.943Z</time></trkpt><trkpt lat="38.7873845" lon="16.3812332"><ele>772.0</ele><time>2026-04-19T09:51:13.937Z</time></trkpt><trkpt lat="38.7872722" lon="16.381233"><ele>772.0</ele><time>2026-04-19T09:51:14.944Z</time></trkpt><trkpt lat="38.7871676" lon="16.3812277"><ele>772.0</ele><time>2026-04-19T09:51:15.944Z</time></trkpt><trkpt lat="38.78707" lon="16.3812433"><ele>772.0</ele><time>2026-04-19T09:51:16.939Z</time></trkpt><trkpt lat="38.7869906" lon="16.3812785"><ele>772.0</ele><time>2026-04-19T09:51:17.94Z</time></trkpt><trkpt lat="38.786914" lon="16.3813131"><ele>772.0</ele><time>2026-04-19T09:51:18.951Z</time></trkpt><trkpt lat="38.7868609" lon="16.3814069"><ele>769.4000000000001</ele><time>2026-04-19T09:51:19.945Z</time></trkpt><trkpt lat="38.7868286" lon="16.3815166"><ele>766.8000000000001</ele><time>2026-04-19T09:51:20.936Z</time></trkpt><trkpt lat="38.7868092" lon="16.3816401"><ele>764.2</ele><time>2026-04-19T09:51:21.939Z</time></trkpt><trkpt lat="38.7868" lon="16.3817633"><ele>761.6</ele><time>2026-04-19T09:51:22.938Z</time></trkpt><trkpt lat="38.7867891" lon="16.381879"><ele>759.0</ele><time>2026-04-19T09:51:23.946Z</time></trkpt><trkpt lat="38.7867446" lon="16.3819831"><ele>759.0</ele><time>2026-04-19T09:51:24.939Z</time></trkpt><trkpt lat="38.7866868" lon="16.3820781"><ele>759.0</ele><time>2026-04-19T09:51:25.937Z</time></trkpt><trkpt lat="38.7866274" lon="16.3821822"><ele>759.0</ele><time>2026-04-19T09:51:26.94Z</time></trkpt><trkpt lat="38.7865735" lon="16.3822795"><ele>759.0</ele><time>2026-04-19T09:51:27.942Z</time></trkpt><trkpt lat="38.7865333" lon="16.382376"><ele>759.0</ele><time>2026-04-19T09:51:28.942Z</time></trkpt><trkpt lat="38.7865044" lon="16.382507"><ele>756.6</ele><time>2026-04-19T09:51:29.942Z</time></trkpt><trkpt lat="38.786498" lon="16.3826352"><ele>754.2</ele><time>2026-04-19T09:51:30.949Z</time></trkpt><trkpt lat="38.7864694" lon="16.3827548"><ele>751.8000000000001</ele><time>2026-04-19T09:51:31.939Z</time></trkpt><trkpt lat="38.7864189" lon="16.3828583"><ele>749.4000000000001</ele><time>2026-04-19T09:51:32.943Z</time></trkpt><trkpt lat="38.786348" lon="16.3829635"><ele>747.0</ele><time>2026-04-19T09:51:33.943Z</time></trkpt><trkpt lat="38.7862705" lon="16.3830579"><ele>745.0</ele><time>2026-04-19T09:51:34.95Z</time></trkpt><trkpt lat="38.7862114" lon="16.3831624"><ele>743.0</ele><time>2026-04-19T09:51:35.944Z</time></trkpt><trkpt lat="38.7861624" lon="16.3832661"><ele>741.0</ele><time>2026-04-19T09:51:36.946Z</time></trkpt><trkpt lat="38.7861138" lon="16.3833582"><ele>739.0</ele><time>2026-04-19T09:51:37.946Z</time></trkpt><trkpt lat="38.7860339" lon="16.3834352"><ele>737.0</ele><time>2026-04-19T09:51:38.934Z</time></trkpt><trkpt lat="38.7859286" lon="16.3834863"><ele>736.6666666666666</ele><time>2026-04-19T09:51:39.943Z</time></trkpt><trkpt lat="38.7858363" lon="16.3835342"><ele>736.3333333333333</ele><time>2026-04-19T09:51:40.945Z</time></trkpt><trkpt lat="38.7857484" lon="16.3835802"><ele>736.0</ele><time>2026-04-19T09:51:41.942Z</time></trkpt><trkpt lat="38.7856677" lon="16.3836187"><ele>735.6666666666666</ele><time>2026-04-19T09:51:42.933Z</time></trkpt><trkpt lat="38.7855972" lon="16.3836689"><ele>735.3333333333334</ele><time>2026-04-19T09:51:43.941Z</time></trkpt><trkpt lat="38.785537" lon="16.3837449"><ele>735.0</ele><time>2026-04-19T09:51:44.937Z</time></trkpt><trkpt lat="38.7854861" lon="16.383832"><ele>733.2</ele><time>2026-04-19T09:51:45.93Z</time></trkpt><trkpt lat="38.7854378" lon="16.3839419"><ele>731.4</ele><time>2026-04-19T09:51:46.948Z</time></trkpt><trkpt lat="38.7853795" lon="16.3840386"><ele>729.5999999999999</ele><time>2026-04-19T09:51:47.939Z</time></trkpt><trkpt lat="38.7853215" lon="16.3841214"><ele>727.8</ele><time>2026-04-19T09:51:48.937Z</time></trkpt><trkpt lat="38.7852761" lon="16.3842007"><ele>726.0</ele><time>2026-04-19T09:51:49.942Z</time></trkpt><trkpt lat="38.7852176" lon="16.384323"><ele>725.0</ele><time>2026-04-19T09:51:51.943Z</time></trkpt><trkpt lat="38.7851767" lon="16.3844529"><ele>724.0</ele><time>2026-04-19T09:51:53.944Z</time></trkpt><trkpt lat="38.7851408" lon="16.3845901"><ele>723.0</ele><time>2026-04-19T09:51:55.943Z</time></trkpt><trkpt lat="38.7850898" lon="16.3847184"><ele>722.0</ele><time>2026-04-19T09:51:57.94Z</time></trkpt><trkpt lat="38.7850444" lon="16.3847768"><ele>721.0</ele><time>2026-04-19T09:51:58.945Z</time></trkpt><trkpt lat="38.7849823" lon="16.384835"><ele>719.8</ele><time>2026-04-19T09:51:59.949Z</time></trkpt><trkpt lat="38.7849145" lon="16.3849065"><ele>718.5999999999999</ele><time>2026-04-19T09:52:00.932Z</time></trkpt><trkpt lat="38.7848427" lon="16.384989"><ele>717.4</ele><time>2026-04-19T09:52:01.947Z</time></trkpt><trkpt lat="38.7847748" lon="16.3850809"><ele>716.2</ele><time>2026-04-19T09:52:02.945Z</time></trkpt><trkpt lat="38.7847406" lon="16.3851945"><ele>715.0</ele><time>2026-04-19T09:52:03.94Z</time></trkpt><trkpt lat="38.7847107" lon="16.3853129"><ele>715.0</ele><time>2026-04-19T09:52:04.948Z</time></trkpt><trkpt lat="38.784679" lon="16.3854224"><ele>715.0</ele><time>2026-04-19T09:52:05.94Z</time></trkpt><trkpt lat="38.7846339" lon="16.3854964"><ele>715.0</ele><time>2026-04-19T09:52:06.941Z</time></trkpt><trkpt lat="38.7845894" lon="16.3855682"><ele>715.0</ele><time>2026-04-19T09:52:07.942Z</time></trkpt><trkpt lat="38.7845267" lon="16.3855823"><ele>715.0</ele><time>2026-04-19T09:52:08.942Z</time></trkpt><trkpt lat="38.7844223" lon="16.3855263"><ele>715.0</ele><time>2026-04-19T09:52:10.945Z</time></trkpt><trkpt lat="38.784362" lon="16.3854861"><ele>714.4</ele><time>2026-04-19T09:52:12.936Z</time></trkpt><trkpt lat="38.7842877" lon="16.3854494"><ele>713.8</ele><time>2026-04-19T09:52:14.944Z</time></trkpt><trkpt lat="38.7841599" lon="16.3854223"><ele>713.2</ele><time>2026-04-19T09:52:16.943Z</time></trkpt><trkpt lat="38.7840797" lon="16.38541"><ele>712.6</ele><time>2026-04-19T09:52:17.938Z</time></trkpt><trkpt lat="38.7840104" lon="16.3854193"><ele>712.0</ele><time>2026-04-19T09:52:18.937Z</time></trkpt><trkpt lat="38.7839048" lon="16.3855325"><ele>710.8333333333334</ele><time>2026-04-19T09:52:20.938Z</time></trkpt><trkpt lat="38.7838529" lon="16.3855997"><ele>709.6666666666667</ele><time>2026-04-19T09:52:21.937Z</time></trkpt><trkpt lat="38.783788" lon="16.3856751"><ele>708.5</ele><time>2026-04-19T09:52:22.94Z</time></trkpt><trkpt lat="38.7837185" lon="16.3857293"><ele>707.3333333333334</ele><time>2026-04-19T09:52:23.939Z</time></trkpt><trkpt lat="38.7836456" lon="16.385783"><ele>706.1666666666666</ele><time>2026-04-19T09:52:24.951Z</time></trkpt><trkpt lat="38.7835633" lon="16.3858296"><ele>705.0</ele><time>2026-04-19T09:52:25.953Z</time></trkpt><trkpt lat="38.7834558" lon="16.3858836"><ele>704.5</ele><time>2026-04-19T09:52:26.933Z</time></trkpt><trkpt lat="38.7833509" lon="16.3859253"><ele>704.0</ele><time>2026-04-19T09:52:27.933Z</time></trkpt><trkpt lat="38.7832579" lon="16.385958"><ele>703.5</ele><time>2026-04-19T09:52:28.941Z</time></trkpt><trkpt lat="38.7831658" lon="16.3859768"><ele>703.0</ele><time>2026-04-19T09:52:29.937Z</time></trkpt><trkpt lat="38.7830895" lon="16.3860035"><ele>702.5</ele><time>2026-04-19T09:52:30.945Z</time></trkpt><trkpt lat="38.7830219" lon="16.3860259"><ele>702.0</ele><time>2026-04-19T09:52:31.932Z</time></trkpt><trkpt lat="38.7829634" lon="16.3860572"><ele>702.0</ele><time>2026-04-19T09:52:32.943Z</time></trkpt><trkpt lat="38.7828812" lon="16.3861104"><ele>702.0</ele><time>2026-04-19T09:52:34.957Z</time></trkpt><trkpt lat="38.7828318" lon="16.386162"><ele>702.0</ele><time>2026-04-19T09:52:38.943Z</time></trkpt><trkpt lat="38.7827735" lon="16.3863032"><ele>702.0</ele><time>2026-04-19T09:54:08.946Z</time></trkpt><trkpt lat="38.7827406" lon="16.3863973"><ele>702.0</ele><time>2026-04-19T09:54:15.952Z</time></trkpt><trkpt lat="38.7827019" lon="16.3865209"><ele>702.0000000000001</ele><time>2026-04-19T09:54:18.94Z</time></trkpt><trkpt lat="38.7826932" lon="16.3866109"><ele>702.0</ele><time>2026-04-19T09:54:19.944Z</time></trkpt><trkpt lat="38.7826837" lon="16.3866965"><ele>702.0</ele><time>2026-04-19T09:54:20.94Z</time></trkpt><trkpt lat="38.7826615" lon="16.3867727"><ele>702.0</ele><time>2026-04-19T09:54:21.942Z</time></trkpt><trkpt lat="38.7825849" lon="16.3868678"><ele>702.0</ele><time>2026-04-19T09:54:23.939Z</time></trkpt><trkpt lat="38.7825191" lon="16.3868982"><ele>702.0000000000001</ele><time>2026-04-19T09:54:24.936Z</time></trkpt><trkpt lat="38.7824548" lon="16.3868929"><ele>702.0</ele><time>2026-04-19T09:54:25.939Z</time></trkpt><trkpt lat="38.7823779" lon="16.3868939"><ele>702.0</ele><time>2026-04-19T09:54:26.944Z</time></trkpt><trkpt lat="38.7822842" lon="16.3869085"><ele>702.0</ele><time>2026-04-19T09:54:27.943Z</time></trkpt><trkpt lat="38.7821764" lon="16.3869033"><ele>702.0</ele><time>2026-04-19T09:54:28.932Z</time></trkpt><trkpt lat="38.782067" lon="16.3868912"><ele>702.0</ele><time>2026-04-19T09:54:29.936Z</time></trkpt><trkpt lat="38.7819789" lon="16.3868619"><ele>702.0</ele><time>2026-04-19T09:54:30.939Z</time></trkpt><trkpt lat="38.7819126" lon="16.3868395"><ele>701.6666666666666</ele><time>2026-04-19T09:54:31.932Z</time></trkpt><trkpt lat="38.7818275" lon="16.3867898"><ele>701.3333333333334</ele><time>2026-04-19T09:54:46.947Z</time></trkpt><trkpt lat="38.7817403" lon="16.3868287"><ele>701.0</ele><time>2026-04-19T09:54:49.944Z</time></trkpt><trkpt lat="38.7817159" lon="16.3869269"><ele>700.6666666666667</ele><time>2026-04-19T09:54:52.947Z</time></trkpt><trkpt lat="38.7816831" lon="16.3870174"><ele>700.3333333333334</ele><time>2026-04-19T09:54:54.937Z</time></trkpt><trkpt lat="38.7816451" lon="16.3870903"><ele>700.0</ele><time>2026-04-19T09:54:56.941Z</time></trkpt><trkpt lat="38.7816111" lon="16.3871955"><ele>700.0</ele><time>2026-04-19T09:54:59.948Z</time></trkpt><trkpt lat="38.78157" lon="16.3873285"><ele>700.0</ele><time>2026-04-19T09:55:01.938Z</time></trkpt><trkpt lat="38.7815427" lon="16.3874286"><ele>700.0</ele><time>2026-04-19T09:55:02.938Z</time></trkpt><trkpt lat="38.7815175" lon="16.3875241"><ele>700.0</ele><time>2026-04-19T09:55:03.937Z</time></trkpt><trkpt lat="38.781504" lon="16.3876142"><ele>700.0</ele><time>2026-04-19T09:55:04.932Z</time></trkpt><trkpt lat="38.7815035" lon="16.3877739"><ele>700.0</ele><time>2026-04-19T09:55:06.948Z</time></trkpt><trkpt lat="38.7815082" lon="16.3879004"><ele>700.0</ele><time>2026-04-19T09:55:08.933Z</time></trkpt><trkpt lat="38.7815224" lon="16.3880166"><ele>700.0</ele><time>2026-04-19T09:55:10.945Z</time></trkpt><trkpt lat="38.7815511" lon="16.3881499"><ele>700.0</ele><time>2026-04-19T09:55:12.942Z</time></trkpt><trkpt lat="38.7815932" lon="16.388288"><ele>700.0</ele><time>2026-04-19T09:55:14.939Z</time></trkpt><trkpt lat="38.7816137" lon="16.3883653"><ele>699.6</ele><time>2026-04-19T09:55:15.938Z</time></trkpt><trkpt lat="38.7816393" lon="16.3884915"><ele>699.2</ele><time>2026-04-19T09:55:17.942Z</time></trkpt><trkpt lat="38.7816301" lon="16.3886337"><ele>698.8</ele><time>2026-04-19T09:55:19.939Z</time></trkpt><trkpt lat="38.7816159" lon="16.3887665"><ele>698.4</ele><time>2026-04-19T09:55:21.948Z</time></trkpt><trkpt lat="38.7816029" lon="16.3888599"><ele>698.0</ele><time>2026-04-19T09:55:23.942Z</time></trkpt><trkpt lat="38.7815899" lon="16.3889485"><ele>698.0</ele><time>2026-04-19T09:55:25.936Z</time></trkpt><trkpt lat="38.7815907" lon="16.3890527"><ele>698.0</ele><time>2026-04-19T09:55:28.942Z</time></trkpt><trkpt lat="38.7815777" lon="16.3891379"><ele>698.0</ele><time>2026-04-19T09:55:40.953Z</time></trkpt><trkpt lat="38.7816012" lon="16.3892774"><ele>698.0</ele><time>2026-04-19T09:55:43.937Z</time></trkpt><trkpt lat="38.781602" lon="16.3893894"><ele>698.0</ele><time>2026-04-19T09:55:45.946Z</time></trkpt><trkpt lat="38.7815322" lon="16.38943"><ele>698.0</ele><time>2026-04-19T09:55:47.945Z</time></trkpt><trkpt lat="38.7814232" lon="16.389534"><ele>697.9999999999999</ele><time>2026-04-19T09:55:49.946Z</time></trkpt><trkpt lat="38.7813533" lon="16.3896061"><ele>698.0</ele><time>2026-04-19T09:55:50.94Z</time></trkpt><trkpt lat="38.7812945" lon="16.3896546"><ele>698.0</ele><time>2026-04-19T09:55:51.934Z</time></trkpt><trkpt lat="38.7812243" lon="16.3896769"><ele>698.0</ele><time>2026-04-19T09:55:52.939Z</time></trkpt><trkpt lat="38.7811447" lon="16.3896646"><ele>698.0</ele><time>2026-04-19T09:55:54.944Z</time></trkpt><trkpt lat="38.7810837" lon="16.3896355"><ele>697.9999999999999</ele><time>2026-04-19T09:56:00.947Z</time></trkpt><trkpt lat="38.781022" lon="16.3896052"><ele>698.0</ele><time>2026-04-19T09:56:04.945Z</time></trkpt><trkpt lat="38.7809505" lon="16.3895849"><ele>698.6666666666666</ele><time>2026-04-19T09:56:06.934Z</time></trkpt><trkpt lat="38.7808781" lon="16.3895618"><ele>699.3333333333333</ele><time>2026-04-19T09:56:09.936Z</time></trkpt><trkpt lat="38.7808115" lon="16.3895002"><ele>700.0</ele><time>2026-04-19T09:56:12.935Z</time></trkpt><trkpt lat="38.7807785" lon="16.3894268"><ele>700.6666666666666</ele><time>2026-04-19T09:56:15.937Z</time></trkpt><trkpt lat="38.7807278" lon="16.3893072"><ele>701.3333333333334</ele><time>2026-04-19T09:56:18.948Z</time></trkpt><trkpt lat="38.7806655" lon="16.3892036"><ele>702.0</ele><time>2026-04-19T09:56:20.933Z</time></trkpt><trkpt lat="38.7805973" lon="16.3891048"><ele>702.0</ele><time>2026-04-19T09:56:22.933Z</time></trkpt><trkpt lat="38.7805353" lon="16.3890148"><ele>702.0</ele><time>2026-04-19T09:56:24.949Z</time></trkpt><trkpt lat="38.7804751" lon="16.3889552"><ele>702.0</ele><time>2026-04-19T09:56:28.946Z</time></trkpt><trkpt lat="38.7804063" lon="16.388981"><ele>702.0</ele><time>2026-04-19T09:56:32.936Z</time></trkpt><trkpt lat="38.780357" lon="16.3889142"><ele>702.0</ele><time>2026-04-19T09:56:36.942Z</time></trkpt><trkpt lat="38.7802966" lon="16.3888726"><ele>702.0</ele><time>2026-04-19T09:56:39.947Z</time></trkpt><trkpt lat="38.7802016" lon="16.3887912"><ele>701.6</ele><time>2026-04-19T09:56:41.94Z</time></trkpt><trkpt lat="38.7801353" lon="16.3887258"><ele>701.2</ele><time>2026-04-19T09:56:42.944Z</time></trkpt><trkpt lat="38.7800786" lon="16.3886788"><ele>700.8</ele><time>2026-04-19T09:56:43.942Z</time></trkpt><trkpt lat="38.7799666" lon="16.3886383"><ele>700.4</ele><time>2026-04-19T09:56:45.944Z</time></trkpt><trkpt lat="38.7798663" lon="16.3885974"><ele>700.0</ele><time>2026-04-19T09:56:47.937Z</time></trkpt><trkpt lat="38.7797526" lon="16.3885789"><ele>700.0</ele><time>2026-04-19T09:56:49.935Z</time></trkpt><trkpt lat="38.7796356" lon="16.3885722"><ele>700.0</ele><time>2026-04-19T09:56:51.934Z</time></trkpt><trkpt lat="38.7795155" lon="16.3885939"><ele>700.0</ele><time>2026-04-19T09:56:53.935Z</time></trkpt><trkpt lat="38.7794343" lon="16.388584"><ele>700.0</ele><time>2026-04-19T09:56:55.94Z</time></trkpt><trkpt lat="38.7793578" lon="16.3885534"><ele>700.0</ele><time>2026-04-19T09:56:57.942Z</time></trkpt><trkpt lat="38.7792852" lon="16.3885102"><ele>701.3333333333334</ele><time>2026-04-19T09:57:01.944Z</time></trkpt><trkpt lat="38.7792072" lon="16.3884471"><ele>702.6666666666667</ele><time>2026-04-19T09:57:08.943Z</time></trkpt><trkpt lat="38.7791445" lon="16.3883965"><ele>704.0</ele><time>2026-04-19T09:57:11.934Z</time></trkpt><trkpt lat="38.7790707" lon="16.3883601"><ele>705.3333333333334</ele><time>2026-04-19T09:57:14.947Z</time></trkpt><trkpt lat="38.7790081" lon="16.3882832"><ele>706.6666666666666</ele><time>2026-04-19T09:57:18.936Z</time></trkpt><trkpt lat="38.7789249" lon="16.3881769"><ele>708.0</ele><time>2026-04-19T09:57:36.947Z</time></trkpt><trkpt lat="38.7788686" lon="16.3880935"><ele>708.0</ele><time>2026-04-19T09:58:02.953Z</time></trkpt><trkpt lat="38.7788085" lon="16.3880517"><ele>708.0</ele><time>2026-04-19T09:58:05.938Z</time></trkpt><trkpt lat="38.7787683" lon="16.3879827"><ele>708.0</ele><time>2026-04-19T09:58:08.941Z</time></trkpt><trkpt lat="38.7786986" lon="16.3879516"><ele>708.0</ele><time>2026-04-19T09:58:12.941Z</time></trkpt><trkpt lat="38.7786464" lon="16.3878762"><ele>708.0</ele><time>2026-04-19T09:58:16.945Z</time></trkpt><trkpt lat="38.7786568" lon="16.3877686"><ele>708.0</ele><time>2026-04-19T09:58:19.938Z</time></trkpt><trkpt lat="38.7786386" lon="16.3876745"><ele>708.0</ele><time>2026-04-19T09:58:23.955Z</time></trkpt><trkpt lat="38.7785903" lon="16.3875818"><ele>708.1428571428572</ele><time>2026-04-19T09:58:26.953Z</time></trkpt><trkpt lat="38.7785544" lon="16.3875146"><ele>708.2857142857142</ele><time>2026-04-19T09:58:28.943Z</time></trkpt><trkpt lat="38.7785108" lon="16.3874398"><ele>708.4285714285714</ele><time>2026-04-19T09:58:39.945Z</time></trkpt><trkpt lat="38.7784895" lon="16.387361"><ele>708.5714285714287</ele><time>2026-04-19T09:58:42.941Z</time></trkpt><trkpt lat="38.7785427" lon="16.3874314"><ele>708.7142857142858</ele><time>2026-04-19T09:59:44.948Z</time></trkpt><trkpt lat="38.7785628" lon="16.3875144"><ele>708.8571428571429</ele><time>2026-04-19T10:00:02.947Z</time></trkpt><trkpt lat="38.7785998" lon="16.3875985"><ele>709.0</ele><time>2026-04-19T10:00:05.953Z</time></trkpt><trkpt lat="38.7786088" lon="16.3877202"><ele>708.8333333333334</ele><time>2026-04-19T10:00:08.947Z</time></trkpt><trkpt lat="38.7786392" lon="16.3878529"><ele>708.6666666666667</ele><time>2026-04-19T10:00:10.938Z</time></trkpt><trkpt lat="38.7786788" lon="16.387941"><ele>708.5</ele><time>2026-04-19T10:00:18.937Z</time></trkpt><trkpt lat="38.7787306" lon="16.3880129"><ele>708.3333333333334</ele><time>2026-04-19T10:00:21.945Z</time></trkpt><trkpt lat="38.7787676" lon="16.3880814"><ele>708.1666666666666</ele><time>2026-04-19T10:00:46.942Z</time></trkpt><trkpt lat="38.778696" lon="16.3880378"><ele>708.0</ele><time>2026-04-19T10:01:05.939Z</time></trkpt><trkpt lat="38.778652" lon="16.3879271"><ele>708.1666666666666</ele><time>2026-04-19T10:02:06.953Z</time></trkpt><trkpt lat="38.7786593" lon="16.3878338"><ele>708.3333333333334</ele><time>2026-04-19T10:02:10.938Z</time></trkpt><trkpt lat="38.7786341" lon="16.3877164"><ele>708.5</ele><time>2026-04-19T10:02:45.948Z</time></trkpt><trkpt lat="38.7786116" lon="16.3875932"><ele>708.6666666666667</ele><time>2026-04-19T10:03:48.95Z</time></trkpt><trkpt lat="38.7785671" lon="16.3875264"><ele>708.8333333333334</ele><time>2026-04-19T10:03:56.96Z</time></trkpt><trkpt lat="38.7785171" lon="16.387447"><ele>709.0</ele><time>2026-04-19T10:03:59.945Z</time></trkpt><trkpt lat="38.778453" lon="16.3873637"><ele>709.0</ele><time>2026-04-19T10:04:01.938Z</time></trkpt><trkpt lat="38.7783912" lon="16.38729"><ele>709.0</ele><time>2026-04-19T10:04:03.949Z</time></trkpt><trkpt lat="38.7783389" lon="16.3872249"><ele>709.0</ele><time>2026-04-19T10:04:05.941Z</time></trkpt><trkpt lat="38.7782897" lon="16.3871687"><ele>709.0</ele><time>2026-04-19T10:04:06.941Z</time></trkpt><trkpt lat="38.7781873" lon="16.3871527"><ele>709.0</ele><time>2026-04-19T10:04:08.941Z</time></trkpt><trkpt lat="38.7780961" lon="16.3871443"><ele>709.0</ele><time>2026-04-19T10:04:10.941Z</time></trkpt><trkpt lat="38.7780577" lon="16.3870744"><ele>710.0</ele><time>2026-04-19T10:04:16.944Z</time></trkpt><trkpt lat="38.7780011" lon="16.3870295"><ele>711.0</ele><time>2026-04-19T10:04:23.947Z</time></trkpt><trkpt lat="38.7779389" lon="16.3869863"><ele>712.0</ele><time>2026-04-19T10:04:26.946Z</time></trkpt><trkpt lat="38.7778653" lon="16.3869706"><ele>713.0</ele><time>2026-04-19T10:04:28.949Z</time></trkpt><trkpt lat="38.7778059" lon="16.386938"><ele>714.0</ele><time>2026-04-19T10:04:32.951Z</time></trkpt><trkpt lat="38.7777244" lon="16.3868429"><ele>715.0</ele><time>2026-04-19T10:04:42.948Z</time></trkpt><trkpt lat="38.7776851" lon="16.3867749"><ele>715.0</ele><time>2026-04-19T10:04:46.957Z</time></trkpt><trkpt lat="38.777662" lon="16.386675"><ele>715.0</ele><time>2026-04-19T10:04:57.944Z</time></trkpt><trkpt lat="38.7776634" lon="16.3865796"><ele>715.0</ele><time>2026-04-19T10:05:00.947Z</time></trkpt><trkpt lat="38.7776562" lon="16.3864835"><ele>715.0</ele><time>2026-04-19T10:05:03.94Z</time></trkpt><trkpt lat="38.7776319" lon="16.3863978"><ele>715.0</ele><time>2026-04-19T10:05:05.94Z</time></trkpt><trkpt lat="38.7775681" lon="16.3863265"><ele>715.0</ele><time>2026-04-19T10:05:07.949Z</time></trkpt><trkpt lat="38.7774965" lon="16.3863164"><ele>713.6666666666667</ele><time>2026-04-19T10:05:10.934Z</time></trkpt><trkpt lat="38.7774209" lon="16.3862576"><ele>712.3333333333334</ele><time>2026-04-19T10:05:14.935Z</time></trkpt><trkpt lat="38.7773743" lon="16.3861998"><ele>711.0</ele><time>2026-04-19T10:05:16.947Z</time></trkpt><trkpt lat="38.7773274" lon="16.3861228"><ele>709.6666666666666</ele><time>2026-04-19T10:05:19.937Z</time></trkpt><trkpt lat="38.7772849" lon="16.386031"><ele>708.3333333333333</ele><time>2026-04-19T10:05:22.94Z</time></trkpt><trkpt lat="38.7772413" lon="16.3859486"><ele>707.0</ele><time>2026-04-19T10:05:24.938Z</time></trkpt><trkpt lat="38.7771986" lon="16.3858622"><ele>707.0</ele><time>2026-04-19T10:05:26.937Z</time></trkpt><trkpt lat="38.7771366" lon="16.3857854"><ele>707.0</ele><time>2026-04-19T10:05:28.938Z</time></trkpt><trkpt lat="38.7770732" lon="16.3857156"><ele>707.0</ele><time>2026-04-19T10:05:30.94Z</time></trkpt><trkpt lat="38.77702" lon="16.3856269"><ele>707.0</ele><time>2026-04-19T10:05:36.949Z</time></trkpt><trkpt lat="38.7769788" lon="16.3855095"><ele>707.0</ele><time>2026-04-19T10:05:40.938Z</time></trkpt><trkpt lat="38.7769395" lon="16.3854182"><ele>707.0</ele><time>2026-04-19T10:05:42.941Z</time></trkpt><trkpt lat="38.7769212" lon="16.3853222"><ele>707.6666666666666</ele><time>2026-04-19T10:05:44.944Z</time></trkpt><trkpt lat="38.7768823" lon="16.3852064"><ele>708.3333333333333</ele><time>2026-04-19T10:05:48.943Z</time></trkpt><trkpt lat="38.7768322" lon="16.3851187"><ele>709.0</ele><time>2026-04-19T10:05:50.942Z</time></trkpt><trkpt lat="38.7767833" lon="16.3850486"><ele>709.6666666666666</ele><time>2026-04-19T10:05:52.938Z</time></trkpt><trkpt lat="38.7766902" lon="16.3850017"><ele>710.3333333333334</ele><time>2026-04-19T10:05:55.945Z</time></trkpt><trkpt lat="38.7766084" lon="16.3849758"><ele>711.0</ele><time>2026-04-19T10:05:57.945Z</time></trkpt><trkpt lat="38.7765301" lon="16.3849067"><ele>711.0</ele><time>2026-04-19T10:05:59.951Z</time></trkpt><trkpt lat="38.776459" lon="16.3848736"><ele>711.0</ele><time>2026-04-19T10:06:02.949Z</time></trkpt><trkpt lat="38.776382" lon="16.384851"><ele>711.0</ele><time>2026-04-19T10:06:05.945Z</time></trkpt><trkpt lat="38.7763039" lon="16.3847937"><ele>711.0</ele><time>2026-04-19T10:06:07.948Z</time></trkpt><trkpt lat="38.776229" lon="16.3847696"><ele>711.0</ele><time>2026-04-19T10:06:09.94Z</time></trkpt><trkpt lat="38.7761723" lon="16.3847143"><ele>711.0</ele><time>2026-04-19T10:06:14.944Z</time></trkpt><trkpt lat="38.7761126" lon="16.3846774"><ele>711.0</ele><time>2026-04-19T10:06:17.941Z</time></trkpt><trkpt lat="38.7760323" lon="16.3846369"><ele>711.0</ele><time>2026-04-19T10:06:20.937Z</time></trkpt><trkpt lat="38.7759437" lon="16.3845518"><ele>711.0</ele><time>2026-04-19T10:06:33.95Z</time></trkpt><trkpt lat="38.7758803" lon="16.3844737"><ele>711.0</ele><time>2026-04-19T10:06:42.943Z</time></trkpt><trkpt lat="38.77582" lon="16.3844264"><ele>711.0</ele><time>2026-04-19T10:06:45.96Z</time></trkpt><trkpt lat="38.7757433" lon="16.3844392"><ele>711.0</ele><time>2026-04-19T10:06:48.942Z</time></trkpt><trkpt lat="38.7756652" lon="16.3844211"><ele>711.0</ele><time>2026-04-19T10:06:51.943Z</time></trkpt><trkpt lat="38.7756007" lon="16.3844514"><ele>711.0</ele><time>2026-04-19T10:06:53.946Z</time></trkpt><trkpt lat="38.7755165" lon="16.3845474"><ele>711.0</ele><time>2026-04-19T10:06:55.943Z</time></trkpt><trkpt lat="38.77545" lon="16.3845922"><ele>711.0</ele><time>2026-04-19T10:06:58.953Z</time></trkpt><trkpt lat="38.7753776" lon="16.3846413"><ele>711.0</ele><time>2026-04-19T10:07:01.947Z</time></trkpt><trkpt lat="38.7753077" lon="16.3846742"><ele>711.0</ele><time>2026-04-19T10:07:06.94Z</time></trkpt><trkpt lat="38.7752345" lon="16.3847038"><ele>712.8333333333334</ele><time>2026-04-19T10:07:09.939Z</time></trkpt><trkpt lat="38.7751518" lon="16.3846974"><ele>714.6666666666666</ele><time>2026-04-19T10:07:13.938Z</time></trkpt><trkpt lat="38.7750476" lon="16.3847441"><ele>716.5</ele><time>2026-04-19T10:07:20.95Z</time></trkpt><trkpt lat="38.7749876" lon="16.3847713"><ele>718.3333333333333</ele><time>2026-04-19T10:07:22.942Z</time></trkpt><trkpt lat="38.7748624" lon="16.3847572"><ele>720.1666666666666</ele><time>2026-04-19T10:07:25.942Z</time></trkpt><trkpt lat="38.7748003" lon="16.3847836"><ele>722.0</ele><time>2026-04-19T10:07:27.943Z</time></trkpt><trkpt lat="38.774728" lon="16.3847235"><ele>722.0</ele><time>2026-04-19T10:07:29.943Z</time></trkpt><trkpt lat="38.7746541" lon="16.3846648"><ele>722.0</ele><time>2026-04-19T10:07:31.944Z</time></trkpt><trkpt lat="38.7745814" lon="16.384684"><ele>722.0</ele><time>2026-04-19T10:07:33.939Z</time></trkpt><trkpt lat="38.774501" lon="16.3847047"><ele>722.0</ele><time>2026-04-19T10:07:35.939Z</time></trkpt><trkpt lat="38.7744257" lon="16.384702"><ele>722.0</ele><time>2026-04-19T10:07:37.932Z</time></trkpt><trkpt lat="38.7744035" lon="16.384624"><ele>722.0</ele><time>2026-04-19T10:07:43.94Z</time></trkpt><trkpt lat="38.7743915" lon="16.3845203"><ele>721.8</ele><time>2026-04-19T10:07:47.932Z</time></trkpt><trkpt lat="38.7743467" lon="16.3844564"><ele>721.6</ele><time>2026-04-19T10:07:50.945Z</time></trkpt><trkpt lat="38.7742623" lon="16.3844945"><ele>721.4</ele><time>2026-04-19T10:07:53.945Z</time></trkpt><trkpt lat="38.7741389" lon="16.3844666"><ele>721.1999999999999</ele><time>2026-04-19T10:08:02.958Z</time></trkpt><trkpt lat="38.7740634" lon="16.3844776"><ele>721.0</ele><time>2026-04-19T10:08:06.947Z</time></trkpt><trkpt lat="38.7739694" lon="16.3844688"><ele>721.0</ele><time>2026-04-19T10:08:10.944Z</time></trkpt><trkpt lat="38.7738987" lon="16.3844904"><ele>721.0</ele><time>2026-04-19T10:08:12.947Z</time></trkpt><trkpt lat="38.7738346" lon="16.384502"><ele>721.0</ele><time>2026-04-19T10:08:15.938Z</time></trkpt><trkpt lat="38.7737571" lon="16.3845165"><ele>721.0</ele><time>2026-04-19T10:08:19.941Z</time></trkpt><trkpt lat="38.7736862" lon="16.3845339"><ele>721.0</ele><time>2026-04-19T10:08:22.942Z</time></trkpt><trkpt lat="38.7736186" lon="16.3845057"><ele>721.0</ele><time>2026-04-19T10:08:29.941Z</time></trkpt><trkpt lat="38.7735181" lon="16.3845069"><ele>721.5</ele><time>2026-04-19T10:08:38.948Z</time></trkpt><trkpt lat="38.773473" lon="16.384602"><ele>722.0</ele><time>2026-04-19T10:08:57.94Z</time></trkpt><trkpt lat="38.7734037" lon="16.3845995"><ele>722.5</ele><time>2026-04-19T10:09:01.932Z</time></trkpt><trkpt lat="38.7733162" lon="16.3845739"><ele>723.0</ele><time>2026-04-19T10:09:04.947Z</time></trkpt><trkpt lat="38.7732505" lon="16.3845742"><ele>723.5</ele><time>2026-04-19T10:09:06.941Z</time></trkpt><trkpt lat="38.7731854" lon="16.3845749"><ele>724.0</ele><time>2026-04-19T10:09:08.938Z</time></trkpt><trkpt lat="38.7731023" lon="16.3845753"><ele>724.0</ele><time>2026-04-19T10:09:24.944Z</time></trkpt><trkpt lat="38.773024" lon="16.384613"><ele>724.0</ele><time>2026-04-19T10:09:27.946Z</time></trkpt><trkpt lat="38.7729418" lon="16.3846676"><ele>724.0</ele><time>2026-04-19T10:09:29.946Z</time></trkpt><trkpt lat="38.7728808" lon="16.3846953"><ele>724.0</ele><time>2026-04-19T10:09:30.94Z</time></trkpt><trkpt lat="38.7727848" lon="16.3847534"><ele>724.0</ele><time>2026-04-19T10:09:32.941Z</time></trkpt><trkpt lat="38.772729" lon="16.384837"><ele>724.0</ele><time>2026-04-19T10:09:34.938Z</time></trkpt><trkpt lat="38.7726912" lon="16.3849262"><ele>724.6666666666667</ele><time>2026-04-19T10:09:36.944Z</time></trkpt><trkpt lat="38.7726631" lon="16.3850027"><ele>725.3333333333334</ele><time>2026-04-19T10:09:37.937Z</time></trkpt><trkpt lat="38.7726165" lon="16.385059"><ele>726.0</ele><time>2026-04-19T10:09:38.946Z</time></trkpt><trkpt lat="38.772535" lon="16.3851319"><ele>726.6666666666666</ele><time>2026-04-19T10:09:40.952Z</time></trkpt><trkpt lat="38.7724857" lon="16.3851865"><ele>727.3333333333333</ele><time>2026-04-19T10:09:42.943Z</time></trkpt><trkpt lat="38.7724329" lon="16.3852519"><ele>728.0</ele><time>2026-04-19T10:09:44.933Z</time></trkpt><trkpt lat="38.7723554" lon="16.3853436"><ele>728.0</ele><time>2026-04-19T10:09:46.934Z</time></trkpt><trkpt lat="38.7723058" lon="16.3854052"><ele>728.0</ele><time>2026-04-19T10:09:47.936Z</time></trkpt><trkpt lat="38.7722455" lon="16.3854543"><ele>728.0</ele><time>2026-04-19T10:09:48.941Z</time></trkpt><trkpt lat="38.7721912" lon="16.3855095"><ele>728.0</ele><time>2026-04-19T10:09:49.939Z</time></trkpt><trkpt lat="38.7720916" lon="16.3856232"><ele>728.0</ele><time>2026-04-19T10:09:51.948Z</time></trkpt><trkpt lat="38.772045" lon="16.3856855"><ele>728.0</ele><time>2026-04-19T10:09:52.937Z</time></trkpt><trkpt lat="38.771987" lon="16.3858251"><ele>729.8</ele><time>2026-04-19T10:09:54.934Z</time></trkpt><trkpt lat="38.7719103" lon="16.3859362"><ele>731.5999999999999</ele><time>2026-04-19T10:09:56.94Z</time></trkpt><trkpt lat="38.7718267" lon="16.3860267"><ele>733.4000000000001</ele><time>2026-04-19T10:09:58.943Z</time></trkpt><trkpt lat="38.7717777" lon="16.3860851"><ele>735.2</ele><time>2026-04-19T10:09:59.932Z</time></trkpt><trkpt lat="38.7716934" lon="16.3861517"><ele>737.0</ele><time>2026-04-19T10:10:01.942Z</time></trkpt><trkpt lat="38.7716938" lon="16.3862329"><ele>737.0</ele><time>2026-04-19T10:10:04.942Z</time></trkpt><trkpt lat="38.7717943" lon="16.3862656"><ele>737.0</ele><time>2026-04-19T10:10:06.939Z</time></trkpt><trkpt lat="38.7718555" lon="16.3862987"><ele>737.0</ele><time>2026-04-19T10:10:07.933Z</time></trkpt><trkpt lat="38.7719297" lon="16.3863244"><ele>737.0</ele><time>2026-04-19T10:10:08.935Z</time></trkpt><trkpt lat="38.7720349" lon="16.3863832"><ele>737.0</ele><time>2026-04-19T10:10:10.937Z</time></trkpt><trkpt lat="38.7721235" lon="16.3864411"><ele>740.8</ele><time>2026-04-19T10:10:12.935Z</time></trkpt><trkpt lat="38.7722306" lon="16.3864404"><ele>744.6</ele><time>2026-04-19T10:10:14.932Z</time></trkpt><trkpt lat="38.7723351" lon="16.386477"><ele>748.4</ele><time>2026-04-19T10:10:16.935Z</time></trkpt><trkpt lat="38.7724169" lon="16.3865323"><ele>752.1999999999999</ele><time>2026-04-19T10:10:18.936Z</time></trkpt><trkpt lat="38.772477" lon="16.3865909"><ele>756.0</ele><time>2026-04-19T10:10:20.935Z</time></trkpt><trkpt lat="38.7725619" lon="16.3866678"><ele>756.0</ele><time>2026-04-19T10:10:22.937Z</time></trkpt><trkpt lat="38.7726385" lon="16.3867655"><ele>756.0</ele><time>2026-04-19T10:10:24.942Z</time></trkpt><trkpt lat="38.7726457" lon="16.3868514"><ele>756.0</ele><time>2026-04-19T10:10:25.949Z</time></trkpt><trkpt lat="38.7726535" lon="16.3869405"><ele>756.0</ele><time>2026-04-19T10:10:26.943Z</time></trkpt><trkpt lat="38.7726402" lon="16.3871017"><ele>756.0</ele><time>2026-04-19T10:10:28.935Z</time></trkpt><trkpt lat="38.7726768" lon="16.3872656"><ele>757.3333333333334</ele><time>2026-04-19T10:10:30.944Z</time></trkpt><trkpt lat="38.7726791" lon="16.3873549"><ele>758.6666666666666</ele><time>2026-04-19T10:10:31.943Z</time></trkpt><trkpt lat="38.7726909" lon="16.3874653"><ele>760.0</ele><time>2026-04-19T10:10:32.933Z</time></trkpt><trkpt lat="38.7727093" lon="16.3875976"><ele>761.3333333333333</ele><time>2026-04-19T10:10:33.939Z</time></trkpt><trkpt lat="38.772717" lon="16.387717"><ele>762.6666666666666</ele><time>2026-04-19T10:10:34.934Z</time></trkpt><trkpt lat="38.7727271" lon="16.3878068"><ele>764.0</ele><time>2026-04-19T10:10:35.932Z</time></trkpt><trkpt lat="38.7727495" lon="16.3879649"><ele>767.8000000000001</ele><time>2026-04-19T10:10:37.94Z</time></trkpt><trkpt lat="38.7727608" lon="16.3880806"><ele>771.6</ele><time>2026-04-19T10:10:38.94Z</time></trkpt><trkpt lat="38.7727753" lon="16.38819"><ele>775.4</ele><time>2026-04-19T10:10:39.936Z</time></trkpt><trkpt lat="38.7727897" lon="16.3883113"><ele>779.2</ele><time>2026-04-19T10:10:40.932Z</time></trkpt><trkpt lat="38.7728019" lon="16.3884335"><ele>783.0</ele><time>2026-04-19T10:10:41.935Z</time></trkpt><trkpt lat="38.7728201" lon="16.3885527"><ele>783.0</ele><time>2026-04-19T10:10:42.933Z</time></trkpt><trkpt lat="38.7728373" lon="16.3886862"><ele>783.0</ele><time>2026-04-19T10:10:43.933Z</time></trkpt><trkpt lat="38.7728535" lon="16.3888317"><ele>783.0</ele><time>2026-04-19T10:10:44.939Z</time></trkpt><trkpt lat="38.7728701" lon="16.3889496"><ele>783.0</ele><time>2026-04-19T10:10:45.936Z</time></trkpt><trkpt lat="38.7728767" lon="16.3890687"><ele>783.0</ele><time>2026-04-19T10:10:46.942Z</time></trkpt><trkpt lat="38.7728828" lon="16.3891941"><ele>784.8333333333334</ele><time>2026-04-19T10:10:47.939Z</time></trkpt><trkpt lat="38.7728879" lon="16.3892921"><ele>786.6666666666667</ele><time>2026-04-19T10:10:48.947Z</time></trkpt><trkpt lat="38.7728958" lon="16.3893736"><ele>788.5</ele><time>2026-04-19T10:10:49.936Z</time></trkpt><trkpt lat="38.7728973" lon="16.3894608"><ele>790.3333333333334</ele><time>2026-04-19T10:10:51.941Z</time></trkpt><trkpt lat="38.772879" lon="16.3895789"><ele>792.1666666666667</ele><time>2026-04-19T10:10:54.944Z</time></trkpt><trkpt lat="38.7728216" lon="16.3896851"><ele>794.0</ele><time>2026-04-19T10:10:56.942Z</time></trkpt><trkpt lat="38.7727791" lon="16.3897484"><ele>796.2</ele><time>2026-04-19T10:10:59.945Z</time></trkpt><trkpt lat="38.7727255" lon="16.3898026"><ele>798.4000000000001</ele><time>2026-04-19T10:11:03.937Z</time></trkpt><trkpt lat="38.7726562" lon="16.3898639"><ele>800.6</ele><time>2026-04-19T10:11:08.939Z</time></trkpt><trkpt lat="38.7726002" lon="16.3899302"><ele>802.8</ele><time>2026-04-19T10:11:11.931Z</time></trkpt><trkpt lat="38.7725279" lon="16.3900172"><ele>805.0</ele><time>2026-04-19T10:11:14.94Z</time></trkpt><trkpt lat="38.7724272" lon="16.390114"><ele>804.9999999999999</ele><time>2026-04-19T10:11:16.942Z</time></trkpt><trkpt lat="38.7723721" lon="16.3901675"><ele>805.0</ele><time>2026-04-19T10:11:17.934Z</time></trkpt><trkpt lat="38.7723115" lon="16.390225"><ele>805.0</ele><time>2026-04-19T10:11:18.934Z</time></trkpt><trkpt lat="38.772248" lon="16.390293"><ele>805.0</ele><time>2026-04-19T10:11:19.931Z</time></trkpt><trkpt lat="38.7721719" lon="16.3903558"><ele>804.9999999999999</ele><time>2026-04-19T10:11:20.939Z</time></trkpt><trkpt lat="38.7720881" lon="16.3904138"><ele>805.0</ele><time>2026-04-19T10:11:21.939Z</time></trkpt><trkpt lat="38.7720219" lon="16.3904857"><ele>806.25</ele><time>2026-04-19T10:11:22.941Z</time></trkpt><trkpt lat="38.7719472" lon="16.3905816"><ele>807.5</ele><time>2026-04-19T10:11:23.934Z</time></trkpt><trkpt lat="38.771853" lon="16.3906764"><ele>808.75</ele><time>2026-04-19T10:11:24.932Z</time></trkpt><trkpt lat="38.771755" lon="16.3907345"><ele>810.0</ele><time>2026-04-19T10:11:25.929Z</time></trkpt><trkpt lat="38.7716517" lon="16.3908072"><ele>810.0</ele><time>2026-04-19T10:11:26.936Z</time></trkpt><trkpt lat="38.7715356" lon="16.3909015"><ele>810.0</ele><time>2026-04-19T10:11:27.937Z</time></trkpt><trkpt lat="38.7713995" lon="16.390995"><ele>810.0</ele><time>2026-04-19T10:11:28.937Z</time></trkpt><trkpt lat="38.7712787" lon="16.3910728"><ele>810.0</ele><time>2026-04-19T10:11:29.936Z</time></trkpt><trkpt lat="38.7711927" lon="16.3911517"><ele>810.0</ele><time>2026-04-19T10:11:30.937Z</time></trkpt><trkpt lat="38.7711168" lon="16.3912341"><ele>810.0</ele><time>2026-04-19T10:11:31.947Z</time></trkpt><trkpt lat="38.771068" lon="16.3913658"><ele>810.0</ele><time>2026-04-19T10:11:32.936Z</time></trkpt><trkpt lat="38.7710098" lon="16.3914855"><ele>810.0</ele><time>2026-04-19T10:11:33.928Z</time></trkpt><trkpt lat="38.7709749" lon="16.3916098"><ele>810.0</ele><time>2026-04-19T10:11:34.939Z</time></trkpt><trkpt lat="38.770907" lon="16.3916987"><ele>811.0</ele><time>2026-04-19T10:11:35.944Z</time></trkpt><trkpt lat="38.7708487" lon="16.3917894"><ele>812.0</ele><time>2026-04-19T10:11:36.936Z</time></trkpt><trkpt lat="38.770817" lon="16.3919088"><ele>813.0</ele><time>2026-04-19T10:11:37.936Z</time></trkpt><trkpt lat="38.7707986" lon="16.3920268"><ele>814.0</ele><time>2026-04-19T10:11:38.94Z</time></trkpt><trkpt lat="38.7707738" lon="16.3921114"><ele>815.0</ele><time>2026-04-19T10:11:39.941Z</time></trkpt><trkpt lat="38.7707101" lon="16.3921683"><ele>816.0</ele><time>2026-04-19T10:11:41.942Z</time></trkpt><trkpt lat="38.7705909" lon="16.3921098"><ele>816.0</ele><time>2026-04-19T10:11:43.946Z</time></trkpt><trkpt lat="38.7705171" lon="16.392064"><ele>816.0</ele><time>2026-04-19T10:11:44.936Z</time></trkpt><trkpt lat="38.7704361" lon="16.3919934"><ele>816.0</ele><time>2026-04-19T10:11:45.936Z</time></trkpt><trkpt lat="38.7703607" lon="16.3919309"><ele>816.0</ele><time>2026-04-19T10:11:46.937Z</time></trkpt><trkpt lat="38.7702742" lon="16.3919025"><ele>816.0</ele><time>2026-04-19T10:11:47.942Z</time></trkpt><trkpt lat="38.7701654" lon="16.3919057"><ele>816.8</ele><time>2026-04-19T10:11:48.934Z</time></trkpt><trkpt lat="38.770058" lon="16.391921"><ele>817.5999999999999</ele><time>2026-04-19T10:11:49.939Z</time></trkpt><trkpt lat="38.7699552" lon="16.391939"><ele>818.4</ele><time>2026-04-19T10:11:50.935Z</time></trkpt><trkpt lat="38.7698737" lon="16.3919668"><ele>819.2</ele><time>2026-04-19T10:11:51.932Z</time></trkpt><trkpt lat="38.7697903" lon="16.3920262"><ele>820.0</ele><time>2026-04-19T10:11:52.942Z</time></trkpt><trkpt lat="38.7697194" lon="16.3921008"><ele>819.9999999999999</ele><time>2026-04-19T10:11:54.938Z</time></trkpt><trkpt lat="38.7696502" lon="16.3921418"><ele>820.0</ele><time>2026-04-19T10:11:57.942Z</time></trkpt><trkpt lat="38.7695751" lon="16.3921566"><ele>820.0</ele><time>2026-04-19T10:11:59.933Z</time></trkpt><trkpt lat="38.7694685" lon="16.3921266"><ele>820.0</ele><time>2026-04-19T10:12:01.936Z</time></trkpt><trkpt lat="38.769404" lon="16.3920919"><ele>819.9999999999999</ele><time>2026-04-19T10:12:02.935Z</time></trkpt><trkpt lat="38.769295" lon="16.3920538"><ele>820.0</ele><time>2026-04-19T10:12:04.938Z</time></trkpt><trkpt lat="38.7692341" lon="16.3919643"><ele>819.1666666666666</ele><time>2026-04-19T10:12:06.938Z</time></trkpt><trkpt lat="38.7692173" lon="16.3918627"><ele>818.3333333333333</ele><time>2026-04-19T10:12:08.933Z</time></trkpt><trkpt lat="38.7692235" lon="16.3917664"><ele>817.5</ele><time>2026-04-19T10:12:10.945Z</time></trkpt><trkpt lat="38.7692365" lon="16.3916802"><ele>816.6666666666667</ele><time>2026-04-19T10:12:12.934Z</time></trkpt><trkpt lat="38.7692413" lon="16.3915778"><ele>815.8333333333334</ele><time>2026-04-19T10:12:16.936Z</time></trkpt><trkpt lat="38.7692506" lon="16.3914714"><ele>815.0</ele><time>2026-04-19T10:12:19.94Z</time></trkpt><trkpt lat="38.7692442" lon="16.3913642"><ele>815.0000000000001</ele><time>2026-04-19T10:12:23.935Z</time></trkpt><trkpt lat="38.7692313" lon="16.3912699"><ele>815.0</ele><time>2026-04-19T10:12:26.938Z</time></trkpt><trkpt lat="38.7691577" lon="16.3912051"><ele>815.0</ele><time>2026-04-19T10:12:29.936Z</time></trkpt><trkpt lat="38.7690765" lon="16.3912026"><ele>815.0</ele><time>2026-04-19T10:12:31.937Z</time></trkpt><trkpt lat="38.7690112" lon="16.3912419"><ele>815.0000000000001</ele><time>2026-04-19T10:12:33.942Z</time></trkpt><trkpt lat="38.7689359" lon="16.3912948"><ele>815.0</ele><time>2026-04-19T10:12:36.938Z</time></trkpt><trkpt lat="38.7688776" lon="16.3913473"><ele>815.0000000000001</ele><time>2026-04-19T10:12:38.943Z</time></trkpt><trkpt lat="38.7688129" lon="16.3913845"><ele>815.0</ele><time>2026-04-19T10:12:41.942Z</time></trkpt><trkpt lat="38.7687244" lon="16.3913633"><ele>815.0</ele><time>2026-04-19T10:12:44.938Z</time></trkpt><trkpt lat="38.7686475" lon="16.3913214"><ele>815.0</ele><time>2026-04-19T10:12:47.932Z</time></trkpt><trkpt lat="38.7686109" lon="16.3912338"><ele>815.0000000000001</ele><time>2026-04-19T10:12:50.935Z</time></trkpt><trkpt lat="38.7685761" lon="16.3911664"><ele>815.0</ele><time>2026-04-19T10:12:52.942Z</time></trkpt><trkpt lat="38.7685315" lon="16.3910995"><ele>813.0000000000001</ele><time>2026-04-19T10:12:55.95Z</time></trkpt><trkpt lat="38.7684718" lon="16.3910479"><ele>811.0</ele><time>2026-04-19T10:12:58.94Z</time></trkpt><trkpt lat="38.7684053" lon="16.3910107"><ele>809.0</ele><time>2026-04-19T10:13:01.938Z</time></trkpt><trkpt lat="38.7683251" lon="16.3909666"><ele>807.0</ele><time>2026-04-19T10:14:10.943Z</time></trkpt><trkpt lat="38.7682501" lon="16.3909302"><ele>805.0000000000001</ele><time>2026-04-19T10:16:39.94Z</time></trkpt><trkpt lat="38.7681733" lon="16.3909006"><ele>803.0</ele><time>2026-04-19T10:16:41.938Z</time></trkpt><trkpt lat="38.7680604" lon="16.3908772"><ele>803.0000000000001</ele><time>2026-04-19T10:16:43.941Z</time></trkpt><trkpt lat="38.7680048" lon="16.390823"><ele>803.0</ele><time>2026-04-19T10:16:44.942Z</time></trkpt><trkpt lat="38.7679841" lon="16.3907257"><ele>803.0</ele><time>2026-04-19T10:16:45.935Z</time></trkpt><trkpt lat="38.767937" lon="16.3906413"><ele>803.0</ele><time>2026-04-19T10:16:46.954Z</time></trkpt><trkpt lat="38.7678822" lon="16.3905806"><ele>803.0000000000001</ele><time>2026-04-19T10:16:47.937Z</time></trkpt><trkpt lat="38.7678194" lon="16.390558"><ele>803.0</ele><time>2026-04-19T10:16:48.939Z</time></trkpt><trkpt lat="38.7677338" lon="16.3905543"><ele>801.4</ele><time>2026-04-19T10:16:49.935Z</time></trkpt><trkpt lat="38.7676332" lon="16.390565"><ele>799.8</ele><time>2026-04-19T10:16:50.94Z</time></trkpt><trkpt lat="38.7675342" lon="16.390545"><ele>798.2</ele><time>2026-04-19T10:16:51.94Z</time></trkpt><trkpt lat="38.7674209" lon="16.3905095"><ele>796.6</ele><time>2026-04-19T10:16:52.935Z</time></trkpt><trkpt lat="38.7673052" lon="16.3904813"><ele>795.0</ele><time>2026-04-19T10:16:53.938Z</time></trkpt><trkpt lat="38.7671999" lon="16.3904584"><ele>795.0</ele><time>2026-04-19T10:16:54.941Z</time></trkpt><trkpt lat="38.7671191" lon="16.3904652"><ele>795.0</ele><time>2026-04-19T10:16:55.942Z</time></trkpt><trkpt lat="38.7670211" lon="16.390432"><ele>795.0</ele><time>2026-04-19T10:16:57.94Z</time></trkpt><trkpt lat="38.7669426" lon="16.3903589"><ele>795.0</ele><time>2026-04-19T10:17:00.937Z</time></trkpt><trkpt lat="38.7668506" lon="16.3903509"><ele>795.0</ele><time>2026-04-19T10:17:02.943Z</time></trkpt><trkpt lat="38.7667663" lon="16.3903681"><ele>797.0</ele><time>2026-04-19T10:17:04.933Z</time></trkpt><trkpt lat="38.7666812" lon="16.390268"><ele>799.0</ele><time>2026-04-19T10:17:06.939Z</time></trkpt><trkpt lat="38.7666368" lon="16.3901982"><ele>801.0</ele><time>2026-04-19T10:17:07.933Z</time></trkpt><trkpt lat="38.7665966" lon="16.3901249"><ele>803.0</ele><time>2026-04-19T10:17:08.937Z</time></trkpt><trkpt lat="38.7665055" lon="16.3900401"><ele>805.0</ele><time>2026-04-19T10:17:10.942Z</time></trkpt><trkpt lat="38.766463" lon="16.3899001"><ele>804.9999999999999</ele><time>2026-04-19T10:17:12.937Z</time></trkpt><trkpt lat="38.7664723" lon="16.3898003"><ele>805.0</ele><time>2026-04-19T10:17:13.939Z</time></trkpt><trkpt lat="38.7664797" lon="16.3896933"><ele>805.0</ele><time>2026-04-19T10:17:14.938Z</time></trkpt><trkpt lat="38.7664899" lon="16.3895841"><ele>805.0</ele><time>2026-04-19T10:17:15.945Z</time></trkpt><trkpt lat="38.7665061" lon="16.389495"><ele>804.9999999999999</ele><time>2026-04-19T10:17:16.937Z</time></trkpt><trkpt lat="38.7665244" lon="16.3894077"><ele>805.0</ele><time>2026-04-19T10:17:17.937Z</time></trkpt><trkpt lat="38.7665804" lon="16.3893482"><ele>804.4999999999999</ele><time>2026-04-19T10:17:18.935Z</time></trkpt><trkpt lat="38.7666382" lon="16.3892915"><ele>804.0</ele><time>2026-04-19T10:17:19.934Z</time></trkpt><trkpt lat="38.7666957" lon="16.3892352"><ele>803.5</ele><time>2026-04-19T10:17:20.936Z</time></trkpt><trkpt lat="38.7667653" lon="16.3891649"><ele>803.0</ele><time>2026-04-19T10:17:21.936Z</time></trkpt><trkpt lat="38.7668193" lon="16.3891105"><ele>802.4999999999999</ele><time>2026-04-19T10:17:22.939Z</time></trkpt><trkpt lat="38.7668663" lon="16.3890394"><ele>802.0</ele><time>2026-04-19T10:17:23.933Z</time></trkpt><trkpt lat="38.7669034" lon="16.3889313"><ele>798.8333333333333</ele><time>2026-04-19T10:17:25.933Z</time></trkpt><trkpt lat="38.7669205" lon="16.3888526"><ele>795.6666666666666</ele><time>2026-04-19T10:17:27.936Z</time></trkpt><trkpt lat="38.76696" lon="16.3887592"><ele>792.5</ele><time>2026-04-19T10:17:29.94Z</time></trkpt><trkpt lat="38.7669742" lon="16.388658"><ele>789.3333333333333</ele><time>2026-04-19T10:17:31.94Z</time></trkpt><trkpt lat="38.7669658" lon="16.3885406"><ele>786.1666666666666</ele><time>2026-04-19T10:17:33.933Z</time></trkpt><trkpt lat="38.7669423" lon="16.3884594"><ele>783.0</ele><time>2026-04-19T10:17:34.934Z</time></trkpt><trkpt lat="38.7669224" lon="16.3883616"><ele>782.6666666666666</ele><time>2026-04-19T10:17:35.928Z</time></trkpt><trkpt lat="38.7668946" lon="16.3882602"><ele>782.3333333333333</ele><time>2026-04-19T10:17:36.932Z</time></trkpt><trkpt lat="38.7668569" lon="16.3881677"><ele>782.0</ele><time>2026-04-19T10:17:37.934Z</time></trkpt><trkpt lat="38.7668204" lon="16.3880926"><ele>781.6666666666666</ele><time>2026-04-19T10:17:38.927Z</time></trkpt><trkpt lat="38.7667766" lon="16.3879617"><ele>781.3333333333333</ele><time>2026-04-19T10:17:40.934Z</time></trkpt><trkpt lat="38.766763" lon="16.3878776"><ele>781.0</ele><time>2026-04-19T10:17:42.937Z</time></trkpt><trkpt lat="38.7667491" lon="16.3877941"><ele>782.1666666666666</ele><time>2026-04-19T10:17:44.934Z</time></trkpt><trkpt lat="38.7667433" lon="16.387648"><ele>783.3333333333333</ele><time>2026-04-19T10:17:46.936Z</time></trkpt><trkpt lat="38.7667272" lon="16.3875671"><ele>784.5</ele><time>2026-04-19T10:17:47.94Z</time></trkpt><trkpt lat="38.7667101" lon="16.3874649"><ele>785.6666666666667</ele><time>2026-04-19T10:17:48.938Z</time></trkpt><trkpt lat="38.7666964" lon="16.3873596"><ele>786.8333333333334</ele><time>2026-04-19T10:17:49.937Z</time></trkpt><trkpt lat="38.7666906" lon="16.3872728"><ele>788.0</ele><time>2026-04-19T10:17:50.941Z</time></trkpt><trkpt lat="38.7666897" lon="16.3871883"><ele>787.4</ele><time>2026-04-19T10:17:51.931Z</time></trkpt><trkpt lat="38.7667025" lon="16.3870529"><ele>786.8</ele><time>2026-04-19T10:17:53.942Z</time></trkpt><trkpt lat="38.7667179" lon="16.3869706"><ele>786.2</ele><time>2026-04-19T10:17:55.94Z</time></trkpt><trkpt lat="38.7667086" lon="16.3868535"><ele>785.6</ele><time>2026-04-19T10:17:57.943Z</time></trkpt><trkpt lat="38.7666959" lon="16.3866779"><ele>785.0</ele><time>2026-04-19T10:17:59.941Z</time></trkpt><trkpt lat="38.7666788" lon="16.3865755"><ele>785.0000000000001</ele><time>2026-04-19T10:18:00.94Z</time></trkpt><trkpt lat="38.7666649" lon="16.3864677"><ele>785.0</ele><time>2026-04-19T10:18:01.941Z</time></trkpt><trkpt lat="38.7666515" lon="16.386372"><ele>785.0</ele><time>2026-04-19T10:18:02.939Z</time></trkpt><trkpt lat="38.7666294" lon="16.3862805"><ele>785.0</ele><time>2026-04-19T10:18:03.936Z</time></trkpt><trkpt lat="38.7665724" lon="16.3861896"><ele>785.0000000000001</ele><time>2026-04-19T10:18:04.932Z</time></trkpt><trkpt lat="38.7665234" lon="16.3861179"><ele>785.0</ele><time>2026-04-19T10:18:05.934Z</time></trkpt><trkpt lat="38.7664657" lon="16.3860582"><ele>784.6666666666667</ele><time>2026-04-19T10:18:06.935Z</time></trkpt><trkpt lat="38.7663698" lon="16.3859725"><ele>784.3333333333334</ele><time>2026-04-19T10:18:08.933Z</time></trkpt><trkpt lat="38.766314" lon="16.3859224"><ele>784.0</ele><time>2026-04-19T10:18:09.94Z</time></trkpt><trkpt lat="38.7662526" lon="16.3858696"><ele>783.6666666666667</ele><time>2026-04-19T10:18:10.932Z</time></trkpt><trkpt lat="38.7661679" lon="16.385836"><ele>783.3333333333334</ele><time>2026-04-19T10:18:11.937Z</time></trkpt><trkpt lat="38.76609" lon="16.3857998"><ele>783.0</ele><time>2026-04-19T10:18:12.94Z</time></trkpt><trkpt lat="38.7660148" lon="16.3857836"><ele>783.0</ele><time>2026-04-19T10:18:13.936Z</time></trkpt><trkpt lat="38.7659336" lon="16.3857882"><ele>783.0</ele><time>2026-04-19T10:18:14.93Z</time></trkpt><trkpt lat="38.7658408" lon="16.3858583"><ele>783.0</ele><time>2026-04-19T10:18:16.938Z</time></trkpt><trkpt lat="38.7658003" lon="16.3859222"><ele>783.0</ele><time>2026-04-19T10:18:19.934Z</time></trkpt><trkpt lat="38.7657301" lon="16.3859766"><ele>783.0</ele><time>2026-04-19T10:18:22.94Z</time></trkpt><trkpt lat="38.7656255" lon="16.3860201"><ele>783.0</ele><time>2026-04-19T10:18:25.938Z</time></trkpt><trkpt lat="38.765515" lon="16.3860257"><ele>783.0</ele><time>2026-04-19T10:18:27.939Z</time></trkpt><trkpt lat="38.7654381" lon="16.3860211"><ele>783.0</ele><time>2026-04-19T10:18:28.935Z</time></trkpt><trkpt lat="38.7653727" lon="16.3859974"><ele>783.0</ele><time>2026-04-19T10:18:29.942Z</time></trkpt><trkpt lat="38.7652635" lon="16.3859792"><ele>783.0</ele><time>2026-04-19T10:18:31.937Z</time></trkpt><trkpt lat="38.7651873" lon="16.3859772"><ele>783.0</ele><time>2026-04-19T10:18:33.936Z</time></trkpt><trkpt lat="38.76511" lon="16.3859805"><ele>783.0</ele><time>2026-04-19T10:18:35.942Z</time></trkpt><trkpt lat="38.7650303" lon="16.3859659"><ele>783.6666666666666</ele><time>2026-04-19T10:18:42.938Z</time></trkpt><trkpt lat="38.7649176" lon="16.3859994"><ele>784.3333333333333</ele><time>2026-04-19T10:18:44.933Z</time></trkpt><trkpt lat="38.7648177" lon="16.386056"><ele>785.0</ele><time>2026-04-19T10:18:46.934Z</time></trkpt><trkpt lat="38.7647507" lon="16.3861209"><ele>785.6666666666666</ele><time>2026-04-19T10:18:48.939Z</time></trkpt><trkpt lat="38.7647091" lon="16.386182"><ele>786.3333333333333</ele><time>2026-04-19T10:18:52.94Z</time></trkpt><trkpt lat="38.7646474" lon="16.3861584"><ele>787.0</ele><time>2026-04-19T10:18:59.94Z</time></trkpt><trkpt lat="38.7646383" lon="16.3860703"><ele>786.9999999999999</ele><time>2026-04-19T10:19:02.942Z</time></trkpt><trkpt lat="38.7646241" lon="16.385963"><ele>787.0</ele><time>2026-04-19T10:19:05.936Z</time></trkpt><trkpt lat="38.7646356" lon="16.3858791"><ele>787.0</ele><time>2026-04-19T10:19:07.941Z</time></trkpt><trkpt lat="38.7646309" lon="16.3857393"><ele>787.0</ele><time>2026-04-19T10:19:09.941Z</time></trkpt><trkpt lat="38.764625" lon="16.3856367"><ele>786.9999999999999</ele><time>2026-04-19T10:19:11.94Z</time></trkpt><trkpt lat="38.764637" lon="16.3855248"><ele>787.0</ele><time>2026-04-19T10:19:13.935Z</time></trkpt><trkpt lat="38.7646282" lon="16.3854274"><ele>786.8333333333333</ele><time>2026-04-19T10:19:16.936Z</time></trkpt><trkpt lat="38.76464" lon="16.3853399"><ele>786.6666666666666</ele><time>2026-04-19T10:19:19.943Z</time></trkpt><trkpt lat="38.7646677" lon="16.385239"><ele>786.5</ele><time>2026-04-19T10:19:22.945Z</time></trkpt><trkpt lat="38.7646924" lon="16.3851525"><ele>786.3333333333333</ele><time>2026-04-19T10:19:24.941Z</time></trkpt><trkpt lat="38.7647254" lon="16.3850493"><ele>786.1666666666666</ele><time>2026-04-19T10:19:27.94Z</time></trkpt><trkpt lat="38.7647398" lon="16.3849469"><ele>786.0</ele><time>2026-04-19T10:19:30.934Z</time></trkpt><trkpt lat="38.7647623" lon="16.384857"><ele>786.0</ele><time>2026-04-19T10:19:33.936Z</time></trkpt><trkpt lat="38.7648476" lon="16.3847473"><ele>786.0</ele><time>2026-04-19T10:19:36.937Z</time></trkpt><trkpt lat="38.7649304" lon="16.3846701"><ele>786.0</ele><time>2026-04-19T10:19:38.936Z</time></trkpt><trkpt lat="38.7650036" lon="16.3846369"><ele>786.0</ele><time>2026-04-19T10:19:41.935Z</time></trkpt><trkpt lat="38.7650671" lon="16.3846349"><ele>786.0</ele><time>2026-04-19T10:19:43.942Z</time></trkpt><trkpt lat="38.7651379" lon="16.3846128"><ele>786.0</ele><time>2026-04-19T10:19:47.937Z</time></trkpt><trkpt lat="38.7652411" lon="16.3847513"><ele>785.0</ele><time>2026-04-19T10:20:05.942Z</time></trkpt><trkpt lat="38.765265" lon="16.3848412"><ele>784.0</ele><time>2026-04-19T10:20:09.938Z</time></trkpt><trkpt lat="38.7652878" lon="16.3849341"><ele>783.0</ele><time>2026-04-19T10:20:12.938Z</time></trkpt><trkpt lat="38.7653459" lon="16.3850043"><ele>782.0</ele><time>2026-04-19T10:20:25.944Z</time></trkpt><trkpt lat="38.7654148" lon="16.3850112"><ele>781.0</ele><time>2026-04-19T10:20:30.937Z</time></trkpt><trkpt lat="38.7654958" lon="16.3850324"><ele>780.0</ele><time>2026-04-19T10:20:35.94Z</time></trkpt><trkpt lat="38.7655692" lon="16.3850482"><ele>780.0</ele><time>2026-04-19T10:20:37.933Z</time></trkpt><trkpt lat="38.765635" lon="16.3850656"><ele>780.0</ele><time>2026-04-19T10:20:40.936Z</time></trkpt><trkpt lat="38.7657054" lon="16.3850773"><ele>780.0</ele><time>2026-04-19T10:20:43.937Z</time></trkpt><trkpt lat="38.7657919" lon="16.3850872"><ele>780.0</ele><time>2026-04-19T10:20:45.939Z</time></trkpt><trkpt lat="38.7658936" lon="16.3851061"><ele>780.0</ele><time>2026-04-19T10:20:47.936Z</time></trkpt><trkpt lat="38.7659818" lon="16.3851628"><ele>780.0</ele><time>2026-04-19T10:20:49.938Z</time></trkpt><trkpt lat="38.7660737" lon="16.3852001"><ele>779.0</ele><time>2026-04-19T10:20:51.937Z</time></trkpt><trkpt lat="38.7661824" lon="16.3852422"><ele>778.0</ele><time>2026-04-19T10:20:53.934Z</time></trkpt><trkpt lat="38.7662482" lon="16.3852651"><ele>777.0</ele><time>2026-04-19T10:20:54.939Z</time></trkpt><trkpt lat="38.7663729" lon="16.3852894"><ele>776.0</ele><time>2026-04-19T10:20:56.942Z</time></trkpt><trkpt lat="38.7664537" lon="16.385266"><ele>775.0</ele><time>2026-04-19T10:20:58.941Z</time></trkpt><trkpt lat="38.7665235" lon="16.3852173"><ele>774.9999999999999</ele><time>2026-04-19T10:21:00.939Z</time></trkpt><trkpt lat="38.7666208" lon="16.3851325"><ele>775.0</ele><time>2026-04-19T10:21:02.94Z</time></trkpt><trkpt lat="38.7666736" lon="16.3850875"><ele>775.0</ele><time>2026-04-19T10:21:03.936Z</time></trkpt><trkpt lat="38.7667287" lon="16.3850363"><ele>775.0</ele><time>2026-04-19T10:21:04.953Z</time></trkpt><trkpt lat="38.766787" lon="16.3849809"><ele>774.9999999999999</ele><time>2026-04-19T10:21:05.94Z</time></trkpt><trkpt lat="38.7668343" lon="16.3849227"><ele>775.0</ele><time>2026-04-19T10:21:06.94Z</time></trkpt><trkpt lat="38.7669057" lon="16.3848072"><ele>774.4999999999999</ele><time>2026-04-19T10:21:08.943Z</time></trkpt><trkpt lat="38.7669477" lon="16.3847399"><ele>774.0</ele><time>2026-04-19T10:21:09.941Z</time></trkpt><trkpt lat="38.7669861" lon="16.3846741"><ele>773.5</ele><time>2026-04-19T10:21:10.935Z</time></trkpt><trkpt lat="38.7670201" lon="16.3845971"><ele>773.0</ele><time>2026-04-19T10:21:11.937Z</time></trkpt><trkpt lat="38.7670464" lon="16.3845173"><ele>772.4999999999999</ele><time>2026-04-19T10:21:12.944Z</time></trkpt><trkpt lat="38.7670846" lon="16.3844302"><ele>772.0</ele><time>2026-04-19T10:21:13.943Z</time></trkpt><trkpt lat="38.7671293" lon="16.3843088"><ele>774.2</ele><time>2026-04-19T10:21:15.943Z</time></trkpt><trkpt lat="38.7671844" lon="16.3842189"><ele>776.4000000000001</ele><time>2026-04-19T10:21:17.955Z</time></trkpt><trkpt lat="38.7672364" lon="16.3841476"><ele>778.5999999999999</ele><time>2026-04-19T10:21:19.94Z</time></trkpt><trkpt lat="38.7672881" lon="16.3840543"><ele>780.8</ele><time>2026-04-19T10:21:21.941Z</time></trkpt><trkpt lat="38.7673374" lon="16.3839363"><ele>783.0</ele><time>2026-04-19T10:21:23.935Z</time></trkpt><trkpt lat="38.7673701" lon="16.3837505"><ele>783.0</ele><time>2026-04-19T10:21:42.941Z</time></trkpt><trkpt lat="38.7674031" lon="16.3836599"><ele>783.0</ele><time>2026-04-19T10:21:44.934Z</time></trkpt><trkpt lat="38.7674378" lon="16.3835686"><ele>783.0</ele><time>2026-04-19T10:21:46.938Z</time></trkpt><trkpt lat="38.7674471" lon="16.3834659"><ele>783.0</ele><time>2026-04-19T10:21:49.939Z</time></trkpt><trkpt lat="38.767423" lon="16.3833716"><ele>783.0</ele><time>2026-04-19T10:21:53.94Z</time></trkpt><trkpt lat="38.7674199" lon="16.3832905"><ele>783.0</ele><time>2026-04-19T10:21:55.932Z</time></trkpt><trkpt lat="38.767428" lon="16.3832002"><ele>783.0</ele><time>2026-04-19T10:21:57.942Z</time></trkpt><trkpt lat="38.7674489" lon="16.383091"><ele>781.0</ele><time>2026-04-19T10:21:59.939Z</time></trkpt><trkpt lat="38.7674783" lon="16.3829664"><ele>779.0</ele><time>2026-04-19T10:22:01.939Z</time></trkpt><trkpt lat="38.767507" lon="16.3828786"><ele>777.0</ele><time>2026-04-19T10:22:03.946Z</time></trkpt><trkpt lat="38.7675351" lon="16.3826597"><ele>775.0</ele><time>2026-04-19T10:22:07.937Z</time></trkpt><trkpt lat="38.7675452" lon="16.3825579"><ele>773.0</ele><time>2026-04-19T10:22:10.938Z</time></trkpt><trkpt lat="38.7675516" lon="16.3824553"><ele>773.0000000000001</ele><time>2026-04-19T10:22:12.936Z</time></trkpt><trkpt lat="38.7675425" lon="16.3823619"><ele>773.0</ele><time>2026-04-19T10:22:14.933Z</time></trkpt><trkpt lat="38.7675196" lon="16.3822205"><ele>773.0</ele><time>2026-04-19T10:22:18.94Z</time></trkpt><trkpt lat="38.7675022" lon="16.3821363"><ele>773.0</ele><time>2026-04-19T10:22:20.94Z</time></trkpt><trkpt lat="38.7674664" lon="16.3820626"><ele>773.0000000000001</ele><time>2026-04-19T10:22:22.93Z</time></trkpt><trkpt lat="38.767429" lon="16.3819901"><ele>773.0</ele><time>2026-04-19T10:22:24.94Z</time></trkpt><trkpt lat="38.7673767" lon="16.3819163"><ele>769.5000000000001</ele><time>2026-04-19T10:22:26.937Z</time></trkpt><trkpt lat="38.7673243" lon="16.381853"><ele>766.0</ele><time>2026-04-19T10:22:28.937Z</time></trkpt><trkpt lat="38.7672727" lon="16.3817989"><ele>762.5</ele><time>2026-04-19T10:22:31.939Z</time></trkpt><trkpt lat="38.7672115" lon="16.3817466"><ele>759.0</ele><time>2026-04-19T10:22:34.936Z</time></trkpt><trkpt lat="38.7671421" lon="16.3816851"><ele>755.5</ele><time>2026-04-19T10:22:37.937Z</time></trkpt><trkpt lat="38.7670869" lon="16.3816379"><ele>752.0</ele><time>2026-04-19T10:22:39.945Z</time></trkpt><trkpt lat="38.7670166" lon="16.3815724"><ele>752.0</ele><time>2026-04-19T10:22:42.94Z</time></trkpt><trkpt lat="38.7669604" lon="16.3815149"><ele>752.0</ele><time>2026-04-19T10:22:44.934Z</time></trkpt><trkpt lat="38.7669185" lon="16.3814474"><ele>752.0</ele><time>2026-04-19T10:22:47.934Z</time></trkpt><trkpt lat="38.7668681" lon="16.381372"><ele>752.0</ele><time>2026-04-19T10:22:51.933Z</time></trkpt><trkpt lat="38.7668055" lon="16.3812753"><ele>752.0</ele><time>2026-04-19T10:22:55.941Z</time></trkpt><trkpt lat="38.7667542" lon="16.3811967"><ele>752.0</ele><time>2026-04-19T10:22:58.935Z</time></trkpt><trkpt lat="38.7667224" lon="16.3811131"><ele>750.8</ele><time>2026-04-19T10:23:00.94Z</time></trkpt><trkpt lat="38.7666431" lon="16.3810252"><ele>749.6</ele><time>2026-04-19T10:23:02.942Z</time></trkpt><trkpt lat="38.7665687" lon="16.3809677"><ele>748.4</ele><time>2026-04-19T10:23:04.94Z</time></trkpt><trkpt lat="38.7664925" lon="16.3809273"><ele>747.1999999999999</ele><time>2026-04-19T10:23:06.938Z</time></trkpt><trkpt lat="38.7664045" lon="16.3808512"><ele>746.0</ele><time>2026-04-19T10:23:08.939Z</time></trkpt><trkpt lat="38.7663025" lon="16.3808116"><ele>746.0</ele><time>2026-04-19T10:23:10.935Z</time></trkpt><trkpt lat="38.7662368" lon="16.3807525"><ele>746.0</ele><time>2026-04-19T10:23:12.938Z</time></trkpt><trkpt lat="38.7661712" lon="16.38072"><ele>746.0</ele><time>2026-04-19T10:23:15.94Z</time></trkpt><trkpt lat="38.766089" lon="16.3807263"><ele>746.0</ele><time>2026-04-19T10:23:20.939Z</time></trkpt><trkpt lat="38.7660226" lon="16.3807476"><ele>746.0</ele><time>2026-04-19T10:23:25.944Z</time></trkpt><trkpt lat="38.7659612" lon="16.3808073"><ele>746.0</ele><time>2026-04-19T10:23:30.941Z</time></trkpt><trkpt lat="38.765881" lon="16.3808312"><ele>746.5</ele><time>2026-04-19T10:23:32.936Z</time></trkpt><trkpt lat="38.7658011" lon="16.3808541"><ele>747.0</ele><time>2026-04-19T10:23:34.936Z</time></trkpt><trkpt lat="38.7657379" lon="16.3809129"><ele>747.5</ele><time>2026-04-19T10:23:36.935Z</time></trkpt><trkpt lat="38.7656713" lon="16.3810095"><ele>748.0</ele><time>2026-04-19T10:23:38.938Z</time></trkpt><trkpt lat="38.7656328" lon="16.3811032"><ele>748.5</ele><time>2026-04-19T10:23:39.932Z</time></trkpt><trkpt lat="38.7656023" lon="16.3812192"><ele>749.0</ele><time>2026-04-19T10:23:40.931Z</time></trkpt><trkpt lat="38.765561" lon="16.3813354"><ele>750.5</ele><time>2026-04-19T10:23:41.936Z</time></trkpt><trkpt lat="38.7655228" lon="16.3814381"><ele>752.0</ele><time>2026-04-19T10:23:42.925Z</time></trkpt><trkpt lat="38.7654952" lon="16.3815136"><ele>753.5</ele><time>2026-04-19T10:23:43.929Z</time></trkpt><trkpt lat="38.7654543" lon="16.3815876"><ele>755.0</ele><time>2026-04-19T10:23:44.935Z</time></trkpt><trkpt lat="38.7653885" lon="16.3816345"><ele>756.5</ele><time>2026-04-19T10:23:45.93Z</time></trkpt><trkpt lat="38.7652603" lon="16.3816416"><ele>758.0</ele><time>2026-04-19T10:23:47.937Z</time></trkpt><trkpt lat="38.7651647" lon="16.3816505"><ele>758.0</ele><time>2026-04-19T10:23:48.93Z</time></trkpt><trkpt lat="38.7650788" lon="16.3816726"><ele>758.0</ele><time>2026-04-19T10:23:49.938Z</time></trkpt><trkpt lat="38.7650034" lon="16.3816894"><ele>758.0</ele><time>2026-04-19T10:23:50.933Z</time></trkpt><trkpt lat="38.7648963" lon="16.381746"><ele>758.0</ele><time>2026-04-19T10:23:52.94Z</time></trkpt><trkpt lat="38.7648418" lon="16.3818817"><ele>758.0</ele><time>2026-04-19T10:23:54.937Z</time></trkpt><trkpt lat="38.7648054" lon="16.3819563"><ele>758.0</ele><time>2026-04-19T10:23:55.934Z</time></trkpt><trkpt lat="38.7647572" lon="16.3820194"><ele>758.0</ele><time>2026-04-19T10:23:56.933Z</time></trkpt><trkpt lat="38.7646941" lon="16.3820346"><ele>758.0</ele><time>2026-04-19T10:23:57.936Z</time></trkpt><trkpt lat="38.7646052" lon="16.382034"><ele>758.0</ele><time>2026-04-19T10:23:59.94Z</time></trkpt><trkpt lat="38.7645187" lon="16.3820432"><ele>758.0</ele><time>2026-04-19T10:24:02.935Z</time></trkpt><trkpt lat="38.7644502" lon="16.3820691"><ele>758.0</ele><time>2026-04-19T10:24:04.939Z</time></trkpt><trkpt lat="38.7643732" lon="16.3820953"><ele>758.6666666666666</ele><time>2026-04-19T10:24:06.934Z</time></trkpt><trkpt lat="38.7643094" lon="16.3821258"><ele>759.3333333333333</ele><time>2026-04-19T10:24:09.933Z</time></trkpt><trkpt lat="38.7642492" lon="16.3821592"><ele>760.0</ele><time>2026-04-19T10:24:12.933Z</time></trkpt><trkpt lat="38.7641834" lon="16.3821847"><ele>760.6666666666666</ele><time>2026-04-19T10:24:16.932Z</time></trkpt><trkpt lat="38.7641084" lon="16.3821818"><ele>761.3333333333334</ele><time>2026-04-19T10:24:19.951Z</time></trkpt><trkpt lat="38.7640157" lon="16.3821297"><ele>762.0</ele><time>2026-04-19T10:24:22.942Z</time></trkpt><trkpt lat="38.7639443" lon="16.3821216"><ele>762.0</ele><time>2026-04-19T10:24:24.939Z</time></trkpt><trkpt lat="38.7638451" lon="16.3820898"><ele>762.0</ele><time>2026-04-19T10:24:26.939Z</time></trkpt><trkpt lat="38.7637362" lon="16.3820762"><ele>762.0</ele><time>2026-04-19T10:24:28.937Z</time></trkpt><trkpt lat="38.7636478" lon="16.3821203"><ele>762.0</ele><time>2026-04-19T10:24:30.934Z</time></trkpt><trkpt lat="38.7635356" lon="16.3821855"><ele>762.0</ele><time>2026-04-19T10:24:32.937Z</time></trkpt><trkpt lat="38.7634686" lon="16.3822392"><ele>762.0</ele><time>2026-04-19T10:24:33.937Z</time></trkpt><trkpt lat="38.7634077" lon="16.3822861"><ele>762.0</ele><time>2026-04-19T10:24:34.936Z</time></trkpt><trkpt lat="38.7632938" lon="16.3823557"><ele>762.0</ele><time>2026-04-19T10:24:36.94Z</time></trkpt><trkpt lat="38.7632177" lon="16.3824124"><ele>762.0</ele><time>2026-04-19T10:24:37.939Z</time></trkpt><trkpt lat="38.7631201" lon="16.3824932"><ele>762.0</ele><time>2026-04-19T10:24:38.934Z</time></trkpt><trkpt lat="38.7630307" lon="16.3825707"><ele>762.0</ele><time>2026-04-19T10:24:39.932Z</time></trkpt><trkpt lat="38.7629456" lon="16.38264"><ele>762.0</ele><time>2026-04-19T10:24:40.936Z</time></trkpt><trkpt lat="38.7628562" lon="16.3827301"><ele>762.0</ele><time>2026-04-19T10:24:41.93Z</time></trkpt><trkpt lat="38.7627713" lon="16.3827948"><ele>762.0</ele><time>2026-04-19T10:24:42.936Z</time></trkpt><trkpt lat="38.762702" lon="16.3828617"><ele>762.0</ele><time>2026-04-19T10:24:43.93Z</time></trkpt><trkpt lat="38.7626337" lon="16.3829507"><ele>764.0</ele><time>2026-04-19T10:24:44.929Z</time></trkpt><trkpt lat="38.7625979" lon="16.3830891"><ele>766.0</ele><time>2026-04-19T10:24:45.927Z</time></trkpt><trkpt lat="38.7626012" lon="16.3832121"><ele>768.0</ele><time>2026-04-19T10:24:46.93Z</time></trkpt><trkpt lat="38.7625806" lon="16.3833382"><ele>770.0</ele><time>2026-04-19T10:24:47.93Z</time></trkpt><trkpt lat="38.7625491" lon="16.3834665"><ele>772.0</ele><time>2026-04-19T10:24:48.934Z</time></trkpt><trkpt lat="38.7625233" lon="16.3835855"><ele>772.0</ele><time>2026-04-19T10:24:49.928Z</time></trkpt><trkpt lat="38.7624599" lon="16.383841"><ele>772.0</ele><time>2026-04-19T10:24:51.933Z</time></trkpt><trkpt lat="38.7624759" lon="16.3839779"><ele>772.0</ele><time>2026-04-19T10:24:52.935Z</time></trkpt><trkpt lat="38.7624758" lon="16.3840832"><ele>772.0</ele><time>2026-04-19T10:24:53.933Z</time></trkpt><trkpt lat="38.7624264" lon="16.3842292"><ele>772.4999999999999</ele><time>2026-04-19T10:24:57.939Z</time></trkpt><trkpt lat="38.7623912" lon="16.3843159"><ele>773.0</ele><time>2026-04-19T10:25:01.942Z</time></trkpt><trkpt lat="38.7623213" lon="16.3843655"><ele>773.5</ele><time>2026-04-19T10:25:03.946Z</time></trkpt><trkpt lat="38.7622496" lon="16.384396"><ele>774.0</ele><time>2026-04-19T10:25:04.934Z</time></trkpt><trkpt lat="38.7621794" lon="16.3844225"><ele>774.4999999999999</ele><time>2026-04-19T10:25:05.939Z</time></trkpt><trkpt lat="38.7620801" lon="16.3844674"><ele>775.0</ele><time>2026-04-19T10:25:06.933Z</time></trkpt><trkpt lat="38.7619763" lon="16.3845169"><ele>775.0</ele><time>2026-04-19T10:25:07.934Z</time></trkpt><trkpt lat="38.7618806" lon="16.3845671"><ele>775.0</ele><time>2026-04-19T10:25:08.933Z</time></trkpt><trkpt lat="38.7617836" lon="16.3846167"><ele>775.0</ele><time>2026-04-19T10:25:09.935Z</time></trkpt><trkpt lat="38.7616936" lon="16.3846737"><ele>775.0</ele><time>2026-04-19T10:25:10.932Z</time></trkpt><trkpt lat="38.7615984" lon="16.3847336"><ele>775.0</ele><time>2026-04-19T10:25:11.93Z</time></trkpt><trkpt lat="38.7615363" lon="16.3847868"><ele>776.2</ele><time>2026-04-19T10:25:12.936Z</time></trkpt><trkpt lat="38.7614695" lon="16.3848419"><ele>777.4</ele><time>2026-04-19T10:25:15.933Z</time></trkpt><trkpt lat="38.7613954" lon="16.384904"><ele>778.5999999999999</ele><time>2026-04-19T10:25:18.936Z</time></trkpt><trkpt lat="38.7613108" lon="16.3849417"><ele>779.8</ele><time>2026-04-19T10:25:20.944Z</time></trkpt><trkpt lat="38.761219" lon="16.3849939"><ele>781.0</ele><time>2026-04-19T10:25:22.938Z</time></trkpt><trkpt lat="38.7611313" lon="16.3850602"><ele>780.9999999999999</ele><time>2026-04-19T10:25:24.94Z</time></trkpt><trkpt lat="38.7610653" lon="16.3850991"><ele>781.0</ele><time>2026-04-19T10:25:26.935Z</time></trkpt><trkpt lat="38.7609927" lon="16.385142"><ele>781.0</ele><time>2026-04-19T10:25:28.942Z</time></trkpt><trkpt lat="38.7609028" lon="16.3851911"><ele>781.0</ele><time>2026-04-19T10:25:30.938Z</time></trkpt><trkpt lat="38.7608333" lon="16.3852286"><ele>780.9999999999999</ele><time>2026-04-19T10:25:31.94Z</time></trkpt><trkpt lat="38.7607744" lon="16.3852835"><ele>781.0</ele><time>2026-04-19T10:25:32.94Z</time></trkpt><trkpt lat="38.7606762" lon="16.3853677"><ele>782.5999999999999</ele><time>2026-04-19T10:25:34.938Z</time></trkpt><trkpt lat="38.7606018" lon="16.3854333"><ele>784.2</ele><time>2026-04-19T10:25:36.936Z</time></trkpt><trkpt lat="38.7605207" lon="16.3854415"><ele>785.8</ele><time>2026-04-19T10:25:38.938Z</time></trkpt><trkpt lat="38.7604219" lon="16.3854055"><ele>787.4000000000001</ele><time>2026-04-19T10:25:40.938Z</time></trkpt><trkpt lat="38.7603501" lon="16.3853201"><ele>789.0</ele><time>2026-04-19T10:25:42.937Z</time></trkpt><trkpt lat="38.7602644" lon="16.3852351"><ele>789.75</ele><time>2026-04-19T10:25:44.933Z</time></trkpt><trkpt lat="38.7601833" lon="16.3851987"><ele>790.5</ele><time>2026-04-19T10:25:45.948Z</time></trkpt><trkpt lat="38.7600642" lon="16.3851781"><ele>791.25</ele><time>2026-04-19T10:25:46.933Z</time></trkpt><trkpt lat="38.7599435" lon="16.3851611"><ele>792.0</ele><time>2026-04-19T10:25:47.932Z</time></trkpt><trkpt lat="38.7598157" lon="16.3851389"><ele>792.0</ele><time>2026-04-19T10:25:48.93Z</time></trkpt><trkpt lat="38.7597319" lon="16.3851298"><ele>792.0</ele><time>2026-04-19T10:25:49.937Z</time></trkpt><trkpt lat="38.7596395" lon="16.3851421"><ele>792.0</ele><time>2026-04-19T10:25:50.937Z</time></trkpt><trkpt lat="38.7595478" lon="16.3851938"><ele>792.0</ele><time>2026-04-19T10:25:51.94Z</time></trkpt><trkpt lat="38.7594566" lon="16.3852438"><ele>792.0</ele><time>2026-04-19T10:25:52.929Z</time></trkpt><trkpt lat="38.7593868" lon="16.3853067"><ele>793.1666666666666</ele><time>2026-04-19T10:25:53.931Z</time></trkpt><trkpt lat="38.7593265" lon="16.3853984"><ele>794.3333333333333</ele><time>2026-04-19T10:25:54.929Z</time></trkpt><trkpt lat="38.7592765" lon="16.3854935"><ele>795.5</ele><time>2026-04-19T10:25:55.932Z</time></trkpt><trkpt lat="38.7592666" lon="16.3855937"><ele>796.6666666666666</ele><time>2026-04-19T10:25:56.934Z</time></trkpt><trkpt lat="38.7592576" lon="16.3856963"><ele>797.8333333333333</ele><time>2026-04-19T10:25:57.937Z</time></trkpt><trkpt lat="38.7592638" lon="16.3857778"><ele>799.0</ele><time>2026-04-19T10:25:58.928Z</time></trkpt><trkpt lat="38.7592788" lon="16.3859104"><ele>799.0</ele><time>2026-04-19T10:26:00.93Z</time></trkpt><trkpt lat="38.7592734" lon="16.3860487"><ele>799.0</ele><time>2026-04-19T10:26:02.933Z</time></trkpt><trkpt lat="38.759274" lon="16.386177"><ele>799.0</ele><time>2026-04-19T10:26:04.933Z</time></trkpt><trkpt lat="38.759274" lon="16.3862813"><ele>799.0</ele><time>2026-04-19T10:26:06.938Z</time></trkpt><trkpt lat="38.7592944" lon="16.3863905"><ele>799.0</ele><time>2026-04-19T10:26:32.936Z</time></trkpt><trkpt lat="38.7592218" lon="16.3864631"><ele>800.3333333333333</ele><time>2026-04-19T10:28:57.942Z</time></trkpt><trkpt lat="38.7591602" lon="16.3865357"><ele>801.6666666666666</ele><time>2026-04-19T10:29:02.947Z</time></trkpt><trkpt lat="38.7591286" lon="16.3866277"><ele>803.0</ele><time>2026-04-19T10:29:05.939Z</time></trkpt><trkpt lat="38.7591066" lon="16.3867257"><ele>804.3333333333333</ele><time>2026-04-19T10:29:08.939Z</time></trkpt><trkpt lat="38.7591747" lon="16.3867367"><ele>805.6666666666666</ele><time>2026-04-19T10:29:14.961Z</time></trkpt><trkpt lat="38.7592488" lon="16.3867652"><ele>807.0</ele><time>2026-04-19T10:29:20.933Z</time></trkpt><trkpt lat="38.7593119" lon="16.3867642"><ele>807.8571428571429</ele><time>2026-04-19T10:30:01.933Z</time></trkpt><trkpt lat="38.7593768" lon="16.3867291"><ele>808.7142857142858</ele><time>2026-04-19T10:31:20.902Z</time></trkpt><trkpt lat="38.7594388" lon="16.3867135"><ele>809.5714285714287</ele><time>2026-04-19T10:32:17.935Z</time></trkpt><trkpt lat="38.7595275" lon="16.386665"><ele>810.4285714285714</ele><time>2026-04-19T10:32:19.942Z</time></trkpt><trkpt lat="38.7595947" lon="16.3866483"><ele>811.2857142857142</ele><time>2026-04-19T10:32:23.934Z</time></trkpt><trkpt lat="38.7596585" lon="16.3866387"><ele>812.1428571428572</ele><time>2026-04-19T10:32:25.94Z</time></trkpt><trkpt lat="38.7597382" lon="16.3866442"><ele>813.0</ele><time>2026-04-19T10:32:27.938Z</time></trkpt><trkpt lat="38.759818" lon="16.3866951"><ele>813.0</ele><time>2026-04-19T10:32:29.936Z</time></trkpt><trkpt lat="38.7598953" lon="16.3867419"><ele>813.0</ele><time>2026-04-19T10:32:31.932Z</time></trkpt><trkpt lat="38.7599674" lon="16.3868"><ele>813.0</ele><time>2026-04-19T10:32:33.938Z</time></trkpt><trkpt lat="38.760027" lon="16.3868539"><ele>813.0</ele><time>2026-04-19T10:32:35.936Z</time></trkpt><trkpt lat="38.7600913" lon="16.3869231"><ele>813.0</ele><time>2026-04-19T10:32:37.941Z</time></trkpt><trkpt lat="38.7601752" lon="16.387004"><ele>813.0</ele><time>2026-04-19T10:32:39.941Z</time></trkpt><trkpt lat="38.7602525" lon="16.3871017"><ele>814.8333333333334</ele><time>2026-04-19T10:32:41.932Z</time></trkpt><trkpt lat="38.7603154" lon="16.3872009"><ele>816.6666666666667</ele><time>2026-04-19T10:32:43.936Z</time></trkpt><trkpt lat="38.7603914" lon="16.3872849"><ele>818.5</ele><time>2026-04-19T10:32:45.932Z</time></trkpt><trkpt lat="38.7604422" lon="16.387354"><ele>820.3333333333334</ele><time>2026-04-19T10:32:46.933Z</time></trkpt><trkpt lat="38.7604875" lon="16.3874272"><ele>822.1666666666667</ele><time>2026-04-19T10:32:47.943Z</time></trkpt><trkpt lat="38.7605333" lon="16.3874859"><ele>824.0</ele><time>2026-04-19T10:32:48.937Z</time></trkpt><trkpt lat="38.7605784" lon="16.3875533"><ele>823.9999999999999</ele><time>2026-04-19T10:32:49.93Z</time></trkpt><trkpt lat="38.7606169" lon="16.3876336"><ele>824.0</ele><time>2026-04-19T10:32:50.938Z</time></trkpt><trkpt lat="38.7606511" lon="16.3877126"><ele>824.0</ele><time>2026-04-19T10:32:51.936Z</time></trkpt><trkpt lat="38.7606843" lon="16.3877892"><ele>824.0</ele><time>2026-04-19T10:32:52.949Z</time></trkpt><trkpt lat="38.760712" lon="16.3878701"><ele>824.0</ele><time>2026-04-19T10:32:53.932Z</time></trkpt><trkpt lat="38.7607519" lon="16.3879733"><ele>823.9999999999999</ele><time>2026-04-19T10:32:54.943Z</time></trkpt><trkpt lat="38.7607785" lon="16.3880524"><ele>824.0</ele><time>2026-04-19T10:32:55.938Z</time></trkpt><trkpt lat="38.7608086" lon="16.3881375"><ele>827.2</ele><time>2026-04-19T10:32:56.935Z</time></trkpt><trkpt lat="38.7608487" lon="16.3882307"><ele>830.4000000000001</ele><time>2026-04-19T10:32:57.934Z</time></trkpt><trkpt lat="38.7608893" lon="16.38832"><ele>833.6</ele><time>2026-04-19T10:32:58.932Z</time></trkpt><trkpt lat="38.7609316" lon="16.388405"><ele>836.8</ele><time>2026-04-19T10:32:59.951Z</time></trkpt><trkpt lat="38.7610219" lon="16.388504"><ele>840.0</ele><time>2026-04-19T10:33:01.934Z</time></trkpt><trkpt lat="38.7611432" lon="16.3885336"><ele>840.5</ele><time>2026-04-19T10:33:03.934Z</time></trkpt><trkpt lat="38.7612673" lon="16.3885691"><ele>841.0</ele><time>2026-04-19T10:33:05.936Z</time></trkpt><trkpt lat="38.7613354" lon="16.3886078"><ele>841.5</ele><time>2026-04-19T10:33:06.933Z</time></trkpt><trkpt lat="38.7614143" lon="16.3886538"><ele>842.0</ele><time>2026-04-19T10:33:07.951Z</time></trkpt><trkpt lat="38.7614849" lon="16.3886826"><ele>842.5</ele><time>2026-04-19T10:33:08.932Z</time></trkpt><trkpt lat="38.7615482" lon="16.388691"><ele>843.0</ele><time>2026-04-19T10:33:09.939Z</time></trkpt><trkpt lat="38.7616267" lon="16.3887022"><ele>843.0</ele><time>2026-04-19T10:33:10.929Z</time></trkpt><trkpt lat="38.7617317" lon="16.3887239"><ele>843.0</ele><time>2026-04-19T10:33:12.935Z</time></trkpt><trkpt lat="38.761826" lon="16.388775"><ele>843.0</ele><time>2026-04-19T10:33:14.974Z</time></trkpt><trkpt lat="38.7618422" lon="16.3888958"><ele>843.0</ele><time>2026-04-19T10:33:17.931Z</time></trkpt><trkpt lat="38.7617931" lon="16.3889574"><ele>843.0</ele><time>2026-04-19T10:33:18.928Z</time></trkpt><trkpt lat="38.7617207" lon="16.3890639"><ele>845.0</ele><time>2026-04-19T10:33:19.933Z</time></trkpt><trkpt lat="38.7616364" lon="16.3891598"><ele>847.0</ele><time>2026-04-19T10:33:20.933Z</time></trkpt><trkpt lat="38.7615573" lon="16.3892435"><ele>849.0</ele><time>2026-04-19T10:33:21.934Z</time></trkpt><trkpt lat="38.761499" lon="16.3893239"><ele>851.0</ele><time>2026-04-19T10:33:22.93Z</time></trkpt><trkpt lat="38.7614342" lon="16.3893954"><ele>853.0</ele><time>2026-04-19T10:33:23.93Z</time></trkpt><trkpt lat="38.7613716" lon="16.3894965"><ele>852.9999999999999</ele><time>2026-04-19T10:33:24.931Z</time></trkpt><trkpt lat="38.7613132" lon="16.389568"><ele>853.0</ele><time>2026-04-19T10:33:25.934Z</time></trkpt><trkpt lat="38.7612706" lon="16.3896524"><ele>853.0</ele><time>2026-04-19T10:33:26.937Z</time></trkpt><trkpt lat="38.7611941" lon="16.3897173"><ele>853.0</ele><time>2026-04-19T10:33:27.932Z</time></trkpt><trkpt lat="38.7611417" lon="16.3897739"><ele>852.9999999999999</ele><time>2026-04-19T10:33:28.929Z</time></trkpt><trkpt lat="38.7610874" lon="16.3898456"><ele>853.0</ele><time>2026-04-19T10:33:29.932Z</time></trkpt><trkpt lat="38.7610307" lon="16.3899246"><ele>854.6666666666666</ele><time>2026-04-19T10:33:30.933Z</time></trkpt><trkpt lat="38.760969" lon="16.3900061"><ele>856.3333333333333</ele><time>2026-04-19T10:33:31.931Z</time></trkpt><trkpt lat="38.7609371" lon="16.3900842"><ele>858.0</ele><time>2026-04-19T10:33:32.937Z</time></trkpt><trkpt lat="38.7608905" lon="16.3901656"><ele>859.6666666666667</ele><time>2026-04-19T10:33:33.93Z</time></trkpt><trkpt lat="38.7608474" lon="16.3902642"><ele>861.3333333333334</ele><time>2026-04-19T10:33:34.942Z</time></trkpt><trkpt lat="38.7608046" lon="16.3903544"><ele>863.0</ele><time>2026-04-19T10:33:35.931Z</time></trkpt><trkpt lat="38.7607535" lon="16.3904441"><ele>863.0</ele><time>2026-04-19T10:33:36.93Z</time></trkpt><trkpt lat="38.7606975" lon="16.3905457"><ele>863.0</ele><time>2026-04-19T10:33:37.928Z</time></trkpt><trkpt lat="38.7606387" lon="16.3906179"><ele>863.0</ele><time>2026-04-19T10:33:38.931Z</time></trkpt><trkpt lat="38.7605328" lon="16.3907173"><ele>863.0</ele><time>2026-04-19T10:33:39.927Z</time></trkpt><trkpt lat="38.7604697" lon="16.3907577"><ele>863.0</ele><time>2026-04-19T10:33:40.93Z</time></trkpt><trkpt lat="38.7603946" lon="16.3907546"><ele>863.0000000000001</ele><time>2026-04-19T10:33:48.933Z</time></trkpt><trkpt lat="38.7603479" lon="16.3908212"><ele>863.0</ele><time>2026-04-19T10:33:50.936Z</time></trkpt><trkpt lat="38.7603138" lon="16.3909099"><ele>863.0</ele><time>2026-04-19T10:33:53.94Z</time></trkpt><trkpt lat="38.760273" lon="16.390997"><ele>863.0</ele><time>2026-04-19T10:33:56.936Z</time></trkpt><trkpt lat="38.7602329" lon="16.3910642"><ele>863.0000000000001</ele><time>2026-04-19T10:33:58.937Z</time></trkpt><trkpt lat="38.760177" lon="16.3911639"><ele>863.0</ele><time>2026-04-19T10:34:00.936Z</time></trkpt><trkpt lat="38.7601029" lon="16.3912808"><ele>864.3333333333334</ele><time>2026-04-19T10:34:02.943Z</time></trkpt><trkpt lat="38.760037" lon="16.391404"><ele>865.6666666666667</ele><time>2026-04-19T10:34:04.937Z</time></trkpt><trkpt lat="38.7599759" lon="16.3915125"><ele>867.0</ele><time>2026-04-19T10:34:06.937Z</time></trkpt><trkpt lat="38.7599297" lon="16.3915767"><ele>868.3333333333333</ele><time>2026-04-19T10:34:07.94Z</time></trkpt><trkpt lat="38.7598868" lon="16.3916508"><ele>869.6666666666666</ele><time>2026-04-19T10:34:08.937Z</time></trkpt><trkpt lat="38.7598508" lon="16.3917185"><ele>871.0</ele><time>2026-04-19T10:34:09.944Z</time></trkpt><trkpt lat="38.7598055" lon="16.3918152"><ele>870.9999999999999</ele><time>2026-04-19T10:34:11.937Z</time></trkpt><trkpt lat="38.7597514" lon="16.3919123"><ele>871.0</ele><time>2026-04-19T10:34:13.94Z</time></trkpt><trkpt lat="38.7597305" lon="16.3920033"><ele>871.0</ele><time>2026-04-19T10:34:15.938Z</time></trkpt><trkpt lat="38.759688" lon="16.3921086"><ele>871.0</ele><time>2026-04-19T10:34:17.938Z</time></trkpt><trkpt lat="38.7596523" lon="16.3921783"><ele>870.9999999999999</ele><time>2026-04-19T10:34:18.941Z</time></trkpt><trkpt lat="38.7596015" lon="16.3923018"><ele>871.0</ele><time>2026-04-19T10:34:20.932Z</time></trkpt><trkpt lat="38.7595546" lon="16.392416"><ele>871.3333333333333</ele><time>2026-04-19T10:34:22.933Z</time></trkpt><trkpt lat="38.7595261" lon="16.3924905"><ele>871.6666666666666</ele><time>2026-04-19T10:34:23.939Z</time></trkpt><trkpt lat="38.7594689" lon="16.3926312"><ele>872.0</ele><time>2026-04-19T10:34:25.933Z</time></trkpt><trkpt lat="38.7594315" lon="16.3927318"><ele>872.3333333333333</ele><time>2026-04-19T10:34:26.931Z</time></trkpt><trkpt lat="38.7593937" lon="16.3928134"><ele>872.6666666666666</ele><time>2026-04-19T10:34:27.935Z</time></trkpt><trkpt lat="38.7593636" lon="16.3928968"><ele>873.0</ele><time>2026-04-19T10:34:28.931Z</time></trkpt><trkpt lat="38.7593174" lon="16.3930135"><ele>876.8</ele><time>2026-04-19T10:34:29.93Z</time></trkpt><trkpt lat="38.7592692" lon="16.3931547"><ele>880.5999999999999</ele><time>2026-04-19T10:34:30.93Z</time></trkpt><trkpt lat="38.7592593" lon="16.3932573"><ele>884.4000000000001</ele><time>2026-04-19T10:34:31.938Z</time></trkpt><trkpt lat="38.7592367" lon="16.3933647"><ele>888.2</ele><time>2026-04-19T10:34:32.929Z</time></trkpt><trkpt lat="38.7592196" lon="16.3934825"><ele>892.0</ele><time>2026-04-19T10:34:33.934Z</time></trkpt><trkpt lat="38.7591953" lon="16.3936162"><ele>891.9999999999999</ele><time>2026-04-19T10:34:34.935Z</time></trkpt><trkpt lat="38.7591795" lon="16.3937216"><ele>892.0</ele><time>2026-04-19T10:34:35.936Z</time></trkpt><trkpt lat="38.7591681" lon="16.3938226"><ele>892.0</ele><time>2026-04-19T10:34:36.927Z</time></trkpt><trkpt lat="38.7591536" lon="16.393924"><ele>892.0</ele><time>2026-04-19T10:34:37.933Z</time></trkpt><trkpt lat="38.7591567" lon="16.3940335"><ele>891.9999999999999</ele><time>2026-04-19T10:34:39.937Z</time></trkpt><trkpt lat="38.7591318" lon="16.3941242"><ele>892.0</ele><time>2026-04-19T10:34:42.937Z</time></trkpt><trkpt lat="38.7591434" lon="16.3942424"><ele>891.0</ele><time>2026-04-19T10:36:11.935Z</time></trkpt><trkpt lat="38.7591003" lon="16.3943195"><ele>890.0</ele><time>2026-04-19T10:36:16.932Z</time></trkpt><trkpt lat="38.7590318" lon="16.3944022"><ele>889.0</ele><time>2026-04-19T10:36:19.934Z</time></trkpt><trkpt lat="38.7589488" lon="16.3944993"><ele>888.0</ele><time>2026-04-19T10:36:21.935Z</time></trkpt><trkpt lat="38.7588982" lon="16.3945755"><ele>887.0</ele><time>2026-04-19T10:36:22.937Z</time></trkpt><trkpt lat="38.7588342" lon="16.3946647"><ele>884.8333333333334</ele><time>2026-04-19T10:36:23.931Z</time></trkpt><trkpt lat="38.7587787" lon="16.3947657"><ele>882.6666666666667</ele><time>2026-04-19T10:36:24.937Z</time></trkpt><trkpt lat="38.7587173" lon="16.3948608"><ele>880.5</ele><time>2026-04-19T10:36:25.937Z</time></trkpt><trkpt lat="38.7586553" lon="16.3949491"><ele>878.3333333333333</ele><time>2026-04-19T10:36:26.932Z</time></trkpt><trkpt lat="38.7586061" lon="16.3950173"><ele>876.1666666666666</ele><time>2026-04-19T10:36:27.933Z</time></trkpt><trkpt lat="38.7585599" lon="16.3950854"><ele>874.0</ele><time>2026-04-19T10:36:28.939Z</time></trkpt><trkpt lat="38.7585178" lon="16.395163"><ele>874.0</ele><time>2026-04-19T10:36:29.934Z</time></trkpt><trkpt lat="38.7584536" lon="16.3952722"><ele>874.0000000000001</ele><time>2026-04-19T10:36:31.937Z</time></trkpt><trkpt lat="38.7583938" lon="16.395362"><ele>874.0000000000001</ele><time>2026-04-19T10:36:33.938Z</time></trkpt><trkpt lat="38.7583521" lon="16.3954677"><ele>874.0</ele><time>2026-04-19T10:36:35.936Z</time></trkpt><trkpt lat="38.7583095" lon="16.3955958"><ele>874.0</ele><time>2026-04-19T10:36:37.944Z</time></trkpt><trkpt lat="38.7582971" lon="16.3956766"><ele>872.0</ele><time>2026-04-19T10:36:39.94Z</time></trkpt><trkpt lat="38.7582367" lon="16.395791"><ele>870.0000000000001</ele><time>2026-04-19T10:36:58.934Z</time></trkpt><trkpt lat="38.7582004" lon="16.3959137"><ele>868.0000000000001</ele><time>2026-04-19T10:37:01.934Z</time></trkpt><trkpt lat="38.7581606" lon="16.3960121"><ele>866.0</ele><time>2026-04-19T10:37:03.933Z</time></trkpt><trkpt lat="38.7581201" lon="16.39611"><ele>864.0</ele><time>2026-04-19T10:37:05.932Z</time></trkpt><trkpt lat="38.7580914" lon="16.3962117"><ele>862.0</ele><time>2026-04-19T10:37:07.932Z</time></trkpt><trkpt lat="38.758098" lon="16.3963767"><ele>860.0000000000001</ele><time>2026-04-19T10:37:09.936Z</time></trkpt><trkpt lat="38.7580992" lon="16.3965142"><ele>858.0000000000001</ele><time>2026-04-19T10:37:11.93Z</time></trkpt><trkpt lat="38.7580764" lon="16.3966265"><ele>856.0</ele><time>2026-04-19T10:37:13.934Z</time></trkpt><trkpt lat="38.7580443" lon="16.3967273"><ele>854.0</ele><time>2026-04-19T10:37:15.94Z</time></trkpt><trkpt lat="38.7580147" lon="16.3968279"><ele>854.0</ele><time>2026-04-19T10:37:17.941Z</time></trkpt><trkpt lat="38.7579954" lon="16.3969152"><ele>854.0000000000001</ele><time>2026-04-19T10:37:19.94Z</time></trkpt><trkpt lat="38.7579641" lon="16.3970314"><ele>854.0000000000001</ele><time>2026-04-19T10:37:22.943Z</time></trkpt><trkpt lat="38.7579671" lon="16.3971438"><ele>854.0</ele><time>2026-04-19T10:37:24.938Z</time></trkpt><trkpt lat="38.7579911" lon="16.397262"><ele>854.0</ele><time>2026-04-19T10:37:26.94Z</time></trkpt><trkpt lat="38.7580228" lon="16.3973919"><ele>852.5000000000001</ele><time>2026-04-19T10:37:28.94Z</time></trkpt><trkpt lat="38.7580127" lon="16.3974782"><ele>851.0</ele><time>2026-04-19T10:37:29.937Z</time></trkpt><trkpt lat="38.7579927" lon="16.3975553"><ele>849.5</ele><time>2026-04-19T10:37:30.936Z</time></trkpt><trkpt lat="38.7579571" lon="16.397694"><ele>848.0</ele><time>2026-04-19T10:37:32.933Z</time></trkpt><trkpt lat="38.7579185" lon="16.3978151"><ele>846.5000000000001</ele><time>2026-04-19T10:37:34.94Z</time></trkpt><trkpt lat="38.7578875" lon="16.3979296"><ele>845.0</ele><time>2026-04-19T10:37:36.937Z</time></trkpt><trkpt lat="38.7578617" lon="16.3980617"><ele>843.8</ele><time>2026-04-19T10:37:38.941Z</time></trkpt><trkpt lat="38.7578584" lon="16.3981645"><ele>842.6</ele><time>2026-04-19T10:37:40.938Z</time></trkpt><trkpt lat="38.7578393" lon="16.3982707"><ele>841.4000000000001</ele><time>2026-04-19T10:37:42.937Z</time></trkpt><trkpt lat="38.7577939" lon="16.398409"><ele>840.2</ele><time>2026-04-19T10:37:44.941Z</time></trkpt><trkpt lat="38.7577496" lon="16.3985151"><ele>839.0</ele><time>2026-04-19T10:37:46.944Z</time></trkpt><trkpt lat="38.757703" lon="16.3986127"><ele>839.0</ele><time>2026-04-19T10:37:48.942Z</time></trkpt><trkpt lat="38.7576584" lon="16.3987178"><ele>839.0</ele><time>2026-04-19T10:37:51.938Z</time></trkpt><trkpt lat="38.7576076" lon="16.3988077"><ele>839.0</ele><time>2026-04-19T10:37:53.946Z</time></trkpt><trkpt lat="38.7575523" lon="16.3989286"><ele>839.0</ele><time>2026-04-19T10:37:55.936Z</time></trkpt><trkpt lat="38.7575159" lon="16.3990142"><ele>839.0</ele><time>2026-04-19T10:37:56.937Z</time></trkpt><trkpt lat="38.7574727" lon="16.3991085"><ele>838.3333333333334</ele><time>2026-04-19T10:37:57.932Z</time></trkpt><trkpt lat="38.7574256" lon="16.3992019"><ele>837.6666666666667</ele><time>2026-04-19T10:37:58.946Z</time></trkpt><trkpt lat="38.7573955" lon="16.3992758"><ele>837.0</ele><time>2026-04-19T10:37:59.937Z</time></trkpt><trkpt lat="38.7573476" lon="16.3993707"><ele>836.3333333333333</ele><time>2026-04-19T10:38:01.944Z</time></trkpt><trkpt lat="38.7573069" lon="16.3994646"><ele>835.6666666666666</ele><time>2026-04-19T10:38:03.939Z</time></trkpt><trkpt lat="38.7572625" lon="16.3995404"><ele>835.0</ele><time>2026-04-19T10:38:05.937Z</time></trkpt><trkpt lat="38.7572229" lon="16.3996333"><ele>834.4999999999999</ele><time>2026-04-19T10:38:08.941Z</time></trkpt><trkpt lat="38.7571886" lon="16.3997366"><ele>834.0</ele><time>2026-04-19T10:38:11.944Z</time></trkpt><trkpt lat="38.7571579" lon="16.3998115"><ele>833.5</ele><time>2026-04-19T10:38:13.939Z</time></trkpt><trkpt lat="38.7571125" lon="16.3998949"><ele>833.0</ele><time>2026-04-19T10:38:15.94Z</time></trkpt><trkpt lat="38.7570557" lon="16.3999885"><ele>832.4999999999999</ele><time>2026-04-19T10:38:18.945Z</time></trkpt><trkpt lat="38.7569916" lon="16.4000905"><ele>832.0</ele><time>2026-04-19T10:38:20.938Z</time></trkpt><trkpt lat="38.7569371" lon="16.4002193"><ele>832.0</ele><time>2026-04-19T10:38:22.934Z</time></trkpt><trkpt lat="38.7568842" lon="16.4003139"><ele>832.0</ele><time>2026-04-19T10:38:24.936Z</time></trkpt><trkpt lat="38.7568204" lon="16.4004056"><ele>832.0</ele><time>2026-04-19T10:38:26.937Z</time></trkpt><trkpt lat="38.7567466" lon="16.4004907"><ele>832.0</ele><time>2026-04-19T10:38:28.936Z</time></trkpt><trkpt lat="38.7566835" lon="16.4005688"><ele>832.0</ele><time>2026-04-19T10:38:30.942Z</time></trkpt><trkpt lat="38.7566335" lon="16.4006457"><ele>830.2857142857142</ele><time>2026-04-19T10:38:32.942Z</time></trkpt><trkpt lat="38.756573" lon="16.4007067"><ele>828.5714285714287</ele><time>2026-04-19T10:38:34.943Z</time></trkpt><trkpt lat="38.7565093" lon="16.4007487"><ele>826.8571428571429</ele><time>2026-04-19T10:38:36.941Z</time></trkpt><trkpt lat="38.756456" lon="16.4008021"><ele>825.1428571428571</ele><time>2026-04-19T10:38:39.938Z</time></trkpt><trkpt lat="38.7564404" lon="16.4008836"><ele>823.4285714285713</ele><time>2026-04-19T10:38:41.939Z</time></trkpt><trkpt lat="38.7564372" lon="16.4009711"><ele>821.7142857142858</ele><time>2026-04-19T10:38:43.936Z</time></trkpt><trkpt lat="38.7563844" lon="16.401034"><ele>820.0</ele><time>2026-04-19T10:38:45.94Z</time></trkpt><trkpt lat="38.7563188" lon="16.4011036"><ele>820.0</ele><time>2026-04-19T10:38:47.941Z</time></trkpt><trkpt lat="38.7562688" lon="16.4011937"><ele>820.0</ele><time>2026-04-19T10:38:49.938Z</time></trkpt><trkpt lat="38.7562092" lon="16.4013056"><ele>820.0</ele><time>2026-04-19T10:38:51.946Z</time></trkpt><trkpt lat="38.7561482" lon="16.4014624"><ele>820.0</ele><time>2026-04-19T10:38:53.936Z</time></trkpt><trkpt lat="38.7561108" lon="16.4015523"><ele>820.0</ele><time>2026-04-19T10:38:54.941Z</time></trkpt><trkpt lat="38.7560552" lon="16.4016209"><ele>819.6666666666666</ele><time>2026-04-19T10:38:55.935Z</time></trkpt><trkpt lat="38.7560005" lon="16.4016904"><ele>819.3333333333333</ele><time>2026-04-19T10:38:56.936Z</time></trkpt><trkpt lat="38.7559235" lon="16.4017588"><ele>819.0</ele><time>2026-04-19T10:38:57.937Z</time></trkpt><trkpt lat="38.7558291" lon="16.4018343"><ele>818.6666666666667</ele><time>2026-04-19T10:38:58.939Z</time></trkpt><trkpt lat="38.7557547" lon="16.4019011"><ele>818.3333333333334</ele><time>2026-04-19T10:38:59.941Z</time></trkpt><trkpt lat="38.7556984" lon="16.4019455"><ele>818.0</ele><time>2026-04-19T10:39:00.938Z</time></trkpt><trkpt lat="38.7556261" lon="16.4019796"><ele>818.0000000000001</ele><time>2026-04-19T10:39:02.942Z</time></trkpt><trkpt lat="38.7556285" lon="16.4020688"><ele>818.0</ele><time>2026-04-19T10:39:07.942Z</time></trkpt><trkpt lat="38.7556749" lon="16.4021451"><ele>818.0</ele><time>2026-04-19T10:39:11.939Z</time></trkpt><trkpt lat="38.7556993" lon="16.4022301"><ele>818.0</ele><time>2026-04-19T10:39:38.939Z</time></trkpt><trkpt lat="38.7556784" lon="16.4023618"><ele>818.0000000000001</ele><time>2026-04-19T10:39:40.941Z</time></trkpt><trkpt lat="38.7556134" lon="16.4024638"><ele>818.0</ele><time>2026-04-19T10:39:42.943Z</time></trkpt><trkpt lat="38.7555256" lon="16.4025574"><ele>815.4</ele><time>2026-04-19T10:39:44.944Z</time></trkpt><trkpt lat="38.7554961" lon="16.4026996"><ele>812.8</ele><time>2026-04-19T10:39:46.942Z</time></trkpt><trkpt lat="38.7554634" lon="16.4028319"><ele>810.2</ele><time>2026-04-19T10:39:48.94Z</time></trkpt><trkpt lat="38.7554225" lon="16.402951"><ele>807.6</ele><time>2026-04-19T10:39:50.938Z</time></trkpt><trkpt lat="38.7553916" lon="16.4030689"><ele>805.0</ele><time>2026-04-19T10:39:52.943Z</time></trkpt><trkpt lat="38.7553677" lon="16.4032289"><ele>804.9999999999999</ele><time>2026-04-19T10:39:54.939Z</time></trkpt><trkpt lat="38.7553523" lon="16.4033109"><ele>805.0</ele><time>2026-04-19T10:39:55.944Z</time></trkpt><trkpt lat="38.755339" lon="16.4033914"><ele>805.0</ele><time>2026-04-19T10:39:56.941Z</time></trkpt><trkpt lat="38.7553158" lon="16.4035398"><ele>805.0</ele><time>2026-04-19T10:39:58.939Z</time></trkpt><trkpt lat="38.7552866" lon="16.4036931"><ele>804.9999999999999</ele><time>2026-04-19T10:40:00.945Z</time></trkpt><trkpt lat="38.7552685" lon="16.4037783"><ele>805.0</ele><time>2026-04-19T10:40:01.942Z</time></trkpt><trkpt lat="38.7552472" lon="16.403865"><ele>806.1666666666666</ele><time>2026-04-19T10:40:02.938Z</time></trkpt><trkpt lat="38.7552276" lon="16.4039604"><ele>807.3333333333333</ele><time>2026-04-19T10:40:03.939Z</time></trkpt><trkpt lat="38.7552079" lon="16.4040528"><ele>808.5</ele><time>2026-04-19T10:40:04.936Z</time></trkpt><trkpt lat="38.7551871" lon="16.4041465"><ele>809.6666666666667</ele><time>2026-04-19T10:40:05.939Z</time></trkpt><trkpt lat="38.7551647" lon="16.4042396"><ele>810.8333333333334</ele><time>2026-04-19T10:40:06.935Z</time></trkpt><trkpt lat="38.7551501" lon="16.4043346"><ele>812.0</ele><time>2026-04-19T10:40:07.94Z</time></trkpt><trkpt lat="38.7551373" lon="16.4044247"><ele>812.8333333333334</ele><time>2026-04-19T10:40:08.943Z</time></trkpt><trkpt lat="38.7551385" lon="16.4045278"><ele>813.6666666666667</ele><time>2026-04-19T10:40:09.94Z</time></trkpt><trkpt lat="38.7551476" lon="16.4046309"><ele>814.5</ele><time>2026-04-19T10:40:10.938Z</time></trkpt><trkpt lat="38.7551567" lon="16.4047383"><ele>815.3333333333333</ele><time>2026-04-19T10:40:11.943Z</time></trkpt><trkpt lat="38.7551668" lon="16.4048473"><ele>816.1666666666666</ele><time>2026-04-19T10:40:12.945Z</time></trkpt><trkpt lat="38.755178" lon="16.4049562"><ele>817.0</ele><time>2026-04-19T10:40:13.943Z</time></trkpt><trkpt lat="38.7551889" lon="16.4050681"><ele>817.3333333333333</ele><time>2026-04-19T10:40:14.938Z</time></trkpt><trkpt lat="38.7552042" lon="16.4051752"><ele>817.6666666666666</ele><time>2026-04-19T10:40:15.934Z</time></trkpt><trkpt lat="38.7552142" lon="16.4052725"><ele>818.0</ele><time>2026-04-19T10:40:16.942Z</time></trkpt><trkpt lat="38.7552215" lon="16.4053551"><ele>818.3333333333333</ele><time>2026-04-19T10:40:17.938Z</time></trkpt><trkpt lat="38.7552002" lon="16.4054403"><ele>818.6666666666666</ele><time>2026-04-19T10:40:19.937Z</time></trkpt><trkpt lat="38.7551355" lon="16.4054143"><ele>819.0</ele><time>2026-04-19T10:40:22.937Z</time></trkpt><trkpt lat="38.7550523" lon="16.4053131"><ele>819.1666666666666</ele><time>2026-04-19T10:40:25.942Z</time></trkpt><trkpt lat="38.7549738" lon="16.4052245"><ele>819.3333333333333</ele><time>2026-04-19T10:40:27.936Z</time></trkpt><trkpt lat="38.7548988" lon="16.4051374"><ele>819.5</ele><time>2026-04-19T10:40:29.933Z</time></trkpt><trkpt lat="38.7548445" lon="16.4050727"><ele>819.6666666666666</ele><time>2026-04-19T10:40:32.937Z</time></trkpt><trkpt lat="38.7547824" lon="16.4050329"><ele>819.8333333333333</ele><time>2026-04-19T10:40:34.933Z</time></trkpt><trkpt lat="38.7547142" lon="16.4050008"><ele>820.0</ele><time>2026-04-19T10:40:36.936Z</time></trkpt><trkpt lat="38.7546275" lon="16.4049622"><ele>820.0</ele><time>2026-04-19T10:40:38.932Z</time></trkpt><trkpt lat="38.7545065" lon="16.4048817"><ele>820.0</ele><time>2026-04-19T10:40:40.935Z</time></trkpt><trkpt lat="38.7544351" lon="16.4048376"><ele>820.0</ele><time>2026-04-19T10:40:41.936Z</time></trkpt><trkpt lat="38.7543509" lon="16.4048063"><ele>820.0</ele><time>2026-04-19T10:40:42.933Z</time></trkpt><trkpt lat="38.7542741" lon="16.4047771"><ele>820.0</ele><time>2026-04-19T10:40:43.933Z</time></trkpt><trkpt lat="38.7541985" lon="16.4047536"><ele>819.9999999999999</ele><time>2026-04-19T10:40:44.932Z</time></trkpt><trkpt lat="38.7541118" lon="16.4047236"><ele>820.0</ele><time>2026-04-19T10:40:45.931Z</time></trkpt><trkpt lat="38.7540338" lon="16.4046948"><ele>820.0</ele><time>2026-04-19T10:40:46.933Z</time></trkpt><trkpt lat="38.7539575" lon="16.4046739"><ele>820.0</ele><time>2026-04-19T10:40:47.933Z</time></trkpt><trkpt lat="38.7538776" lon="16.4046348"><ele>819.9999999999999</ele><time>2026-04-19T10:40:49.938Z</time></trkpt><trkpt lat="38.7537841" lon="16.4045812"><ele>820.0</ele><time>2026-04-19T10:40:51.934Z</time></trkpt><trkpt lat="38.7536794" lon="16.404498"><ele>819.9999999999999</ele><time>2026-04-19T10:40:53.937Z</time></trkpt><trkpt lat="38.7536146" lon="16.4044554"><ele>820.0</ele><time>2026-04-19T10:40:54.939Z</time></trkpt><trkpt lat="38.753527" lon="16.4044446"><ele>820.0</ele><time>2026-04-19T10:40:55.937Z</time></trkpt><trkpt lat="38.7534475" lon="16.4044781"><ele>820.0</ele><time>2026-04-19T10:40:56.936Z</time></trkpt><trkpt lat="38.753366" lon="16.4045156"><ele>819.9999999999999</ele><time>2026-04-19T10:40:57.936Z</time></trkpt><trkpt lat="38.7533091" lon="16.4046007"><ele>820.0</ele><time>2026-04-19T10:40:58.942Z</time></trkpt><trkpt lat="38.7532663" lon="16.4047042"><ele>822.6</ele><time>2026-04-19T10:40:59.942Z</time></trkpt><trkpt lat="38.753235" lon="16.4048178"><ele>825.2</ele><time>2026-04-19T10:41:00.941Z</time></trkpt><trkpt lat="38.7531981" lon="16.4049348"><ele>827.8</ele><time>2026-04-19T10:41:01.941Z</time></trkpt><trkpt lat="38.7531539" lon="16.4050549"><ele>830.4</ele><time>2026-04-19T10:41:02.94Z</time></trkpt><trkpt lat="38.7531025" lon="16.4051764"><ele>833.0</ele><time>2026-04-19T10:41:03.936Z</time></trkpt><trkpt lat="38.7530399" lon="16.4052923"><ele>833.0</ele><time>2026-04-19T10:41:04.929Z</time></trkpt><trkpt lat="38.7529677" lon="16.4053974"><ele>833.0</ele><time>2026-04-19T10:41:05.936Z</time></trkpt><trkpt lat="38.7528886" lon="16.4054957"><ele>833.0</ele><time>2026-04-19T10:41:06.933Z</time></trkpt><trkpt lat="38.7528109" lon="16.4056018"><ele>833.0</ele><time>2026-04-19T10:41:07.951Z</time></trkpt><trkpt lat="38.7527358" lon="16.4057113"><ele>833.0</ele><time>2026-04-19T10:41:08.937Z</time></trkpt><trkpt lat="38.7526699" lon="16.4058305"><ele>833.5999999999999</ele><time>2026-04-19T10:41:09.941Z</time></trkpt><trkpt lat="38.75261" lon="16.4059549"><ele>834.1999999999999</ele><time>2026-04-19T10:41:10.937Z</time></trkpt><trkpt lat="38.7525512" lon="16.4060789"><ele>834.8</ele><time>2026-04-19T10:41:11.937Z</time></trkpt><trkpt lat="38.7524898" lon="16.4061975"><ele>835.4</ele><time>2026-04-19T10:41:12.938Z</time></trkpt><trkpt lat="38.7524267" lon="16.4063057"><ele>836.0</ele><time>2026-04-19T10:41:13.942Z</time></trkpt><trkpt lat="38.7523728" lon="16.4064011"><ele>836.8333333333334</ele><time>2026-04-19T10:41:14.942Z</time></trkpt><trkpt lat="38.7523" lon="16.4064484"><ele>837.6666666666667</ele><time>2026-04-19T10:41:15.941Z</time></trkpt><trkpt lat="38.752236" lon="16.406483"><ele>838.5</ele><time>2026-04-19T10:41:16.941Z</time></trkpt><trkpt lat="38.7521738" lon="16.4064478"><ele>839.3333333333333</ele><time>2026-04-19T10:41:17.936Z</time></trkpt><trkpt lat="38.7520737" lon="16.4064222"><ele>840.1666666666666</ele><time>2026-04-19T10:41:19.936Z</time></trkpt><trkpt lat="38.7520511" lon="16.406505"><ele>841.0</ele><time>2026-04-19T10:41:21.941Z</time></trkpt><trkpt lat="38.7520673" lon="16.4066475"><ele>840.9999999999999</ele><time>2026-04-19T10:41:23.935Z</time></trkpt><trkpt lat="38.7520706" lon="16.406739"><ele>841.0</ele><time>2026-04-19T10:41:24.933Z</time></trkpt><trkpt lat="38.7520868" lon="16.4068556"><ele>841.0</ele><time>2026-04-19T10:41:25.936Z</time></trkpt><trkpt lat="38.7521022" lon="16.4069718"><ele>841.0</ele><time>2026-04-19T10:41:26.936Z</time></trkpt><trkpt lat="38.7521308" lon="16.407069"><ele>840.9999999999999</ele><time>2026-04-19T10:41:27.936Z</time></trkpt><trkpt lat="38.7521627" lon="16.4071593"><ele>841.0</ele><time>2026-04-19T10:41:28.937Z</time></trkpt><trkpt lat="38.7521991" lon="16.4072543"><ele>841.9999999999999</ele><time>2026-04-19T10:41:29.931Z</time></trkpt><trkpt lat="38.7522318" lon="16.4073393"><ele>843.0</ele><time>2026-04-19T10:41:30.933Z</time></trkpt><trkpt lat="38.752267" lon="16.4074247"><ele>844.0</ele><time>2026-04-19T10:41:31.943Z</time></trkpt><trkpt lat="38.7523074" lon="16.4075184"><ele>845.0</ele><time>2026-04-19T10:41:32.936Z</time></trkpt><trkpt lat="38.75234" lon="16.4076042"><ele>845.9999999999999</ele><time>2026-04-19T10:41:33.941Z</time></trkpt><trkpt lat="38.7523713" lon="16.4076941"><ele>847.0</ele><time>2026-04-19T10:41:34.935Z</time></trkpt><trkpt lat="38.7524035" lon="16.4077759"><ele>846.9999999999999</ele><time>2026-04-19T10:41:35.94Z</time></trkpt><trkpt lat="38.752434" lon="16.4078603"><ele>847.0</ele><time>2026-04-19T10:41:36.936Z</time></trkpt><trkpt lat="38.7524664" lon="16.4079511"><ele>847.0</ele><time>2026-04-19T10:41:37.94Z</time></trkpt><trkpt lat="38.7524903" lon="16.4080521"><ele>847.0</ele><time>2026-04-19T10:41:38.937Z</time></trkpt><trkpt lat="38.7525079" lon="16.4081595"><ele>846.9999999999999</ele><time>2026-04-19T10:41:39.939Z</time></trkpt><trkpt lat="38.7525268" lon="16.408269"><ele>847.0</ele><time>2026-04-19T10:41:40.937Z</time></trkpt><trkpt lat="38.7525439" lon="16.4083781"><ele>846.8</ele><time>2026-04-19T10:41:41.932Z</time></trkpt><trkpt lat="38.7525659" lon="16.4084891"><ele>846.6</ele><time>2026-04-19T10:41:42.94Z</time></trkpt><trkpt lat="38.752582" lon="16.4086055"><ele>846.4</ele><time>2026-04-19T10:41:43.942Z</time></trkpt><trkpt lat="38.7526011" lon="16.4087273"><ele>846.1999999999999</ele><time>2026-04-19T10:41:44.933Z</time></trkpt><trkpt lat="38.7526358" lon="16.4088579"><ele>846.0</ele><time>2026-04-19T10:41:45.937Z</time></trkpt><trkpt lat="38.7526861" lon="16.4089866"><ele>844.5999999999999</ele><time>2026-04-19T10:41:46.936Z</time></trkpt><trkpt lat="38.7527255" lon="16.4091149"><ele>843.2</ele><time>2026-04-19T10:41:47.938Z</time></trkpt><trkpt lat="38.7527802" lon="16.4092246"><ele>841.8</ele><time>2026-04-19T10:41:48.94Z</time></trkpt><trkpt lat="38.7528418" lon="16.4093381"><ele>840.4000000000001</ele><time>2026-04-19T10:41:49.937Z</time></trkpt><trkpt lat="38.7529197" lon="16.4094455"><ele>839.0</ele><time>2026-04-19T10:41:50.96Z</time></trkpt><trkpt lat="38.753008" lon="16.4095419"><ele>839.0</ele><time>2026-04-19T10:41:51.941Z</time></trkpt><trkpt lat="38.7530785" lon="16.4096412"><ele>839.0</ele><time>2026-04-19T10:41:52.939Z</time></trkpt><trkpt lat="38.7531423" lon="16.409737"><ele>839.0</ele><time>2026-04-19T10:41:53.941Z</time></trkpt><trkpt lat="38.7531949" lon="16.409846"><ele>839.0</ele><time>2026-04-19T10:41:54.941Z</time></trkpt><trkpt lat="38.753236" lon="16.4099553"><ele>839.0</ele><time>2026-04-19T10:41:55.939Z</time></trkpt><trkpt lat="38.7532375" lon="16.4100696"><ele>839.1666666666667</ele><time>2026-04-19T10:41:56.94Z</time></trkpt><trkpt lat="38.753236" lon="16.4101713"><ele>839.3333333333334</ele><time>2026-04-19T10:41:57.942Z</time></trkpt><trkpt lat="38.7532079" lon="16.4102766"><ele>839.5</ele><time>2026-04-19T10:41:58.938Z</time></trkpt><trkpt lat="38.7531625" lon="16.4103661"><ele>839.6666666666667</ele><time>2026-04-19T10:41:59.94Z</time></trkpt><trkpt lat="38.7531011" lon="16.4104426"><ele>839.8333333333334</ele><time>2026-04-19T10:42:00.936Z</time></trkpt><trkpt lat="38.753023" lon="16.4105209"><ele>840.0</ele><time>2026-04-19T10:42:01.935Z</time></trkpt><trkpt lat="38.752942" lon="16.4106119"><ele>840.2</ele><time>2026-04-19T10:42:02.942Z</time></trkpt><trkpt lat="38.7528609" lon="16.4107228"><ele>840.4</ele><time>2026-04-19T10:42:03.937Z</time></trkpt><trkpt lat="38.752799" lon="16.4108161"><ele>840.5999999999999</ele><time>2026-04-19T10:42:04.937Z</time></trkpt><trkpt lat="38.7527432" lon="16.4109169"><ele>840.8</ele><time>2026-04-19T10:42:05.955Z</time></trkpt><trkpt lat="38.7527035" lon="16.411027"><ele>841.0</ele><time>2026-04-19T10:42:06.947Z</time></trkpt><trkpt lat="38.7526873" lon="16.4111394"><ele>841.0</ele><time>2026-04-19T10:42:07.939Z</time></trkpt><trkpt lat="38.7527051" lon="16.4112548"><ele>841.0</ele><time>2026-04-19T10:42:08.938Z</time></trkpt><trkpt lat="38.7527404" lon="16.4113768"><ele>841.0</ele><time>2026-04-19T10:42:09.949Z</time></trkpt><trkpt lat="38.7527859" lon="16.4114917"><ele>841.0</ele><time>2026-04-19T10:42:10.946Z</time></trkpt><trkpt lat="38.7528361" lon="16.4116133"><ele>841.0</ele><time>2026-04-19T10:42:11.937Z</time></trkpt><trkpt lat="38.7528776" lon="16.4117488"><ele>839.25</ele><time>2026-04-19T10:42:12.932Z</time></trkpt><trkpt lat="38.7529134" lon="16.4118881"><ele>837.5</ele><time>2026-04-19T10:42:13.936Z</time></trkpt><trkpt lat="38.7529554" lon="16.4120272"><ele>835.75</ele><time>2026-04-19T10:42:14.937Z</time></trkpt><trkpt lat="38.7529984" lon="16.4121717"><ele>834.0</ele><time>2026-04-19T10:42:15.937Z</time></trkpt><trkpt lat="38.7530359" lon="16.4123058"><ele>834.0</ele><time>2026-04-19T10:42:16.935Z</time></trkpt><trkpt lat="38.7530893" lon="16.4124429"><ele>834.0</ele><time>2026-04-19T10:42:17.93Z</time></trkpt><trkpt lat="38.7531375" lon="16.4125795"><ele>834.0</ele><time>2026-04-19T10:42:18.936Z</time></trkpt><trkpt lat="38.7531918" lon="16.4127206"><ele>834.0</ele><time>2026-04-19T10:42:19.931Z</time></trkpt><trkpt lat="38.7532418" lon="16.4128484"><ele>834.75</ele><time>2026-04-19T10:42:20.948Z</time></trkpt><trkpt lat="38.7532958" lon="16.412993"><ele>835.5</ele><time>2026-04-19T10:42:21.934Z</time></trkpt><trkpt lat="38.7533429" lon="16.4131356"><ele>836.25</ele><time>2026-04-19T10:42:22.938Z</time></trkpt><trkpt lat="38.7533799" lon="16.4132724"><ele>837.0</ele><time>2026-04-19T10:42:23.932Z</time></trkpt><trkpt lat="38.7534307" lon="16.4134157"><ele>837.0</ele><time>2026-04-19T10:42:24.936Z</time></trkpt><trkpt lat="38.7534807" lon="16.41358"><ele>837.0</ele><time>2026-04-19T10:42:25.942Z</time></trkpt><trkpt lat="38.753528" lon="16.4137515"><ele>837.0</ele><time>2026-04-19T10:42:26.941Z</time></trkpt><trkpt lat="38.7535768" lon="16.4138995"><ele>837.0</ele><time>2026-04-19T10:42:27.944Z</time></trkpt><trkpt lat="38.7536257" lon="16.4140277"><ele>836.2</ele><time>2026-04-19T10:42:28.942Z</time></trkpt><trkpt lat="38.7536694" lon="16.4141553"><ele>835.4000000000001</ele><time>2026-04-19T10:42:29.934Z</time></trkpt><trkpt lat="38.7536959" lon="16.4142758"><ele>834.5999999999999</ele><time>2026-04-19T10:42:30.94Z</time></trkpt><trkpt lat="38.7537242" lon="16.414398"><ele>833.8</ele><time>2026-04-19T10:42:31.934Z</time></trkpt><trkpt lat="38.7537683" lon="16.4145576"><ele>833.0</ele><time>2026-04-19T10:42:32.94Z</time></trkpt><trkpt lat="38.7538191" lon="16.4147168"><ele>833.0</ele><time>2026-04-19T10:42:33.938Z</time></trkpt><trkpt lat="38.7538663" lon="16.4149224"><ele>833.0</ele><time>2026-04-19T10:42:34.935Z</time></trkpt><trkpt lat="38.7539145" lon="16.4151438"><ele>833.0</ele><time>2026-04-19T10:42:35.936Z</time></trkpt><trkpt lat="38.7539457" lon="16.4154124"><ele>833.5</ele><time>2026-04-19T10:42:36.934Z</time></trkpt><trkpt lat="38.7539721" lon="16.4157118"><ele>834.0</ele><time>2026-04-19T10:42:37.93Z</time></trkpt><trkpt lat="38.7539579" lon="16.4160318"><ele>834.5</ele><time>2026-04-19T10:42:38.938Z</time></trkpt><trkpt lat="38.7539712" lon="16.4163365"><ele>835.0</ele><time>2026-04-19T10:42:39.935Z</time></trkpt><trkpt lat="38.7539725" lon="16.4166498"><ele>835.0</ele><time>2026-04-19T10:42:40.933Z</time></trkpt><trkpt lat="38.7539961" lon="16.4169235"><ele>835.0</ele><time>2026-04-19T10:42:41.938Z</time></trkpt><trkpt lat="38.7540228" lon="16.4172126"><ele>835.0</ele><time>2026-04-19T10:42:42.934Z</time></trkpt><trkpt lat="38.7540521" lon="16.4175002"><ele>835.3333333333333</ele><time>2026-04-19T10:42:43.935Z</time></trkpt><trkpt lat="38.7540966" lon="16.4177703"><ele>835.6666666666667</ele><time>2026-04-19T10:42:44.933Z</time></trkpt><trkpt lat="38.7541436" lon="16.4180022"><ele>836.0</ele><time>2026-04-19T10:42:45.936Z</time></trkpt><trkpt lat="38.7541781" lon="16.4182379"><ele>835.0</ele><time>2026-04-19T10:42:46.931Z</time></trkpt><trkpt lat="38.7542066" lon="16.418474"><ele>834.0</ele><time>2026-04-19T10:42:47.931Z</time></trkpt><trkpt lat="38.754196" lon="16.4187299"><ele>833.0</ele><time>2026-04-19T10:42:48.941Z</time></trkpt><trkpt lat="38.7541727" lon="16.418978"><ele>832.6666666666667</ele><time>2026-04-19T10:42:49.937Z</time></trkpt><trkpt lat="38.7540932" lon="16.4192701"><ele>832.3333333333333</ele><time>2026-04-19T10:42:50.931Z</time></trkpt><trkpt lat="38.7540551" lon="16.4195166"><ele>832.0</ele><time>2026-04-19T10:42:51.936Z</time></trkpt><trkpt lat="38.7540149" lon="16.4197406"><ele>833.0</ele><time>2026-04-19T10:42:52.936Z</time></trkpt><trkpt lat="38.7539515" lon="16.4199386"><ele>834.0</ele><time>2026-04-19T10:42:53.945Z</time></trkpt><trkpt lat="38.7538693" lon="16.4201098"><ele>835.0</ele><time>2026-04-19T10:42:54.932Z</time></trkpt><trkpt lat="38.7537751" lon="16.4202713"><ele>835.0</ele><time>2026-04-19T10:42:55.939Z</time></trkpt><trkpt lat="38.7536099" lon="16.4204174"><ele>835.0</ele><time>2026-04-19T10:42:56.929Z</time></trkpt><trkpt lat="38.7534459" lon="16.4205828"><ele>835.0</ele><time>2026-04-19T10:42:57.933Z</time></trkpt><trkpt lat="38.7532813" lon="16.420747"><ele>834.3333333333333</ele><time>2026-04-19T10:42:58.928Z</time></trkpt><trkpt lat="38.7531363" lon="16.4209066"><ele>833.6666666666667</ele><time>2026-04-19T10:42:59.94Z</time></trkpt><trkpt lat="38.753012" lon="16.4211038"><ele>833.0</ele><time>2026-04-19T10:43:00.935Z</time></trkpt><trkpt lat="38.7528807" lon="16.4213043"><ele>833.0</ele><time>2026-04-19T10:43:01.934Z</time></trkpt><trkpt lat="38.7527543" lon="16.421486"><ele>833.0</ele><time>2026-04-19T10:43:02.94Z</time></trkpt><trkpt lat="38.7526367" lon="16.4216475"><ele>833.0</ele><time>2026-04-19T10:43:03.942Z</time></trkpt><trkpt lat="38.752527" lon="16.4218007"><ele>830.3333333333334</ele><time>2026-04-19T10:43:04.946Z</time></trkpt><trkpt lat="38.7524194" lon="16.4219488"><ele>827.6666666666667</ele><time>2026-04-19T10:43:05.938Z</time></trkpt><trkpt lat="38.7522763" lon="16.4221077"><ele>825.0</ele><time>2026-04-19T10:43:06.959Z</time></trkpt><trkpt lat="38.7521628" lon="16.4222325"><ele>824.8</ele><time>2026-04-19T10:43:07.966Z</time></trkpt><trkpt lat="38.7520752" lon="16.4223118"><ele>824.6</ele><time>2026-04-19T10:43:08.945Z</time></trkpt><trkpt lat="38.7520292" lon="16.422425"><ele>824.4000000000001</ele><time>2026-04-19T10:43:09.956Z</time></trkpt><trkpt lat="38.7519843" lon="16.4225397"><ele>824.2</ele><time>2026-04-19T10:43:10.952Z</time></trkpt><trkpt lat="38.7519292" lon="16.4226288"><ele>824.0</ele><time>2026-04-19T10:43:11.944Z</time></trkpt><trkpt lat="38.7518357" lon="16.4227269"><ele>823.3333333333334</ele><time>2026-04-19T10:43:13.964Z</time></trkpt><trkpt lat="38.7517514" lon="16.4227189"><ele>822.6666666666667</ele><time>2026-04-19T10:43:15.952Z</time></trkpt><trkpt lat="38.7516746" lon="16.4226608"><ele>822.0</ele><time>2026-04-19T10:43:19.982Z</time></trkpt><trkpt lat="38.7515914" lon="16.4226644"><ele>821.3333333333333</ele><time>2026-04-19T10:43:24.965Z</time></trkpt><trkpt lat="38.7515248" lon="16.4227103"><ele>820.6666666666666</ele><time>2026-04-19T10:43:26.952Z</time></trkpt><trkpt lat="38.7514242" lon="16.4227552"><ele>820.0</ele><time>2026-04-19T10:43:29.942Z</time></trkpt><trkpt lat="38.7513344" lon="16.4227794"><ele>819.9999999999999</ele><time>2026-04-19T10:43:32.951Z</time></trkpt><trkpt lat="38.7512677" lon="16.4228055"><ele>820.0</ele><time>2026-04-19T10:43:34.954Z</time></trkpt><trkpt lat="38.7511883" lon="16.4228164"><ele>820.0</ele><time>2026-04-19T10:43:36.942Z</time></trkpt><trkpt lat="38.7511228" lon="16.4228415"><ele>820.0</ele><time>2026-04-19T10:43:38.946Z</time></trkpt><trkpt lat="38.7510246" lon="16.4228419"><ele>819.9999999999999</ele><time>2026-04-19T10:43:41.948Z</time></trkpt><trkpt lat="38.7509544" lon="16.422844"><ele>820.0</ele><time>2026-04-19T10:43:43.949Z</time></trkpt><trkpt lat="38.7508533" lon="16.4228711"><ele>820.1666666666666</ele><time>2026-04-19T10:43:45.949Z</time></trkpt><trkpt lat="38.7507552" lon="16.4229086"><ele>820.3333333333333</ele><time>2026-04-19T10:43:47.941Z</time></trkpt><trkpt lat="38.7506938" lon="16.4229351"><ele>820.5</ele><time>2026-04-19T10:43:48.937Z</time></trkpt><trkpt lat="38.750631" lon="16.4229611"><ele>820.6666666666667</ele><time>2026-04-19T10:43:49.943Z</time></trkpt><trkpt lat="38.7505717" lon="16.4229911"><ele>820.8333333333334</ele><time>2026-04-19T10:43:50.935Z</time></trkpt><trkpt lat="38.7505078" lon="16.4230136"><ele>821.0</ele><time>2026-04-19T10:43:51.942Z</time></trkpt><trkpt lat="38.7504265" lon="16.4230588"><ele>820.0</ele><time>2026-04-19T10:43:53.94Z</time></trkpt><trkpt lat="38.750335" lon="16.4231337"><ele>819.0</ele><time>2026-04-19T10:43:55.937Z</time></trkpt><trkpt lat="38.7502152" lon="16.4232051"><ele>818.0</ele><time>2026-04-19T10:43:57.936Z</time></trkpt><trkpt lat="38.7501597" lon="16.4232535"><ele>817.0</ele><time>2026-04-19T10:43:58.938Z</time></trkpt><trkpt lat="38.7500597" lon="16.4232962"><ele>816.0</ele><time>2026-04-19T10:44:00.936Z</time></trkpt><trkpt lat="38.7499903" lon="16.4231914"><ele>815.8</ele><time>2026-04-19T10:44:04.943Z</time></trkpt><trkpt lat="38.7499357" lon="16.4230614"><ele>815.5999999999999</ele><time>2026-04-19T10:44:06.939Z</time></trkpt><trkpt lat="38.7498752" lon="16.4229778"><ele>815.4</ele><time>2026-04-19T10:44:08.935Z</time></trkpt><trkpt lat="38.7497765" lon="16.4229123"><ele>815.2</ele><time>2026-04-19T10:44:10.941Z</time></trkpt><trkpt lat="38.7496669" lon="16.4228968"><ele>815.0</ele><time>2026-04-19T10:44:12.935Z</time></trkpt><trkpt lat="38.7495488" lon="16.4228773"><ele>815.0</ele><time>2026-04-19T10:44:14.937Z</time></trkpt><trkpt lat="38.749489" lon="16.422843"><ele>815.0</ele><time>2026-04-19T10:44:15.937Z</time></trkpt><trkpt lat="38.7493808" lon="16.4227813"><ele>815.0</ele><time>2026-04-19T10:44:17.939Z</time></trkpt><trkpt lat="38.7492803" lon="16.4228181"><ele>815.0</ele><time>2026-04-19T10:44:19.933Z</time></trkpt><trkpt lat="38.7492171" lon="16.4228792"><ele>815.0</ele><time>2026-04-19T10:44:21.94Z</time></trkpt><trkpt lat="38.7492449" lon="16.4230328"><ele>812.0</ele><time>2026-04-19T10:44:23.941Z</time></trkpt><trkpt lat="38.7492461" lon="16.4231384"><ele>809.0</ele><time>2026-04-19T10:44:24.933Z</time></trkpt><trkpt lat="38.7492376" lon="16.4232217"><ele>806.0</ele><time>2026-04-19T10:44:25.94Z</time></trkpt><trkpt lat="38.7491331" lon="16.4233648"><ele>803.0</ele><time>2026-04-19T10:44:33.948Z</time></trkpt><trkpt lat="38.7490561" lon="16.4233959"><ele>800.0</ele><time>2026-04-19T10:44:35.937Z</time></trkpt><trkpt lat="38.7489678" lon="16.4234157"><ele>800.0</ele><time>2026-04-19T10:44:37.939Z</time></trkpt><trkpt lat="38.7489016" lon="16.4234141"><ele>800.0</ele><time>2026-04-19T10:44:38.945Z</time></trkpt><trkpt lat="38.7487725" lon="16.4234763"><ele>800.0</ele><time>2026-04-19T10:44:40.944Z</time></trkpt><trkpt lat="38.7486528" lon="16.4235522"><ele>800.0</ele><time>2026-04-19T10:44:42.95Z</time></trkpt><trkpt lat="38.7485863" lon="16.4236194"><ele>800.0</ele><time>2026-04-19T10:44:44.939Z</time></trkpt><trkpt lat="38.7485159" lon="16.4236361"><ele>798.1666666666667</ele><time>2026-04-19T10:44:46.939Z</time></trkpt><trkpt lat="38.7484508" lon="16.4236494"><ele>796.3333333333334</ele><time>2026-04-19T10:44:47.944Z</time></trkpt><trkpt lat="38.7483851" lon="16.423668"><ele>794.5</ele><time>2026-04-19T10:44:48.941Z</time></trkpt><trkpt lat="38.748313" lon="16.4236989"><ele>792.6666666666667</ele><time>2026-04-19T10:44:50.94Z</time></trkpt><trkpt lat="38.7482003" lon="16.4237706"><ele>790.8333333333334</ele><time>2026-04-19T10:44:54.948Z</time></trkpt><trkpt lat="38.7481219" lon="16.4238182"><ele>789.0</ele><time>2026-04-19T10:44:56.939Z</time></trkpt><trkpt lat="38.7480114" lon="16.4238313"><ele>787.4000000000001</ele><time>2026-04-19T10:44:58.936Z</time></trkpt><trkpt lat="38.747892" lon="16.4238503"><ele>785.8</ele><time>2026-04-19T10:45:00.939Z</time></trkpt><trkpt lat="38.7478019" lon="16.4238968"><ele>784.2</ele><time>2026-04-19T10:45:02.941Z</time></trkpt><trkpt lat="38.7477062" lon="16.423911"><ele>782.5999999999999</ele><time>2026-04-19T10:45:04.948Z</time></trkpt><trkpt lat="38.7475809" lon="16.4239153"><ele>781.0</ele><time>2026-04-19T10:45:06.937Z</time></trkpt><trkpt lat="38.7475194" lon="16.4239435"><ele>780.1428571428571</ele><time>2026-04-19T10:45:07.936Z</time></trkpt><trkpt lat="38.7474632" lon="16.423982"><ele>779.2857142857143</ele><time>2026-04-19T10:45:08.941Z</time></trkpt><trkpt lat="38.7474066" lon="16.4240261"><ele>778.4285714285713</ele><time>2026-04-19T10:45:09.943Z</time></trkpt><trkpt lat="38.7473511" lon="16.4240767"><ele>777.5714285714286</ele><time>2026-04-19T10:45:10.939Z</time></trkpt><trkpt lat="38.7472856" lon="16.4241255"><ele>776.7142857142857</ele><time>2026-04-19T10:45:11.94Z</time></trkpt><trkpt lat="38.7472182" lon="16.4241729"><ele>775.8571428571428</ele><time>2026-04-19T10:45:12.942Z</time></trkpt><trkpt lat="38.7471513" lon="16.4242289"><ele>775.0</ele><time>2026-04-19T10:45:13.943Z</time></trkpt><trkpt lat="38.7470881" lon="16.4242818"><ele>774.9999999999999</ele><time>2026-04-19T10:45:14.938Z</time></trkpt><trkpt lat="38.7470259" lon="16.4243442"><ele>775.0</ele><time>2026-04-19T10:45:15.944Z</time></trkpt><trkpt lat="38.7469873" lon="16.4244226"><ele>775.0</ele><time>2026-04-19T10:45:16.938Z</time></trkpt><trkpt lat="38.7469294" lon="16.4245091"><ele>775.0</ele><time>2026-04-19T10:45:17.937Z</time></trkpt><trkpt lat="38.7468633" lon="16.4246001"><ele>774.9999999999999</ele><time>2026-04-19T10:45:18.942Z</time></trkpt><trkpt lat="38.7467919" lon="16.4246738"><ele>775.0</ele><time>2026-04-19T10:45:19.938Z</time></trkpt><trkpt lat="38.7467401" lon="16.4247303"><ele>774.1666666666666</ele><time>2026-04-19T10:45:20.93Z</time></trkpt><trkpt lat="38.7466644" lon="16.4247706"><ele>773.3333333333333</ele><time>2026-04-19T10:45:22.935Z</time></trkpt><trkpt lat="38.7466042" lon="16.4247136"><ele>772.5</ele><time>2026-04-19T10:45:24.94Z</time></trkpt><trkpt lat="38.7465601" lon="16.4246165"><ele>771.6666666666667</ele><time>2026-04-19T10:45:26.938Z</time></trkpt><trkpt lat="38.7465017" lon="16.4244962"><ele>770.8333333333334</ele><time>2026-04-19T10:45:28.938Z</time></trkpt><trkpt lat="38.7464912" lon="16.4244101"><ele>770.0</ele><time>2026-04-19T10:45:29.94Z</time></trkpt><trkpt lat="38.7464669" lon="16.4242729"><ele>769.2</ele><time>2026-04-19T10:45:31.944Z</time></trkpt><trkpt lat="38.7464735" lon="16.424138"><ele>768.4</ele><time>2026-04-19T10:45:33.937Z</time></trkpt><trkpt lat="38.7464661" lon="16.4239942"><ele>767.5999999999999</ele><time>2026-04-19T10:45:35.934Z</time></trkpt><trkpt lat="38.7464507" lon="16.4238395"><ele>766.8</ele><time>2026-04-19T10:45:37.937Z</time></trkpt><trkpt lat="38.7464461" lon="16.4237507"><ele>766.0</ele><time>2026-04-19T10:45:38.938Z</time></trkpt><trkpt lat="38.7464348" lon="16.4236087"><ele>765.4285714285714</ele><time>2026-04-19T10:45:40.936Z</time></trkpt><trkpt lat="38.7464049" lon="16.4234737"><ele>764.8571428571429</ele><time>2026-04-19T10:45:42.932Z</time></trkpt><trkpt lat="38.746382" lon="16.4233916"><ele>764.2857142857142</ele><time>2026-04-19T10:45:43.942Z</time></trkpt><trkpt lat="38.7463476" lon="16.4233193"><ele>763.7142857142858</ele><time>2026-04-19T10:45:44.939Z</time></trkpt><trkpt lat="38.7463047" lon="16.4232583"><ele>763.1428571428572</ele><time>2026-04-19T10:45:45.933Z</time></trkpt><trkpt lat="38.7462645" lon="16.4231961"><ele>762.5714285714286</ele><time>2026-04-19T10:45:46.943Z</time></trkpt><trkpt lat="38.7462255" lon="16.4231288"><ele>762.0</ele><time>2026-04-19T10:45:47.945Z</time></trkpt><trkpt lat="38.7461501" lon="16.4230146"><ele>761.0</ele><time>2026-04-19T10:45:49.937Z</time></trkpt><trkpt lat="38.7460913" lon="16.4229128"><ele>760.0</ele><time>2026-04-19T10:45:51.937Z</time></trkpt><trkpt lat="38.7460499" lon="16.422828"><ele>759.0</ele><time>2026-04-19T10:45:57.936Z</time></trkpt><trkpt lat="38.7460165" lon="16.4227337"><ele>758.0</ele><time>2026-04-19T10:46:01.943Z</time></trkpt><trkpt lat="38.7459703" lon="16.4226484"><ele>757.0</ele><time>2026-04-19T10:46:07.944Z</time></trkpt><trkpt lat="38.7459451" lon="16.4225439"><ele>756.0</ele><time>2026-04-19T10:46:09.939Z</time></trkpt><trkpt lat="38.7459435" lon="16.4224534"><ele>756.0</ele><time>2026-04-19T10:46:10.935Z</time></trkpt><trkpt lat="38.7459457" lon="16.422368"><ele>756.0</ele><time>2026-04-19T10:46:11.929Z</time></trkpt><trkpt lat="38.7459863" lon="16.4222169"><ele>756.0</ele><time>2026-04-19T10:46:13.941Z</time></trkpt><trkpt lat="38.7460301" lon="16.4221206"><ele>756.0</ele><time>2026-04-19T10:46:14.941Z</time></trkpt><trkpt lat="38.746063" lon="16.4220333"><ele>756.0</ele><time>2026-04-19T10:46:15.935Z</time></trkpt><trkpt lat="38.7461002" lon="16.4219469"><ele>756.0</ele><time>2026-04-19T10:46:16.939Z</time></trkpt><trkpt lat="38.746174" lon="16.4218087"><ele>756.0</ele><time>2026-04-19T10:46:18.94Z</time></trkpt><trkpt lat="38.7462057" lon="16.4217262"><ele>756.0</ele><time>2026-04-19T10:46:19.942Z</time></trkpt><trkpt lat="38.7462378" lon="16.4216319"><ele>756.0</ele><time>2026-04-19T10:46:20.937Z</time></trkpt><trkpt lat="38.7462688" lon="16.421544"><ele>756.0</ele><time>2026-04-19T10:46:21.936Z</time></trkpt><trkpt lat="38.7462961" lon="16.4214577"><ele>756.0</ele><time>2026-04-19T10:46:22.938Z</time></trkpt><trkpt lat="38.7463164" lon="16.4213642"><ele>756.0</ele><time>2026-04-19T10:46:23.934Z</time></trkpt><trkpt lat="38.7463548" lon="16.4212777"><ele>756.0</ele><time>2026-04-19T10:46:24.933Z</time></trkpt><trkpt lat="38.7464003" lon="16.4211979"><ele>756.0</ele><time>2026-04-19T10:46:25.94Z</time></trkpt><trkpt lat="38.7464185" lon="16.4211026"><ele>756.0</ele><time>2026-04-19T10:46:26.942Z</time></trkpt><trkpt lat="38.746442" lon="16.4210107"><ele>756.0</ele><time>2026-04-19T10:46:27.932Z</time></trkpt><trkpt lat="38.7464713" lon="16.4209283"><ele>756.0</ele><time>2026-04-19T10:46:28.941Z</time></trkpt><trkpt lat="38.746501" lon="16.4208547"><ele>756.0</ele><time>2026-04-19T10:46:30.938Z</time></trkpt><trkpt lat="38.7465172" lon="16.4207496"><ele>756.0</ele><time>2026-04-19T10:47:16.944Z</time></trkpt><trkpt lat="38.7465425" lon="16.420675"><ele>756.0</ele><time>2026-04-19T10:47:18.941Z</time></trkpt><trkpt lat="38.7465913" lon="16.4205738"><ele>756.0</ele><time>2026-04-19T10:47:20.96Z</time></trkpt><trkpt lat="38.7466329" lon="16.4204402"><ele>756.0</ele><time>2026-04-19T10:47:22.944Z</time></trkpt><trkpt lat="38.7466677" lon="16.4203002"><ele>756.0</ele><time>2026-04-19T10:47:24.939Z</time></trkpt><trkpt lat="38.7467054" lon="16.4201608"><ele>756.0</ele><time>2026-04-19T10:47:26.936Z</time></trkpt><trkpt lat="38.7467442" lon="16.4200499"><ele>755.6666666666666</ele><time>2026-04-19T10:47:28.951Z</time></trkpt><trkpt lat="38.7467824" lon="16.4199536"><ele>755.3333333333334</ele><time>2026-04-19T10:47:30.936Z</time></trkpt><trkpt lat="38.7468473" lon="16.4198465"><ele>755.0</ele><time>2026-04-19T10:47:32.937Z</time></trkpt><trkpt lat="38.7468941" lon="16.4197884"><ele>754.6666666666667</ele><time>2026-04-19T10:47:33.94Z</time></trkpt><trkpt lat="38.7469396" lon="16.4197303"><ele>754.3333333333334</ele><time>2026-04-19T10:47:34.947Z</time></trkpt><trkpt lat="38.7469906" lon="16.4196827"><ele>754.0</ele><time>2026-04-19T10:47:35.938Z</time></trkpt><trkpt lat="38.7470805" lon="16.4195971"><ele>755.6666666666667</ele><time>2026-04-19T10:47:37.936Z</time></trkpt><trkpt lat="38.747169" lon="16.4195155"><ele>757.3333333333334</ele><time>2026-04-19T10:47:39.938Z</time></trkpt><trkpt lat="38.7472246" lon="16.4194633"><ele>759.0</ele><time>2026-04-19T10:47:40.945Z</time></trkpt><trkpt lat="38.7472807" lon="16.4194244"><ele>760.6666666666666</ele><time>2026-04-19T10:47:41.934Z</time></trkpt><trkpt lat="38.7473774" lon="16.4194047"><ele>762.3333333333333</ele><time>2026-04-19T10:47:43.94Z</time></trkpt><trkpt lat="38.7474324" lon="16.4193201"><ele>764.0</ele><time>2026-04-19T10:47:47.942Z</time></trkpt><trkpt lat="38.7474452" lon="16.4192371"><ele>764.0</ele><time>2026-04-19T10:47:51.939Z</time></trkpt><trkpt lat="38.747449" lon="16.4191547"><ele>764.0</ele><time>2026-04-19T10:47:53.94Z</time></trkpt><trkpt lat="38.7474537" lon="16.4190569"><ele>764.0</ele><time>2026-04-19T10:47:56.94Z</time></trkpt><trkpt lat="38.7474516" lon="16.4189551"><ele>764.0</ele><time>2026-04-19T10:47:59.951Z</time></trkpt><trkpt lat="38.747433" lon="16.4188237"><ele>764.0</ele><time>2026-04-19T10:48:02.936Z</time></trkpt><trkpt lat="38.7474007" lon="16.4186784"><ele>764.0</ele><time>2026-04-19T10:48:04.945Z</time></trkpt><trkpt lat="38.7473657" lon="16.4185318"><ele>765.1666666666666</ele><time>2026-04-19T10:48:06.944Z</time></trkpt><trkpt lat="38.7473542" lon="16.4184382"><ele>766.3333333333333</ele><time>2026-04-19T10:48:07.942Z</time></trkpt><trkpt lat="38.747352" lon="16.418353"><ele>767.5</ele><time>2026-04-19T10:48:08.939Z</time></trkpt><trkpt lat="38.7473284" lon="16.4182668"><ele>768.6666666666666</ele><time>2026-04-19T10:48:09.942Z</time></trkpt><trkpt lat="38.7472029" lon="16.418191"><ele>769.8333333333334</ele><time>2026-04-19T10:48:11.931Z</time></trkpt><trkpt lat="38.7471339" lon="16.4182367"><ele>771.0</ele><time>2026-04-19T10:48:12.94Z</time></trkpt><trkpt lat="38.7470626" lon="16.4182772"><ele>771.0</ele><time>2026-04-19T10:48:13.948Z</time></trkpt><trkpt lat="38.7469775" lon="16.4183151"><ele>771.0</ele><time>2026-04-19T10:48:14.947Z</time></trkpt><trkpt lat="38.7469079" lon="16.4183387"><ele>771.0</ele><time>2026-04-19T10:48:15.947Z</time></trkpt><trkpt lat="38.7468089" lon="16.4183635"><ele>771.0</ele><time>2026-04-19T10:48:17.941Z</time></trkpt><trkpt lat="38.7466802" lon="16.418353"><ele>771.0</ele><time>2026-04-19T10:48:19.937Z</time></trkpt><trkpt lat="38.7466052" lon="16.4183368"><ele>770.6666666666666</ele><time>2026-04-19T10:48:20.94Z</time></trkpt><trkpt lat="38.746544" lon="16.4182932"><ele>770.3333333333333</ele><time>2026-04-19T10:48:21.94Z</time></trkpt><trkpt lat="38.7464923" lon="16.4182348"><ele>770.0</ele><time>2026-04-19T10:48:22.945Z</time></trkpt><trkpt lat="38.7464233" lon="16.418151"><ele>769.6666666666666</ele><time>2026-04-19T10:48:24.938Z</time></trkpt><trkpt lat="38.7463585" lon="16.4180583"><ele>769.3333333333333</ele><time>2026-04-19T10:48:26.934Z</time></trkpt><trkpt lat="38.7463007" lon="16.4179563"><ele>769.0</ele><time>2026-04-19T10:48:28.936Z</time></trkpt><trkpt lat="38.7462435" lon="16.4178755"><ele>769.8000000000001</ele><time>2026-04-19T10:48:30.945Z</time></trkpt><trkpt lat="38.746154" lon="16.4177996"><ele>770.6</ele><time>2026-04-19T10:48:32.939Z</time></trkpt><trkpt lat="38.7460633" lon="16.4177255"><ele>771.4</ele><time>2026-04-19T10:48:34.94Z</time></trkpt><trkpt lat="38.7460083" lon="16.4176377"><ele>772.2</ele><time>2026-04-19T10:48:36.94Z</time></trkpt><trkpt lat="38.7459689" lon="16.4175412"><ele>773.0</ele><time>2026-04-19T10:48:43.937Z</time></trkpt><trkpt lat="38.7459369" lon="16.4174587"><ele>770.8333333333334</ele><time>2026-04-19T10:48:45.94Z</time></trkpt><trkpt lat="38.7459033" lon="16.4173665"><ele>768.6666666666667</ele><time>2026-04-19T10:48:47.943Z</time></trkpt><trkpt lat="38.745879" lon="16.4172784"><ele>766.5</ele><time>2026-04-19T10:48:49.94Z</time></trkpt><trkpt lat="38.7458526" lon="16.4171504"><ele>764.3333333333334</ele><time>2026-04-19T10:48:51.939Z</time></trkpt><trkpt lat="38.745836" lon="16.4170293"><ele>762.1666666666667</ele><time>2026-04-19T10:48:53.941Z</time></trkpt><trkpt lat="38.7458115" lon="16.416911"><ele>760.0</ele><time>2026-04-19T10:48:56.943Z</time></trkpt><trkpt lat="38.745795" lon="16.4168141"><ele>759.8</ele><time>2026-04-19T10:48:58.939Z</time></trkpt><trkpt lat="38.7457758" lon="16.4167182"><ele>759.6</ele><time>2026-04-19T10:49:00.94Z</time></trkpt><trkpt lat="38.7457248" lon="16.4166025"><ele>759.4000000000001</ele><time>2026-04-19T10:49:02.939Z</time></trkpt><trkpt lat="38.7457061" lon="16.4164514"><ele>759.2</ele><time>2026-04-19T10:49:04.945Z</time></trkpt><trkpt lat="38.745704" lon="16.4162974"><ele>759.0</ele><time>2026-04-19T10:49:06.944Z</time></trkpt><trkpt lat="38.7457022" lon="16.4161373"><ele>758.5</ele><time>2026-04-19T10:49:08.944Z</time></trkpt><trkpt lat="38.7456968" lon="16.4160082"><ele>758.0</ele><time>2026-04-19T10:49:10.947Z</time></trkpt><trkpt lat="38.7456876" lon="16.4158742"><ele>757.5</ele><time>2026-04-19T10:49:12.941Z</time></trkpt><trkpt lat="38.7456987" lon="16.4157843"><ele>757.0</ele><time>2026-04-19T10:49:13.939Z</time></trkpt><trkpt lat="38.7457071" lon="16.4156954"><ele>756.5</ele><time>2026-04-19T10:49:14.947Z</time></trkpt><trkpt lat="38.7457092" lon="16.4156113"><ele>756.0</ele><time>2026-04-19T10:49:15.941Z</time></trkpt><trkpt lat="38.7457115" lon="16.415522"><ele>755.2857142857143</ele><time>2026-04-19T10:49:16.938Z</time></trkpt><trkpt lat="38.7457088" lon="16.4154303"><ele>754.5714285714286</ele><time>2026-04-19T10:49:17.954Z</time></trkpt><trkpt lat="38.7457059" lon="16.4153459"><ele>753.8571428571429</ele><time>2026-04-19T10:49:18.944Z</time></trkpt><trkpt lat="38.745704" lon="16.4152578"><ele>753.1428571428571</ele><time>2026-04-19T10:49:19.932Z</time></trkpt><trkpt lat="38.7457003" lon="16.4151546"><ele>752.4285714285714</ele><time>2026-04-19T10:49:20.942Z</time></trkpt><trkpt lat="38.7456922" lon="16.4150502"><ele>751.7142857142858</ele><time>2026-04-19T10:49:21.945Z</time></trkpt><trkpt lat="38.7456874" lon="16.4149566"><ele>751.0</ele><time>2026-04-19T10:49:22.933Z</time></trkpt><trkpt lat="38.745686" lon="16.4148694"><ele>751.0</ele><time>2026-04-19T10:49:23.977Z</time></trkpt><trkpt lat="38.7456799" lon="16.414706"><ele>751.0</ele><time>2026-04-19T10:49:25.935Z</time></trkpt><trkpt lat="38.7456721" lon="16.4146127"><ele>751.0</ele><time>2026-04-19T10:49:26.938Z</time></trkpt><trkpt lat="38.7456731" lon="16.4145218"><ele>751.0</ele><time>2026-04-19T10:49:27.956Z</time></trkpt><trkpt lat="38.7456816" lon="16.4144339"><ele>751.0</ele><time>2026-04-19T10:49:28.938Z</time></trkpt><trkpt lat="38.7457021" lon="16.4143457"><ele>751.0</ele><time>2026-04-19T10:49:29.939Z</time></trkpt><trkpt lat="38.7457331" lon="16.4142592"><ele>751.8</ele><time>2026-04-19T10:49:30.945Z</time></trkpt><trkpt lat="38.7457682" lon="16.4141755"><ele>752.5999999999999</ele><time>2026-04-19T10:49:31.939Z</time></trkpt><trkpt lat="38.7458035" lon="16.414093"><ele>753.4</ele><time>2026-04-19T10:49:32.937Z</time></trkpt><trkpt lat="38.7458593" lon="16.4139494"><ele>754.2</ele><time>2026-04-19T10:49:34.947Z</time></trkpt><trkpt lat="38.745954" lon="16.4138529"><ele>755.0</ele><time>2026-04-19T10:49:36.942Z</time></trkpt><trkpt lat="38.7459999" lon="16.4137462"><ele>755.0</ele><time>2026-04-19T10:49:38.971Z</time></trkpt><trkpt lat="38.745986" lon="16.413625"><ele>755.0</ele><time>2026-04-19T10:49:40.939Z</time></trkpt><trkpt lat="38.7459221" lon="16.4136042"><ele>755.0</ele><time>2026-04-19T10:49:41.932Z</time></trkpt><trkpt lat="38.7458521" lon="16.4136311"><ele>755.0</ele><time>2026-04-19T10:49:42.941Z</time></trkpt><trkpt lat="38.745755" lon="16.4136317"><ele>755.0</ele><time>2026-04-19T10:49:43.936Z</time></trkpt><trkpt lat="38.7456449" lon="16.413666"><ele>755.0</ele><time>2026-04-19T10:49:44.943Z</time></trkpt><trkpt lat="38.7455349" lon="16.4136994"><ele>755.0</ele><time>2026-04-19T10:49:45.939Z</time></trkpt><trkpt lat="38.7454285" lon="16.4137303"><ele>755.0</ele><time>2026-04-19T10:49:46.938Z</time></trkpt><trkpt lat="38.7453298" lon="16.4137638"><ele>755.0</ele><time>2026-04-19T10:49:47.945Z</time></trkpt><trkpt lat="38.745236" lon="16.4138029"><ele>755.0</ele><time>2026-04-19T10:49:48.944Z</time></trkpt><trkpt lat="38.7451511" lon="16.4138462"><ele>755.0</ele><time>2026-04-19T10:49:49.945Z</time></trkpt><trkpt lat="38.7450646" lon="16.4138862"><ele>751.8333333333333</ele><time>2026-04-19T10:49:50.942Z</time></trkpt><trkpt lat="38.7449786" lon="16.4139247"><ele>748.6666666666666</ele><time>2026-04-19T10:49:51.947Z</time></trkpt><trkpt lat="38.7449013" lon="16.4139571"><ele>745.5</ele><time>2026-04-19T10:49:52.947Z</time></trkpt><trkpt lat="38.7448315" lon="16.413979"><ele>742.3333333333334</ele><time>2026-04-19T10:49:53.944Z</time></trkpt><trkpt lat="38.7447627" lon="16.4139977"><ele>739.1666666666667</ele><time>2026-04-19T10:49:54.948Z</time></trkpt><trkpt lat="38.7446999" lon="16.4139776"><ele>736.0</ele><time>2026-04-19T10:49:55.944Z</time></trkpt><trkpt lat="38.744609" lon="16.4138831"><ele>736.4</ele><time>2026-04-19T10:49:57.947Z</time></trkpt><trkpt lat="38.7445754" lon="16.413759"><ele>736.8</ele><time>2026-04-19T10:49:59.942Z</time></trkpt><trkpt lat="38.7445113" lon="16.4136446"><ele>737.1999999999999</ele><time>2026-04-19T10:50:01.941Z</time></trkpt><trkpt lat="38.7444148" lon="16.4135895"><ele>737.5999999999999</ele><time>2026-04-19T10:50:03.941Z</time></trkpt><trkpt lat="38.7443464" lon="16.413693"><ele>738.0</ele><time>2026-04-19T10:50:05.943Z</time></trkpt><trkpt lat="38.7442934" lon="16.4138422"><ele>738.0</ele><time>2026-04-19T10:50:07.94Z</time></trkpt><trkpt lat="38.7442507" lon="16.4139279"><ele>738.0</ele><time>2026-04-19T10:50:08.957Z</time></trkpt><trkpt lat="38.7442097" lon="16.4140183"><ele>738.0</ele><time>2026-04-19T10:50:09.943Z</time></trkpt><trkpt lat="38.7441801" lon="16.4141143"><ele>738.0</ele><time>2026-04-19T10:50:10.945Z</time></trkpt><trkpt lat="38.744155" lon="16.414203"><ele>738.0</ele><time>2026-04-19T10:50:11.938Z</time></trkpt><trkpt lat="38.7441315" lon="16.4142779"><ele>738.0</ele><time>2026-04-19T10:50:12.943Z</time></trkpt><trkpt lat="38.7440931" lon="16.4144031"><ele>738.0</ele><time>2026-04-19T10:50:14.952Z</time></trkpt><trkpt lat="38.744073" lon="16.4145088"><ele>738.0</ele><time>2026-04-19T10:50:16.941Z</time></trkpt><trkpt lat="38.7440568" lon="16.4146256"><ele>738.0</ele><time>2026-04-19T10:50:18.945Z</time></trkpt><trkpt lat="38.7440338" lon="16.414738"><ele>738.0</ele><time>2026-04-19T10:50:20.943Z</time></trkpt><trkpt lat="38.7440005" lon="16.4148657"><ele>738.0</ele><time>2026-04-19T10:50:22.943Z</time></trkpt><trkpt lat="38.7439584" lon="16.4149904"><ele>735.8333333333334</ele><time>2026-04-19T10:50:24.941Z</time></trkpt><trkpt lat="38.7438774" lon="16.4151055"><ele>733.6666666666666</ele><time>2026-04-19T10:50:26.945Z</time></trkpt><trkpt lat="38.7438139" lon="16.4151215"><ele>731.5</ele><time>2026-04-19T10:50:27.94Z</time></trkpt><trkpt lat="38.7437134" lon="16.4150757"><ele>729.3333333333333</ele><time>2026-04-19T10:50:29.937Z</time></trkpt><trkpt lat="38.7436653" lon="16.4150131"><ele>727.1666666666666</ele><time>2026-04-19T10:50:30.939Z</time></trkpt><trkpt lat="38.7436205" lon="16.4149272"><ele>725.0</ele><time>2026-04-19T10:50:31.938Z</time></trkpt><trkpt lat="38.743565" lon="16.4148469"><ele>725.6666666666666</ele><time>2026-04-19T10:50:32.953Z</time></trkpt><trkpt lat="38.743499" lon="16.4147969"><ele>726.3333333333333</ele><time>2026-04-19T10:50:33.945Z</time></trkpt><trkpt lat="38.7434279" lon="16.4147468"><ele>727.0</ele><time>2026-04-19T10:50:34.947Z</time></trkpt><trkpt lat="38.7433402" lon="16.4147395"><ele>727.6666666666666</ele><time>2026-04-19T10:50:35.938Z</time></trkpt><trkpt lat="38.743252" lon="16.4147366"><ele>728.3333333333334</ele><time>2026-04-19T10:50:36.95Z</time></trkpt><trkpt lat="38.7431665" lon="16.4147458"><ele>729.0</ele><time>2026-04-19T10:50:37.952Z</time></trkpt><trkpt lat="38.7430902" lon="16.4147619"><ele>729.0</ele><time>2026-04-19T10:50:38.945Z</time></trkpt><trkpt lat="38.7430123" lon="16.4148085"><ele>729.0</ele><time>2026-04-19T10:50:39.939Z</time></trkpt><trkpt lat="38.7429695" lon="16.4148844"><ele>729.0</ele><time>2026-04-19T10:50:40.942Z</time></trkpt><trkpt lat="38.7429405" lon="16.4150136"><ele>729.0</ele><time>2026-04-19T10:50:41.943Z</time></trkpt><trkpt lat="38.7429394" lon="16.4151499"><ele>729.0</ele><time>2026-04-19T10:50:42.935Z</time></trkpt><trkpt lat="38.7429437" lon="16.4152804"><ele>729.0</ele><time>2026-04-19T10:50:43.94Z</time></trkpt><trkpt lat="38.7429496" lon="16.4154104"><ele>729.0</ele><time>2026-04-19T10:50:44.941Z</time></trkpt><trkpt lat="38.7429523" lon="16.41554"><ele>729.0</ele><time>2026-04-19T10:50:45.94Z</time></trkpt><trkpt lat="38.7429402" lon="16.4156713"><ele>729.0</ele><time>2026-04-19T10:50:46.938Z</time></trkpt><trkpt lat="38.7429151" lon="16.4158003"><ele>729.0</ele><time>2026-04-19T10:50:47.942Z</time></trkpt><trkpt lat="38.7428872" lon="16.4159318"><ele>727.8000000000001</ele><time>2026-04-19T10:50:48.937Z</time></trkpt><trkpt lat="38.7428412" lon="16.4160603"><ele>726.6</ele><time>2026-04-19T10:50:49.939Z</time></trkpt><trkpt lat="38.7427945" lon="16.416184"><ele>725.4</ele><time>2026-04-19T10:50:50.945Z</time></trkpt><trkpt lat="38.7427367" lon="16.4163054"><ele>724.2</ele><time>2026-04-19T10:50:51.941Z</time></trkpt><trkpt lat="38.7426691" lon="16.4164176"><ele>723.0</ele><time>2026-04-19T10:50:52.939Z</time></trkpt><trkpt lat="38.7426042" lon="16.4165168"><ele>723.0</ele><time>2026-04-19T10:50:53.944Z</time></trkpt><trkpt lat="38.7425431" lon="16.4165824"><ele>723.0</ele><time>2026-04-19T10:50:54.944Z</time></trkpt><trkpt lat="38.7424212" lon="16.4165749"><ele>723.0</ele><time>2026-04-19T10:50:56.94Z</time></trkpt><trkpt lat="38.7423429" lon="16.4165152"><ele>723.0</ele><time>2026-04-19T10:50:57.938Z</time></trkpt><trkpt lat="38.742269" lon="16.4164525"><ele>723.0</ele><time>2026-04-19T10:50:58.945Z</time></trkpt><trkpt lat="38.742189" lon="16.4163914"><ele>723.0</ele><time>2026-04-19T10:50:59.944Z</time></trkpt><trkpt lat="38.7421204" lon="16.4163845"><ele>723.0</ele><time>2026-04-19T10:51:00.945Z</time></trkpt><trkpt lat="38.7420513" lon="16.4164113"><ele>723.0</ele><time>2026-04-19T10:51:01.946Z</time></trkpt><trkpt lat="38.7419917" lon="16.4164862"><ele>723.0</ele><time>2026-04-19T10:51:02.946Z</time></trkpt><trkpt lat="38.7419674" lon="16.4165967"><ele>723.0</ele><time>2026-04-19T10:51:03.941Z</time></trkpt><trkpt lat="38.7419442" lon="16.4167114"><ele>723.0</ele><time>2026-04-19T10:51:04.936Z</time></trkpt><trkpt lat="38.7419257" lon="16.4168406"><ele>723.0</ele><time>2026-04-19T10:51:05.941Z</time></trkpt><trkpt lat="38.7418837" lon="16.416964"><ele>723.0</ele><time>2026-04-19T10:51:06.937Z</time></trkpt><trkpt lat="38.741832" lon="16.4170943"><ele>723.0</ele><time>2026-04-19T10:51:07.942Z</time></trkpt><trkpt lat="38.7417516" lon="16.4172049"><ele>723.0</ele><time>2026-04-19T10:51:08.939Z</time></trkpt><trkpt lat="38.7416532" lon="16.4173016"><ele>723.25</ele><time>2026-04-19T10:51:09.939Z</time></trkpt><trkpt lat="38.7415552" lon="16.4173963"><ele>723.5</ele><time>2026-04-19T10:51:10.945Z</time></trkpt><trkpt lat="38.7414677" lon="16.4174954"><ele>723.75</ele><time>2026-04-19T10:51:11.939Z</time></trkpt><trkpt lat="38.741391" lon="16.4175977"><ele>724.0</ele><time>2026-04-19T10:51:12.94Z</time></trkpt><trkpt lat="38.7413141" lon="16.4177007"><ele>724.0</ele><time>2026-04-19T10:51:13.939Z</time></trkpt><trkpt lat="38.7412411" lon="16.4178027"><ele>724.0</ele><time>2026-04-19T10:51:14.944Z</time></trkpt><trkpt lat="38.7411768" lon="16.4178954"><ele>724.0</ele><time>2026-04-19T10:51:15.948Z</time></trkpt><trkpt lat="38.7411159" lon="16.4179806"><ele>724.0</ele><time>2026-04-19T10:51:16.943Z</time></trkpt><trkpt lat="38.7410603" lon="16.4180524"><ele>724.0</ele><time>2026-04-19T10:51:17.938Z</time></trkpt><trkpt lat="38.7410081" lon="16.4181266"><ele>723.8000000000001</ele><time>2026-04-19T10:51:18.941Z</time></trkpt><trkpt lat="38.7409587" lon="16.4182036"><ele>723.6</ele><time>2026-04-19T10:51:19.933Z</time></trkpt><trkpt lat="38.7409074" lon="16.4182801"><ele>723.4</ele><time>2026-04-19T10:51:20.942Z</time></trkpt><trkpt lat="38.740848" lon="16.4183305"><ele>723.2</ele><time>2026-04-19T10:51:21.938Z</time></trkpt><trkpt lat="38.7407366" lon="16.4183216"><ele>723.0</ele><time>2026-04-19T10:51:23.941Z</time></trkpt><trkpt lat="38.7406437" lon="16.4182279"><ele>723.0</ele><time>2026-04-19T10:51:25.947Z</time></trkpt><trkpt lat="38.7406081" lon="16.4181522"><ele>723.0</ele><time>2026-04-19T10:51:26.945Z</time></trkpt><trkpt lat="38.7405728" lon="16.4180789"><ele>723.0</ele><time>2026-04-19T10:51:27.949Z</time></trkpt><trkpt lat="38.740519" lon="16.417976"><ele>723.0</ele><time>2026-04-19T10:51:29.945Z</time></trkpt><trkpt lat="38.7404764" lon="16.4178975"><ele>723.0</ele><time>2026-04-19T10:51:32.94Z</time></trkpt><trkpt lat="38.740483" lon="16.4178152"><ele>723.0</ele><time>2026-04-19T10:51:37.957Z</time></trkpt><trkpt lat="38.7405924" lon="16.4177551"><ele>724.0</ele><time>2026-04-19T10:51:40.945Z</time></trkpt><trkpt lat="38.7406733" lon="16.4176237"><ele>725.0</ele><time>2026-04-19T10:51:42.947Z</time></trkpt><trkpt lat="38.740713" lon="16.4174914"><ele>726.0</ele><time>2026-04-19T10:51:44.94Z</time></trkpt><trkpt lat="38.7407324" lon="16.4173996"><ele>727.0</ele><time>2026-04-19T10:51:46.938Z</time></trkpt><trkpt lat="38.7407498" lon="16.4173147"><ele>728.0</ele><time>2026-04-19T10:51:48.944Z</time></trkpt><trkpt lat="38.7407693" lon="16.4171936"><ele>729.2</ele><time>2026-04-19T10:51:50.942Z</time></trkpt><trkpt lat="38.7407834" lon="16.4170679"><ele>730.4</ele><time>2026-04-19T10:51:52.942Z</time></trkpt><trkpt lat="38.740818" lon="16.416964"><ele>731.6</ele><time>2026-04-19T10:51:54.946Z</time></trkpt><trkpt lat="38.7408776" lon="16.4168909"><ele>732.8000000000001</ele><time>2026-04-19T10:51:56.94Z</time></trkpt><trkpt lat="38.74093" lon="16.4167811"><ele>734.0</ele><time>2026-04-19T10:51:58.942Z</time></trkpt><trkpt lat="38.7410063" lon="16.4166686"><ele>734.1666666666666</ele><time>2026-04-19T10:52:00.937Z</time></trkpt><trkpt lat="38.7410523" lon="16.4166041"><ele>734.3333333333333</ele><time>2026-04-19T10:52:01.946Z</time></trkpt><trkpt lat="38.7411194" lon="16.4165146"><ele>734.5</ele><time>2026-04-19T10:52:03.941Z</time></trkpt><trkpt lat="38.741188" lon="16.416435"><ele>734.6666666666666</ele><time>2026-04-19T10:52:05.934Z</time></trkpt><trkpt lat="38.7412306" lon="16.416369"><ele>734.8333333333334</ele><time>2026-04-19T10:52:06.937Z</time></trkpt><trkpt lat="38.7412749" lon="16.4163112"><ele>735.0</ele><time>2026-04-19T10:52:07.937Z</time></trkpt><trkpt lat="38.7413191" lon="16.4162456"><ele>737.6</ele><time>2026-04-19T10:52:08.937Z</time></trkpt><trkpt lat="38.7413589" lon="16.416182"><ele>740.2</ele><time>2026-04-19T10:52:09.938Z</time></trkpt><trkpt lat="38.7414022" lon="16.4160529"><ele>742.8</ele><time>2026-04-19T10:52:11.934Z</time></trkpt><trkpt lat="38.7414445" lon="16.4159112"><ele>745.4</ele><time>2026-04-19T10:52:13.943Z</time></trkpt><trkpt lat="38.7414983" lon="16.4157932"><ele>748.0</ele><time>2026-04-19T10:52:15.945Z</time></trkpt><trkpt lat="38.7415715" lon="16.4156889"><ele>748.0</ele><time>2026-04-19T10:52:17.94Z</time></trkpt><trkpt lat="38.7416682" lon="16.4156118"><ele>748.0</ele><time>2026-04-19T10:52:19.941Z</time></trkpt><trkpt lat="38.7417662" lon="16.4155469"><ele>748.0</ele><time>2026-04-19T10:52:21.946Z</time></trkpt><trkpt lat="38.7418466" lon="16.4154904"><ele>748.0</ele><time>2026-04-19T10:52:23.952Z</time></trkpt><trkpt lat="38.7418868" lon="16.4154186"><ele>748.0</ele><time>2026-04-19T10:52:26.942Z</time></trkpt><trkpt lat="38.7419291" lon="16.4153038"><ele>748.5714285714286</ele><time>2026-04-19T10:52:28.937Z</time></trkpt><trkpt lat="38.7419548" lon="16.4152161"><ele>749.1428571428572</ele><time>2026-04-19T10:52:29.947Z</time></trkpt><trkpt lat="38.7419763" lon="16.4151318"><ele>749.7142857142858</ele><time>2026-04-19T10:52:30.952Z</time></trkpt><trkpt lat="38.7420096" lon="16.4150441"><ele>750.2857142857142</ele><time>2026-04-19T10:52:31.932Z</time></trkpt><trkpt lat="38.7420311" lon="16.4149543"><ele>750.8571428571429</ele><time>2026-04-19T10:52:32.947Z</time></trkpt><trkpt lat="38.7420513" lon="16.4148659"><ele>751.4285714285714</ele><time>2026-04-19T10:52:33.936Z</time></trkpt><trkpt lat="38.742072" lon="16.4147747"><ele>752.0</ele><time>2026-04-19T10:52:34.951Z</time></trkpt><trkpt lat="38.7420992" lon="16.414677"><ele>753.0</ele><time>2026-04-19T10:52:35.94Z</time></trkpt><trkpt lat="38.7421279" lon="16.4145822"><ele>754.0</ele><time>2026-04-19T10:52:36.938Z</time></trkpt><trkpt lat="38.7421508" lon="16.4144822"><ele>755.0</ele><time>2026-04-19T10:52:37.941Z</time></trkpt><trkpt lat="38.7421597" lon="16.4143911"><ele>756.0</ele><time>2026-04-19T10:52:38.937Z</time></trkpt><trkpt lat="38.7421805" lon="16.4142488"><ele>757.0</ele><time>2026-04-19T10:52:40.952Z</time></trkpt><trkpt lat="38.7422348" lon="16.4141198"><ele>757.0</ele><time>2026-04-19T10:52:42.947Z</time></trkpt><trkpt lat="38.7422605" lon="16.41404"><ele>757.0</ele><time>2026-04-19T10:52:43.938Z</time></trkpt><trkpt lat="38.7422683" lon="16.4139564"><ele>757.0</ele><time>2026-04-19T10:52:44.948Z</time></trkpt><trkpt lat="38.7422849" lon="16.4138717"><ele>757.0</ele><time>2026-04-19T10:52:45.938Z</time></trkpt><trkpt lat="38.7422995" lon="16.413709"><ele>757.0</ele><time>2026-04-19T10:52:47.938Z</time></trkpt><trkpt lat="38.7422985" lon="16.4136252"><ele>757.0</ele><time>2026-04-19T10:52:48.935Z</time></trkpt><trkpt lat="38.7423086" lon="16.4135419"><ele>758.0</ele><time>2026-04-19T10:52:49.938Z</time></trkpt><trkpt lat="38.7423126" lon="16.4133927"><ele>759.0</ele><time>2026-04-19T10:52:51.939Z</time></trkpt><trkpt lat="38.7423043" lon="16.4132545"><ele>760.0</ele><time>2026-04-19T10:52:53.935Z</time></trkpt><trkpt lat="38.7422857" lon="16.4131212"><ele>761.0</ele><time>2026-04-19T10:52:55.933Z</time></trkpt><trkpt lat="38.7422725" lon="16.4129817"><ele>762.0</ele><time>2026-04-19T10:52:57.938Z</time></trkpt><trkpt lat="38.7422448" lon="16.4128533"><ele>763.5</ele><time>2026-04-19T10:52:59.935Z</time></trkpt><trkpt lat="38.7422245" lon="16.4127222"><ele>765.0</ele><time>2026-04-19T10:53:01.936Z</time></trkpt><trkpt lat="38.7422266" lon="16.4126191"><ele>766.5</ele><time>2026-04-19T10:53:03.938Z</time></trkpt><trkpt lat="38.7422343" lon="16.4125115"><ele>768.0</ele><time>2026-04-19T10:53:05.938Z</time></trkpt><trkpt lat="38.7422298" lon="16.4124041"><ele>769.5</ele><time>2026-04-19T10:53:07.935Z</time></trkpt><trkpt lat="38.7422187" lon="16.4122915"><ele>771.0</ele><time>2026-04-19T10:53:09.938Z</time></trkpt><trkpt lat="38.7422009" lon="16.4122109"><ele>770.8</ele><time>2026-04-19T10:53:11.937Z</time></trkpt><trkpt lat="38.7421026" lon="16.4120104"><ele>770.5999999999999</ele><time>2026-04-19T10:53:27.947Z</time></trkpt><trkpt lat="38.7420141" lon="16.4119795"><ele>770.4</ele><time>2026-04-19T10:53:29.946Z</time></trkpt><trkpt lat="38.7419499" lon="16.4119252"><ele>770.2</ele><time>2026-04-19T10:53:31.94Z</time></trkpt><trkpt lat="38.7418752" lon="16.4118853"><ele>770.0</ele><time>2026-04-19T10:53:33.939Z</time></trkpt><trkpt lat="38.7418048" lon="16.4118149"><ele>770.0</ele><time>2026-04-19T10:53:35.936Z</time></trkpt><trkpt lat="38.7417665" lon="16.4117185"><ele>770.0</ele><time>2026-04-19T10:53:37.939Z</time></trkpt><trkpt lat="38.7417186" lon="16.4116027"><ele>770.0</ele><time>2026-04-19T10:53:39.933Z</time></trkpt><trkpt lat="38.7416766" lon="16.4114956"><ele>770.0</ele><time>2026-04-19T10:53:41.939Z</time></trkpt><trkpt lat="38.7416448" lon="16.4113893"><ele>770.0</ele><time>2026-04-19T10:53:43.941Z</time></trkpt><trkpt lat="38.7416227" lon="16.4112483"><ele>772.0</ele><time>2026-04-19T10:53:45.945Z</time></trkpt><trkpt lat="38.7416262" lon="16.4111665"><ele>774.0</ele><time>2026-04-19T10:53:46.939Z</time></trkpt><trkpt lat="38.7416354" lon="16.4110266"><ele>776.0</ele><time>2026-04-19T10:53:48.938Z</time></trkpt><trkpt lat="38.7416756" lon="16.4109571"><ele>778.0</ele><time>2026-04-19T10:53:49.938Z</time></trkpt><trkpt lat="38.741712" lon="16.4108152"><ele>780.0</ele><time>2026-04-19T10:53:51.964Z</time></trkpt><trkpt lat="38.7417122" lon="16.4106407"><ele>780.0</ele><time>2026-04-19T10:53:53.946Z</time></trkpt><trkpt lat="38.7417299" lon="16.4105233"><ele>780.0</ele><time>2026-04-19T10:53:54.941Z</time></trkpt><trkpt lat="38.7417312" lon="16.4104401"><ele>780.0</ele><time>2026-04-19T10:53:55.946Z</time></trkpt><trkpt lat="38.7417353" lon="16.4103547"><ele>780.0</ele><time>2026-04-19T10:53:57.935Z</time></trkpt><trkpt lat="38.7416509" lon="16.4103414"><ele>780.0</ele><time>2026-04-19T10:54:00.943Z</time></trkpt><trkpt lat="38.7415884" lon="16.4103279"><ele>780.0</ele><time>2026-04-19T10:54:06.94Z</time></trkpt><trkpt lat="38.7415237" lon="16.4103229"><ele>780.0</ele><time>2026-04-19T10:54:11.941Z</time></trkpt><trkpt lat="38.7413944" lon="16.4103434"><ele>780.0</ele><time>2026-04-19T10:54:49.952Z</time></trkpt><trkpt lat="38.7413394" lon="16.4103846"><ele>780.0</ele><time>2026-04-19T11:00:05.923Z</time></trkpt><trkpt lat="38.7412858" lon="16.4103411"><ele>780.0</ele><time>2026-04-19T11:01:50.948Z</time></trkpt><trkpt lat="38.7413336" lon="16.4102807"><ele>780.0</ele><time>2026-04-19T11:06:14.931Z</time></trkpt><trkpt lat="38.7412831" lon="16.4103299"><ele>780.0</ele><time>2026-04-19T11:37:08.936Z</time></trkpt><trkpt lat="38.7413648" lon="16.4103104"><ele>780.0</ele><time>2026-04-19T11:49:42.92Z</time></trkpt><trkpt lat="38.7413587" lon="16.4103923"><ele>780.0</ele><time>2026-04-19T11:49:44.959Z</time></trkpt><trkpt lat="38.7413138" lon="16.4104916"><ele>780.0</ele><time>2026-04-19T11:49:47.958Z</time></trkpt><trkpt lat="38.7412629" lon="16.4105422"><ele>780.0</ele><time>2026-04-19T11:49:50.952Z</time></trkpt><trkpt lat="38.7412271" lon="16.410442"><ele>780.0</ele><time>2026-04-19T11:49:55.943Z</time></trkpt><trkpt lat="38.7411977" lon="16.4102878"><ele>780.0</ele><time>2026-04-19T11:49:57.941Z</time></trkpt><trkpt lat="38.7411798" lon="16.4101988"><ele>780.0</ele><time>2026-04-19T11:49:58.937Z</time></trkpt><trkpt lat="38.741155" lon="16.4101043"><ele>780.0</ele><time>2026-04-19T11:49:59.947Z</time></trkpt><trkpt lat="38.7411231" lon="16.410011"><ele>781.1666666666666</ele><time>2026-04-19T11:50:00.944Z</time></trkpt><trkpt lat="38.7410963" lon="16.4099324"><ele>782.3333333333333</ele><time>2026-04-19T11:50:01.951Z</time></trkpt><trkpt lat="38.7410587" lon="16.4097949"><ele>783.5</ele><time>2026-04-19T11:50:03.95Z</time></trkpt><trkpt lat="38.7410391" lon="16.4096958"><ele>784.6666666666666</ele><time>2026-04-19T11:50:05.948Z</time></trkpt><trkpt lat="38.7410436" lon="16.4095755"><ele>785.8333333333333</ele><time>2026-04-19T11:50:08.941Z</time></trkpt><trkpt lat="38.7410595" lon="16.4094958"><ele>787.0</ele><time>2026-04-19T11:50:10.945Z</time></trkpt><trkpt lat="38.7410915" lon="16.4093949"><ele>788.9999999999999</ele><time>2026-04-19T11:50:13.944Z</time></trkpt><trkpt lat="38.741128" lon="16.4093146"><ele>791.0</ele><time>2026-04-19T11:50:15.946Z</time></trkpt><trkpt lat="38.7411771" lon="16.4092218"><ele>793.0</ele><time>2026-04-19T11:50:17.944Z</time></trkpt><trkpt lat="38.7412318" lon="16.4091358"><ele>795.0</ele><time>2026-04-19T11:50:19.947Z</time></trkpt><trkpt lat="38.7412673" lon="16.4090566"><ele>796.9999999999999</ele><time>2026-04-19T11:50:21.945Z</time></trkpt><trkpt lat="38.7412883" lon="16.408974"><ele>799.0</ele><time>2026-04-19T11:50:23.943Z</time></trkpt><trkpt lat="38.741263" lon="16.4088764"><ele>800.1666666666666</ele><time>2026-04-19T11:50:41.942Z</time></trkpt><trkpt lat="38.741233" lon="16.4087685"><ele>801.3333333333333</ele><time>2026-04-19T11:50:44.944Z</time></trkpt><trkpt lat="38.7411997" lon="16.4086812"><ele>802.5</ele><time>2026-04-19T11:50:49.954Z</time></trkpt><trkpt lat="38.7411691" lon="16.4085828"><ele>803.6666666666667</ele><time>2026-04-19T11:50:52.94Z</time></trkpt><trkpt lat="38.7411461" lon="16.4085073"><ele>804.8333333333334</ele><time>2026-04-19T11:50:55.946Z</time></trkpt><trkpt lat="38.741124" lon="16.4084179"><ele>806.0</ele><time>2026-04-19T11:51:02.958Z</time></trkpt><trkpt lat="38.7410896" lon="16.4083218"><ele>806.0000000000001</ele><time>2026-04-19T11:51:05.948Z</time></trkpt><trkpt lat="38.7410648" lon="16.4082067"><ele>806.0</ele><time>2026-04-19T11:51:09.944Z</time></trkpt><trkpt lat="38.7410541" lon="16.4081071"><ele>806.0</ele><time>2026-04-19T11:51:11.954Z</time></trkpt><trkpt lat="38.741034" lon="16.4080202"><ele>806.0</ele><time>2026-04-19T11:51:14.943Z</time></trkpt><trkpt lat="38.7410049" lon="16.4079223"><ele>806.0000000000001</ele><time>2026-04-19T11:51:18.942Z</time></trkpt><trkpt lat="38.7409774" lon="16.4078435"><ele>806.0</ele><time>2026-04-19T11:51:22.945Z</time></trkpt><trkpt lat="38.7409548" lon="16.4077559"><ele>805.8571428571429</ele><time>2026-04-19T11:51:27.945Z</time></trkpt><trkpt lat="38.7409316" lon="16.4076667"><ele>805.7142857142857</ele><time>2026-04-19T11:51:33.942Z</time></trkpt><trkpt lat="38.7409099" lon="16.4075883"><ele>805.5714285714286</ele><time>2026-04-19T11:51:39.94Z</time></trkpt><trkpt lat="38.740885" lon="16.4074992"><ele>805.4285714285714</ele><time>2026-04-19T11:51:47.948Z</time></trkpt><trkpt lat="38.7408674" lon="16.4073982"><ele>805.2857142857142</ele><time>2026-04-19T11:51:51.945Z</time></trkpt><trkpt lat="38.7408548" lon="16.4073117"><ele>805.1428571428571</ele><time>2026-04-19T11:51:54.943Z</time></trkpt><trkpt lat="38.740836" lon="16.4072321"><ele>805.0</ele><time>2026-04-19T11:51:58.942Z</time></trkpt><trkpt lat="38.7408181" lon="16.4071493"><ele>804.9999999999999</ele><time>2026-04-19T11:52:01.938Z</time></trkpt><trkpt lat="38.7408055" lon="16.4070497"><ele>805.0</ele><time>2026-04-19T11:52:06.95Z</time></trkpt><trkpt lat="38.7407925" lon="16.406965"><ele>805.0</ele><time>2026-04-19T11:52:12.943Z</time></trkpt><trkpt lat="38.7407688" lon="16.4068462"><ele>805.0</ele><time>2026-04-19T11:52:18.946Z</time></trkpt><trkpt lat="38.740748" lon="16.4067577"><ele>804.9999999999999</ele><time>2026-04-19T11:52:21.944Z</time></trkpt><trkpt lat="38.7407231" lon="16.406669"><ele>805.0</ele><time>2026-04-19T11:52:24.947Z</time></trkpt><trkpt lat="38.7406973" lon="16.4065761"><ele>804.9999999999999</ele><time>2026-04-19T11:52:27.946Z</time></trkpt><trkpt lat="38.7406734" lon="16.4064848"><ele>805.0</ele><time>2026-04-19T11:52:30.939Z</time></trkpt><trkpt lat="38.7406511" lon="16.4064023"><ele>805.0</ele><time>2026-04-19T11:52:34.942Z</time></trkpt><trkpt lat="38.7406244" lon="16.4062993"><ele>805.0</ele><time>2026-04-19T11:52:37.948Z</time></trkpt><trkpt lat="38.7405901" lon="16.4061766"><ele>804.9999999999999</ele><time>2026-04-19T11:52:39.94Z</time></trkpt><trkpt lat="38.7405643" lon="16.4060927"><ele>805.0</ele><time>2026-04-19T11:52:40.942Z</time></trkpt><trkpt lat="38.7405302" lon="16.4059832"><ele>805.6666666666666</ele><time>2026-04-19T11:52:41.942Z</time></trkpt><trkpt lat="38.7405023" lon="16.4058741"><ele>806.3333333333333</ele><time>2026-04-19T11:52:42.942Z</time></trkpt><trkpt lat="38.7404777" lon="16.4057736"><ele>807.0</ele><time>2026-04-19T11:52:43.945Z</time></trkpt><trkpt lat="38.7404524" lon="16.4056625"><ele>807.6666666666667</ele><time>2026-04-19T11:52:44.949Z</time></trkpt><trkpt lat="38.7404299" lon="16.405571"><ele>808.3333333333334</ele><time>2026-04-19T11:52:45.946Z</time></trkpt><trkpt lat="38.7404011" lon="16.4054683"><ele>809.0</ele><time>2026-04-19T11:52:46.938Z</time></trkpt><trkpt lat="38.74038" lon="16.4053704"><ele>809.1666666666667</ele><time>2026-04-19T11:52:47.945Z</time></trkpt><trkpt lat="38.7403546" lon="16.4052804"><ele>809.3333333333334</ele><time>2026-04-19T11:52:48.939Z</time></trkpt><trkpt lat="38.7403274" lon="16.4051541"><ele>809.5</ele><time>2026-04-19T11:52:50.943Z</time></trkpt><trkpt lat="38.7403156" lon="16.4050329"><ele>809.6666666666667</ele><time>2026-04-19T11:52:52.947Z</time></trkpt><trkpt lat="38.7403269" lon="16.4049433"><ele>809.8333333333334</ele><time>2026-04-19T11:52:54.942Z</time></trkpt><trkpt lat="38.7403535" lon="16.4048322"><ele>810.0</ele><time>2026-04-19T11:52:56.945Z</time></trkpt><trkpt lat="38.740396" lon="16.4046731"><ele>809.6666666666666</ele><time>2026-04-19T11:52:58.944Z</time></trkpt><trkpt lat="38.740439" lon="16.4045164"><ele>809.3333333333333</ele><time>2026-04-19T11:53:00.947Z</time></trkpt><trkpt lat="38.7404657" lon="16.4044355"><ele>809.0</ele><time>2026-04-19T11:53:01.952Z</time></trkpt><trkpt lat="38.7405017" lon="16.4043403"><ele>808.6666666666666</ele><time>2026-04-19T11:53:02.943Z</time></trkpt><trkpt lat="38.7405351" lon="16.4042436"><ele>808.3333333333333</ele><time>2026-04-19T11:53:03.935Z</time></trkpt><trkpt lat="38.7405664" lon="16.4041462"><ele>808.0</ele><time>2026-04-19T11:53:04.939Z</time></trkpt><trkpt lat="38.7405961" lon="16.4040516"><ele>808.0</ele><time>2026-04-19T11:53:05.933Z</time></trkpt><trkpt lat="38.7406266" lon="16.4039665"><ele>808.0</ele><time>2026-04-19T11:53:06.937Z</time></trkpt><trkpt lat="38.7406546" lon="16.4038865"><ele>808.0</ele><time>2026-04-19T11:53:07.945Z</time></trkpt><trkpt lat="38.7407056" lon="16.4037472"><ele>808.0</ele><time>2026-04-19T11:53:09.942Z</time></trkpt><trkpt lat="38.7407572" lon="16.4036029"><ele>808.0</ele><time>2026-04-19T11:53:11.937Z</time></trkpt><trkpt lat="38.7407874" lon="16.4035203"><ele>807.6666666666666</ele><time>2026-04-19T11:53:12.945Z</time></trkpt><trkpt lat="38.740823" lon="16.4034409"><ele>807.3333333333333</ele><time>2026-04-19T11:53:13.947Z</time></trkpt><trkpt lat="38.7408627" lon="16.4033524"><ele>807.0</ele><time>2026-04-19T11:53:14.943Z</time></trkpt><trkpt lat="38.7408953" lon="16.4032417"><ele>806.6666666666667</ele><time>2026-04-19T11:53:15.945Z</time></trkpt><trkpt lat="38.7409395" lon="16.403126"><ele>806.3333333333334</ele><time>2026-04-19T11:53:16.942Z</time></trkpt><trkpt lat="38.7409802" lon="16.4030047"><ele>806.0</ele><time>2026-04-19T11:53:17.939Z</time></trkpt><trkpt lat="38.7410172" lon="16.402893"><ele>805.8571428571429</ele><time>2026-04-19T11:53:18.954Z</time></trkpt><trkpt lat="38.7410435" lon="16.4028008"><ele>805.7142857142857</ele><time>2026-04-19T11:53:19.95Z</time></trkpt><trkpt lat="38.7410754" lon="16.4027112"><ele>805.5714285714286</ele><time>2026-04-19T11:53:20.942Z</time></trkpt><trkpt lat="38.7411036" lon="16.4026341"><ele>805.4285714285714</ele><time>2026-04-19T11:53:21.941Z</time></trkpt><trkpt lat="38.7411333" lon="16.4025627"><ele>805.2857142857142</ele><time>2026-04-19T11:53:22.937Z</time></trkpt><trkpt lat="38.7411679" lon="16.4024765"><ele>805.1428571428571</ele><time>2026-04-19T11:53:23.937Z</time></trkpt><trkpt lat="38.741203" lon="16.4023874"><ele>805.0</ele><time>2026-04-19T11:53:24.945Z</time></trkpt><trkpt lat="38.7412408" lon="16.4022998"><ele>806.9999999999999</ele><time>2026-04-19T11:53:25.941Z</time></trkpt><trkpt lat="38.7412741" lon="16.4021925"><ele>809.0</ele><time>2026-04-19T11:53:26.941Z</time></trkpt><trkpt lat="38.7413116" lon="16.4020714"><ele>811.0</ele><time>2026-04-19T11:53:27.94Z</time></trkpt><trkpt lat="38.7413517" lon="16.4019488"><ele>813.0</ele><time>2026-04-19T11:53:28.937Z</time></trkpt><trkpt lat="38.7413882" lon="16.4018465"><ele>814.9999999999999</ele><time>2026-04-19T11:53:29.933Z</time></trkpt><trkpt lat="38.7414177" lon="16.4017735"><ele>817.0</ele><time>2026-04-19T11:53:30.934Z</time></trkpt><trkpt lat="38.7414779" lon="16.4016775"><ele>816.9999999999999</ele><time>2026-04-19T11:53:32.942Z</time></trkpt><trkpt lat="38.7415666" lon="16.4016011"><ele>817.0</ele><time>2026-04-19T11:53:34.952Z</time></trkpt><trkpt lat="38.7416193" lon="16.4015476"><ele>817.0</ele><time>2026-04-19T11:53:35.941Z</time></trkpt><trkpt lat="38.7416735" lon="16.4014885"><ele>817.0</ele><time>2026-04-19T11:53:36.956Z</time></trkpt><trkpt lat="38.741724" lon="16.4014371"><ele>817.0</ele><time>2026-04-19T11:53:37.952Z</time></trkpt><trkpt lat="38.7417783" lon="16.4013779"><ele>816.9999999999999</ele><time>2026-04-19T11:53:38.969Z</time></trkpt><trkpt lat="38.741823" lon="16.4013181"><ele>817.0</ele><time>2026-04-19T11:53:39.939Z</time></trkpt><trkpt lat="38.7418696" lon="16.4012431"><ele>815.0</ele><time>2026-04-19T11:53:40.936Z</time></trkpt><trkpt lat="38.7419094" lon="16.4011666"><ele>836.0</ele><time>2026-04-19T11:53:41.939Z</time></trkpt><trkpt lat="38.7419468" lon="16.40108"><ele>836.0</ele><time>2026-04-19T11:53:42.939Z</time></trkpt><trkpt lat="38.7419653" lon="16.4009055"><ele>836.0</ele><time>2026-04-19T11:53:44.939Z</time></trkpt><trkpt lat="38.7419559" lon="16.4008106"><ele>836.0</ele><time>2026-04-19T11:53:45.936Z</time></trkpt></trkseg></trk></gpx>